<?xml version="1.0" encoding="UTF-8" standalone="no" ?>
<gpx xmlns="http://www.topografix.com/GPX/1/1" xmlns:xsi="http://www.w3.org/2001/XMLSchema-instance" xsi:schemaLocation="http://www.topografix.com/GPX/1/1 http://www.topografix.com/GPX/1/1/gpx.xsd" version="1.1" creator="VisuGPX - https://www.visugpx.com">
  <metadata>
    <name>Pornichet 14/06/2020</name>
    <desc><![CDATA[Sortie VTT du dimanche 14 juin 2020]]></desc>
  </metadata>
  <trk>
    <name><![CDATA[Pornichet Cyclisme]]></name>
    <trkseg>
      <trkpt lat="47.26417" lon="-2.31548">
        <ele>3</ele>
        <time>2020-06-14T06:57:33.000Z</time>
      </trkpt>
      <trkpt lat="47.26417" lon="-2.31548">
        <ele>3</ele>
        <time>2020-06-14T06:57:34.000Z</time>
      </trkpt>
      <trkpt lat="47.26415" lon="-2.3155">
        <ele>3.5999999046326</ele>
        <time>2020-06-14T06:57:52.000Z</time>
      </trkpt>
      <trkpt lat="47.2641" lon="-2.31556">
        <ele>3.5999999046326</ele>
        <time>2020-06-14T06:57:54.000Z</time>
      </trkpt>
      <trkpt lat="47.26407" lon="-2.31568">
        <ele>3.5999999046326</ele>
        <time>2020-06-14T06:57:57.000Z</time>
      </trkpt>
      <trkpt lat="47.26407" lon="-2.31572">
        <ele>3.5999999046326</ele>
        <time>2020-06-14T06:57:58.000Z</time>
      </trkpt>
      <trkpt lat="47.26408" lon="-2.31604">
        <ele>3.5999999046326</ele>
        <time>2020-06-14T06:58:05.000Z</time>
      </trkpt>
      <trkpt lat="47.26411" lon="-2.31651">
        <ele>3.5999999046326</ele>
        <time>2020-06-14T06:58:13.000Z</time>
      </trkpt>
      <trkpt lat="47.26408" lon="-2.31663">
        <ele>3</ele>
        <time>2020-06-14T06:58:16.000Z</time>
      </trkpt>
      <trkpt lat="47.26404" lon="-2.31665">
        <ele>2.5999999046326</ele>
        <time>2020-06-14T06:58:17.000Z</time>
      </trkpt>
      <trkpt lat="47.264" lon="-2.31667">
        <ele>2</ele>
        <time>2020-06-14T06:58:18.000Z</time>
      </trkpt>
      <trkpt lat="47.26395" lon="-2.31669">
        <ele>1.6000000238419</ele>
        <time>2020-06-14T06:58:19.000Z</time>
      </trkpt>
      <trkpt lat="47.26391" lon="-2.31672">
        <ele>1</ele>
        <time>2020-06-14T06:58:20.000Z</time>
      </trkpt>
      <trkpt lat="47.26377" lon="-2.3168">
        <ele>1</ele>
        <time>2020-06-14T06:58:23.000Z</time>
      </trkpt>
      <trkpt lat="47.26341" lon="-2.317">
        <ele>1</ele>
        <time>2020-06-14T06:58:30.000Z</time>
      </trkpt>
      <trkpt lat="47.26329" lon="-2.31705">
        <ele>0.60000002384186</ele>
        <time>2020-06-14T06:58:33.000Z</time>
      </trkpt>
      <trkpt lat="47.26326" lon="-2.31708">
        <ele>0.20000000298023</ele>
        <time>2020-06-14T06:58:34.000Z</time>
      </trkpt>
      <trkpt lat="47.26322" lon="-2.3171">
        <ele>-0.20000000298023</ele>
        <time>2020-06-14T06:58:35.000Z</time>
      </trkpt>
      <trkpt lat="47.26319" lon="-2.31712">
        <ele>-0.60000002384186</ele>
        <time>2020-06-14T06:58:36.000Z</time>
      </trkpt>
      <trkpt lat="47.26315" lon="-2.31713">
        <ele>-1.2000000476837</ele>
        <time>2020-06-14T06:58:37.000Z</time>
      </trkpt>
      <trkpt lat="47.26304" lon="-2.31721">
        <ele>-1.2000000476837</ele>
        <time>2020-06-14T06:58:40.000Z</time>
      </trkpt>
      <trkpt lat="47.26303" lon="-2.31737">
        <ele>-1.2000000476837</ele>
        <time>2020-06-14T06:58:43.000Z</time>
      </trkpt>
      <trkpt lat="47.26305" lon="-2.31743">
        <ele>-1.2000000476837</ele>
        <time>2020-06-14T06:58:44.000Z</time>
      </trkpt>
      <trkpt lat="47.26311" lon="-2.3177">
        <ele>-1.2000000476837</ele>
        <time>2020-06-14T06:58:49.000Z</time>
      </trkpt>
      <trkpt lat="47.26317" lon="-2.31804">
        <ele>-1.2000000476837</ele>
        <time>2020-06-14T06:58:55.000Z</time>
      </trkpt>
      <trkpt lat="47.26316" lon="-2.3185">
        <ele>-1.2000000476837</ele>
        <time>2020-06-14T06:59:02.000Z</time>
      </trkpt>
      <trkpt lat="47.26313" lon="-2.31872">
        <ele>-1.6000000238419</ele>
        <time>2020-06-14T06:59:06.000Z</time>
      </trkpt>
      <trkpt lat="47.26311" lon="-2.31876">
        <ele>-2</ele>
        <time>2020-06-14T06:59:07.000Z</time>
      </trkpt>
      <trkpt lat="47.26307" lon="-2.3188">
        <ele>-2.4000000953674</ele>
        <time>2020-06-14T06:59:08.000Z</time>
      </trkpt>
      <trkpt lat="47.26305" lon="-2.31883">
        <ele>-2.7999999523163</ele>
        <time>2020-06-14T06:59:09.000Z</time>
      </trkpt>
      <trkpt lat="47.26299" lon="-2.31887">
        <ele>-3.2000000476837</ele>
        <time>2020-06-14T06:59:10.000Z</time>
      </trkpt>
      <trkpt lat="47.26281" lon="-2.31902">
        <ele>-3.2000000476837</ele>
        <time>2020-06-14T06:59:14.000Z</time>
      </trkpt>
      <trkpt lat="47.26269" lon="-2.3192">
        <ele>-3.2000000476837</ele>
        <time>2020-06-14T06:59:19.000Z</time>
      </trkpt>
      <trkpt lat="47.26255" lon="-2.3195">
        <ele>-3.2000000476837</ele>
        <time>2020-06-14T06:59:25.000Z</time>
      </trkpt>
      <trkpt lat="47.26248" lon="-2.31963">
        <ele>-3.2000000476837</ele>
        <time>2020-06-14T06:59:28.000Z</time>
      </trkpt>
      <trkpt lat="47.26242" lon="-2.31965">
        <ele>-3.2000000476837</ele>
        <time>2020-06-14T06:59:30.000Z</time>
      </trkpt>
      <trkpt lat="47.26225" lon="-2.31977">
        <ele>-3.2000000476837</ele>
        <time>2020-06-14T06:59:36.000Z</time>
      </trkpt>
      <trkpt lat="47.26217" lon="-2.31987">
        <ele>-3.2000000476837</ele>
        <time>2020-06-14T06:59:39.000Z</time>
      </trkpt>
      <trkpt lat="47.26207" lon="-2.31995">
        <ele>-3.2000000476837</ele>
        <time>2020-06-14T06:59:42.000Z</time>
      </trkpt>
      <trkpt lat="47.26204" lon="-2.32">
        <ele>-3.2000000476837</ele>
        <time>2020-06-14T06:59:44.000Z</time>
      </trkpt>
      <trkpt lat="47.26204" lon="-2.32007">
        <ele>-3.2000000476837</ele>
        <time>2020-06-14T06:59:46.000Z</time>
      </trkpt>
      <trkpt lat="47.26196" lon="-2.3202">
        <ele>-3.2000000476837</ele>
        <time>2020-06-14T06:59:51.000Z</time>
      </trkpt>
      <trkpt lat="47.2619" lon="-2.3202">
        <ele>-3.2000000476837</ele>
        <time>2020-06-14T06:59:53.000Z</time>
      </trkpt>
      <trkpt lat="47.2618" lon="-2.32023">
        <ele>-3.2000000476837</ele>
        <time>2020-06-14T06:59:56.000Z</time>
      </trkpt>
      <trkpt lat="47.26163" lon="-2.32031">
        <ele>-3.2000000476837</ele>
        <time>2020-06-14T07:00:00.000Z</time>
      </trkpt>
      <trkpt lat="47.2616" lon="-2.32036">
        <ele>-3.2000000476837</ele>
        <time>2020-06-14T07:00:01.000Z</time>
      </trkpt>
      <trkpt lat="47.26149" lon="-2.32061">
        <ele>-3.2000000476837</ele>
        <time>2020-06-14T07:00:05.000Z</time>
      </trkpt>
      <trkpt lat="47.26146" lon="-2.32073">
        <ele>-3.2000000476837</ele>
        <time>2020-06-14T07:00:07.000Z</time>
      </trkpt>
      <trkpt lat="47.26135" lon="-2.32116">
        <ele>-3.2000000476837</ele>
        <time>2020-06-14T07:00:14.000Z</time>
      </trkpt>
      <trkpt lat="47.26121" lon="-2.32159">
        <ele>-3.2000000476837</ele>
        <time>2020-06-14T07:00:21.000Z</time>
      </trkpt>
      <trkpt lat="47.26103" lon="-2.32199">
        <ele>-3.2000000476837</ele>
        <time>2020-06-14T07:00:28.000Z</time>
      </trkpt>
      <trkpt lat="47.26092" lon="-2.3222">
        <ele>-3.2000000476837</ele>
        <time>2020-06-14T07:00:32.000Z</time>
      </trkpt>
      <trkpt lat="47.26085" lon="-2.3223">
        <ele>-3.2000000476837</ele>
        <time>2020-06-14T07:00:34.000Z</time>
      </trkpt>
      <trkpt lat="47.26064" lon="-2.32256">
        <ele>-3.2000000476837</ele>
        <time>2020-06-14T07:00:40.000Z</time>
      </trkpt>
      <trkpt lat="47.26026" lon="-2.32297">
        <ele>-3.2000000476837</ele>
        <time>2020-06-14T07:00:50.000Z</time>
      </trkpt>
      <trkpt lat="47.25995" lon="-2.32337">
        <ele>-3.2000000476837</ele>
        <time>2020-06-14T07:00:59.000Z</time>
      </trkpt>
      <trkpt lat="47.25964" lon="-2.32378">
        <ele>-3.2000000476837</ele>
        <time>2020-06-14T07:01:08.000Z</time>
      </trkpt>
      <trkpt lat="47.25941" lon="-2.32408">
        <ele>-3.2000000476837</ele>
        <time>2020-06-14T07:01:15.000Z</time>
      </trkpt>
      <trkpt lat="47.25917" lon="-2.32439">
        <ele>-3.2000000476837</ele>
        <time>2020-06-14T07:01:22.000Z</time>
      </trkpt>
      <trkpt lat="47.259" lon="-2.32462">
        <ele>-3.2000000476837</ele>
        <time>2020-06-14T07:01:28.000Z</time>
      </trkpt>
      <trkpt lat="47.25882" lon="-2.32474">
        <ele>-3.2000000476837</ele>
        <time>2020-06-14T07:01:33.000Z</time>
      </trkpt>
      <trkpt lat="47.25864" lon="-2.32476">
        <ele>-3.2000000476837</ele>
        <time>2020-06-14T07:01:37.000Z</time>
      </trkpt>
      <trkpt lat="47.2586" lon="-2.32477">
        <ele>-3.2000000476837</ele>
        <time>2020-06-14T07:01:38.000Z</time>
      </trkpt>
      <trkpt lat="47.25837" lon="-2.32473">
        <ele>-3.2000000476837</ele>
        <time>2020-06-14T07:01:43.000Z</time>
      </trkpt>
      <trkpt lat="47.25833" lon="-2.32472">
        <ele>-3.2000000476837</ele>
        <time>2020-06-14T07:01:44.000Z</time>
      </trkpt>
      <trkpt lat="47.25803" lon="-2.32458">
        <ele>-3.2000000476837</ele>
        <time>2020-06-14T07:01:51.000Z</time>
      </trkpt>
      <trkpt lat="47.25788" lon="-2.3246">
        <ele>-3.2000000476837</ele>
        <time>2020-06-14T07:01:55.000Z</time>
      </trkpt>
      <trkpt lat="47.25781" lon="-2.32456">
        <ele>-3.2000000476837</ele>
        <time>2020-06-14T07:01:57.000Z</time>
      </trkpt>
      <trkpt lat="47.25778" lon="-2.32452">
        <ele>-3.2000000476837</ele>
        <time>2020-06-14T07:01:58.000Z</time>
      </trkpt>
      <trkpt lat="47.25771" lon="-2.32437">
        <ele>-3.2000000476837</ele>
        <time>2020-06-14T07:02:01.000Z</time>
      </trkpt>
      <trkpt lat="47.25765" lon="-2.3243">
        <ele>-3.2000000476837</ele>
        <time>2020-06-14T07:02:03.000Z</time>
      </trkpt>
      <trkpt lat="47.2575" lon="-2.32428">
        <ele>-3.2000000476837</ele>
        <time>2020-06-14T07:02:06.000Z</time>
      </trkpt>
      <trkpt lat="47.25745" lon="-2.32428">
        <ele>-3.2000000476837</ele>
        <time>2020-06-14T07:02:07.000Z</time>
      </trkpt>
      <trkpt lat="47.25725" lon="-2.32427">
        <ele>-2.7999999523163</ele>
        <time>2020-06-14T07:02:11.000Z</time>
      </trkpt>
      <trkpt lat="47.2572" lon="-2.32427">
        <ele>-2.4000000953674</ele>
        <time>2020-06-14T07:02:12.000Z</time>
      </trkpt>
      <trkpt lat="47.25715" lon="-2.32427">
        <ele>-2</ele>
        <time>2020-06-14T07:02:13.000Z</time>
      </trkpt>
      <trkpt lat="47.25711" lon="-2.32427">
        <ele>-1.6000000238419</ele>
        <time>2020-06-14T07:02:14.000Z</time>
      </trkpt>
      <trkpt lat="47.25706" lon="-2.32427">
        <ele>-1.2000000476837</ele>
        <time>2020-06-14T07:02:15.000Z</time>
      </trkpt>
      <trkpt lat="47.2568" lon="-2.32425">
        <ele>-1.2000000476837</ele>
        <time>2020-06-14T07:02:21.000Z</time>
      </trkpt>
      <trkpt lat="47.25668" lon="-2.32424">
        <ele>-1.2000000476837</ele>
        <time>2020-06-14T07:02:24.000Z</time>
      </trkpt>
      <trkpt lat="47.25662" lon="-2.32432">
        <ele>-1.2000000476837</ele>
        <time>2020-06-14T07:02:26.000Z</time>
      </trkpt>
      <trkpt lat="47.25662" lon="-2.32451">
        <ele>-1.2000000476837</ele>
        <time>2020-06-14T07:02:29.000Z</time>
      </trkpt>
      <trkpt lat="47.25671" lon="-2.3248">
        <ele>-1.2000000476837</ele>
        <time>2020-06-14T07:02:34.000Z</time>
      </trkpt>
      <trkpt lat="47.25686" lon="-2.3252">
        <ele>-1.2000000476837</ele>
        <time>2020-06-14T07:02:41.000Z</time>
      </trkpt>
      <trkpt lat="47.25695" lon="-2.32548">
        <ele>-0.80000001192093</ele>
        <time>2020-06-14T07:02:46.000Z</time>
      </trkpt>
      <trkpt lat="47.25697" lon="-2.32553">
        <ele>-0.40000000596046</ele>
        <time>2020-06-14T07:02:47.000Z</time>
      </trkpt>
      <trkpt lat="47.25699" lon="-2.32558">
        <ele>0.20000000298023</ele>
        <time>2020-06-14T07:02:48.000Z</time>
      </trkpt>
      <trkpt lat="47.257" lon="-2.32564">
        <ele>0.60000002384186</ele>
        <time>2020-06-14T07:02:49.000Z</time>
      </trkpt>
      <trkpt lat="47.25702" lon="-2.32569">
        <ele>1</ele>
        <time>2020-06-14T07:02:50.000Z</time>
      </trkpt>
      <trkpt lat="47.25711" lon="-2.32614">
        <ele>1</ele>
        <time>2020-06-14T07:02:58.000Z</time>
      </trkpt>
      <trkpt lat="47.25702" lon="-2.32627">
        <ele>1</ele>
        <time>2020-06-14T07:03:01.000Z</time>
      </trkpt>
      <trkpt lat="47.2569" lon="-2.32633">
        <ele>1.3999999761581</ele>
        <time>2020-06-14T07:03:04.000Z</time>
      </trkpt>
      <trkpt lat="47.25686" lon="-2.32634">
        <ele>1.7999999523163</ele>
        <time>2020-06-14T07:03:05.000Z</time>
      </trkpt>
      <trkpt lat="47.25682" lon="-2.32636">
        <ele>2.2000000476837</ele>
        <time>2020-06-14T07:03:06.000Z</time>
      </trkpt>
      <trkpt lat="47.25679" lon="-2.32637">
        <ele>2.5999999046326</ele>
        <time>2020-06-14T07:03:07.000Z</time>
      </trkpt>
      <trkpt lat="47.25675" lon="-2.32638">
        <ele>3</ele>
        <time>2020-06-14T07:03:08.000Z</time>
      </trkpt>
      <trkpt lat="47.25653" lon="-2.32649">
        <ele>3</ele>
        <time>2020-06-14T07:03:14.000Z</time>
      </trkpt>
      <trkpt lat="47.25645" lon="-2.32653">
        <ele>3.4000000953674</ele>
        <time>2020-06-14T07:03:16.000Z</time>
      </trkpt>
      <trkpt lat="47.25642" lon="-2.32654">
        <ele>3.7999999523163</ele>
        <time>2020-06-14T07:03:17.000Z</time>
      </trkpt>
      <trkpt lat="47.25638" lon="-2.32656">
        <ele>4.1999998092651</ele>
        <time>2020-06-14T07:03:18.000Z</time>
      </trkpt>
      <trkpt lat="47.25634" lon="-2.32658">
        <ele>4.8000001907349</ele>
        <time>2020-06-14T07:03:19.000Z</time>
      </trkpt>
      <trkpt lat="47.25631" lon="-2.32659">
        <ele>5.1999998092651</ele>
        <time>2020-06-14T07:03:20.000Z</time>
      </trkpt>
      <trkpt lat="47.2562" lon="-2.32664">
        <ele>5.1999998092651</ele>
        <time>2020-06-14T07:03:23.000Z</time>
      </trkpt>
      <trkpt lat="47.25593" lon="-2.32674">
        <ele>5.1999998092651</ele>
        <time>2020-06-14T07:03:30.000Z</time>
      </trkpt>
      <trkpt lat="47.25559" lon="-2.32687">
        <ele>5.1999998092651</ele>
        <time>2020-06-14T07:03:38.000Z</time>
      </trkpt>
      <trkpt lat="47.25556" lon="-2.32689">
        <ele>5.1999998092651</ele>
        <time>2020-06-14T07:03:39.000Z</time>
      </trkpt>
      <trkpt lat="47.2553" lon="-2.32699">
        <ele>5.1999998092651</ele>
        <time>2020-06-14T07:03:45.000Z</time>
      </trkpt>
      <trkpt lat="47.25516" lon="-2.32703">
        <ele>5.1999998092651</ele>
        <time>2020-06-14T07:03:48.000Z</time>
      </trkpt>
      <trkpt lat="47.25498" lon="-2.32703">
        <ele>5.1999998092651</ele>
        <time>2020-06-14T07:03:52.000Z</time>
      </trkpt>
      <trkpt lat="47.2549" lon="-2.32705">
        <ele>5.1999998092651</ele>
        <time>2020-06-14T07:03:54.000Z</time>
      </trkpt>
      <trkpt lat="47.25474" lon="-2.32718">
        <ele>5.1999998092651</ele>
        <time>2020-06-14T07:03:58.000Z</time>
      </trkpt>
      <trkpt lat="47.25471" lon="-2.32722">
        <ele>5.1999998092651</ele>
        <time>2020-06-14T07:03:59.000Z</time>
      </trkpt>
      <trkpt lat="47.25445" lon="-2.32757">
        <ele>5.1999998092651</ele>
        <time>2020-06-14T07:04:07.000Z</time>
      </trkpt>
      <trkpt lat="47.25437" lon="-2.32773">
        <ele>5.1999998092651</ele>
        <time>2020-06-14T07:04:10.000Z</time>
      </trkpt>
      <trkpt lat="47.25434" lon="-2.32785">
        <ele>5.1999998092651</ele>
        <time>2020-06-14T07:04:12.000Z</time>
      </trkpt>
      <trkpt lat="47.25424" lon="-2.32798">
        <ele>5.1999998092651</ele>
        <time>2020-06-14T07:04:15.000Z</time>
      </trkpt>
      <trkpt lat="47.2542" lon="-2.32803">
        <ele>5.1999998092651</ele>
        <time>2020-06-14T07:04:16.000Z</time>
      </trkpt>
      <trkpt lat="47.25398" lon="-2.32835">
        <ele>5.1999998092651</ele>
        <time>2020-06-14T07:04:22.000Z</time>
      </trkpt>
      <trkpt lat="47.25371" lon="-2.32864">
        <ele>5.1999998092651</ele>
        <time>2020-06-14T07:04:29.000Z</time>
      </trkpt>
      <trkpt lat="47.2536" lon="-2.32875">
        <ele>4.8000001907349</ele>
        <time>2020-06-14T07:04:32.000Z</time>
      </trkpt>
      <trkpt lat="47.25356" lon="-2.32879">
        <ele>4.4000000953674</ele>
        <time>2020-06-14T07:04:33.000Z</time>
      </trkpt>
      <trkpt lat="47.25352" lon="-2.32884">
        <ele>4</ele>
        <time>2020-06-14T07:04:34.000Z</time>
      </trkpt>
      <trkpt lat="47.25349" lon="-2.32887">
        <ele>3.5999999046326</ele>
        <time>2020-06-14T07:04:35.000Z</time>
      </trkpt>
      <trkpt lat="47.25345" lon="-2.32891">
        <ele>3.2000000476837</ele>
        <time>2020-06-14T07:04:36.000Z</time>
      </trkpt>
      <trkpt lat="47.25334" lon="-2.32901">
        <ele>3.2000000476837</ele>
        <time>2020-06-14T07:04:39.000Z</time>
      </trkpt>
      <trkpt lat="47.25312" lon="-2.32924">
        <ele>3.2000000476837</ele>
        <time>2020-06-14T07:04:45.000Z</time>
      </trkpt>
      <trkpt lat="47.2531" lon="-2.32929">
        <ele>3.2000000476837</ele>
        <time>2020-06-14T07:04:46.000Z</time>
      </trkpt>
      <trkpt lat="47.25309" lon="-2.32948">
        <ele>3.2000000476837</ele>
        <time>2020-06-14T07:04:49.000Z</time>
      </trkpt>
      <trkpt lat="47.25311" lon="-2.32961">
        <ele>3.2000000476837</ele>
        <time>2020-06-14T07:04:51.000Z</time>
      </trkpt>
      <trkpt lat="47.25313" lon="-2.32967">
        <ele>3.2000000476837</ele>
        <time>2020-06-14T07:04:52.000Z</time>
      </trkpt>
      <trkpt lat="47.25318" lon="-2.32978">
        <ele>3.2000000476837</ele>
        <time>2020-06-14T07:04:54.000Z</time>
      </trkpt>
      <trkpt lat="47.25338" lon="-2.33025">
        <ele>3.2000000476837</ele>
        <time>2020-06-14T07:05:02.000Z</time>
      </trkpt>
      <trkpt lat="47.25354" lon="-2.33063">
        <ele>3.2000000476837</ele>
        <time>2020-06-14T07:05:09.000Z</time>
      </trkpt>
      <trkpt lat="47.25359" lon="-2.3308">
        <ele>2.7999999523163</ele>
        <time>2020-06-14T07:05:14.000Z</time>
      </trkpt>
      <trkpt lat="47.2536" lon="-2.33082">
        <ele>2.4000000953674</ele>
        <time>2020-06-14T07:05:15.000Z</time>
      </trkpt>
      <trkpt lat="47.25359" lon="-2.33083">
        <ele>1.7999999523163</ele>
        <time>2020-06-14T07:05:16.000Z</time>
      </trkpt>
      <trkpt lat="47.25359" lon="-2.33082">
        <ele>1.3999999761581</ele>
        <time>2020-06-14T07:05:17.000Z</time>
      </trkpt>
      <trkpt lat="47.25363" lon="-2.3308">
        <ele>1</ele>
        <time>2020-06-14T07:05:32.000Z</time>
      </trkpt>
      <trkpt lat="47.25364" lon="-2.3308">
        <ele>1</ele>
        <time>2020-06-14T07:05:34.000Z</time>
      </trkpt>
      <trkpt lat="47.25364" lon="-2.33084">
        <ele>1</ele>
        <time>2020-06-14T07:11:09.000Z</time>
      </trkpt>
      <trkpt lat="47.25364" lon="-2.33086">
        <ele>1</ele>
        <time>2020-06-14T07:11:10.000Z</time>
      </trkpt>
      <trkpt lat="47.2537" lon="-2.33106">
        <ele>1</ele>
        <time>2020-06-14T07:11:16.000Z</time>
      </trkpt>
      <trkpt lat="47.25379" lon="-2.33128">
        <ele>1</ele>
        <time>2020-06-14T07:11:22.000Z</time>
      </trkpt>
      <trkpt lat="47.25384" lon="-2.33138">
        <ele>1</ele>
        <time>2020-06-14T07:11:27.000Z</time>
      </trkpt>
      <trkpt lat="47.25389" lon="-2.33141">
        <ele>1</ele>
        <time>2020-06-14T07:11:31.000Z</time>
      </trkpt>
      <trkpt lat="47.25391" lon="-2.33142">
        <ele>1</ele>
        <time>2020-06-14T07:11:33.000Z</time>
      </trkpt>
      <trkpt lat="47.25394" lon="-2.3314">
        <ele>1</ele>
        <time>2020-06-14T07:11:35.000Z</time>
      </trkpt>
      <trkpt lat="47.25398" lon="-2.33131">
        <ele>1</ele>
        <time>2020-06-14T07:11:38.000Z</time>
      </trkpt>
      <trkpt lat="47.25401" lon="-2.33131">
        <ele>1</ele>
        <time>2020-06-14T07:11:39.000Z</time>
      </trkpt>
      <trkpt lat="47.25408" lon="-2.33127">
        <ele>1</ele>
        <time>2020-06-14T07:11:41.000Z</time>
      </trkpt>
      <trkpt lat="47.25412" lon="-2.33123">
        <ele>1</ele>
        <time>2020-06-14T07:11:42.000Z</time>
      </trkpt>
      <trkpt lat="47.25424" lon="-2.33119">
        <ele>1</ele>
        <time>2020-06-14T07:11:44.000Z</time>
      </trkpt>
      <trkpt lat="47.25436" lon="-2.33115">
        <ele>1</ele>
        <time>2020-06-14T07:11:46.000Z</time>
      </trkpt>
      <trkpt lat="47.25462" lon="-2.33103">
        <ele>1</ele>
        <time>2020-06-14T07:11:50.000Z</time>
      </trkpt>
      <trkpt lat="47.25486" lon="-2.33088">
        <ele>1</ele>
        <time>2020-06-14T07:11:54.000Z</time>
      </trkpt>
      <trkpt lat="47.25494" lon="-2.33078">
        <ele>1</ele>
        <time>2020-06-14T07:11:56.000Z</time>
      </trkpt>
      <trkpt lat="47.25524" lon="-2.33049">
        <ele>1</ele>
        <time>2020-06-14T07:12:02.000Z</time>
      </trkpt>
      <trkpt lat="47.2553" lon="-2.33046">
        <ele>1</ele>
        <time>2020-06-14T07:12:03.000Z</time>
      </trkpt>
      <trkpt lat="47.25547" lon="-2.3304">
        <ele>1</ele>
        <time>2020-06-14T07:12:06.000Z</time>
      </trkpt>
      <trkpt lat="47.25586" lon="-2.33031">
        <ele>1</ele>
        <time>2020-06-14T07:12:13.000Z</time>
      </trkpt>
      <trkpt lat="47.25608" lon="-2.33028">
        <ele>1</ele>
        <time>2020-06-14T07:12:17.000Z</time>
      </trkpt>
      <trkpt lat="47.25613" lon="-2.33024">
        <ele>1.3999999761581</ele>
        <time>2020-06-14T07:12:18.000Z</time>
      </trkpt>
      <trkpt lat="47.25619" lon="-2.33018">
        <ele>1.7999999523163</ele>
        <time>2020-06-14T07:12:19.000Z</time>
      </trkpt>
      <trkpt lat="47.25619" lon="-2.33009">
        <ele>2.2000000476837</ele>
        <time>2020-06-14T07:12:20.000Z</time>
      </trkpt>
      <trkpt lat="47.25618" lon="-2.33">
        <ele>2.5999999046326</ele>
        <time>2020-06-14T07:12:21.000Z</time>
      </trkpt>
      <trkpt lat="47.25617" lon="-2.32992">
        <ele>3</ele>
        <time>2020-06-14T07:12:22.000Z</time>
      </trkpt>
      <trkpt lat="47.25614" lon="-2.32976">
        <ele>3</ele>
        <time>2020-06-14T07:12:24.000Z</time>
      </trkpt>
      <trkpt lat="47.25612" lon="-2.32969">
        <ele>3</ele>
        <time>2020-06-14T07:12:25.000Z</time>
      </trkpt>
      <trkpt lat="47.25606" lon="-2.32938">
        <ele>3.5999999046326</ele>
        <time>2020-06-14T07:12:29.000Z</time>
      </trkpt>
      <trkpt lat="47.25605" lon="-2.32929">
        <ele>4</ele>
        <time>2020-06-14T07:12:30.000Z</time>
      </trkpt>
      <trkpt lat="47.25604" lon="-2.32921">
        <ele>4.4000000953674</ele>
        <time>2020-06-14T07:12:31.000Z</time>
      </trkpt>
      <trkpt lat="47.25603" lon="-2.32913">
        <ele>4.8000001907349</ele>
        <time>2020-06-14T07:12:32.000Z</time>
      </trkpt>
      <trkpt lat="47.25602" lon="-2.32905">
        <ele>5.1999998092651</ele>
        <time>2020-06-14T07:12:33.000Z</time>
      </trkpt>
      <trkpt lat="47.25594" lon="-2.32844">
        <ele>5.1999998092651</ele>
        <time>2020-06-14T07:12:40.000Z</time>
      </trkpt>
      <trkpt lat="47.25592" lon="-2.32828">
        <ele>5.1999998092651</ele>
        <time>2020-06-14T07:12:42.000Z</time>
      </trkpt>
      <trkpt lat="47.25596" lon="-2.32803">
        <ele>5.1999998092651</ele>
        <time>2020-06-14T07:12:45.000Z</time>
      </trkpt>
      <trkpt lat="47.25598" lon="-2.32793">
        <ele>5.1999998092651</ele>
        <time>2020-06-14T07:12:46.000Z</time>
      </trkpt>
      <trkpt lat="47.25601" lon="-2.32751">
        <ele>5.1999998092651</ele>
        <time>2020-06-14T07:12:51.000Z</time>
      </trkpt>
      <trkpt lat="47.25603" lon="-2.3269">
        <ele>5.1999998092651</ele>
        <time>2020-06-14T07:12:58.000Z</time>
      </trkpt>
      <trkpt lat="47.25609" lon="-2.32669">
        <ele>5.1999998092651</ele>
        <time>2020-06-14T07:13:02.000Z</time>
      </trkpt>
      <trkpt lat="47.25626" lon="-2.32655">
        <ele>5.1999998092651</ele>
        <time>2020-06-14T07:13:06.000Z</time>
      </trkpt>
      <trkpt lat="47.25632" lon="-2.32652">
        <ele>5.1999998092651</ele>
        <time>2020-06-14T07:13:07.000Z</time>
      </trkpt>
      <trkpt lat="47.25656" lon="-2.32643">
        <ele>5.1999998092651</ele>
        <time>2020-06-14T07:13:11.000Z</time>
      </trkpt>
      <trkpt lat="47.25704" lon="-2.32622">
        <ele>5.1999998092651</ele>
        <time>2020-06-14T07:13:18.000Z</time>
      </trkpt>
      <trkpt lat="47.25709" lon="-2.32616">
        <ele>5.1999998092651</ele>
        <time>2020-06-14T07:13:19.000Z</time>
      </trkpt>
      <trkpt lat="47.25712" lon="-2.32601">
        <ele>4.8000001907349</ele>
        <time>2020-06-14T07:13:21.000Z</time>
      </trkpt>
      <trkpt lat="47.25711" lon="-2.32593">
        <ele>4.4000000953674</ele>
        <time>2020-06-14T07:13:22.000Z</time>
      </trkpt>
      <trkpt lat="47.25709" lon="-2.32585">
        <ele>3.7999999523163</ele>
        <time>2020-06-14T07:13:23.000Z</time>
      </trkpt>
      <trkpt lat="47.25706" lon="-2.32576">
        <ele>3.4000000953674</ele>
        <time>2020-06-14T07:13:24.000Z</time>
      </trkpt>
      <trkpt lat="47.25703" lon="-2.32567">
        <ele>3</ele>
        <time>2020-06-14T07:13:25.000Z</time>
      </trkpt>
      <trkpt lat="47.25698" lon="-2.3255">
        <ele>3</ele>
        <time>2020-06-14T07:13:27.000Z</time>
      </trkpt>
      <trkpt lat="47.25681" lon="-2.32502">
        <ele>3</ele>
        <time>2020-06-14T07:13:32.000Z</time>
      </trkpt>
      <trkpt lat="47.25668" lon="-2.32464">
        <ele>2.5999999046326</ele>
        <time>2020-06-14T07:13:36.000Z</time>
      </trkpt>
      <trkpt lat="47.25665" lon="-2.32454">
        <ele>2.2000000476837</ele>
        <time>2020-06-14T07:13:37.000Z</time>
      </trkpt>
      <trkpt lat="47.25662" lon="-2.32444">
        <ele>1.7999999523163</ele>
        <time>2020-06-14T07:13:38.000Z</time>
      </trkpt>
      <trkpt lat="47.2566" lon="-2.32434">
        <ele>1.3999999761581</ele>
        <time>2020-06-14T07:13:39.000Z</time>
      </trkpt>
      <trkpt lat="47.25658" lon="-2.32425">
        <ele>1</ele>
        <time>2020-06-14T07:13:40.000Z</time>
      </trkpt>
      <trkpt lat="47.25655" lon="-2.32402">
        <ele>1</ele>
        <time>2020-06-14T07:13:43.000Z</time>
      </trkpt>
      <trkpt lat="47.25659" lon="-2.32399">
        <ele>0.40000000596046</ele>
        <time>2020-06-14T07:13:44.000Z</time>
      </trkpt>
      <trkpt lat="47.25663" lon="-2.32399">
        <ele>5.6</ele>
        <time>2020-06-14T07:13:45.000Z</time>
      </trkpt>
      <trkpt lat="47.25667" lon="-2.32404">
        <ele>-0.40000000596046</ele>
        <time>2020-06-14T07:13:46.000Z</time>
      </trkpt>
      <trkpt lat="47.25671" lon="-2.32411">
        <ele>-0.80000001192093</ele>
        <time>2020-06-14T07:13:47.000Z</time>
      </trkpt>
      <trkpt lat="47.25676" lon="-2.32415">
        <ele>-1.2000000476837</ele>
        <time>2020-06-14T07:13:48.000Z</time>
      </trkpt>
      <trkpt lat="47.25681" lon="-2.32418">
        <ele>-1.2000000476837</ele>
        <time>2020-06-14T07:13:49.000Z</time>
      </trkpt>
      <trkpt lat="47.25687" lon="-2.3242">
        <ele>-1.2000000476837</ele>
        <time>2020-06-14T07:13:50.000Z</time>
      </trkpt>
      <trkpt lat="47.25693" lon="-2.3242">
        <ele>-1.2000000476837</ele>
        <time>2020-06-14T07:13:51.000Z</time>
      </trkpt>
      <trkpt lat="47.2572" lon="-2.32423">
        <ele>-1.2000000476837</ele>
        <time>2020-06-14T07:13:55.000Z</time>
      </trkpt>
      <trkpt lat="47.2576" lon="-2.3242">
        <ele>-1.2000000476837</ele>
        <time>2020-06-14T07:14:01.000Z</time>
      </trkpt>
      <trkpt lat="47.25766" lon="-2.32418">
        <ele>-1.2000000476837</ele>
        <time>2020-06-14T07:14:02.000Z</time>
      </trkpt>
      <trkpt lat="47.25778" lon="-2.32415">
        <ele>-1.2000000476837</ele>
        <time>2020-06-14T07:14:04.000Z</time>
      </trkpt>
      <trkpt lat="47.25783" lon="-2.32418">
        <ele>-1.2000000476837</ele>
        <time>2020-06-14T07:14:05.000Z</time>
      </trkpt>
      <trkpt lat="47.25792" lon="-2.32429">
        <ele>-1.2000000476837</ele>
        <time>2020-06-14T07:14:07.000Z</time>
      </trkpt>
      <trkpt lat="47.258" lon="-2.32445">
        <ele>-1.2000000476837</ele>
        <time>2020-06-14T07:14:09.000Z</time>
      </trkpt>
      <trkpt lat="47.25818" lon="-2.32461">
        <ele>-1.2000000476837</ele>
        <time>2020-06-14T07:14:12.000Z</time>
      </trkpt>
      <trkpt lat="47.25825" lon="-2.32465">
        <ele>-1.2000000476837</ele>
        <time>2020-06-14T07:14:13.000Z</time>
      </trkpt>
      <trkpt lat="47.25839" lon="-2.32472">
        <ele>-1.2000000476837</ele>
        <time>2020-06-14T07:14:15.000Z</time>
      </trkpt>
      <trkpt lat="47.25855" lon="-2.32475">
        <ele>-1.2000000476837</ele>
        <time>2020-06-14T07:14:17.000Z</time>
      </trkpt>
      <trkpt lat="47.2587" lon="-2.32474">
        <ele>-1.2000000476837</ele>
        <time>2020-06-14T07:14:19.000Z</time>
      </trkpt>
      <trkpt lat="47.25892" lon="-2.32468">
        <ele>-1.2000000476837</ele>
        <time>2020-06-14T07:14:22.000Z</time>
      </trkpt>
      <trkpt lat="47.25912" lon="-2.32448">
        <ele>-1.2000000476837</ele>
        <time>2020-06-14T07:14:25.000Z</time>
      </trkpt>
      <trkpt lat="47.25918" lon="-2.32441">
        <ele>-1.2000000476837</ele>
        <time>2020-06-14T07:14:26.000Z</time>
      </trkpt>
      <trkpt lat="47.25959" lon="-2.32387">
        <ele>-1.2000000476837</ele>
        <time>2020-06-14T07:14:33.000Z</time>
      </trkpt>
      <trkpt lat="47.2597" lon="-2.32372">
        <ele>-1.2000000476837</ele>
        <time>2020-06-14T07:14:35.000Z</time>
      </trkpt>
      <trkpt lat="47.26015" lon="-2.32312">
        <ele>-1.2000000476837</ele>
        <time>2020-06-14T07:14:43.000Z</time>
      </trkpt>
      <trkpt lat="47.26021" lon="-2.32305">
        <ele>-1.2000000476837</ele>
        <time>2020-06-14T07:14:44.000Z</time>
      </trkpt>
      <trkpt lat="47.26067" lon="-2.32251">
        <ele>-1.2000000476837</ele>
        <time>2020-06-14T07:14:52.000Z</time>
      </trkpt>
      <trkpt lat="47.26106" lon="-2.32199">
        <ele>-1.2000000476837</ele>
        <time>2020-06-14T07:14:59.000Z</time>
      </trkpt>
      <trkpt lat="47.26125" lon="-2.32152">
        <ele>-1.2000000476837</ele>
        <time>2020-06-14T07:15:04.000Z</time>
      </trkpt>
      <trkpt lat="47.26145" lon="-2.32083">
        <ele>-1.2000000476837</ele>
        <time>2020-06-14T07:15:11.000Z</time>
      </trkpt>
      <trkpt lat="47.2616" lon="-2.32037">
        <ele>-1.2000000476837</ele>
        <time>2020-06-14T07:15:16.000Z</time>
      </trkpt>
      <trkpt lat="47.26163" lon="-2.32017">
        <ele>-1.2000000476837</ele>
        <time>2020-06-14T07:15:18.000Z</time>
      </trkpt>
      <trkpt lat="47.26162" lon="-2.31978">
        <ele>-1.2000000476837</ele>
        <time>2020-06-14T07:15:22.000Z</time>
      </trkpt>
      <trkpt lat="47.26161" lon="-2.31968">
        <ele>-1.2000000476837</ele>
        <time>2020-06-14T07:15:23.000Z</time>
      </trkpt>
      <trkpt lat="47.2615" lon="-2.3189">
        <ele>-1.2000000476837</ele>
        <time>2020-06-14T07:15:31.000Z</time>
      </trkpt>
      <trkpt lat="47.26143" lon="-2.31835">
        <ele>-1.2000000476837</ele>
        <time>2020-06-14T07:15:37.000Z</time>
      </trkpt>
      <trkpt lat="47.26132" lon="-2.31756">
        <ele>-1.2000000476837</ele>
        <time>2020-06-14T07:15:45.000Z</time>
      </trkpt>
      <trkpt lat="47.26122" lon="-2.31683">
        <ele>-1.2000000476837</ele>
        <time>2020-06-14T07:15:53.000Z</time>
      </trkpt>
      <trkpt lat="47.26112" lon="-2.31632">
        <ele>-1.2000000476837</ele>
        <time>2020-06-14T07:15:59.000Z</time>
      </trkpt>
      <trkpt lat="47.26111" lon="-2.31625">
        <ele>-1.2000000476837</ele>
        <time>2020-06-14T07:16:00.000Z</time>
      </trkpt>
      <trkpt lat="47.26116" lon="-2.31616">
        <ele>-1.2000000476837</ele>
        <time>2020-06-14T07:16:02.000Z</time>
      </trkpt>
      <trkpt lat="47.2612" lon="-2.31615">
        <ele>-1.6000000238419</ele>
        <time>2020-06-14T07:16:03.000Z</time>
      </trkpt>
      <trkpt lat="47.26125" lon="-2.31614">
        <ele>-2</ele>
        <time>2020-06-14T07:16:04.000Z</time>
      </trkpt>
      <trkpt lat="47.2613" lon="-2.31614">
        <ele>-2.4000000953674</ele>
        <time>2020-06-14T07:16:05.000Z</time>
      </trkpt>
      <trkpt lat="47.26136" lon="-2.31614">
        <ele>-2.7999999523163</ele>
        <time>2020-06-14T07:16:06.000Z</time>
      </trkpt>
      <trkpt lat="47.26141" lon="-2.31614">
        <ele>-3.2000000476837</ele>
        <time>2020-06-14T07:16:07.000Z</time>
      </trkpt>
      <trkpt lat="47.26147" lon="-2.31612">
        <ele>-3.2000000476837</ele>
        <time>2020-06-14T07:16:08.000Z</time>
      </trkpt>
      <trkpt lat="47.26159" lon="-2.31608">
        <ele>-3.2000000476837</ele>
        <time>2020-06-14T07:16:10.000Z</time>
      </trkpt>
      <trkpt lat="47.26203" lon="-2.3159">
        <ele>-3.2000000476837</ele>
        <time>2020-06-14T07:16:17.000Z</time>
      </trkpt>
      <trkpt lat="47.26209" lon="-2.31589">
        <ele>-3.2000000476837</ele>
        <time>2020-06-14T07:16:18.000Z</time>
      </trkpt>
      <trkpt lat="47.26221" lon="-2.31593">
        <ele>-3.2000000476837</ele>
        <time>2020-06-14T07:16:20.000Z</time>
      </trkpt>
      <trkpt lat="47.26241" lon="-2.3161">
        <ele>-3.2000000476837</ele>
        <time>2020-06-14T07:16:24.000Z</time>
      </trkpt>
      <trkpt lat="47.26246" lon="-2.31614">
        <ele>-3.2000000476837</ele>
        <time>2020-06-14T07:16:25.000Z</time>
      </trkpt>
      <trkpt lat="47.2625" lon="-2.31619">
        <ele>-3.2000000476837</ele>
        <time>2020-06-14T07:16:26.000Z</time>
      </trkpt>
      <trkpt lat="47.26258" lon="-2.31632">
        <ele>-3.2000000476837</ele>
        <time>2020-06-14T07:16:28.000Z</time>
      </trkpt>
      <trkpt lat="47.26278" lon="-2.31677">
        <ele>-3.2000000476837</ele>
        <time>2020-06-14T07:16:34.000Z</time>
      </trkpt>
      <trkpt lat="47.26298" lon="-2.31713">
        <ele>-3.2000000476837</ele>
        <time>2020-06-14T07:16:39.000Z</time>
      </trkpt>
      <trkpt lat="47.26313" lon="-2.31714">
        <ele>-3.2000000476837</ele>
        <time>2020-06-14T07:16:42.000Z</time>
      </trkpt>
      <trkpt lat="47.26317" lon="-2.31711">
        <ele>-3.2000000476837</ele>
        <time>2020-06-14T07:16:43.000Z</time>
      </trkpt>
      <trkpt lat="47.2633" lon="-2.31702">
        <ele>-3.2000000476837</ele>
        <time>2020-06-14T07:16:46.000Z</time>
      </trkpt>
      <trkpt lat="47.2634" lon="-2.31698">
        <ele>-3.2000000476837</ele>
        <time>2020-06-14T07:16:48.000Z</time>
      </trkpt>
      <trkpt lat="47.26355" lon="-2.31688">
        <ele>-2.7999999523163</ele>
        <time>2020-06-14T07:16:51.000Z</time>
      </trkpt>
      <trkpt lat="47.2636" lon="-2.31685">
        <ele>-2.4000000953674</ele>
        <time>2020-06-14T07:16:52.000Z</time>
      </trkpt>
      <trkpt lat="47.26365" lon="-2.31682">
        <ele>-2</ele>
        <time>2020-06-14T07:16:53.000Z</time>
      </trkpt>
      <trkpt lat="47.2637" lon="-2.31679">
        <ele>-1.6000000238419</ele>
        <time>2020-06-14T07:16:54.000Z</time>
      </trkpt>
      <trkpt lat="47.26375" lon="-2.31676">
        <ele>-1.2000000476837</ele>
        <time>2020-06-14T07:16:55.000Z</time>
      </trkpt>
      <trkpt lat="47.2639" lon="-2.31665">
        <ele>-1.2000000476837</ele>
        <time>2020-06-14T07:16:58.000Z</time>
      </trkpt>
      <trkpt lat="47.26395" lon="-2.31663">
        <ele>-0.80000001192093</ele>
        <time>2020-06-14T07:16:59.000Z</time>
      </trkpt>
      <trkpt lat="47.264" lon="-2.31662">
        <ele>-0.40000000596046</ele>
        <time>2020-06-14T07:17:00.000Z</time>
      </trkpt>
      <trkpt lat="47.26404" lon="-2.31659">
        <ele>8.3</ele>
        <time>2020-06-14T07:17:01.000Z</time>
      </trkpt>
      <trkpt lat="47.26407" lon="-2.31654">
        <ele>0.40000000596046</ele>
        <time>2020-06-14T07:17:02.000Z</time>
      </trkpt>
      <trkpt lat="47.26407" lon="-2.31648">
        <ele>0.80000001192093</ele>
        <time>2020-06-14T07:17:03.000Z</time>
      </trkpt>
      <trkpt lat="47.26407" lon="-2.3162">
        <ele>0.80000001192093</ele>
        <time>2020-06-14T07:17:07.000Z</time>
      </trkpt>
      <trkpt lat="47.26407" lon="-2.31611">
        <ele>0.80000001192093</ele>
        <time>2020-06-14T07:17:08.000Z</time>
      </trkpt>
      <trkpt lat="47.26407" lon="-2.3157">
        <ele>0.80000001192093</ele>
        <time>2020-06-14T07:17:13.000Z</time>
      </trkpt>
      <trkpt lat="47.26407" lon="-2.31557">
        <ele>0.80000001192093</ele>
        <time>2020-06-14T07:17:15.000Z</time>
      </trkpt>
      <trkpt lat="47.26409" lon="-2.31553">
        <ele>0.80000001192093</ele>
        <time>2020-06-14T07:17:16.000Z</time>
      </trkpt>
      <trkpt lat="47.26417" lon="-2.31553">
        <ele>0.80000001192093</ele>
        <time>2020-06-14T07:17:19.000Z</time>
      </trkpt>
      <trkpt lat="47.26422" lon="-2.31555">
        <ele>1.3999999761581</ele>
        <time>2020-06-14T07:17:24.000Z</time>
      </trkpt>
      <trkpt lat="47.26417" lon="-2.31556">
        <ele>3</ele>
        <time>2020-06-14T07:17:56.000Z</time>
      </trkpt>
      <trkpt lat="47.26409" lon="-2.3156">
        <ele>3</ele>
        <time>2020-06-14T07:17:59.000Z</time>
      </trkpt>
      <trkpt lat="47.26408" lon="-2.31577">
        <ele>3</ele>
        <time>2020-06-14T07:18:02.000Z</time>
      </trkpt>
      <trkpt lat="47.26408" lon="-2.31626">
        <ele>3</ele>
        <time>2020-06-14T07:18:08.000Z</time>
      </trkpt>
      <trkpt lat="47.26409" lon="-2.31651">
        <ele>3</ele>
        <time>2020-06-14T07:18:11.000Z</time>
      </trkpt>
      <trkpt lat="47.26408" lon="-2.31662">
        <ele>3</ele>
        <time>2020-06-14T07:18:13.000Z</time>
      </trkpt>
      <trkpt lat="47.26396" lon="-2.3167">
        <ele>3</ele>
        <time>2020-06-14T07:18:16.000Z</time>
      </trkpt>
      <trkpt lat="47.2637" lon="-2.31685">
        <ele>3</ele>
        <time>2020-06-14T07:18:21.000Z</time>
      </trkpt>
      <trkpt lat="47.26358" lon="-2.31693">
        <ele>2.5999999046326</ele>
        <time>2020-06-14T07:18:23.000Z</time>
      </trkpt>
      <trkpt lat="47.26352" lon="-2.31697">
        <ele>2.2000000476837</ele>
        <time>2020-06-14T07:18:24.000Z</time>
      </trkpt>
      <trkpt lat="47.26346" lon="-2.317">
        <ele>1.7999999523163</ele>
        <time>2020-06-14T07:18:25.000Z</time>
      </trkpt>
      <trkpt lat="47.26339" lon="-2.31703">
        <ele>0.80000001192093</ele>
        <time>2020-06-14T07:18:26.000Z</time>
      </trkpt>
      <trkpt lat="47.26332" lon="-2.31707">
        <ele>0.80000001192093</ele>
        <time>2020-06-14T07:18:27.000Z</time>
      </trkpt>
      <trkpt lat="47.26307" lon="-2.31719">
        <ele>0.80000001192093</ele>
        <time>2020-06-14T07:18:31.000Z</time>
      </trkpt>
      <trkpt lat="47.26303" lon="-2.31723">
        <ele>0.40000000596046</ele>
        <time>2020-06-14T07:18:32.000Z</time>
      </trkpt>
      <trkpt lat="47.26301" lon="-2.31728">
        <ele>-0.20000000298023</ele>
        <time>2020-06-14T07:18:33.000Z</time>
      </trkpt>
      <trkpt lat="47.26301" lon="-2.31734">
        <ele>-0.60000002384186</ele>
        <time>2020-06-14T07:18:34.000Z</time>
      </trkpt>
      <trkpt lat="47.26302" lon="-2.31741">
        <ele>-1.2000000476837</ele>
        <time>2020-06-14T07:18:35.000Z</time>
      </trkpt>
      <trkpt lat="47.26304" lon="-2.31748">
        <ele>-1.6000000238419</ele>
        <time>2020-06-14T07:18:36.000Z</time>
      </trkpt>
      <trkpt lat="47.26306" lon="-2.31755">
        <ele>-1.6000000238419</ele>
        <time>2020-06-14T07:18:37.000Z</time>
      </trkpt>
      <trkpt lat="47.26309" lon="-2.31769">
        <ele>-1.6000000238419</ele>
        <time>2020-06-14T07:18:39.000Z</time>
      </trkpt>
      <trkpt lat="47.26313" lon="-2.31811">
        <ele>-1.6000000238419</ele>
        <time>2020-06-14T07:18:44.000Z</time>
      </trkpt>
      <trkpt lat="47.26313" lon="-2.3182">
        <ele>-1.6000000238419</ele>
        <time>2020-06-14T07:18:45.000Z</time>
      </trkpt>
      <trkpt lat="47.26311" lon="-2.31856">
        <ele>-1.6000000238419</ele>
        <time>2020-06-14T07:18:49.000Z</time>
      </trkpt>
      <trkpt lat="47.26311" lon="-2.31872">
        <ele>-1.6000000238419</ele>
        <time>2020-06-14T07:18:51.000Z</time>
      </trkpt>
      <trkpt lat="47.26308" lon="-2.3188">
        <ele>-1.6000000238419</ele>
        <time>2020-06-14T07:18:52.000Z</time>
      </trkpt>
      <trkpt lat="47.263" lon="-2.31888">
        <ele>-1.6000000238419</ele>
        <time>2020-06-14T07:18:54.000Z</time>
      </trkpt>
      <trkpt lat="47.26276" lon="-2.31907">
        <ele>-1.6000000238419</ele>
        <time>2020-06-14T07:18:59.000Z</time>
      </trkpt>
      <trkpt lat="47.26272" lon="-2.31912">
        <ele>-1.6000000238419</ele>
        <time>2020-06-14T07:19:00.000Z</time>
      </trkpt>
      <trkpt lat="47.26264" lon="-2.31923">
        <ele>-1.6000000238419</ele>
        <time>2020-06-14T07:19:02.000Z</time>
      </trkpt>
      <trkpt lat="47.26257" lon="-2.31938">
        <ele>-1.6000000238419</ele>
        <time>2020-06-14T07:19:04.000Z</time>
      </trkpt>
      <trkpt lat="47.26247" lon="-2.31957">
        <ele>-1.6000000238419</ele>
        <time>2020-06-14T07:19:07.000Z</time>
      </trkpt>
      <trkpt lat="47.26241" lon="-2.31964">
        <ele>-1.6000000238419</ele>
        <time>2020-06-14T07:19:09.000Z</time>
      </trkpt>
      <trkpt lat="47.26234" lon="-2.31968">
        <ele>-2</ele>
        <time>2020-06-14T07:19:11.000Z</time>
      </trkpt>
      <trkpt lat="47.26231" lon="-2.31971">
        <ele>-2.4000000953674</ele>
        <time>2020-06-14T07:19:12.000Z</time>
      </trkpt>
      <trkpt lat="47.26228" lon="-2.31975">
        <ele>-2.7999999523163</ele>
        <time>2020-06-14T07:19:13.000Z</time>
      </trkpt>
      <trkpt lat="47.26225" lon="-2.31979">
        <ele>-3.2000000476837</ele>
        <time>2020-06-14T07:19:14.000Z</time>
      </trkpt>
      <trkpt lat="47.26222" lon="-2.31983">
        <ele>-3.5999999046326</ele>
        <time>2020-06-14T07:19:15.000Z</time>
      </trkpt>
      <trkpt lat="47.2621" lon="-2.31997">
        <ele>-3.5999999046326</ele>
        <time>2020-06-14T07:19:19.000Z</time>
      </trkpt>
      <trkpt lat="47.26208" lon="-2.32">
        <ele>-3.5999999046326</ele>
        <time>2020-06-14T07:19:20.000Z</time>
      </trkpt>
      <trkpt lat="47.26204" lon="-2.3201">
        <ele>-3.5999999046326</ele>
        <time>2020-06-14T07:19:23.000Z</time>
      </trkpt>
      <trkpt lat="47.26203" lon="-2.32013">
        <ele>-3.5999999046326</ele>
        <time>2020-06-14T07:19:24.000Z</time>
      </trkpt>
      <trkpt lat="47.26196" lon="-2.32016">
        <ele>-3.5999999046326</ele>
        <time>2020-06-14T07:19:27.000Z</time>
      </trkpt>
      <trkpt lat="47.26194" lon="-2.32016">
        <ele>-3.5999999046326</ele>
        <time>2020-06-14T07:19:28.000Z</time>
      </trkpt>
      <trkpt lat="47.26188" lon="-2.32016">
        <ele>-3.5999999046326</ele>
        <time>2020-06-14T07:19:30.000Z</time>
      </trkpt>
      <trkpt lat="47.26184" lon="-2.32018">
        <ele>-3.5999999046326</ele>
        <time>2020-06-14T07:19:31.000Z</time>
      </trkpt>
      <trkpt lat="47.26174" lon="-2.32024">
        <ele>-3.5999999046326</ele>
        <time>2020-06-14T07:19:33.000Z</time>
      </trkpt>
      <trkpt lat="47.26164" lon="-2.32037">
        <ele>-3.5999999046326</ele>
        <time>2020-06-14T07:19:35.000Z</time>
      </trkpt>
      <trkpt lat="47.26148" lon="-2.32077">
        <ele>-3.5999999046326</ele>
        <time>2020-06-14T07:19:40.000Z</time>
      </trkpt>
      <trkpt lat="47.26145" lon="-2.32084">
        <ele>-3.5999999046326</ele>
        <time>2020-06-14T07:19:41.000Z</time>
      </trkpt>
      <trkpt lat="47.2614" lon="-2.32099">
        <ele>-3.5999999046326</ele>
        <time>2020-06-14T07:19:43.000Z</time>
      </trkpt>
      <trkpt lat="47.26136" lon="-2.32116">
        <ele>-3.5999999046326</ele>
        <time>2020-06-14T07:19:45.000Z</time>
      </trkpt>
      <trkpt lat="47.2612" lon="-2.32165">
        <ele>-3.5999999046326</ele>
        <time>2020-06-14T07:19:51.000Z</time>
      </trkpt>
      <trkpt lat="47.26098" lon="-2.32212">
        <ele>-3.5999999046326</ele>
        <time>2020-06-14T07:19:57.000Z</time>
      </trkpt>
      <trkpt lat="47.26074" lon="-2.32247">
        <ele>-3.5999999046326</ele>
        <time>2020-06-14T07:20:02.000Z</time>
      </trkpt>
      <trkpt lat="47.26033" lon="-2.32293">
        <ele>-3.5999999046326</ele>
        <time>2020-06-14T07:20:10.000Z</time>
      </trkpt>
      <trkpt lat="47.25995" lon="-2.32341">
        <ele>-3.5999999046326</ele>
        <time>2020-06-14T07:20:18.000Z</time>
      </trkpt>
      <trkpt lat="47.25965" lon="-2.32379">
        <ele>-3.5999999046326</ele>
        <time>2020-06-14T07:20:24.000Z</time>
      </trkpt>
      <trkpt lat="47.25941" lon="-2.3241">
        <ele>-2.7999999523163</ele>
        <time>2020-06-14T07:20:29.000Z</time>
      </trkpt>
      <trkpt lat="47.25936" lon="-2.32416">
        <ele>-2.4000000953674</ele>
        <time>2020-06-14T07:20:30.000Z</time>
      </trkpt>
      <trkpt lat="47.25931" lon="-2.32422">
        <ele>-2</ele>
        <time>2020-06-14T07:20:31.000Z</time>
      </trkpt>
      <trkpt lat="47.25927" lon="-2.32428">
        <ele>-1.6000000238419</ele>
        <time>2020-06-14T07:20:32.000Z</time>
      </trkpt>
      <trkpt lat="47.25922" lon="-2.32434">
        <ele>-1.6000000238419</ele>
        <time>2020-06-14T07:20:33.000Z</time>
      </trkpt>
      <trkpt lat="47.25899" lon="-2.32463">
        <ele>-1.6000000238419</ele>
        <time>2020-06-14T07:20:39.000Z</time>
      </trkpt>
      <trkpt lat="47.25897" lon="-2.32465">
        <ele>-1.6000000238419</ele>
        <time>2020-06-14T07:20:41.000Z</time>
      </trkpt>
      <trkpt lat="47.25891" lon="-2.32471">
        <ele>-1.6000000238419</ele>
        <time>2020-06-14T07:20:44.000Z</time>
      </trkpt>
      <trkpt lat="47.25884" lon="-2.32475">
        <ele>-1.6000000238419</ele>
        <time>2020-06-14T07:20:46.000Z</time>
      </trkpt>
      <trkpt lat="47.25875" lon="-2.32477">
        <ele>-1.6000000238419</ele>
        <time>2020-06-14T07:20:48.000Z</time>
      </trkpt>
      <trkpt lat="47.25864" lon="-2.32477">
        <ele>-1.6000000238419</ele>
        <time>2020-06-14T07:20:50.000Z</time>
      </trkpt>
      <trkpt lat="47.25847" lon="-2.32475">
        <ele>-1.6000000238419</ele>
        <time>2020-06-14T07:20:53.000Z</time>
      </trkpt>
      <trkpt lat="47.25823" lon="-2.32467">
        <ele>-1.6000000238419</ele>
        <time>2020-06-14T07:20:57.000Z</time>
      </trkpt>
      <trkpt lat="47.25814" lon="-2.32461">
        <ele>-1.6000000238419</ele>
        <time>2020-06-14T07:20:59.000Z</time>
      </trkpt>
      <trkpt lat="47.25809" lon="-2.32459">
        <ele>-1.6000000238419</ele>
        <time>2020-06-14T07:21:00.000Z</time>
      </trkpt>
      <trkpt lat="47.25805" lon="-2.32464">
        <ele>-1.6000000238419</ele>
        <time>2020-06-14T07:21:02.000Z</time>
      </trkpt>
      <trkpt lat="47.258" lon="-2.32472">
        <ele>-1.6000000238419</ele>
        <time>2020-06-14T07:21:04.000Z</time>
      </trkpt>
      <trkpt lat="47.25799" lon="-2.32485">
        <ele>-1.6000000238419</ele>
        <time>2020-06-14T07:21:06.000Z</time>
      </trkpt>
      <trkpt lat="47.25803" lon="-2.32507">
        <ele>-1.6000000238419</ele>
        <time>2020-06-14T07:21:09.000Z</time>
      </trkpt>
      <trkpt lat="47.25804" lon="-2.32516">
        <ele>-1.6000000238419</ele>
        <time>2020-06-14T07:21:10.000Z</time>
      </trkpt>
      <trkpt lat="47.25816" lon="-2.32566">
        <ele>-1.6000000238419</ele>
        <time>2020-06-14T07:21:16.000Z</time>
      </trkpt>
      <trkpt lat="47.25832" lon="-2.32628">
        <ele>-1.6000000238419</ele>
        <time>2020-06-14T07:21:23.000Z</time>
      </trkpt>
      <trkpt lat="47.25854" lon="-2.32704">
        <ele>-1.6000000238419</ele>
        <time>2020-06-14T07:21:31.000Z</time>
      </trkpt>
      <trkpt lat="47.25857" lon="-2.32713">
        <ele>-1.6000000238419</ele>
        <time>2020-06-14T07:21:32.000Z</time>
      </trkpt>
      <trkpt lat="47.25879" lon="-2.3279">
        <ele>-1.6000000238419</ele>
        <time>2020-06-14T07:21:40.000Z</time>
      </trkpt>
      <trkpt lat="47.25882" lon="-2.32799">
        <ele>-1.6000000238419</ele>
        <time>2020-06-14T07:21:41.000Z</time>
      </trkpt>
      <trkpt lat="47.25908" lon="-2.32875">
        <ele>-1.6000000238419</ele>
        <time>2020-06-14T07:21:49.000Z</time>
      </trkpt>
      <trkpt lat="47.25933" lon="-2.32947">
        <ele>-1.6000000238419</ele>
        <time>2020-06-14T07:21:57.000Z</time>
      </trkpt>
      <trkpt lat="47.25952" lon="-2.33">
        <ele>-1.6000000238419</ele>
        <time>2020-06-14T07:22:03.000Z</time>
      </trkpt>
      <trkpt lat="47.25973" lon="-2.33061">
        <ele>-1.6000000238419</ele>
        <time>2020-06-14T07:22:10.000Z</time>
      </trkpt>
      <trkpt lat="47.25994" lon="-2.33123">
        <ele>-1.6000000238419</ele>
        <time>2020-06-14T07:22:17.000Z</time>
      </trkpt>
      <trkpt lat="47.26021" lon="-2.33195">
        <ele>-1.6000000238419</ele>
        <time>2020-06-14T07:22:25.000Z</time>
      </trkpt>
      <trkpt lat="47.26043" lon="-2.33256">
        <ele>-1.6000000238419</ele>
        <time>2020-06-14T07:22:32.000Z</time>
      </trkpt>
      <trkpt lat="47.26067" lon="-2.33325">
        <ele>-1.6000000238419</ele>
        <time>2020-06-14T07:22:40.000Z</time>
      </trkpt>
      <trkpt lat="47.26085" lon="-2.33379">
        <ele>-1.6000000238419</ele>
        <time>2020-06-14T07:22:47.000Z</time>
      </trkpt>
      <trkpt lat="47.26093" lon="-2.33398">
        <ele>-1.6000000238419</ele>
        <time>2020-06-14T07:22:50.000Z</time>
      </trkpt>
      <trkpt lat="47.261" lon="-2.33409">
        <ele>-1.6000000238419</ele>
        <time>2020-06-14T07:22:52.000Z</time>
      </trkpt>
      <trkpt lat="47.26108" lon="-2.3342">
        <ele>-1.6000000238419</ele>
        <time>2020-06-14T07:22:54.000Z</time>
      </trkpt>
      <trkpt lat="47.26112" lon="-2.33436">
        <ele>-1.6000000238419</ele>
        <time>2020-06-14T07:22:56.000Z</time>
      </trkpt>
      <trkpt lat="47.26106" lon="-2.33459">
        <ele>-1.6000000238419</ele>
        <time>2020-06-14T07:22:59.000Z</time>
      </trkpt>
      <trkpt lat="47.2609" lon="-2.3347">
        <ele>-1.6000000238419</ele>
        <time>2020-06-14T07:23:02.000Z</time>
      </trkpt>
      <trkpt lat="47.26072" lon="-2.33463">
        <ele>-1.6000000238419</ele>
        <time>2020-06-14T07:23:05.000Z</time>
      </trkpt>
      <trkpt lat="47.26066" lon="-2.33458">
        <ele>-1.6000000238419</ele>
        <time>2020-06-14T07:23:06.000Z</time>
      </trkpt>
      <trkpt lat="47.2606" lon="-2.33455">
        <ele>-1.6000000238419</ele>
        <time>2020-06-14T07:23:07.000Z</time>
      </trkpt>
      <trkpt lat="47.26048" lon="-2.33457">
        <ele>-1.6000000238419</ele>
        <time>2020-06-14T07:23:09.000Z</time>
      </trkpt>
      <trkpt lat="47.26035" lon="-2.33477">
        <ele>-1.6000000238419</ele>
        <time>2020-06-14T07:23:12.000Z</time>
      </trkpt>
      <trkpt lat="47.26019" lon="-2.33491">
        <ele>-1.6000000238419</ele>
        <time>2020-06-14T07:23:15.000Z</time>
      </trkpt>
      <trkpt lat="47.26007" lon="-2.33493">
        <ele>-1.6000000238419</ele>
        <time>2020-06-14T07:23:17.000Z</time>
      </trkpt>
      <trkpt lat="47.25994" lon="-2.33497">
        <ele>-1.6000000238419</ele>
        <time>2020-06-14T07:23:19.000Z</time>
      </trkpt>
      <trkpt lat="47.25984" lon="-2.33509">
        <ele>-1.6000000238419</ele>
        <time>2020-06-14T07:23:21.000Z</time>
      </trkpt>
      <trkpt lat="47.25983" lon="-2.33527">
        <ele>-1.6000000238419</ele>
        <time>2020-06-14T07:23:23.000Z</time>
      </trkpt>
      <trkpt lat="47.25993" lon="-2.3355">
        <ele>-1.6000000238419</ele>
        <time>2020-06-14T07:23:26.000Z</time>
      </trkpt>
      <trkpt lat="47.26017" lon="-2.33599">
        <ele>-1.6000000238419</ele>
        <time>2020-06-14T07:23:32.000Z</time>
      </trkpt>
      <trkpt lat="47.26025" lon="-2.33628">
        <ele>-1.6000000238419</ele>
        <time>2020-06-14T07:23:35.000Z</time>
      </trkpt>
      <trkpt lat="47.26027" lon="-2.33648">
        <ele>-1.6000000238419</ele>
        <time>2020-06-14T07:23:37.000Z</time>
      </trkpt>
      <trkpt lat="47.26033" lon="-2.33674">
        <ele>-1.6000000238419</ele>
        <time>2020-06-14T07:23:40.000Z</time>
      </trkpt>
      <trkpt lat="47.26036" lon="-2.33681">
        <ele>-1.6000000238419</ele>
        <time>2020-06-14T07:23:41.000Z</time>
      </trkpt>
      <trkpt lat="47.26038" lon="-2.33688">
        <ele>-1.6000000238419</ele>
        <time>2020-06-14T07:23:42.000Z</time>
      </trkpt>
      <trkpt lat="47.26036" lon="-2.33703">
        <ele>-1.6000000238419</ele>
        <time>2020-06-14T07:23:44.000Z</time>
      </trkpt>
      <trkpt lat="47.26031" lon="-2.33719">
        <ele>-1.6000000238419</ele>
        <time>2020-06-14T07:23:46.000Z</time>
      </trkpt>
      <trkpt lat="47.2602" lon="-2.33752">
        <ele>-1.6000000238419</ele>
        <time>2020-06-14T07:23:50.000Z</time>
      </trkpt>
      <trkpt lat="47.26002" lon="-2.33803">
        <ele>-1.6000000238419</ele>
        <time>2020-06-14T07:23:56.000Z</time>
      </trkpt>
      <trkpt lat="47.25978" lon="-2.33871">
        <ele>-1.6000000238419</ele>
        <time>2020-06-14T07:24:04.000Z</time>
      </trkpt>
      <trkpt lat="47.2597" lon="-2.33894">
        <ele>-1.6000000238419</ele>
        <time>2020-06-14T07:24:07.000Z</time>
      </trkpt>
      <trkpt lat="47.25965" lon="-2.33917">
        <ele>-1.6000000238419</ele>
        <time>2020-06-14T07:24:10.000Z</time>
      </trkpt>
      <trkpt lat="47.25949" lon="-2.33955">
        <ele>-1.6000000238419</ele>
        <time>2020-06-14T07:24:15.000Z</time>
      </trkpt>
      <trkpt lat="47.25932" lon="-2.34011">
        <ele>-1.6000000238419</ele>
        <time>2020-06-14T07:24:22.000Z</time>
      </trkpt>
      <trkpt lat="47.2593" lon="-2.34027">
        <ele>-1.6000000238419</ele>
        <time>2020-06-14T07:24:24.000Z</time>
      </trkpt>
      <trkpt lat="47.25933" lon="-2.34041">
        <ele>-1.6000000238419</ele>
        <time>2020-06-14T07:24:26.000Z</time>
      </trkpt>
      <trkpt lat="47.25948" lon="-2.34069">
        <ele>-1.6000000238419</ele>
        <time>2020-06-14T07:24:31.000Z</time>
      </trkpt>
      <trkpt lat="47.25949" lon="-2.34072">
        <ele>-1.6000000238419</ele>
        <time>2020-06-14T07:24:32.000Z</time>
      </trkpt>
      <trkpt lat="47.25948" lon="-2.34079">
        <ele>-1.6000000238419</ele>
        <time>2020-06-14T07:24:34.000Z</time>
      </trkpt>
      <trkpt lat="47.25948" lon="-2.34092">
        <ele>-1.6000000238419</ele>
        <time>2020-06-14T07:24:38.000Z</time>
      </trkpt>
      <trkpt lat="47.2596" lon="-2.34096">
        <ele>-1.6000000238419</ele>
        <time>2020-06-14T07:24:42.000Z</time>
      </trkpt>
      <trkpt lat="47.25971" lon="-2.34105">
        <ele>-1.6000000238419</ele>
        <time>2020-06-14T07:24:45.000Z</time>
      </trkpt>
      <trkpt lat="47.25975" lon="-2.34108">
        <ele>-1.6000000238419</ele>
        <time>2020-06-14T07:24:46.000Z</time>
      </trkpt>
      <trkpt lat="47.25979" lon="-2.3411">
        <ele>-1.6000000238419</ele>
        <time>2020-06-14T07:24:47.000Z</time>
      </trkpt>
      <trkpt lat="47.26004" lon="-2.34119">
        <ele>-1.6000000238419</ele>
        <time>2020-06-14T07:24:53.000Z</time>
      </trkpt>
      <trkpt lat="47.26032" lon="-2.34131">
        <ele>-1.6000000238419</ele>
        <time>2020-06-14T07:24:59.000Z</time>
      </trkpt>
      <trkpt lat="47.26036" lon="-2.34133">
        <ele>-1.6000000238419</ele>
        <time>2020-06-14T07:25:00.000Z</time>
      </trkpt>
      <trkpt lat="47.26077" lon="-2.34154">
        <ele>-1.6000000238419</ele>
        <time>2020-06-14T07:25:09.000Z</time>
      </trkpt>
      <trkpt lat="47.26086" lon="-2.34158">
        <ele>-1.6000000238419</ele>
        <time>2020-06-14T07:25:11.000Z</time>
      </trkpt>
      <trkpt lat="47.26096" lon="-2.34163">
        <ele>-1.6000000238419</ele>
        <time>2020-06-14T07:25:14.000Z</time>
      </trkpt>
      <trkpt lat="47.26116" lon="-2.34176">
        <ele>-1.6000000238419</ele>
        <time>2020-06-14T07:25:21.000Z</time>
      </trkpt>
      <trkpt lat="47.26127" lon="-2.34185">
        <ele>-1.6000000238419</ele>
        <time>2020-06-14T07:25:25.000Z</time>
      </trkpt>
      <trkpt lat="47.26129" lon="-2.34183">
        <ele>-1.6000000238419</ele>
        <time>2020-06-14T07:25:26.000Z</time>
      </trkpt>
      <trkpt lat="47.26131" lon="-2.34169">
        <ele>-1.6000000238419</ele>
        <time>2020-06-14T07:25:29.000Z</time>
      </trkpt>
      <trkpt lat="47.26133" lon="-2.34161">
        <ele>-1.6000000238419</ele>
        <time>2020-06-14T07:25:31.000Z</time>
      </trkpt>
      <trkpt lat="47.26136" lon="-2.34159">
        <ele>-1.6000000238419</ele>
        <time>2020-06-14T07:25:32.000Z</time>
      </trkpt>
      <trkpt lat="47.26148" lon="-2.34164">
        <ele>-1.6000000238419</ele>
        <time>2020-06-14T07:25:35.000Z</time>
      </trkpt>
      <trkpt lat="47.26156" lon="-2.34174">
        <ele>-1.6000000238419</ele>
        <time>2020-06-14T07:25:37.000Z</time>
      </trkpt>
      <trkpt lat="47.26173" lon="-2.34194">
        <ele>-1.6000000238419</ele>
        <time>2020-06-14T07:25:41.000Z</time>
      </trkpt>
      <trkpt lat="47.26201" lon="-2.34219">
        <ele>-1.6000000238419</ele>
        <time>2020-06-14T07:25:47.000Z</time>
      </trkpt>
      <trkpt lat="47.26242" lon="-2.34263">
        <ele>-1.6000000238419</ele>
        <time>2020-06-14T07:25:56.000Z</time>
      </trkpt>
      <trkpt lat="47.26275" lon="-2.34299">
        <ele>-1.6000000238419</ele>
        <time>2020-06-14T07:26:03.000Z</time>
      </trkpt>
      <trkpt lat="47.26313" lon="-2.34337">
        <ele>-1.6000000238419</ele>
        <time>2020-06-14T07:26:10.000Z</time>
      </trkpt>
      <trkpt lat="47.26323" lon="-2.34347">
        <ele>-1.6000000238419</ele>
        <time>2020-06-14T07:26:12.000Z</time>
      </trkpt>
      <trkpt lat="47.26335" lon="-2.34354">
        <ele>-1.6000000238419</ele>
        <time>2020-06-14T07:26:14.000Z</time>
      </trkpt>
      <trkpt lat="47.26344" lon="-2.34366">
        <ele>-1.6000000238419</ele>
        <time>2020-06-14T07:26:16.000Z</time>
      </trkpt>
      <trkpt lat="47.26349" lon="-2.34371">
        <ele>-1.6000000238419</ele>
        <time>2020-06-14T07:26:17.000Z</time>
      </trkpt>
      <trkpt lat="47.26354" lon="-2.34376">
        <ele>-1.6000000238419</ele>
        <time>2020-06-14T07:26:18.000Z</time>
      </trkpt>
      <trkpt lat="47.26398" lon="-2.34412">
        <ele>-1.6000000238419</ele>
        <time>2020-06-14T07:26:26.000Z</time>
      </trkpt>
      <trkpt lat="47.26438" lon="-2.34444">
        <ele>-1.6000000238419</ele>
        <time>2020-06-14T07:26:33.000Z</time>
      </trkpt>
      <trkpt lat="47.26485" lon="-2.3448">
        <ele>-1.6000000238419</ele>
        <time>2020-06-14T07:26:41.000Z</time>
      </trkpt>
      <trkpt lat="47.2653" lon="-2.3451">
        <ele>-1.6000000238419</ele>
        <time>2020-06-14T07:26:49.000Z</time>
      </trkpt>
      <trkpt lat="47.2654" lon="-2.34518">
        <ele>-1.6000000238419</ele>
        <time>2020-06-14T07:26:51.000Z</time>
      </trkpt>
      <trkpt lat="47.2655" lon="-2.34531">
        <ele>-1.6000000238419</ele>
        <time>2020-06-14T07:26:53.000Z</time>
      </trkpt>
      <trkpt lat="47.2658" lon="-2.34564">
        <ele>-1.6000000238419</ele>
        <time>2020-06-14T07:26:59.000Z</time>
      </trkpt>
      <trkpt lat="47.2661" lon="-2.34596">
        <ele>-1.6000000238419</ele>
        <time>2020-06-14T07:27:05.000Z</time>
      </trkpt>
      <trkpt lat="47.26633" lon="-2.34624">
        <ele>-1.6000000238419</ele>
        <time>2020-06-14T07:27:10.000Z</time>
      </trkpt>
      <trkpt lat="47.2667" lon="-2.3467">
        <ele>-1.6000000238419</ele>
        <time>2020-06-14T07:27:18.000Z</time>
      </trkpt>
      <trkpt lat="47.26707" lon="-2.34715">
        <ele>-1.6000000238419</ele>
        <time>2020-06-14T07:27:26.000Z</time>
      </trkpt>
      <trkpt lat="47.26742" lon="-2.34759">
        <ele>-1.6000000238419</ele>
        <time>2020-06-14T07:27:33.000Z</time>
      </trkpt>
      <trkpt lat="47.26786" lon="-2.34816">
        <ele>-1.6000000238419</ele>
        <time>2020-06-14T07:27:42.000Z</time>
      </trkpt>
      <trkpt lat="47.26814" lon="-2.34856">
        <ele>-1.6000000238419</ele>
        <time>2020-06-14T07:27:48.000Z</time>
      </trkpt>
      <trkpt lat="47.26847" lon="-2.34905">
        <ele>-1.6000000238419</ele>
        <time>2020-06-14T07:27:55.000Z</time>
      </trkpt>
      <trkpt lat="47.26861" lon="-2.34926">
        <ele>-1</ele>
        <time>2020-06-14T07:27:58.000Z</time>
      </trkpt>
      <trkpt lat="47.26866" lon="-2.34933">
        <ele>-0.60000002384186</ele>
        <time>2020-06-14T07:27:59.000Z</time>
      </trkpt>
      <trkpt lat="47.2687" lon="-2.3494">
        <ele>-0.20000000298023</ele>
        <time>2020-06-14T07:28:00.000Z</time>
      </trkpt>
      <trkpt lat="47.26875" lon="-2.34947">
        <ele>0.20000000298023</ele>
        <time>2020-06-14T07:28:01.000Z</time>
      </trkpt>
      <trkpt lat="47.26879" lon="-2.34953">
        <ele>0.60000002384186</ele>
        <time>2020-06-14T07:28:02.000Z</time>
      </trkpt>
      <trkpt lat="47.26914" lon="-2.35007">
        <ele>0.60000002384186</ele>
        <time>2020-06-14T07:28:10.000Z</time>
      </trkpt>
      <trkpt lat="47.26943" lon="-2.35053">
        <ele>0.60000002384186</ele>
        <time>2020-06-14T07:28:17.000Z</time>
      </trkpt>
      <trkpt lat="47.26973" lon="-2.35099">
        <ele>0.60000002384186</ele>
        <time>2020-06-14T07:28:24.000Z</time>
      </trkpt>
      <trkpt lat="47.27012" lon="-2.3516">
        <ele>0.60000002384186</ele>
        <time>2020-06-14T07:28:33.000Z</time>
      </trkpt>
      <trkpt lat="47.27038" lon="-2.352">
        <ele>0.60000002384186</ele>
        <time>2020-06-14T07:28:39.000Z</time>
      </trkpt>
      <trkpt lat="47.27072" lon="-2.3525">
        <ele>0.60000002384186</ele>
        <time>2020-06-14T07:28:47.000Z</time>
      </trkpt>
      <trkpt lat="47.271" lon="-2.35294">
        <ele>0.60000002384186</ele>
        <time>2020-06-14T07:28:54.000Z</time>
      </trkpt>
      <trkpt lat="47.27128" lon="-2.35338">
        <ele>0.60000002384186</ele>
        <time>2020-06-14T07:29:01.000Z</time>
      </trkpt>
      <trkpt lat="47.27151" lon="-2.35379">
        <ele>0.60000002384186</ele>
        <time>2020-06-14T07:29:07.000Z</time>
      </trkpt>
      <trkpt lat="47.2718" lon="-2.35432">
        <ele>0.60000002384186</ele>
        <time>2020-06-14T07:29:15.000Z</time>
      </trkpt>
      <trkpt lat="47.27188" lon="-2.35445">
        <ele>0.60000002384186</ele>
        <time>2020-06-14T07:29:17.000Z</time>
      </trkpt>
      <trkpt lat="47.27199" lon="-2.35465">
        <ele>0.60000002384186</ele>
        <time>2020-06-14T07:29:20.000Z</time>
      </trkpt>
      <trkpt lat="47.27226" lon="-2.35525">
        <ele>0.60000002384186</ele>
        <time>2020-06-14T07:29:28.000Z</time>
      </trkpt>
      <trkpt lat="47.27248" lon="-2.35569">
        <ele>0.60000002384186</ele>
        <time>2020-06-14T07:29:34.000Z</time>
      </trkpt>
      <trkpt lat="47.27274" lon="-2.35629">
        <ele>0.60000002384186</ele>
        <time>2020-06-14T07:29:42.000Z</time>
      </trkpt>
      <trkpt lat="47.27302" lon="-2.35689">
        <ele>0.60000002384186</ele>
        <time>2020-06-14T07:29:50.000Z</time>
      </trkpt>
      <trkpt lat="47.27323" lon="-2.35735">
        <ele>0.60000002384186</ele>
        <time>2020-06-14T07:29:56.000Z</time>
      </trkpt>
      <trkpt lat="47.27327" lon="-2.35743">
        <ele>0.60000002384186</ele>
        <time>2020-06-14T07:29:57.000Z</time>
      </trkpt>
      <trkpt lat="47.27349" lon="-2.35807">
        <ele>0.60000002384186</ele>
        <time>2020-06-14T07:30:04.000Z</time>
      </trkpt>
      <trkpt lat="47.27373" lon="-2.35868">
        <ele>0.60000002384186</ele>
        <time>2020-06-14T07:30:11.000Z</time>
      </trkpt>
      <trkpt lat="47.27396" lon="-2.35926">
        <ele>0.60000002384186</ele>
        <time>2020-06-14T07:30:18.000Z</time>
      </trkpt>
      <trkpt lat="47.27419" lon="-2.35988">
        <ele>0.60000002384186</ele>
        <time>2020-06-14T07:30:26.000Z</time>
      </trkpt>
      <trkpt lat="47.27444" lon="-2.36043">
        <ele>0.60000002384186</ele>
        <time>2020-06-14T07:30:34.000Z</time>
      </trkpt>
      <trkpt lat="47.27459" lon="-2.36076">
        <ele>0.60000002384186</ele>
        <time>2020-06-14T07:30:39.000Z</time>
      </trkpt>
      <trkpt lat="47.27463" lon="-2.36082">
        <ele>0.60000002384186</ele>
        <time>2020-06-14T07:30:40.000Z</time>
      </trkpt>
      <trkpt lat="47.2747" lon="-2.36106">
        <ele>0.60000002384186</ele>
        <time>2020-06-14T07:30:43.000Z</time>
      </trkpt>
      <trkpt lat="47.27473" lon="-2.36114">
        <ele>0.60000002384186</ele>
        <time>2020-06-14T07:30:44.000Z</time>
      </trkpt>
      <trkpt lat="47.27492" lon="-2.36173">
        <ele>0.60000002384186</ele>
        <time>2020-06-14T07:30:51.000Z</time>
      </trkpt>
      <trkpt lat="47.27512" lon="-2.36222">
        <ele>0.60000002384186</ele>
        <time>2020-06-14T07:30:57.000Z</time>
      </trkpt>
      <trkpt lat="47.27542" lon="-2.36299">
        <ele>0.60000002384186</ele>
        <time>2020-06-14T07:31:06.000Z</time>
      </trkpt>
      <trkpt lat="47.27569" lon="-2.36374">
        <ele>0.60000002384186</ele>
        <time>2020-06-14T07:31:15.000Z</time>
      </trkpt>
      <trkpt lat="47.27572" lon="-2.36382">
        <ele>0.60000002384186</ele>
        <time>2020-06-14T07:31:16.000Z</time>
      </trkpt>
      <trkpt lat="47.27594" lon="-2.36441">
        <ele>0.60000002384186</ele>
        <time>2020-06-14T07:31:23.000Z</time>
      </trkpt>
      <trkpt lat="47.27616" lon="-2.36501">
        <ele>0.60000002384186</ele>
        <time>2020-06-14T07:31:30.000Z</time>
      </trkpt>
      <trkpt lat="47.27639" lon="-2.36567">
        <ele>0.60000002384186</ele>
        <time>2020-06-14T07:31:38.000Z</time>
      </trkpt>
      <trkpt lat="47.27659" lon="-2.36623">
        <ele>0.60000002384186</ele>
        <time>2020-06-14T07:31:45.000Z</time>
      </trkpt>
      <trkpt lat="47.27682" lon="-2.36689">
        <ele>0.60000002384186</ele>
        <time>2020-06-14T07:31:53.000Z</time>
      </trkpt>
      <trkpt lat="47.27707" lon="-2.36762">
        <ele>0.60000002384186</ele>
        <time>2020-06-14T07:32:02.000Z</time>
      </trkpt>
      <trkpt lat="47.27724" lon="-2.3682">
        <ele>0.60000002384186</ele>
        <time>2020-06-14T07:32:09.000Z</time>
      </trkpt>
      <trkpt lat="47.2774" lon="-2.36876">
        <ele>0.60000002384186</ele>
        <time>2020-06-14T07:32:16.000Z</time>
      </trkpt>
      <trkpt lat="47.2776" lon="-2.36942">
        <ele>0.60000002384186</ele>
        <time>2020-06-14T07:32:24.000Z</time>
      </trkpt>
      <trkpt lat="47.2778" lon="-2.3701">
        <ele>0.60000002384186</ele>
        <time>2020-06-14T07:32:32.000Z</time>
      </trkpt>
      <trkpt lat="47.27798" lon="-2.37076">
        <ele>0.60000002384186</ele>
        <time>2020-06-14T07:32:40.000Z</time>
      </trkpt>
      <trkpt lat="47.27812" lon="-2.37127">
        <ele>0.60000002384186</ele>
        <time>2020-06-14T07:32:47.000Z</time>
      </trkpt>
      <trkpt lat="47.27828" lon="-2.37172">
        <ele>0.60000002384186</ele>
        <time>2020-06-14T07:32:54.000Z</time>
      </trkpt>
      <trkpt lat="47.27837" lon="-2.37173">
        <ele>0.60000002384186</ele>
        <time>2020-06-14T07:32:56.000Z</time>
      </trkpt>
      <trkpt lat="47.27851" lon="-2.37161">
        <ele>0.60000002384186</ele>
        <time>2020-06-14T07:32:59.000Z</time>
      </trkpt>
      <trkpt lat="47.27856" lon="-2.37156">
        <ele>0.60000002384186</ele>
        <time>2020-06-14T07:33:00.000Z</time>
      </trkpt>
      <trkpt lat="47.27897" lon="-2.37109">
        <ele>0.60000002384186</ele>
        <time>2020-06-14T07:33:09.000Z</time>
      </trkpt>
      <trkpt lat="47.27934" lon="-2.37065">
        <ele>0.60000002384186</ele>
        <time>2020-06-14T07:33:17.000Z</time>
      </trkpt>
      <trkpt lat="47.27969" lon="-2.37026">
        <ele>0.60000002384186</ele>
        <time>2020-06-14T07:33:24.000Z</time>
      </trkpt>
      <trkpt lat="47.28002" lon="-2.36989">
        <ele>0.60000002384186</ele>
        <time>2020-06-14T07:33:30.000Z</time>
      </trkpt>
      <trkpt lat="47.28036" lon="-2.36949">
        <ele>0.60000002384186</ele>
        <time>2020-06-14T07:33:37.000Z</time>
      </trkpt>
      <trkpt lat="47.28071" lon="-2.36908">
        <ele>0.60000002384186</ele>
        <time>2020-06-14T07:33:44.000Z</time>
      </trkpt>
      <trkpt lat="47.28093" lon="-2.36879">
        <ele>0.20000000298023</ele>
        <time>2020-06-14T07:33:49.000Z</time>
      </trkpt>
      <trkpt lat="47.28096" lon="-2.36872">
        <ele>-0.20000000298023</ele>
        <time>2020-06-14T07:33:50.000Z</time>
      </trkpt>
      <trkpt lat="47.28096" lon="-2.36863">
        <ele>-0.60000002384186</ele>
        <time>2020-06-14T07:33:51.000Z</time>
      </trkpt>
      <trkpt lat="47.28097" lon="-2.36854">
        <ele>-1</ele>
        <time>2020-06-14T07:33:52.000Z</time>
      </trkpt>
      <trkpt lat="47.28098" lon="-2.36846">
        <ele>-1.6000000238419</ele>
        <time>2020-06-14T07:33:53.000Z</time>
      </trkpt>
      <trkpt lat="47.28102" lon="-2.36829">
        <ele>-1.6000000238419</ele>
        <time>2020-06-14T07:33:55.000Z</time>
      </trkpt>
      <trkpt lat="47.28111" lon="-2.36818">
        <ele>-1.6000000238419</ele>
        <time>2020-06-14T07:33:57.000Z</time>
      </trkpt>
      <trkpt lat="47.28128" lon="-2.36814">
        <ele>-1.6000000238419</ele>
        <time>2020-06-14T07:34:00.000Z</time>
      </trkpt>
      <trkpt lat="47.2814" lon="-2.36815">
        <ele>-1.6000000238419</ele>
        <time>2020-06-14T07:34:02.000Z</time>
      </trkpt>
      <trkpt lat="47.28146" lon="-2.36813">
        <ele>-1.6000000238419</ele>
        <time>2020-06-14T07:34:03.000Z</time>
      </trkpt>
      <trkpt lat="47.28152" lon="-2.3681">
        <ele>-1.6000000238419</ele>
        <time>2020-06-14T07:34:04.000Z</time>
      </trkpt>
      <trkpt lat="47.28168" lon="-2.36796">
        <ele>-1.6000000238419</ele>
        <time>2020-06-14T07:34:07.000Z</time>
      </trkpt>
      <trkpt lat="47.28178" lon="-2.36785">
        <ele>-1.6000000238419</ele>
        <time>2020-06-14T07:34:09.000Z</time>
      </trkpt>
      <trkpt lat="47.28208" lon="-2.36746">
        <ele>-1.2000000476837</ele>
        <time>2020-06-14T07:34:16.000Z</time>
      </trkpt>
      <trkpt lat="47.28213" lon="-2.3674">
        <ele>-0.60000002384186</ele>
        <time>2020-06-14T07:34:17.000Z</time>
      </trkpt>
      <trkpt lat="47.28217" lon="-2.36734">
        <ele>-0.20000000298023</ele>
        <time>2020-06-14T07:34:18.000Z</time>
      </trkpt>
      <trkpt lat="47.28222" lon="-2.36729">
        <ele>0.20000000298023</ele>
        <time>2020-06-14T07:34:19.000Z</time>
      </trkpt>
      <trkpt lat="47.28227" lon="-2.36724">
        <ele>0.60000002384186</ele>
        <time>2020-06-14T07:34:20.000Z</time>
      </trkpt>
      <trkpt lat="47.28251" lon="-2.36696">
        <ele>0.60000002384186</ele>
        <time>2020-06-14T07:34:25.000Z</time>
      </trkpt>
      <trkpt lat="47.2828" lon="-2.36666">
        <ele>1</ele>
        <time>2020-06-14T07:34:31.000Z</time>
      </trkpt>
      <trkpt lat="47.28284" lon="-2.3666">
        <ele>1.3999999761581</ele>
        <time>2020-06-14T07:34:32.000Z</time>
      </trkpt>
      <trkpt lat="47.28288" lon="-2.36656">
        <ele>1.7999999523163</ele>
        <time>2020-06-14T07:34:33.000Z</time>
      </trkpt>
      <trkpt lat="47.28293" lon="-2.36651">
        <ele>2.2000000476837</ele>
        <time>2020-06-14T07:34:34.000Z</time>
      </trkpt>
      <trkpt lat="47.28297" lon="-2.36647">
        <ele>2.5999999046326</ele>
        <time>2020-06-14T07:34:35.000Z</time>
      </trkpt>
      <trkpt lat="47.28305" lon="-2.36639">
        <ele>3</ele>
        <time>2020-06-14T07:34:37.000Z</time>
      </trkpt>
      <trkpt lat="47.28309" lon="-2.36635">
        <ele>3.5999999046326</ele>
        <time>2020-06-14T07:34:38.000Z</time>
      </trkpt>
      <trkpt lat="47.28312" lon="-2.3663">
        <ele>4</ele>
        <time>2020-06-14T07:34:39.000Z</time>
      </trkpt>
      <trkpt lat="47.28315" lon="-2.36624">
        <ele>4.4000000953674</ele>
        <time>2020-06-14T07:34:40.000Z</time>
      </trkpt>
      <trkpt lat="47.28319" lon="-2.36619">
        <ele>4.8000001907349</ele>
        <time>2020-06-14T07:34:41.000Z</time>
      </trkpt>
      <trkpt lat="47.28329" lon="-2.36605">
        <ele>5.1999998092651</ele>
        <time>2020-06-14T07:34:44.000Z</time>
      </trkpt>
      <trkpt lat="47.28333" lon="-2.36601">
        <ele>5.8000001907349</ele>
        <time>2020-06-14T07:34:45.000Z</time>
      </trkpt>
      <trkpt lat="47.28337" lon="-2.36597">
        <ele>6.1999998092651</ele>
        <time>2020-06-14T07:34:46.000Z</time>
      </trkpt>
      <trkpt lat="47.28341" lon="-2.36592">
        <ele>6.5999999046326</ele>
        <time>2020-06-14T07:34:47.000Z</time>
      </trkpt>
      <trkpt lat="47.28344" lon="-2.36588">
        <ele>7</ele>
        <time>2020-06-14T07:34:48.000Z</time>
      </trkpt>
      <trkpt lat="47.28358" lon="-2.36572">
        <ele>7.4000000953674</ele>
        <time>2020-06-14T07:34:52.000Z</time>
      </trkpt>
      <trkpt lat="47.28361" lon="-2.3657">
        <ele>8.3999996185303</ele>
        <time>2020-06-14T07:34:53.000Z</time>
      </trkpt>
      <trkpt lat="47.28365" lon="-2.3657">
        <ele>8.8000001907349</ele>
        <time>2020-06-14T07:34:54.000Z</time>
      </trkpt>
      <trkpt lat="47.28368" lon="-2.36573">
        <ele>9.1999998092651</ele>
        <time>2020-06-14T07:34:55.000Z</time>
      </trkpt>
      <trkpt lat="47.28371" lon="-2.36578">
        <ele>9.1999998092651</ele>
        <time>2020-06-14T07:34:56.000Z</time>
      </trkpt>
      <trkpt lat="47.28377" lon="-2.36587">
        <ele>9.1999998092651</ele>
        <time>2020-06-14T07:34:58.000Z</time>
      </trkpt>
      <trkpt lat="47.2838" lon="-2.36591">
        <ele>9.6000003814697</ele>
        <time>2020-06-14T07:34:59.000Z</time>
      </trkpt>
      <trkpt lat="47.28383" lon="-2.36595">
        <ele>10</ele>
        <time>2020-06-14T07:35:00.000Z</time>
      </trkpt>
      <trkpt lat="47.28386" lon="-2.366">
        <ele>10.60000038147</ele>
        <time>2020-06-14T07:35:01.000Z</time>
      </trkpt>
      <trkpt lat="47.28389" lon="-2.36604">
        <ele>11</ele>
        <time>2020-06-14T07:35:02.000Z</time>
      </trkpt>
      <trkpt lat="47.28391" lon="-2.36608">
        <ele>11.39999961853</ele>
        <time>2020-06-14T07:35:03.000Z</time>
      </trkpt>
      <trkpt lat="47.28399" lon="-2.36621">
        <ele>11.800000190735</ele>
        <time>2020-06-14T07:35:06.000Z</time>
      </trkpt>
      <trkpt lat="47.28402" lon="-2.36625">
        <ele>12.199999809265</ele>
        <time>2020-06-14T07:35:07.000Z</time>
      </trkpt>
      <trkpt lat="47.28404" lon="-2.36629">
        <ele>12.800000190735</ele>
        <time>2020-06-14T07:35:08.000Z</time>
      </trkpt>
      <trkpt lat="47.28407" lon="-2.36633">
        <ele>13.199999809265</ele>
        <time>2020-06-14T07:35:09.000Z</time>
      </trkpt>
      <trkpt lat="47.2841" lon="-2.36637">
        <ele>13.60000038147</ele>
        <time>2020-06-14T07:35:10.000Z</time>
      </trkpt>
      <trkpt lat="47.2842" lon="-2.36654">
        <ele>14</ele>
        <time>2020-06-14T07:35:14.000Z</time>
      </trkpt>
      <trkpt lat="47.28422" lon="-2.36658">
        <ele>14.39999961853</ele>
        <time>2020-06-14T07:35:15.000Z</time>
      </trkpt>
      <trkpt lat="47.28424" lon="-2.36663">
        <ele>15</ele>
        <time>2020-06-14T07:35:16.000Z</time>
      </trkpt>
      <trkpt lat="47.28427" lon="-2.36667">
        <ele>15.39999961853</ele>
        <time>2020-06-14T07:35:17.000Z</time>
      </trkpt>
      <trkpt lat="47.28429" lon="-2.36672">
        <ele>15.800000190735</ele>
        <time>2020-06-14T07:35:18.000Z</time>
      </trkpt>
      <trkpt lat="47.28433" lon="-2.36682">
        <ele>15.800000190735</ele>
        <time>2020-06-14T07:35:20.000Z</time>
      </trkpt>
      <trkpt lat="47.28435" lon="-2.36688">
        <ele>15.800000190735</ele>
        <time>2020-06-14T07:35:21.000Z</time>
      </trkpt>
      <trkpt lat="47.28448" lon="-2.36713">
        <ele>15.800000190735</ele>
        <time>2020-06-14T07:35:26.000Z</time>
      </trkpt>
      <trkpt lat="47.28452" lon="-2.36716">
        <ele>15.800000190735</ele>
        <time>2020-06-14T07:35:27.000Z</time>
      </trkpt>
      <trkpt lat="47.28464" lon="-2.36709">
        <ele>15.800000190735</ele>
        <time>2020-06-14T07:35:30.000Z</time>
      </trkpt>
      <trkpt lat="47.28472" lon="-2.36701">
        <ele>15.800000190735</ele>
        <time>2020-06-14T07:35:32.000Z</time>
      </trkpt>
      <trkpt lat="47.28479" lon="-2.36693">
        <ele>16.200000762939</ele>
        <time>2020-06-14T07:35:34.000Z</time>
      </trkpt>
      <trkpt lat="47.28483" lon="-2.36689">
        <ele>16.60000038147</ele>
        <time>2020-06-14T07:35:35.000Z</time>
      </trkpt>
      <trkpt lat="47.28487" lon="-2.36686">
        <ele>17</ele>
        <time>2020-06-14T07:35:36.000Z</time>
      </trkpt>
      <trkpt lat="47.2849" lon="-2.36682">
        <ele>17.39999961853</ele>
        <time>2020-06-14T07:35:37.000Z</time>
      </trkpt>
      <trkpt lat="47.28493" lon="-2.36679">
        <ele>17.799999237061</ele>
        <time>2020-06-14T07:35:38.000Z</time>
      </trkpt>
      <trkpt lat="47.28507" lon="-2.36683">
        <ele>17.799999237061</ele>
        <time>2020-06-14T07:35:42.000Z</time>
      </trkpt>
      <trkpt lat="47.28513" lon="-2.36689">
        <ele>17.799999237061</ele>
        <time>2020-06-14T07:35:44.000Z</time>
      </trkpt>
      <trkpt lat="47.28525" lon="-2.36707">
        <ele>17.799999237061</ele>
        <time>2020-06-14T07:35:47.000Z</time>
      </trkpt>
      <trkpt lat="47.28529" lon="-2.36715">
        <ele>17.799999237061</ele>
        <time>2020-06-14T07:35:48.000Z</time>
      </trkpt>
      <trkpt lat="47.28547" lon="-2.36749">
        <ele>17.799999237061</ele>
        <time>2020-06-14T07:35:52.000Z</time>
      </trkpt>
      <trkpt lat="47.28551" lon="-2.36758">
        <ele>17.39999961853</ele>
        <time>2020-06-14T07:35:53.000Z</time>
      </trkpt>
      <trkpt lat="47.28556" lon="-2.36768">
        <ele>17</ele>
        <time>2020-06-14T07:35:54.000Z</time>
      </trkpt>
      <trkpt lat="47.28561" lon="-2.36777">
        <ele>16.60000038147</ele>
        <time>2020-06-14T07:35:55.000Z</time>
      </trkpt>
      <trkpt lat="47.28567" lon="-2.36786">
        <ele>16.200000762939</ele>
        <time>2020-06-14T07:35:56.000Z</time>
      </trkpt>
      <trkpt lat="47.28572" lon="-2.36795">
        <ele>15.800000190735</ele>
        <time>2020-06-14T07:35:57.000Z</time>
      </trkpt>
      <trkpt lat="47.28586" lon="-2.36822">
        <ele>15.800000190735</ele>
        <time>2020-06-14T07:36:00.000Z</time>
      </trkpt>
      <trkpt lat="47.28594" lon="-2.36839">
        <ele>15.39999961853</ele>
        <time>2020-06-14T07:36:02.000Z</time>
      </trkpt>
      <trkpt lat="47.28599" lon="-2.36844">
        <ele>15</ele>
        <time>2020-06-14T07:36:03.000Z</time>
      </trkpt>
      <trkpt lat="47.28604" lon="-2.36847">
        <ele>14.60000038147</ele>
        <time>2020-06-14T07:36:04.000Z</time>
      </trkpt>
      <trkpt lat="47.2861" lon="-2.36849">
        <ele>14</ele>
        <time>2020-06-14T07:36:05.000Z</time>
      </trkpt>
      <trkpt lat="47.28615" lon="-2.36845">
        <ele>13.60000038147</ele>
        <time>2020-06-14T07:36:06.000Z</time>
      </trkpt>
      <trkpt lat="47.28619" lon="-2.36841">
        <ele>13.60000038147</ele>
        <time>2020-06-14T07:36:07.000Z</time>
      </trkpt>
      <trkpt lat="47.2863" lon="-2.36827">
        <ele>13.60000038147</ele>
        <time>2020-06-14T07:36:10.000Z</time>
      </trkpt>
      <trkpt lat="47.2864" lon="-2.36814">
        <ele>13.60000038147</ele>
        <time>2020-06-14T07:36:13.000Z</time>
      </trkpt>
      <trkpt lat="47.28659" lon="-2.36794">
        <ele>13.60000038147</ele>
        <time>2020-06-14T07:36:19.000Z</time>
      </trkpt>
      <trkpt lat="47.28664" lon="-2.36795">
        <ele>13.60000038147</ele>
        <time>2020-06-14T07:36:21.000Z</time>
      </trkpt>
      <trkpt lat="47.28669" lon="-2.36797">
        <ele>13.60000038147</ele>
        <time>2020-06-14T07:36:23.000Z</time>
      </trkpt>
      <trkpt lat="47.2868" lon="-2.36814">
        <ele>13.60000038147</ele>
        <time>2020-06-14T07:36:29.000Z</time>
      </trkpt>
      <trkpt lat="47.28691" lon="-2.3684">
        <ele>13.60000038147</ele>
        <time>2020-06-14T07:36:34.000Z</time>
      </trkpt>
      <trkpt lat="47.28704" lon="-2.36867">
        <ele>13.60000038147</ele>
        <time>2020-06-14T07:36:40.000Z</time>
      </trkpt>
      <trkpt lat="47.28711" lon="-2.3687">
        <ele>13.199999809265</ele>
        <time>2020-06-14T07:36:43.000Z</time>
      </trkpt>
      <trkpt lat="47.28713" lon="-2.36872">
        <ele>12.800000190735</ele>
        <time>2020-06-14T07:36:44.000Z</time>
      </trkpt>
      <trkpt lat="47.28715" lon="-2.36874">
        <ele>12.39999961853</ele>
        <time>2020-06-14T07:36:45.000Z</time>
      </trkpt>
      <trkpt lat="47.28717" lon="-2.36877">
        <ele>12</ele>
        <time>2020-06-14T07:36:46.000Z</time>
      </trkpt>
      <trkpt lat="47.2872" lon="-2.36881">
        <ele>11.60000038147</ele>
        <time>2020-06-14T07:36:47.000Z</time>
      </trkpt>
      <trkpt lat="47.28725" lon="-2.36892">
        <ele>11.60000038147</ele>
        <time>2020-06-14T07:36:48.000Z</time>
      </trkpt>
      <trkpt lat="47.28732" lon="-2.36906">
        <ele>11.199999809265</ele>
        <time>2020-06-14T07:36:50.000Z</time>
      </trkpt>
      <trkpt lat="47.28735" lon="-2.36912">
        <ele>10.800000190735</ele>
        <time>2020-06-14T07:36:51.000Z</time>
      </trkpt>
      <trkpt lat="47.28738" lon="-2.36918">
        <ele>10.39999961853</ele>
        <time>2020-06-14T07:36:52.000Z</time>
      </trkpt>
      <trkpt lat="47.28741" lon="-2.36922">
        <ele>10</ele>
        <time>2020-06-14T07:36:53.000Z</time>
      </trkpt>
      <trkpt lat="47.28744" lon="-2.36927">
        <ele>9.6000003814697</ele>
        <time>2020-06-14T07:36:54.000Z</time>
      </trkpt>
      <trkpt lat="47.28746" lon="-2.36931">
        <ele>10</ele>
        <time>2020-06-14T07:36:55.000Z</time>
      </trkpt>
      <trkpt lat="47.28747" lon="-2.36937">
        <ele>10.39999961853</ele>
        <time>2020-06-14T07:36:56.000Z</time>
      </trkpt>
      <trkpt lat="47.28748" lon="-2.36941">
        <ele>11.199999809265</ele>
        <time>2020-06-14T07:36:57.000Z</time>
      </trkpt>
      <trkpt lat="47.28749" lon="-2.36945">
        <ele>11.60000038147</ele>
        <time>2020-06-14T07:36:58.000Z</time>
      </trkpt>
      <trkpt lat="47.2875" lon="-2.36948">
        <ele>12</ele>
        <time>2020-06-14T07:36:59.000Z</time>
      </trkpt>
      <trkpt lat="47.28751" lon="-2.36951">
        <ele>12.39999961853</ele>
        <time>2020-06-14T07:37:00.000Z</time>
      </trkpt>
      <trkpt lat="47.28751" lon="-2.36955">
        <ele>13</ele>
        <time>2020-06-14T07:37:01.000Z</time>
      </trkpt>
      <trkpt lat="47.28752" lon="-2.36958">
        <ele>13.39999961853</ele>
        <time>2020-06-14T07:37:02.000Z</time>
      </trkpt>
      <trkpt lat="47.28753" lon="-2.36962">
        <ele>13.800000190735</ele>
        <time>2020-06-14T07:37:03.000Z</time>
      </trkpt>
      <trkpt lat="47.28754" lon="-2.36965">
        <ele>13.800000190735</ele>
        <time>2020-06-14T07:37:04.000Z</time>
      </trkpt>
      <trkpt lat="47.28767" lon="-2.36985">
        <ele>13.800000190735</ele>
        <time>2020-06-14T07:37:09.000Z</time>
      </trkpt>
      <trkpt lat="47.28777" lon="-2.37007">
        <ele>13.800000190735</ele>
        <time>2020-06-14T07:37:14.000Z</time>
      </trkpt>
      <trkpt lat="47.28786" lon="-2.37039">
        <ele>13.800000190735</ele>
        <time>2020-06-14T07:37:19.000Z</time>
      </trkpt>
      <trkpt lat="47.28792" lon="-2.37069">
        <ele>13.39999961853</ele>
        <time>2020-06-14T07:37:23.000Z</time>
      </trkpt>
      <trkpt lat="47.28793" lon="-2.37078">
        <ele>12.800000190735</ele>
        <time>2020-06-14T07:37:24.000Z</time>
      </trkpt>
      <trkpt lat="47.28794" lon="-2.37085">
        <ele>12.39999961853</ele>
        <time>2020-06-14T07:37:25.000Z</time>
      </trkpt>
      <trkpt lat="47.28796" lon="-2.37091">
        <ele>11.800000190735</ele>
        <time>2020-06-14T07:37:26.000Z</time>
      </trkpt>
      <trkpt lat="47.28799" lon="-2.37095">
        <ele>11.39999961853</ele>
        <time>2020-06-14T07:37:27.000Z</time>
      </trkpt>
      <trkpt lat="47.28802" lon="-2.37098">
        <ele>10.800000190735</ele>
        <time>2020-06-14T07:37:28.000Z</time>
      </trkpt>
      <trkpt lat="47.28806" lon="-2.37099">
        <ele>10.199999809265</ele>
        <time>2020-06-14T07:37:29.000Z</time>
      </trkpt>
      <trkpt lat="47.2881" lon="-2.37101">
        <ele>9.8000001907349</ele>
        <time>2020-06-14T07:37:30.000Z</time>
      </trkpt>
      <trkpt lat="47.28813" lon="-2.37103">
        <ele>9.1999998092651</ele>
        <time>2020-06-14T07:37:31.000Z</time>
      </trkpt>
      <trkpt lat="47.28816" lon="-2.37102">
        <ele>8.8000001907349</ele>
        <time>2020-06-14T07:37:32.000Z</time>
      </trkpt>
      <trkpt lat="47.28819" lon="-2.37101">
        <ele>8.1999998092651</ele>
        <time>2020-06-14T07:37:33.000Z</time>
      </trkpt>
      <trkpt lat="47.28821" lon="-2.371">
        <ele>7.8000001907349</ele>
        <time>2020-06-14T07:37:34.000Z</time>
      </trkpt>
      <trkpt lat="47.28823" lon="-2.371">
        <ele>7.1999998092651</ele>
        <time>2020-06-14T07:37:35.000Z</time>
      </trkpt>
      <trkpt lat="47.28825" lon="-2.37102">
        <ele>6.5999999046326</ele>
        <time>2020-06-14T07:37:36.000Z</time>
      </trkpt>
      <trkpt lat="47.28826" lon="-2.37107">
        <ele>6.1999998092651</ele>
        <time>2020-06-14T07:37:37.000Z</time>
      </trkpt>
      <trkpt lat="47.28827" lon="-2.37112">
        <ele>5.5999999046326</ele>
        <time>2020-06-14T07:37:38.000Z</time>
      </trkpt>
      <trkpt lat="47.28828" lon="-2.37117">
        <ele>5</ele>
        <time>2020-06-14T07:37:39.000Z</time>
      </trkpt>
      <trkpt lat="47.28828" lon="-2.37124">
        <ele>4.4000000953674</ele>
        <time>2020-06-14T07:37:40.000Z</time>
      </trkpt>
      <trkpt lat="47.28828" lon="-2.37138">
        <ele>4.4000000953674</ele>
        <time>2020-06-14T07:37:42.000Z</time>
      </trkpt>
      <trkpt lat="47.28829" lon="-2.37145">
        <ele>4.4000000953674</ele>
        <time>2020-06-14T07:37:43.000Z</time>
      </trkpt>
      <trkpt lat="47.28834" lon="-2.37173">
        <ele>4.4000000953674</ele>
        <time>2020-06-14T07:37:47.000Z</time>
      </trkpt>
      <trkpt lat="47.28836" lon="-2.37185">
        <ele>4.4000000953674</ele>
        <time>2020-06-14T07:37:49.000Z</time>
      </trkpt>
      <trkpt lat="47.2884" lon="-2.37212">
        <ele>4.4000000953674</ele>
        <time>2020-06-14T07:37:53.000Z</time>
      </trkpt>
      <trkpt lat="47.28844" lon="-2.37235">
        <ele>4</ele>
        <time>2020-06-14T07:37:57.000Z</time>
      </trkpt>
      <trkpt lat="47.28846" lon="-2.37238">
        <ele>3.5999999046326</ele>
        <time>2020-06-14T07:37:58.000Z</time>
      </trkpt>
      <trkpt lat="47.28848" lon="-2.3724">
        <ele>3.2000000476837</ele>
        <time>2020-06-14T07:37:59.000Z</time>
      </trkpt>
      <trkpt lat="47.28851" lon="-2.3724">
        <ele>2.7999999523163</ele>
        <time>2020-06-14T07:38:00.000Z</time>
      </trkpt>
      <trkpt lat="47.28854" lon="-2.37241">
        <ele>2.4000000953674</ele>
        <time>2020-06-14T07:38:01.000Z</time>
      </trkpt>
      <trkpt lat="47.28857" lon="-2.3724">
        <ele>2.4000000953674</ele>
        <time>2020-06-14T07:38:02.000Z</time>
      </trkpt>
      <trkpt lat="47.28861" lon="-2.37238">
        <ele>2.4000000953674</ele>
        <time>2020-06-14T07:38:04.000Z</time>
      </trkpt>
      <trkpt lat="47.28876" lon="-2.3723">
        <ele>2.4000000953674</ele>
        <time>2020-06-14T07:38:09.000Z</time>
      </trkpt>
      <trkpt lat="47.28897" lon="-2.37218">
        <ele>2.4000000953674</ele>
        <time>2020-06-14T07:38:16.000Z</time>
      </trkpt>
      <trkpt lat="47.28919" lon="-2.37208">
        <ele>2.4000000953674</ele>
        <time>2020-06-14T07:38:23.000Z</time>
      </trkpt>
      <trkpt lat="47.28938" lon="-2.37203">
        <ele>2.4000000953674</ele>
        <time>2020-06-14T07:38:30.000Z</time>
      </trkpt>
      <trkpt lat="47.28938" lon="-2.37203">
        <ele>2.4000000953674</ele>
        <time>2020-06-14T07:38:32.000Z</time>
      </trkpt>
      <trkpt lat="47.28939" lon="-2.37203">
        <ele>4.4000000953674</ele>
        <time>2020-06-14T07:38:57.000Z</time>
      </trkpt>
      <trkpt lat="47.28951" lon="-2.37198">
        <ele>4.4000000953674</ele>
        <time>2020-06-14T07:39:02.000Z</time>
      </trkpt>
      <trkpt lat="47.28968" lon="-2.3719">
        <ele>4.4000000953674</ele>
        <time>2020-06-14T07:39:07.000Z</time>
      </trkpt>
      <trkpt lat="47.28971" lon="-2.37188">
        <ele>4.8000001907349</ele>
        <time>2020-06-14T07:39:08.000Z</time>
      </trkpt>
      <trkpt lat="47.28974" lon="-2.37185">
        <ele>5.1999998092651</ele>
        <time>2020-06-14T07:39:09.000Z</time>
      </trkpt>
      <trkpt lat="47.28978" lon="-2.37181">
        <ele>5.8000001907349</ele>
        <time>2020-06-14T07:39:10.000Z</time>
      </trkpt>
      <trkpt lat="47.28981" lon="-2.37179">
        <ele>6.1999998092651</ele>
        <time>2020-06-14T07:39:11.000Z</time>
      </trkpt>
      <trkpt lat="47.28984" lon="-2.37177">
        <ele>6.5999999046326</ele>
        <time>2020-06-14T07:39:12.000Z</time>
      </trkpt>
      <trkpt lat="47.29004" lon="-2.37171">
        <ele>7</ele>
        <time>2020-06-14T07:39:19.000Z</time>
      </trkpt>
      <trkpt lat="47.29008" lon="-2.37174">
        <ele>7.4000000953674</ele>
        <time>2020-06-14T07:39:20.000Z</time>
      </trkpt>
      <trkpt lat="47.29013" lon="-2.37178">
        <ele>8.1999998092651</ele>
        <time>2020-06-14T07:39:21.000Z</time>
      </trkpt>
      <trkpt lat="47.29016" lon="-2.37181">
        <ele>8.6000003814697</ele>
        <time>2020-06-14T07:39:22.000Z</time>
      </trkpt>
      <trkpt lat="47.29022" lon="-2.37188">
        <ele>8.6000003814697</ele>
        <time>2020-06-14T07:39:24.000Z</time>
      </trkpt>
      <trkpt lat="47.29028" lon="-2.37195">
        <ele>9.1999998092651</ele>
        <time>2020-06-14T07:39:26.000Z</time>
      </trkpt>
      <trkpt lat="47.29031" lon="-2.37198">
        <ele>9.6000003814697</ele>
        <time>2020-06-14T07:39:27.000Z</time>
      </trkpt>
      <trkpt lat="47.29034" lon="-2.37202">
        <ele>10</ele>
        <time>2020-06-14T07:39:28.000Z</time>
      </trkpt>
      <trkpt lat="47.29037" lon="-2.37205">
        <ele>10.39999961853</ele>
        <time>2020-06-14T07:39:29.000Z</time>
      </trkpt>
      <trkpt lat="47.2904" lon="-2.37208">
        <ele>10.800000190735</ele>
        <time>2020-06-14T07:39:30.000Z</time>
      </trkpt>
      <trkpt lat="47.29049" lon="-2.37217">
        <ele>10.800000190735</ele>
        <time>2020-06-14T07:39:33.000Z</time>
      </trkpt>
      <trkpt lat="47.29064" lon="-2.37232">
        <ele>11.60000038147</ele>
        <time>2020-06-14T07:39:38.000Z</time>
      </trkpt>
      <trkpt lat="47.29067" lon="-2.37235">
        <ele>12</ele>
        <time>2020-06-14T07:39:39.000Z</time>
      </trkpt>
      <trkpt lat="47.2907" lon="-2.37239">
        <ele>12.39999961853</ele>
        <time>2020-06-14T07:39:40.000Z</time>
      </trkpt>
      <trkpt lat="47.29073" lon="-2.37242">
        <ele>12.800000190735</ele>
        <time>2020-06-14T07:39:41.000Z</time>
      </trkpt>
      <trkpt lat="47.29089" lon="-2.37258">
        <ele>12.800000190735</ele>
        <time>2020-06-14T07:39:46.000Z</time>
      </trkpt>
      <trkpt lat="47.29099" lon="-2.37267">
        <ele>12.800000190735</ele>
        <time>2020-06-14T07:39:49.000Z</time>
      </trkpt>
      <trkpt lat="47.2912" lon="-2.3729">
        <ele>13.199999809265</ele>
        <time>2020-06-14T07:39:56.000Z</time>
      </trkpt>
      <trkpt lat="47.29123" lon="-2.37293">
        <ele>13.60000038147</ele>
        <time>2020-06-14T07:39:57.000Z</time>
      </trkpt>
      <trkpt lat="47.29126" lon="-2.37296">
        <ele>14</ele>
        <time>2020-06-14T07:39:58.000Z</time>
      </trkpt>
      <trkpt lat="47.29129" lon="-2.37299">
        <ele>14.39999961853</ele>
        <time>2020-06-14T07:39:59.000Z</time>
      </trkpt>
      <trkpt lat="47.29132" lon="-2.37302">
        <ele>14.800000190735</ele>
        <time>2020-06-14T07:40:00.000Z</time>
      </trkpt>
      <trkpt lat="47.29144" lon="-2.37315">
        <ele>14.800000190735</ele>
        <time>2020-06-14T07:40:04.000Z</time>
      </trkpt>
      <trkpt lat="47.29157" lon="-2.37342">
        <ele>14.800000190735</ele>
        <time>2020-06-14T07:40:10.000Z</time>
      </trkpt>
      <trkpt lat="47.29175" lon="-2.37381">
        <ele>14.800000190735</ele>
        <time>2020-06-14T07:40:18.000Z</time>
      </trkpt>
      <trkpt lat="47.29194" lon="-2.37414">
        <ele>14.800000190735</ele>
        <time>2020-06-14T07:40:25.000Z</time>
      </trkpt>
      <trkpt lat="47.29222" lon="-2.37458">
        <ele>14.800000190735</ele>
        <time>2020-06-14T07:40:33.000Z</time>
      </trkpt>
      <trkpt lat="47.29226" lon="-2.37464">
        <ele>14.39999961853</ele>
        <time>2020-06-14T07:40:34.000Z</time>
      </trkpt>
      <trkpt lat="47.29229" lon="-2.3747">
        <ele>14</ele>
        <time>2020-06-14T07:40:35.000Z</time>
      </trkpt>
      <trkpt lat="47.29233" lon="-2.37476">
        <ele>13.60000038147</ele>
        <time>2020-06-14T07:40:36.000Z</time>
      </trkpt>
      <trkpt lat="47.29237" lon="-2.37482">
        <ele>13.199999809265</ele>
        <time>2020-06-14T07:40:37.000Z</time>
      </trkpt>
      <trkpt lat="47.29241" lon="-2.37488">
        <ele>12.800000190735</ele>
        <time>2020-06-14T07:40:38.000Z</time>
      </trkpt>
      <trkpt lat="47.29249" lon="-2.375">
        <ele>12.800000190735</ele>
        <time>2020-06-14T07:40:40.000Z</time>
      </trkpt>
      <trkpt lat="47.29258" lon="-2.3751">
        <ele>12.800000190735</ele>
        <time>2020-06-14T07:40:42.000Z</time>
      </trkpt>
      <trkpt lat="47.29267" lon="-2.37517">
        <ele>12.800000190735</ele>
        <time>2020-06-14T07:40:44.000Z</time>
      </trkpt>
      <trkpt lat="47.29279" lon="-2.3754">
        <ele>12.800000190735</ele>
        <time>2020-06-14T07:40:48.000Z</time>
      </trkpt>
      <trkpt lat="47.29285" lon="-2.37554">
        <ele>12.39999961853</ele>
        <time>2020-06-14T07:40:50.000Z</time>
      </trkpt>
      <trkpt lat="47.29288" lon="-2.3756">
        <ele>11.800000190735</ele>
        <time>2020-06-14T07:40:51.000Z</time>
      </trkpt>
      <trkpt lat="47.29292" lon="-2.37567">
        <ele>11</ele>
        <time>2020-06-14T07:40:52.000Z</time>
      </trkpt>
      <trkpt lat="47.29296" lon="-2.37573">
        <ele>10.60000038147</ele>
        <time>2020-06-14T07:40:53.000Z</time>
      </trkpt>
      <trkpt lat="47.29312" lon="-2.37599">
        <ele>10.60000038147</ele>
        <time>2020-06-14T07:40:58.000Z</time>
      </trkpt>
      <trkpt lat="47.29318" lon="-2.3761">
        <ele>10.60000038147</ele>
        <time>2020-06-14T07:41:00.000Z</time>
      </trkpt>
      <trkpt lat="47.29327" lon="-2.37634">
        <ele>10.60000038147</ele>
        <time>2020-06-14T07:41:04.000Z</time>
      </trkpt>
      <trkpt lat="47.29335" lon="-2.37661">
        <ele>10.60000038147</ele>
        <time>2020-06-14T07:41:08.000Z</time>
      </trkpt>
      <trkpt lat="47.29336" lon="-2.37677">
        <ele>10.60000038147</ele>
        <time>2020-06-14T07:41:10.000Z</time>
      </trkpt>
      <trkpt lat="47.29333" lon="-2.37695">
        <ele>10.60000038147</ele>
        <time>2020-06-14T07:41:12.000Z</time>
      </trkpt>
      <trkpt lat="47.29333" lon="-2.37705">
        <ele>10.60000038147</ele>
        <time>2020-06-14T07:41:13.000Z</time>
      </trkpt>
      <trkpt lat="47.29333" lon="-2.37716">
        <ele>10.60000038147</ele>
        <time>2020-06-14T07:41:14.000Z</time>
      </trkpt>
      <trkpt lat="47.29334" lon="-2.37758">
        <ele>10</ele>
        <time>2020-06-14T07:41:18.000Z</time>
      </trkpt>
      <trkpt lat="47.29335" lon="-2.37769">
        <ele>9.6000003814697</ele>
        <time>2020-06-14T07:41:19.000Z</time>
      </trkpt>
      <trkpt lat="47.29335" lon="-2.3778">
        <ele>9.1999998092651</ele>
        <time>2020-06-14T07:41:20.000Z</time>
      </trkpt>
      <trkpt lat="47.29336" lon="-2.37792">
        <ele>8.8000001907349</ele>
        <time>2020-06-14T07:41:21.000Z</time>
      </trkpt>
      <trkpt lat="47.29336" lon="-2.37804">
        <ele>8.3999996185303</ele>
        <time>2020-06-14T07:41:22.000Z</time>
      </trkpt>
      <trkpt lat="47.29337" lon="-2.37816">
        <ele>7.8000001907349</ele>
        <time>2020-06-14T07:41:23.000Z</time>
      </trkpt>
      <trkpt lat="47.29338" lon="-2.37828">
        <ele>7.4000000953674</ele>
        <time>2020-06-14T07:41:24.000Z</time>
      </trkpt>
      <trkpt lat="47.29339" lon="-2.3784">
        <ele>7</ele>
        <time>2020-06-14T07:41:25.000Z</time>
      </trkpt>
      <trkpt lat="47.29341" lon="-2.37851">
        <ele>6.5999999046326</ele>
        <time>2020-06-14T07:41:26.000Z</time>
      </trkpt>
      <trkpt lat="47.29344" lon="-2.37863">
        <ele>6</ele>
        <time>2020-06-14T07:41:27.000Z</time>
      </trkpt>
      <trkpt lat="47.29347" lon="-2.37874">
        <ele>5.5999999046326</ele>
        <time>2020-06-14T07:41:28.000Z</time>
      </trkpt>
      <trkpt lat="47.29351" lon="-2.37885">
        <ele>5.1999998092651</ele>
        <time>2020-06-14T07:41:29.000Z</time>
      </trkpt>
      <trkpt lat="47.29354" lon="-2.37895">
        <ele>4.8000001907349</ele>
        <time>2020-06-14T07:41:30.000Z</time>
      </trkpt>
      <trkpt lat="47.29358" lon="-2.37906">
        <ele>4.4000000953674</ele>
        <time>2020-06-14T07:41:31.000Z</time>
      </trkpt>
      <trkpt lat="47.29362" lon="-2.37916">
        <ele>4</ele>
        <time>2020-06-14T07:41:32.000Z</time>
      </trkpt>
      <trkpt lat="47.2938" lon="-2.37968">
        <ele>4</ele>
        <time>2020-06-14T07:41:37.000Z</time>
      </trkpt>
      <trkpt lat="47.29384" lon="-2.37978">
        <ele>3.5999999046326</ele>
        <time>2020-06-14T07:41:38.000Z</time>
      </trkpt>
      <trkpt lat="47.29388" lon="-2.3799">
        <ele>3.2000000476837</ele>
        <time>2020-06-14T07:41:39.000Z</time>
      </trkpt>
      <trkpt lat="47.29392" lon="-2.38">
        <ele>2.5999999046326</ele>
        <time>2020-06-14T07:41:40.000Z</time>
      </trkpt>
      <trkpt lat="47.29396" lon="-2.3801">
        <ele>2.2000000476837</ele>
        <time>2020-06-14T07:41:41.000Z</time>
      </trkpt>
      <trkpt lat="47.29399" lon="-2.38021">
        <ele>1.7999999523163</ele>
        <time>2020-06-14T07:41:42.000Z</time>
      </trkpt>
      <trkpt lat="47.2941" lon="-2.3805">
        <ele>1.3999999761581</ele>
        <time>2020-06-14T07:41:45.000Z</time>
      </trkpt>
      <trkpt lat="47.29414" lon="-2.3806">
        <ele>1</ele>
        <time>2020-06-14T07:41:46.000Z</time>
      </trkpt>
      <trkpt lat="47.29418" lon="-2.3807">
        <ele>0.40000000596046</ele>
        <time>2020-06-14T07:41:47.000Z</time>
      </trkpt>
      <trkpt lat="47.29421" lon="-2.3808">
        <ele>4.3</ele>
        <time>2020-06-14T07:41:48.000Z</time>
      </trkpt>
      <trkpt lat="47.29425" lon="-2.38089">
        <ele>-0.40000000596046</ele>
        <time>2020-06-14T07:41:49.000Z</time>
      </trkpt>
      <trkpt lat="47.29441" lon="-2.38132">
        <ele>-0.40000000596046</ele>
        <time>2020-06-14T07:41:54.000Z</time>
      </trkpt>
      <trkpt lat="47.29451" lon="-2.38154">
        <ele>-0.40000000596046</ele>
        <time>2020-06-14T07:41:58.000Z</time>
      </trkpt>
      <trkpt lat="47.29464" lon="-2.38151">
        <ele>-0.40000000596046</ele>
        <time>2020-06-14T07:42:02.000Z</time>
      </trkpt>
      <trkpt lat="47.29468" lon="-2.38148">
        <ele>-0.40000000596046</ele>
        <time>2020-06-14T07:42:03.000Z</time>
      </trkpt>
      <trkpt lat="47.29472" lon="-2.38144">
        <ele>-0.40000000596046</ele>
        <time>2020-06-14T07:42:04.000Z</time>
      </trkpt>
      <trkpt lat="47.29485" lon="-2.38131">
        <ele>-0.40000000596046</ele>
        <time>2020-06-14T07:42:08.000Z</time>
      </trkpt>
      <trkpt lat="47.29497" lon="-2.38124">
        <ele>-0.40000000596046</ele>
        <time>2020-06-14T07:42:11.000Z</time>
      </trkpt>
      <trkpt lat="47.29502" lon="-2.38124">
        <ele>-0.40000000596046</ele>
        <time>2020-06-14T07:42:12.000Z</time>
      </trkpt>
      <trkpt lat="47.29536" lon="-2.38125">
        <ele>-0.40000000596046</ele>
        <time>2020-06-14T07:42:19.000Z</time>
      </trkpt>
      <trkpt lat="47.29545" lon="-2.38125">
        <ele>9.2</ele>
        <time>2020-06-14T07:42:21.000Z</time>
      </trkpt>
      <trkpt lat="47.2955" lon="-2.38124">
        <ele>0.40000000596046</ele>
        <time>2020-06-14T07:42:22.000Z</time>
      </trkpt>
      <trkpt lat="47.29554" lon="-2.38123">
        <ele>0.80000001192093</ele>
        <time>2020-06-14T07:42:23.000Z</time>
      </trkpt>
      <trkpt lat="47.29559" lon="-2.38123">
        <ele>1.3999999761581</ele>
        <time>2020-06-14T07:42:24.000Z</time>
      </trkpt>
      <trkpt lat="47.29563" lon="-2.38122">
        <ele>1.7999999523163</ele>
        <time>2020-06-14T07:42:25.000Z</time>
      </trkpt>
      <trkpt lat="47.29567" lon="-2.38121">
        <ele>1.7999999523163</ele>
        <time>2020-06-14T07:42:26.000Z</time>
      </trkpt>
      <trkpt lat="47.29592" lon="-2.38114">
        <ele>2.2000000476837</ele>
        <time>2020-06-14T07:42:32.000Z</time>
      </trkpt>
      <trkpt lat="47.29596" lon="-2.38113">
        <ele>2.5999999046326</ele>
        <time>2020-06-14T07:42:33.000Z</time>
      </trkpt>
      <trkpt lat="47.296" lon="-2.38112">
        <ele>3</ele>
        <time>2020-06-14T07:42:34.000Z</time>
      </trkpt>
      <trkpt lat="47.29605" lon="-2.38111">
        <ele>3.4000000953674</ele>
        <time>2020-06-14T07:42:35.000Z</time>
      </trkpt>
      <trkpt lat="47.29609" lon="-2.3811">
        <ele>3.7999999523163</ele>
        <time>2020-06-14T07:42:36.000Z</time>
      </trkpt>
      <trkpt lat="47.29634" lon="-2.38101">
        <ele>3.7999999523163</ele>
        <time>2020-06-14T07:42:42.000Z</time>
      </trkpt>
      <trkpt lat="47.29648" lon="-2.38092">
        <ele>4.1999998092651</ele>
        <time>2020-06-14T07:42:46.000Z</time>
      </trkpt>
      <trkpt lat="47.29652" lon="-2.38091">
        <ele>4.8000001907349</ele>
        <time>2020-06-14T07:42:47.000Z</time>
      </trkpt>
      <trkpt lat="47.29656" lon="-2.38089">
        <ele>5.1999998092651</ele>
        <time>2020-06-14T07:42:48.000Z</time>
      </trkpt>
      <trkpt lat="47.29659" lon="-2.38087">
        <ele>5.5999999046326</ele>
        <time>2020-06-14T07:42:49.000Z</time>
      </trkpt>
      <trkpt lat="47.29663" lon="-2.38085">
        <ele>6</ele>
        <time>2020-06-14T07:42:50.000Z</time>
      </trkpt>
      <trkpt lat="47.29678" lon="-2.38077">
        <ele>6</ele>
        <time>2020-06-14T07:42:55.000Z</time>
      </trkpt>
      <trkpt lat="47.29683" lon="-2.38074">
        <ele>6.4000000953674</ele>
        <time>2020-06-14T07:42:57.000Z</time>
      </trkpt>
      <trkpt lat="47.29686" lon="-2.38072">
        <ele>7</ele>
        <time>2020-06-14T07:42:58.000Z</time>
      </trkpt>
      <trkpt lat="47.29688" lon="-2.3807">
        <ele>7.4000000953674</ele>
        <time>2020-06-14T07:42:59.000Z</time>
      </trkpt>
      <trkpt lat="47.2969" lon="-2.38068">
        <ele>7.8000001907349</ele>
        <time>2020-06-14T07:43:00.000Z</time>
      </trkpt>
      <trkpt lat="47.29693" lon="-2.38066">
        <ele>8.1999998092651</ele>
        <time>2020-06-14T07:43:01.000Z</time>
      </trkpt>
      <trkpt lat="47.29696" lon="-2.38064">
        <ele>8.1999998092651</ele>
        <time>2020-06-14T07:43:02.000Z</time>
      </trkpt>
      <trkpt lat="47.29698" lon="-2.38062">
        <ele>8.6000003814697</ele>
        <time>2020-06-14T07:43:03.000Z</time>
      </trkpt>
      <trkpt lat="47.29701" lon="-2.3806">
        <ele>9</ele>
        <time>2020-06-14T07:43:04.000Z</time>
      </trkpt>
      <trkpt lat="47.29704" lon="-2.38058">
        <ele>9.3999996185303</ele>
        <time>2020-06-14T07:43:05.000Z</time>
      </trkpt>
      <trkpt lat="47.29706" lon="-2.38056">
        <ele>9.8000001907349</ele>
        <time>2020-06-14T07:43:06.000Z</time>
      </trkpt>
      <trkpt lat="47.29708" lon="-2.38054">
        <ele>10.199999809265</ele>
        <time>2020-06-14T07:43:07.000Z</time>
      </trkpt>
      <trkpt lat="47.29712" lon="-2.38051">
        <ele>10.199999809265</ele>
        <time>2020-06-14T07:43:09.000Z</time>
      </trkpt>
      <trkpt lat="47.29715" lon="-2.38049">
        <ele>10.60000038147</ele>
        <time>2020-06-14T07:43:10.000Z</time>
      </trkpt>
      <trkpt lat="47.29717" lon="-2.38047">
        <ele>11</ele>
        <time>2020-06-14T07:43:11.000Z</time>
      </trkpt>
      <trkpt lat="47.29719" lon="-2.38045">
        <ele>11.39999961853</ele>
        <time>2020-06-14T07:43:12.000Z</time>
      </trkpt>
      <trkpt lat="47.2972" lon="-2.38044">
        <ele>12</ele>
        <time>2020-06-14T07:43:13.000Z</time>
      </trkpt>
      <trkpt lat="47.29722" lon="-2.38042">
        <ele>12.39999961853</ele>
        <time>2020-06-14T07:43:14.000Z</time>
      </trkpt>
      <trkpt lat="47.29724" lon="-2.3804">
        <ele>12.39999961853</ele>
        <time>2020-06-14T07:43:15.000Z</time>
      </trkpt>
      <trkpt lat="47.29726" lon="-2.38039">
        <ele>12.800000190735</ele>
        <time>2020-06-14T07:43:16.000Z</time>
      </trkpt>
      <trkpt lat="47.29728" lon="-2.38038">
        <ele>13.199999809265</ele>
        <time>2020-06-14T07:43:17.000Z</time>
      </trkpt>
      <trkpt lat="47.29729" lon="-2.38036">
        <ele>13.60000038147</ele>
        <time>2020-06-14T07:43:18.000Z</time>
      </trkpt>
      <trkpt lat="47.29731" lon="-2.38034">
        <ele>14</ele>
        <time>2020-06-14T07:43:19.000Z</time>
      </trkpt>
      <trkpt lat="47.29732" lon="-2.38031">
        <ele>14.39999961853</ele>
        <time>2020-06-14T07:43:20.000Z</time>
      </trkpt>
      <trkpt lat="47.29733" lon="-2.38029">
        <ele>14.800000190735</ele>
        <time>2020-06-14T07:43:21.000Z</time>
      </trkpt>
      <trkpt lat="47.29733" lon="-2.38026">
        <ele>15.199999809265</ele>
        <time>2020-06-14T07:43:22.000Z</time>
      </trkpt>
      <trkpt lat="47.29733" lon="-2.38023">
        <ele>15.60000038147</ele>
        <time>2020-06-14T07:43:23.000Z</time>
      </trkpt>
      <trkpt lat="47.29732" lon="-2.38021">
        <ele>16</ele>
        <time>2020-06-14T07:43:24.000Z</time>
      </trkpt>
      <trkpt lat="47.29732" lon="-2.38018">
        <ele>16.39999961853</ele>
        <time>2020-06-14T07:43:25.000Z</time>
      </trkpt>
      <trkpt lat="47.29731" lon="-2.38013">
        <ele>16.39999961853</ele>
        <time>2020-06-14T07:43:27.000Z</time>
      </trkpt>
      <trkpt lat="47.29731" lon="-2.38011">
        <ele>16.799999237061</ele>
        <time>2020-06-14T07:43:28.000Z</time>
      </trkpt>
      <trkpt lat="47.2973" lon="-2.38009">
        <ele>17.39999961853</ele>
        <time>2020-06-14T07:43:29.000Z</time>
      </trkpt>
      <trkpt lat="47.2973" lon="-2.38007">
        <ele>17.799999237061</ele>
        <time>2020-06-14T07:43:30.000Z</time>
      </trkpt>
      <trkpt lat="47.2973" lon="-2.38004">
        <ele>18.200000762939</ele>
        <time>2020-06-14T07:43:31.000Z</time>
      </trkpt>
      <trkpt lat="47.2973" lon="-2.38001">
        <ele>18.60000038147</ele>
        <time>2020-06-14T07:43:32.000Z</time>
      </trkpt>
      <trkpt lat="47.2973" lon="-2.37996">
        <ele>19</ele>
        <time>2020-06-14T07:43:34.000Z</time>
      </trkpt>
      <trkpt lat="47.2973" lon="-2.37993">
        <ele>19.39999961853</ele>
        <time>2020-06-14T07:43:35.000Z</time>
      </trkpt>
      <trkpt lat="47.29731" lon="-2.3799">
        <ele>20</ele>
        <time>2020-06-14T07:43:36.000Z</time>
      </trkpt>
      <trkpt lat="47.29731" lon="-2.37987">
        <ele>20.39999961853</ele>
        <time>2020-06-14T07:43:37.000Z</time>
      </trkpt>
      <trkpt lat="47.29732" lon="-2.37984">
        <ele>20.799999237061</ele>
        <time>2020-06-14T07:43:38.000Z</time>
      </trkpt>
      <trkpt lat="47.29734" lon="-2.3798">
        <ele>20.799999237061</ele>
        <time>2020-06-14T07:43:40.000Z</time>
      </trkpt>
      <trkpt lat="47.29735" lon="-2.37977">
        <ele>21.39999961853</ele>
        <time>2020-06-14T07:43:41.000Z</time>
      </trkpt>
      <trkpt lat="47.29736" lon="-2.37975">
        <ele>21.799999237061</ele>
        <time>2020-06-14T07:43:42.000Z</time>
      </trkpt>
      <trkpt lat="47.29737" lon="-2.37972">
        <ele>22.200000762939</ele>
        <time>2020-06-14T07:43:43.000Z</time>
      </trkpt>
      <trkpt lat="47.29737" lon="-2.37971">
        <ele>22.799999237061</ele>
        <time>2020-06-14T07:43:44.000Z</time>
      </trkpt>
      <trkpt lat="47.29738" lon="-2.37969">
        <ele>23.200000762939</ele>
        <time>2020-06-14T07:43:45.000Z</time>
      </trkpt>
      <trkpt lat="47.29739" lon="-2.37967">
        <ele>23.200000762939</ele>
        <time>2020-06-14T07:43:46.000Z</time>
      </trkpt>
      <trkpt lat="47.29742" lon="-2.37958">
        <ele>23.60000038147</ele>
        <time>2020-06-14T07:43:50.000Z</time>
      </trkpt>
      <trkpt lat="47.29743" lon="-2.37955">
        <ele>24</ele>
        <time>2020-06-14T07:43:51.000Z</time>
      </trkpt>
      <trkpt lat="47.29744" lon="-2.37953">
        <ele>24.60000038147</ele>
        <time>2020-06-14T07:43:52.000Z</time>
      </trkpt>
      <trkpt lat="47.29745" lon="-2.37951">
        <ele>25</ele>
        <time>2020-06-14T07:43:53.000Z</time>
      </trkpt>
      <trkpt lat="47.29746" lon="-2.37948">
        <ele>25.39999961853</ele>
        <time>2020-06-14T07:43:54.000Z</time>
      </trkpt>
      <trkpt lat="47.29749" lon="-2.37944">
        <ele>25.39999961853</ele>
        <time>2020-06-14T07:43:56.000Z</time>
      </trkpt>
      <trkpt lat="47.29758" lon="-2.37932">
        <ele>25.39999961853</ele>
        <time>2020-06-14T07:44:02.000Z</time>
      </trkpt>
      <trkpt lat="47.2976" lon="-2.3793">
        <ele>25.799999237061</ele>
        <time>2020-06-14T07:44:03.000Z</time>
      </trkpt>
      <trkpt lat="47.29762" lon="-2.37928">
        <ele>26.200000762939</ele>
        <time>2020-06-14T07:44:04.000Z</time>
      </trkpt>
      <trkpt lat="47.29764" lon="-2.37926">
        <ele>26.60000038147</ele>
        <time>2020-06-14T07:44:05.000Z</time>
      </trkpt>
      <trkpt lat="47.29766" lon="-2.37923">
        <ele>27</ele>
        <time>2020-06-14T07:44:06.000Z</time>
      </trkpt>
      <trkpt lat="47.29769" lon="-2.37921">
        <ele>27.39999961853</ele>
        <time>2020-06-14T07:44:07.000Z</time>
      </trkpt>
      <trkpt lat="47.29773" lon="-2.37919">
        <ele>27.39999961853</ele>
        <time>2020-06-14T07:44:09.000Z</time>
      </trkpt>
      <trkpt lat="47.29787" lon="-2.3791">
        <ele>27.39999961853</ele>
        <time>2020-06-14T07:44:15.000Z</time>
      </trkpt>
      <trkpt lat="47.29805" lon="-2.37901">
        <ele>27.39999961853</ele>
        <time>2020-06-14T07:44:22.000Z</time>
      </trkpt>
      <trkpt lat="47.29826" lon="-2.37886">
        <ele>27.39999961853</ele>
        <time>2020-06-14T07:44:28.000Z</time>
      </trkpt>
      <trkpt lat="47.29847" lon="-2.37864">
        <ele>27.39999961853</ele>
        <time>2020-06-14T07:44:34.000Z</time>
      </trkpt>
      <trkpt lat="47.29862" lon="-2.37833">
        <ele>27.39999961853</ele>
        <time>2020-06-14T07:44:39.000Z</time>
      </trkpt>
      <trkpt lat="47.29868" lon="-2.37818">
        <ele>27.39999961853</ele>
        <time>2020-06-14T07:44:43.000Z</time>
      </trkpt>
      <trkpt lat="47.29874" lon="-2.37807">
        <ele>27.39999961853</ele>
        <time>2020-06-14T07:44:50.000Z</time>
      </trkpt>
      <trkpt lat="47.29874" lon="-2.37807">
        <ele>27.39999961853</ele>
        <time>2020-06-14T07:44:51.000Z</time>
      </trkpt>
      <trkpt lat="47.29875" lon="-2.37804">
        <ele>27.39999961853</ele>
        <time>2020-06-14T07:44:58.000Z</time>
      </trkpt>
      <trkpt lat="47.29876" lon="-2.378">
        <ele>27.39999961853</ele>
        <time>2020-06-14T07:45:00.000Z</time>
      </trkpt>
      <trkpt lat="47.29874" lon="-2.37792">
        <ele>27.39999961853</ele>
        <time>2020-06-14T07:45:04.000Z</time>
      </trkpt>
      <trkpt lat="47.29868" lon="-2.37792">
        <ele>27.39999961853</ele>
        <time>2020-06-14T07:45:09.000Z</time>
      </trkpt>
      <trkpt lat="47.29869" lon="-2.378">
        <ele>27.39999961853</ele>
        <time>2020-06-14T07:45:13.000Z</time>
      </trkpt>
      <trkpt lat="47.2987" lon="-2.37801">
        <ele>27.39999961853</ele>
        <time>2020-06-14T07:45:14.000Z</time>
      </trkpt>
      <trkpt lat="47.29874" lon="-2.37806">
        <ele>27.39999961853</ele>
        <time>2020-06-14T07:45:19.000Z</time>
      </trkpt>
      <trkpt lat="47.2988" lon="-2.37815">
        <ele>27.39999961853</ele>
        <time>2020-06-14T07:45:24.000Z</time>
      </trkpt>
      <trkpt lat="47.29895" lon="-2.37834">
        <ele>27.39999961853</ele>
        <time>2020-06-14T07:45:28.000Z</time>
      </trkpt>
      <trkpt lat="47.29901" lon="-2.37841">
        <ele>27</ele>
        <time>2020-06-14T07:45:29.000Z</time>
      </trkpt>
      <trkpt lat="47.29906" lon="-2.37848">
        <ele>26.60000038147</ele>
        <time>2020-06-14T07:45:30.000Z</time>
      </trkpt>
      <trkpt lat="47.29913" lon="-2.37856">
        <ele>26.200000762939</ele>
        <time>2020-06-14T07:45:31.000Z</time>
      </trkpt>
      <trkpt lat="47.29919" lon="-2.37865">
        <ele>25.799999237061</ele>
        <time>2020-06-14T07:45:32.000Z</time>
      </trkpt>
      <trkpt lat="47.29926" lon="-2.37873">
        <ele>25.39999961853</ele>
        <time>2020-06-14T07:45:33.000Z</time>
      </trkpt>
      <trkpt lat="47.29933" lon="-2.37882">
        <ele>24.799999237061</ele>
        <time>2020-06-14T07:45:34.000Z</time>
      </trkpt>
      <trkpt lat="47.2994" lon="-2.3789">
        <ele>24.39999961853</ele>
        <time>2020-06-14T07:45:35.000Z</time>
      </trkpt>
      <trkpt lat="47.29947" lon="-2.37898">
        <ele>24</ele>
        <time>2020-06-14T07:45:36.000Z</time>
      </trkpt>
      <trkpt lat="47.29954" lon="-2.37906">
        <ele>23.60000038147</ele>
        <time>2020-06-14T07:45:37.000Z</time>
      </trkpt>
      <trkpt lat="47.29961" lon="-2.37914">
        <ele>23.200000762939</ele>
        <time>2020-06-14T07:45:38.000Z</time>
      </trkpt>
      <trkpt lat="47.29967" lon="-2.37921">
        <ele>23.200000762939</ele>
        <time>2020-06-14T07:45:39.000Z</time>
      </trkpt>
      <trkpt lat="47.29983" lon="-2.3794">
        <ele>22.799999237061</ele>
        <time>2020-06-14T07:45:42.000Z</time>
      </trkpt>
      <trkpt lat="47.29988" lon="-2.37944">
        <ele>22.200000762939</ele>
        <time>2020-06-14T07:45:43.000Z</time>
      </trkpt>
      <trkpt lat="47.29993" lon="-2.37947">
        <ele>21.799999237061</ele>
        <time>2020-06-14T07:45:44.000Z</time>
      </trkpt>
      <trkpt lat="47.29998" lon="-2.3795">
        <ele>21.39999961853</ele>
        <time>2020-06-14T07:45:45.000Z</time>
      </trkpt>
      <trkpt lat="47.30001" lon="-2.37955">
        <ele>21</ele>
        <time>2020-06-14T07:45:46.000Z</time>
      </trkpt>
      <trkpt lat="47.29999" lon="-2.37971">
        <ele>21</ele>
        <time>2020-06-14T07:45:49.000Z</time>
      </trkpt>
      <trkpt lat="47.29997" lon="-2.37978">
        <ele>21</ele>
        <time>2020-06-14T07:45:50.000Z</time>
      </trkpt>
      <trkpt lat="47.29994" lon="-2.37986">
        <ele>21</ele>
        <time>2020-06-14T07:45:51.000Z</time>
      </trkpt>
      <trkpt lat="47.29993" lon="-2.37995">
        <ele>21</ele>
        <time>2020-06-14T07:45:52.000Z</time>
      </trkpt>
      <trkpt lat="47.2999" lon="-2.38024">
        <ele>21</ele>
        <time>2020-06-14T07:45:55.000Z</time>
      </trkpt>
      <trkpt lat="47.2999" lon="-2.38045">
        <ele>21</ele>
        <time>2020-06-14T07:45:57.000Z</time>
      </trkpt>
      <trkpt lat="47.29989" lon="-2.38108">
        <ele>21</ele>
        <time>2020-06-14T07:46:04.000Z</time>
      </trkpt>
      <trkpt lat="47.29992" lon="-2.38161">
        <ele>21</ele>
        <time>2020-06-14T07:46:11.000Z</time>
      </trkpt>
      <trkpt lat="47.29993" lon="-2.38176">
        <ele>21.39999961853</ele>
        <time>2020-06-14T07:46:13.000Z</time>
      </trkpt>
      <trkpt lat="47.29993" lon="-2.38184">
        <ele>22.200000762939</ele>
        <time>2020-06-14T07:46:14.000Z</time>
      </trkpt>
      <trkpt lat="47.29993" lon="-2.38191">
        <ele>22.60000038147</ele>
        <time>2020-06-14T07:46:15.000Z</time>
      </trkpt>
      <trkpt lat="47.29994" lon="-2.38199">
        <ele>23</ele>
        <time>2020-06-14T07:46:16.000Z</time>
      </trkpt>
      <trkpt lat="47.29995" lon="-2.38231">
        <ele>23</ele>
        <time>2020-06-14T07:46:20.000Z</time>
      </trkpt>
      <trkpt lat="47.29996" lon="-2.3826">
        <ele>23.39999961853</ele>
        <time>2020-06-14T07:46:24.000Z</time>
      </trkpt>
      <trkpt lat="47.29996" lon="-2.38268">
        <ele>23.799999237061</ele>
        <time>2020-06-14T07:46:25.000Z</time>
      </trkpt>
      <trkpt lat="47.29996" lon="-2.38276">
        <ele>24.200000762939</ele>
        <time>2020-06-14T07:46:26.000Z</time>
      </trkpt>
      <trkpt lat="47.29997" lon="-2.38284">
        <ele>24.799999237061</ele>
        <time>2020-06-14T07:46:27.000Z</time>
      </trkpt>
      <trkpt lat="47.29997" lon="-2.38291">
        <ele>25.200000762939</ele>
        <time>2020-06-14T07:46:28.000Z</time>
      </trkpt>
      <trkpt lat="47.29998" lon="-2.38345">
        <ele>25.200000762939</ele>
        <time>2020-06-14T07:46:35.000Z</time>
      </trkpt>
      <trkpt lat="47.30001" lon="-2.38401">
        <ele>25.200000762939</ele>
        <time>2020-06-14T07:46:42.000Z</time>
      </trkpt>
      <trkpt lat="47.30007" lon="-2.38455">
        <ele>25.200000762939</ele>
        <time>2020-06-14T07:46:49.000Z</time>
      </trkpt>
      <trkpt lat="47.30016" lon="-2.38513">
        <ele>25.200000762939</ele>
        <time>2020-06-14T07:46:57.000Z</time>
      </trkpt>
      <trkpt lat="47.30024" lon="-2.38577">
        <ele>24.60000038147</ele>
        <time>2020-06-14T07:47:04.000Z</time>
      </trkpt>
      <trkpt lat="47.30025" lon="-2.38586">
        <ele>24.200000762939</ele>
        <time>2020-06-14T07:47:05.000Z</time>
      </trkpt>
      <trkpt lat="47.30026" lon="-2.38596">
        <ele>23.799999237061</ele>
        <time>2020-06-14T07:47:06.000Z</time>
      </trkpt>
      <trkpt lat="47.30027" lon="-2.38605">
        <ele>23.39999961853</ele>
        <time>2020-06-14T07:47:07.000Z</time>
      </trkpt>
      <trkpt lat="47.30026" lon="-2.38615">
        <ele>23</ele>
        <time>2020-06-14T07:47:08.000Z</time>
      </trkpt>
      <trkpt lat="47.30025" lon="-2.38626">
        <ele>23</ele>
        <time>2020-06-14T07:47:09.000Z</time>
      </trkpt>
      <trkpt lat="47.30026" lon="-2.38636">
        <ele>23</ele>
        <time>2020-06-14T07:47:10.000Z</time>
      </trkpt>
      <trkpt lat="47.30027" lon="-2.38646">
        <ele>22.39999961853</ele>
        <time>2020-06-14T07:47:11.000Z</time>
      </trkpt>
      <trkpt lat="47.30028" lon="-2.38657">
        <ele>22</ele>
        <time>2020-06-14T07:47:12.000Z</time>
      </trkpt>
      <trkpt lat="47.30028" lon="-2.38668">
        <ele>21.60000038147</ele>
        <time>2020-06-14T07:47:13.000Z</time>
      </trkpt>
      <trkpt lat="47.30029" lon="-2.38679">
        <ele>21</ele>
        <time>2020-06-14T07:47:14.000Z</time>
      </trkpt>
      <trkpt lat="47.30029" lon="-2.38689">
        <ele>20.60000038147</ele>
        <time>2020-06-14T07:47:15.000Z</time>
      </trkpt>
      <trkpt lat="47.30028" lon="-2.387">
        <ele>20.60000038147</ele>
        <time>2020-06-14T07:47:16.000Z</time>
      </trkpt>
      <trkpt lat="47.30026" lon="-2.38722">
        <ele>20.60000038147</ele>
        <time>2020-06-14T07:47:18.000Z</time>
      </trkpt>
      <trkpt lat="47.30018" lon="-2.38768">
        <ele>20.200000762939</ele>
        <time>2020-06-14T07:47:22.000Z</time>
      </trkpt>
      <trkpt lat="47.30016" lon="-2.3878">
        <ele>19.60000038147</ele>
        <time>2020-06-14T07:47:23.000Z</time>
      </trkpt>
      <trkpt lat="47.30015" lon="-2.38792">
        <ele>19.200000762939</ele>
        <time>2020-06-14T07:47:24.000Z</time>
      </trkpt>
      <trkpt lat="47.30013" lon="-2.38804">
        <ele>18.799999237061</ele>
        <time>2020-06-14T07:47:25.000Z</time>
      </trkpt>
      <trkpt lat="47.30011" lon="-2.38818">
        <ele>18.39999961853</ele>
        <time>2020-06-14T07:47:26.000Z</time>
      </trkpt>
      <trkpt lat="47.3001" lon="-2.3883">
        <ele>17.799999237061</ele>
        <time>2020-06-14T07:47:27.000Z</time>
      </trkpt>
      <trkpt lat="47.30008" lon="-2.38843">
        <ele>16.799999237061</ele>
        <time>2020-06-14T07:47:28.000Z</time>
      </trkpt>
      <trkpt lat="47.30007" lon="-2.38856">
        <ele>16.200000762939</ele>
        <time>2020-06-14T07:47:29.000Z</time>
      </trkpt>
      <trkpt lat="47.30007" lon="-2.38868">
        <ele>15.800000190735</ele>
        <time>2020-06-14T07:47:30.000Z</time>
      </trkpt>
      <trkpt lat="47.30008" lon="-2.38894">
        <ele>15.199999809265</ele>
        <time>2020-06-14T07:47:32.000Z</time>
      </trkpt>
      <trkpt lat="47.30008" lon="-2.38907">
        <ele>14.800000190735</ele>
        <time>2020-06-14T07:47:33.000Z</time>
      </trkpt>
      <trkpt lat="47.30008" lon="-2.3892">
        <ele>14.199999809265</ele>
        <time>2020-06-14T07:47:34.000Z</time>
      </trkpt>
      <trkpt lat="47.30008" lon="-2.38931">
        <ele>13.60000038147</ele>
        <time>2020-06-14T07:47:35.000Z</time>
      </trkpt>
      <trkpt lat="47.30007" lon="-2.38942">
        <ele>12.800000190735</ele>
        <time>2020-06-14T07:47:36.000Z</time>
      </trkpt>
      <trkpt lat="47.30007" lon="-2.38951">
        <ele>12.199999809265</ele>
        <time>2020-06-14T07:47:37.000Z</time>
      </trkpt>
      <trkpt lat="47.30008" lon="-2.38959">
        <ele>11.39999961853</ele>
        <time>2020-06-14T07:47:38.000Z</time>
      </trkpt>
      <trkpt lat="47.3001" lon="-2.38967">
        <ele>10.60000038147</ele>
        <time>2020-06-14T07:47:39.000Z</time>
      </trkpt>
      <trkpt lat="47.30013" lon="-2.38972">
        <ele>9.8000001907349</ele>
        <time>2020-06-14T07:47:40.000Z</time>
      </trkpt>
      <trkpt lat="47.30017" lon="-2.38974">
        <ele>8.8000001907349</ele>
        <time>2020-06-14T07:47:41.000Z</time>
      </trkpt>
      <trkpt lat="47.30022" lon="-2.38975">
        <ele>8</ele>
        <time>2020-06-14T07:47:42.000Z</time>
      </trkpt>
      <trkpt lat="47.30027" lon="-2.38975">
        <ele>8</ele>
        <time>2020-06-14T07:47:43.000Z</time>
      </trkpt>
      <trkpt lat="47.30045" lon="-2.38965">
        <ele>8</ele>
        <time>2020-06-14T07:47:46.000Z</time>
      </trkpt>
      <trkpt lat="47.3005" lon="-2.3896">
        <ele>8</ele>
        <time>2020-06-14T07:47:47.000Z</time>
      </trkpt>
      <trkpt lat="47.30075" lon="-2.38937">
        <ele>8</ele>
        <time>2020-06-14T07:47:52.000Z</time>
      </trkpt>
      <trkpt lat="47.30105" lon="-2.38911">
        <ele>8</ele>
        <time>2020-06-14T07:47:59.000Z</time>
      </trkpt>
      <trkpt lat="47.30115" lon="-2.389">
        <ele>8.6000003814697</ele>
        <time>2020-06-14T07:48:02.000Z</time>
      </trkpt>
      <trkpt lat="47.30118" lon="-2.38895">
        <ele>9</ele>
        <time>2020-06-14T07:48:03.000Z</time>
      </trkpt>
      <trkpt lat="47.30121" lon="-2.38889">
        <ele>9.3999996185303</ele>
        <time>2020-06-14T07:48:04.000Z</time>
      </trkpt>
      <trkpt lat="47.30124" lon="-2.38884">
        <ele>9.8000001907349</ele>
        <time>2020-06-14T07:48:05.000Z</time>
      </trkpt>
      <trkpt lat="47.30128" lon="-2.38878">
        <ele>10.39999961853</ele>
        <time>2020-06-14T07:48:06.000Z</time>
      </trkpt>
      <trkpt lat="47.30142" lon="-2.38851">
        <ele>10.39999961853</ele>
        <time>2020-06-14T07:48:11.000Z</time>
      </trkpt>
      <trkpt lat="47.30145" lon="-2.38845">
        <ele>10.800000190735</ele>
        <time>2020-06-14T07:48:12.000Z</time>
      </trkpt>
      <trkpt lat="47.30148" lon="-2.38841">
        <ele>11.199999809265</ele>
        <time>2020-06-14T07:48:13.000Z</time>
      </trkpt>
      <trkpt lat="47.30151" lon="-2.38836">
        <ele>11.60000038147</ele>
        <time>2020-06-14T07:48:14.000Z</time>
      </trkpt>
      <trkpt lat="47.30154" lon="-2.38831">
        <ele>12.199999809265</ele>
        <time>2020-06-14T07:48:15.000Z</time>
      </trkpt>
      <trkpt lat="47.30157" lon="-2.38825">
        <ele>12.60000038147</ele>
        <time>2020-06-14T07:48:16.000Z</time>
      </trkpt>
      <trkpt lat="47.30166" lon="-2.38811">
        <ele>13</ele>
        <time>2020-06-14T07:48:19.000Z</time>
      </trkpt>
      <trkpt lat="47.3017" lon="-2.38807">
        <ele>13.39999961853</ele>
        <time>2020-06-14T07:48:20.000Z</time>
      </trkpt>
      <trkpt lat="47.30173" lon="-2.38803">
        <ele>13.800000190735</ele>
        <time>2020-06-14T07:48:21.000Z</time>
      </trkpt>
      <trkpt lat="47.30176" lon="-2.38799">
        <ele>14.199999809265</ele>
        <time>2020-06-14T07:48:22.000Z</time>
      </trkpt>
      <trkpt lat="47.30179" lon="-2.38795">
        <ele>14.60000038147</ele>
        <time>2020-06-14T07:48:23.000Z</time>
      </trkpt>
      <trkpt lat="47.30189" lon="-2.38784">
        <ele>14.60000038147</ele>
        <time>2020-06-14T07:48:26.000Z</time>
      </trkpt>
      <trkpt lat="47.30192" lon="-2.3878">
        <ele>15</ele>
        <time>2020-06-14T07:48:27.000Z</time>
      </trkpt>
      <trkpt lat="47.30196" lon="-2.38777">
        <ele>15.39999961853</ele>
        <time>2020-06-14T07:48:28.000Z</time>
      </trkpt>
      <trkpt lat="47.302" lon="-2.38774">
        <ele>15.800000190735</ele>
        <time>2020-06-14T07:48:29.000Z</time>
      </trkpt>
      <trkpt lat="47.30203" lon="-2.38771">
        <ele>16.39999961853</ele>
        <time>2020-06-14T07:48:30.000Z</time>
      </trkpt>
      <trkpt lat="47.30207" lon="-2.38769">
        <ele>16.799999237061</ele>
        <time>2020-06-14T07:48:31.000Z</time>
      </trkpt>
      <trkpt lat="47.30211" lon="-2.38769">
        <ele>16.799999237061</ele>
        <time>2020-06-14T07:48:32.000Z</time>
      </trkpt>
      <trkpt lat="47.30218" lon="-2.38772">
        <ele>17.200000762939</ele>
        <time>2020-06-14T07:48:34.000Z</time>
      </trkpt>
      <trkpt lat="47.30222" lon="-2.38775">
        <ele>17.60000038147</ele>
        <time>2020-06-14T07:48:35.000Z</time>
      </trkpt>
      <trkpt lat="47.30224" lon="-2.38777">
        <ele>18.200000762939</ele>
        <time>2020-06-14T07:48:36.000Z</time>
      </trkpt>
      <trkpt lat="47.30226" lon="-2.38779">
        <ele>18.60000038147</ele>
        <time>2020-06-14T07:48:37.000Z</time>
      </trkpt>
      <trkpt lat="47.30228" lon="-2.38781">
        <ele>19</ele>
        <time>2020-06-14T07:48:38.000Z</time>
      </trkpt>
      <trkpt lat="47.30231" lon="-2.38783">
        <ele>19.39999961853</ele>
        <time>2020-06-14T07:48:39.000Z</time>
      </trkpt>
      <trkpt lat="47.30233" lon="-2.38785">
        <ele>19.799999237061</ele>
        <time>2020-06-14T07:48:40.000Z</time>
      </trkpt>
      <trkpt lat="47.30236" lon="-2.38788">
        <ele>20.200000762939</ele>
        <time>2020-06-14T07:48:41.000Z</time>
      </trkpt>
      <trkpt lat="47.30238" lon="-2.38791">
        <ele>21.200000762939</ele>
        <time>2020-06-14T07:48:42.000Z</time>
      </trkpt>
      <trkpt lat="47.30243" lon="-2.38798">
        <ele>21.60000038147</ele>
        <time>2020-06-14T07:48:44.000Z</time>
      </trkpt>
      <trkpt lat="47.30245" lon="-2.38802">
        <ele>22</ele>
        <time>2020-06-14T07:48:45.000Z</time>
      </trkpt>
      <trkpt lat="47.30247" lon="-2.38805">
        <ele>22.39999961853</ele>
        <time>2020-06-14T07:48:46.000Z</time>
      </trkpt>
      <trkpt lat="47.3025" lon="-2.38809">
        <ele>22.799999237061</ele>
        <time>2020-06-14T07:48:47.000Z</time>
      </trkpt>
      <trkpt lat="47.30252" lon="-2.38812">
        <ele>23.200000762939</ele>
        <time>2020-06-14T07:48:48.000Z</time>
      </trkpt>
      <trkpt lat="47.30256" lon="-2.3882">
        <ele>23.60000038147</ele>
        <time>2020-06-14T07:48:50.000Z</time>
      </trkpt>
      <trkpt lat="47.30258" lon="-2.38824">
        <ele>24.200000762939</ele>
        <time>2020-06-14T07:48:51.000Z</time>
      </trkpt>
      <trkpt lat="47.3026" lon="-2.38829">
        <ele>24.60000038147</ele>
        <time>2020-06-14T07:48:52.000Z</time>
      </trkpt>
      <trkpt lat="47.30262" lon="-2.38833">
        <ele>25</ele>
        <time>2020-06-14T07:48:53.000Z</time>
      </trkpt>
      <trkpt lat="47.30264" lon="-2.38837">
        <ele>25.39999961853</ele>
        <time>2020-06-14T07:48:54.000Z</time>
      </trkpt>
      <trkpt lat="47.30278" lon="-2.38864">
        <ele>25.39999961853</ele>
        <time>2020-06-14T07:48:59.000Z</time>
      </trkpt>
      <trkpt lat="47.30283" lon="-2.3888">
        <ele>25.799999237061</ele>
        <time>2020-06-14T07:49:02.000Z</time>
      </trkpt>
      <trkpt lat="47.30285" lon="-2.38885">
        <ele>26.200000762939</ele>
        <time>2020-06-14T07:49:03.000Z</time>
      </trkpt>
      <trkpt lat="47.30288" lon="-2.3889">
        <ele>26.60000038147</ele>
        <time>2020-06-14T07:49:04.000Z</time>
      </trkpt>
      <trkpt lat="47.3029" lon="-2.38896">
        <ele>27</ele>
        <time>2020-06-14T07:49:05.000Z</time>
      </trkpt>
      <trkpt lat="47.30292" lon="-2.38901">
        <ele>27.39999961853</ele>
        <time>2020-06-14T07:49:06.000Z</time>
      </trkpt>
      <trkpt lat="47.30308" lon="-2.38944">
        <ele>27.39999961853</ele>
        <time>2020-06-14T07:49:14.000Z</time>
      </trkpt>
      <trkpt lat="47.30319" lon="-2.3896">
        <ele>27.39999961853</ele>
        <time>2020-06-14T07:49:18.000Z</time>
      </trkpt>
      <trkpt lat="47.30324" lon="-2.38967">
        <ele>27.39999961853</ele>
        <time>2020-06-14T07:49:20.000Z</time>
      </trkpt>
      <trkpt lat="47.30336" lon="-2.38989">
        <ele>27.799999237061</ele>
        <time>2020-06-14T07:49:25.000Z</time>
      </trkpt>
      <trkpt lat="47.30338" lon="-2.38994">
        <ele>28.200000762939</ele>
        <time>2020-06-14T07:49:26.000Z</time>
      </trkpt>
      <trkpt lat="47.3034" lon="-2.38998">
        <ele>28.60000038147</ele>
        <time>2020-06-14T07:49:27.000Z</time>
      </trkpt>
      <trkpt lat="47.30342" lon="-2.39003">
        <ele>29</ele>
        <time>2020-06-14T07:49:28.000Z</time>
      </trkpt>
      <trkpt lat="47.30343" lon="-2.39009">
        <ele>29.39999961853</ele>
        <time>2020-06-14T07:49:29.000Z</time>
      </trkpt>
      <trkpt lat="47.30349" lon="-2.3903">
        <ele>29.39999961853</ele>
        <time>2020-06-14T07:49:33.000Z</time>
      </trkpt>
      <trkpt lat="47.30358" lon="-2.3907">
        <ele>29.39999961853</ele>
        <time>2020-06-14T07:49:40.000Z</time>
      </trkpt>
      <trkpt lat="47.30368" lon="-2.39114">
        <ele>29.39999961853</ele>
        <time>2020-06-14T07:49:46.000Z</time>
      </trkpt>
      <trkpt lat="47.3038" lon="-2.39145">
        <ele>29.39999961853</ele>
        <time>2020-06-14T07:49:50.000Z</time>
      </trkpt>
      <trkpt lat="47.30384" lon="-2.39152">
        <ele>29.39999961853</ele>
        <time>2020-06-14T07:49:51.000Z</time>
      </trkpt>
      <trkpt lat="47.30406" lon="-2.3917">
        <ele>29.39999961853</ele>
        <time>2020-06-14T07:49:55.000Z</time>
      </trkpt>
      <trkpt lat="47.30411" lon="-2.39172">
        <ele>29.39999961853</ele>
        <time>2020-06-14T07:49:56.000Z</time>
      </trkpt>
      <trkpt lat="47.30428" lon="-2.39169">
        <ele>29.39999961853</ele>
        <time>2020-06-14T07:49:59.000Z</time>
      </trkpt>
      <trkpt lat="47.30451" lon="-2.39152">
        <ele>29.39999961853</ele>
        <time>2020-06-14T07:50:04.000Z</time>
      </trkpt>
      <trkpt lat="47.30477" lon="-2.39121">
        <ele>29.39999961853</ele>
        <time>2020-06-14T07:50:11.000Z</time>
      </trkpt>
      <trkpt lat="47.30492" lon="-2.39103">
        <ele>29.799999237061</ele>
        <time>2020-06-14T07:50:15.000Z</time>
      </trkpt>
      <trkpt lat="47.30496" lon="-2.39099">
        <ele>30.39999961853</ele>
        <time>2020-06-14T07:50:16.000Z</time>
      </trkpt>
      <trkpt lat="47.305" lon="-2.39096">
        <ele>30.799999237061</ele>
        <time>2020-06-14T07:50:17.000Z</time>
      </trkpt>
      <trkpt lat="47.30504" lon="-2.39091">
        <ele>31.200000762939</ele>
        <time>2020-06-14T07:50:18.000Z</time>
      </trkpt>
      <trkpt lat="47.30508" lon="-2.39087">
        <ele>31.60000038147</ele>
        <time>2020-06-14T07:50:19.000Z</time>
      </trkpt>
      <trkpt lat="47.30534" lon="-2.39062">
        <ele>31.60000038147</ele>
        <time>2020-06-14T07:50:25.000Z</time>
      </trkpt>
      <trkpt lat="47.30553" lon="-2.39045">
        <ele>32</ele>
        <time>2020-06-14T07:50:29.000Z</time>
      </trkpt>
      <trkpt lat="47.30557" lon="-2.39041">
        <ele>32.400001525879</ele>
        <time>2020-06-14T07:50:30.000Z</time>
      </trkpt>
      <trkpt lat="47.30561" lon="-2.39037">
        <ele>32.799999237061</ele>
        <time>2020-06-14T07:50:31.000Z</time>
      </trkpt>
      <trkpt lat="47.30566" lon="-2.39032">
        <ele>33.200000762939</ele>
        <time>2020-06-14T07:50:32.000Z</time>
      </trkpt>
      <trkpt lat="47.3057" lon="-2.39027">
        <ele>33.599998474121</ele>
        <time>2020-06-14T07:50:33.000Z</time>
      </trkpt>
      <trkpt lat="47.30589" lon="-2.39001">
        <ele>33.599998474121</ele>
        <time>2020-06-14T07:50:38.000Z</time>
      </trkpt>
      <trkpt lat="47.306" lon="-2.38987">
        <ele>34</ele>
        <time>2020-06-14T07:50:41.000Z</time>
      </trkpt>
      <trkpt lat="47.30604" lon="-2.38982">
        <ele>34.400001525879</ele>
        <time>2020-06-14T07:50:42.000Z</time>
      </trkpt>
      <trkpt lat="47.30608" lon="-2.38977">
        <ele>34.799999237061</ele>
        <time>2020-06-14T07:50:43.000Z</time>
      </trkpt>
      <trkpt lat="47.30612" lon="-2.38972">
        <ele>35.200000762939</ele>
        <time>2020-06-14T07:50:44.000Z</time>
      </trkpt>
      <trkpt lat="47.30617" lon="-2.38968">
        <ele>35.599998474121</ele>
        <time>2020-06-14T07:50:45.000Z</time>
      </trkpt>
      <trkpt lat="47.30651" lon="-2.38935">
        <ele>35.599998474121</ele>
        <time>2020-06-14T07:50:53.000Z</time>
      </trkpt>
      <trkpt lat="47.30674" lon="-2.38915">
        <ele>36</ele>
        <time>2020-06-14T07:50:59.000Z</time>
      </trkpt>
      <trkpt lat="47.30677" lon="-2.38911">
        <ele>36.400001525879</ele>
        <time>2020-06-14T07:51:00.000Z</time>
      </trkpt>
      <trkpt lat="47.30681" lon="-2.38908">
        <ele>36.799999237061</ele>
        <time>2020-06-14T07:51:01.000Z</time>
      </trkpt>
      <trkpt lat="47.30684" lon="-2.38905">
        <ele>37.200000762939</ele>
        <time>2020-06-14T07:51:02.000Z</time>
      </trkpt>
      <trkpt lat="47.30688" lon="-2.38904">
        <ele>37.599998474121</ele>
        <time>2020-06-14T07:51:03.000Z</time>
      </trkpt>
      <trkpt lat="47.30692" lon="-2.38907">
        <ele>37.599998474121</ele>
        <time>2020-06-14T07:51:04.000Z</time>
      </trkpt>
      <trkpt lat="47.30696" lon="-2.38912">
        <ele>37.599998474121</ele>
        <time>2020-06-14T07:51:05.000Z</time>
      </trkpt>
      <trkpt lat="47.307" lon="-2.38934">
        <ele>37.599998474121</ele>
        <time>2020-06-14T07:51:08.000Z</time>
      </trkpt>
      <trkpt lat="47.30699" lon="-2.38942">
        <ele>37.599998474121</ele>
        <time>2020-06-14T07:51:09.000Z</time>
      </trkpt>
      <trkpt lat="47.307" lon="-2.3895">
        <ele>37.599998474121</ele>
        <time>2020-06-14T07:51:10.000Z</time>
      </trkpt>
      <trkpt lat="47.30707" lon="-2.38962">
        <ele>37.599998474121</ele>
        <time>2020-06-14T07:51:12.000Z</time>
      </trkpt>
      <trkpt lat="47.30724" lon="-2.38961">
        <ele>37.599998474121</ele>
        <time>2020-06-14T07:51:15.000Z</time>
      </trkpt>
      <trkpt lat="47.30729" lon="-2.38959">
        <ele>37.599998474121</ele>
        <time>2020-06-14T07:51:16.000Z</time>
      </trkpt>
      <trkpt lat="47.30734" lon="-2.38957">
        <ele>37.599998474121</ele>
        <time>2020-06-14T07:51:17.000Z</time>
      </trkpt>
      <trkpt lat="47.30752" lon="-2.38956">
        <ele>37.599998474121</ele>
        <time>2020-06-14T07:51:20.000Z</time>
      </trkpt>
      <trkpt lat="47.30758" lon="-2.38955">
        <ele>37.599998474121</ele>
        <time>2020-06-14T07:51:21.000Z</time>
      </trkpt>
      <trkpt lat="47.30772" lon="-2.38947">
        <ele>37.200000762939</ele>
        <time>2020-06-14T07:51:23.000Z</time>
      </trkpt>
      <trkpt lat="47.30778" lon="-2.38942">
        <ele>36.799999237061</ele>
        <time>2020-06-14T07:51:24.000Z</time>
      </trkpt>
      <trkpt lat="47.30785" lon="-2.38937">
        <ele>36.400001525879</ele>
        <time>2020-06-14T07:51:25.000Z</time>
      </trkpt>
      <trkpt lat="47.30792" lon="-2.38931">
        <ele>36</ele>
        <time>2020-06-14T07:51:26.000Z</time>
      </trkpt>
      <trkpt lat="47.30799" lon="-2.38926">
        <ele>35.599998474121</ele>
        <time>2020-06-14T07:51:27.000Z</time>
      </trkpt>
      <trkpt lat="47.3082" lon="-2.3891">
        <ele>35.200000762939</ele>
        <time>2020-06-14T07:51:30.000Z</time>
      </trkpt>
      <trkpt lat="47.30826" lon="-2.38905">
        <ele>34.799999237061</ele>
        <time>2020-06-14T07:51:31.000Z</time>
      </trkpt>
      <trkpt lat="47.30833" lon="-2.38901">
        <ele>34.400001525879</ele>
        <time>2020-06-14T07:51:32.000Z</time>
      </trkpt>
      <trkpt lat="47.30838" lon="-2.38896">
        <ele>34</ele>
        <time>2020-06-14T07:51:33.000Z</time>
      </trkpt>
      <trkpt lat="47.30844" lon="-2.38892">
        <ele>33.599998474121</ele>
        <time>2020-06-14T07:51:34.000Z</time>
      </trkpt>
      <trkpt lat="47.30859" lon="-2.38881">
        <ele>33.599998474121</ele>
        <time>2020-06-14T07:51:37.000Z</time>
      </trkpt>
      <trkpt lat="47.30866" lon="-2.38871">
        <ele>34</ele>
        <time>2020-06-14T07:51:39.000Z</time>
      </trkpt>
      <trkpt lat="47.30869" lon="-2.38865">
        <ele>34.400001525879</ele>
        <time>2020-06-14T07:51:40.000Z</time>
      </trkpt>
      <trkpt lat="47.30872" lon="-2.38857">
        <ele>34.799999237061</ele>
        <time>2020-06-14T07:51:41.000Z</time>
      </trkpt>
      <trkpt lat="47.30874" lon="-2.3885">
        <ele>35.200000762939</ele>
        <time>2020-06-14T07:51:42.000Z</time>
      </trkpt>
      <trkpt lat="47.30878" lon="-2.38845">
        <ele>35.599998474121</ele>
        <time>2020-06-14T07:51:43.000Z</time>
      </trkpt>
      <trkpt lat="47.30882" lon="-2.38842">
        <ele>35.599998474121</ele>
        <time>2020-06-14T07:51:44.000Z</time>
      </trkpt>
      <trkpt lat="47.30897" lon="-2.38846">
        <ele>35.599998474121</ele>
        <time>2020-06-14T07:51:47.000Z</time>
      </trkpt>
      <trkpt lat="47.309" lon="-2.38852">
        <ele>36.200000762939</ele>
        <time>2020-06-14T07:51:48.000Z</time>
      </trkpt>
      <trkpt lat="47.30903" lon="-2.38858">
        <ele>36.599998474121</ele>
        <time>2020-06-14T07:51:49.000Z</time>
      </trkpt>
      <trkpt lat="47.30905" lon="-2.38865">
        <ele>37</ele>
        <time>2020-06-14T07:51:50.000Z</time>
      </trkpt>
      <trkpt lat="47.30907" lon="-2.38873">
        <ele>37.400001525879</ele>
        <time>2020-06-14T07:51:51.000Z</time>
      </trkpt>
      <trkpt lat="47.3091" lon="-2.38881">
        <ele>37.799999237061</ele>
        <time>2020-06-14T07:51:52.000Z</time>
      </trkpt>
      <trkpt lat="47.30919" lon="-2.38893">
        <ele>37.799999237061</ele>
        <time>2020-06-14T07:51:54.000Z</time>
      </trkpt>
      <trkpt lat="47.30931" lon="-2.38922">
        <ele>37.799999237061</ele>
        <time>2020-06-14T07:51:58.000Z</time>
      </trkpt>
      <trkpt lat="47.30925" lon="-2.38947">
        <ele>37.799999237061</ele>
        <time>2020-06-14T07:52:01.000Z</time>
      </trkpt>
      <trkpt lat="47.30911" lon="-2.38975">
        <ele>37.799999237061</ele>
        <time>2020-06-14T07:52:05.000Z</time>
      </trkpt>
      <trkpt lat="47.30905" lon="-2.39011">
        <ele>37.799999237061</ele>
        <time>2020-06-14T07:52:09.000Z</time>
      </trkpt>
      <trkpt lat="47.30904" lon="-2.3902">
        <ele>37.799999237061</ele>
        <time>2020-06-14T07:52:10.000Z</time>
      </trkpt>
      <trkpt lat="47.30902" lon="-2.39077">
        <ele>37.799999237061</ele>
        <time>2020-06-14T07:52:16.000Z</time>
      </trkpt>
      <trkpt lat="47.30911" lon="-2.39112">
        <ele>37.799999237061</ele>
        <time>2020-06-14T07:52:20.000Z</time>
      </trkpt>
      <trkpt lat="47.30932" lon="-2.3917">
        <ele>37.799999237061</ele>
        <time>2020-06-14T07:52:27.000Z</time>
      </trkpt>
      <trkpt lat="47.30957" lon="-2.39226">
        <ele>37.799999237061</ele>
        <time>2020-06-14T07:52:34.000Z</time>
      </trkpt>
      <trkpt lat="47.30983" lon="-2.39292">
        <ele>37.799999237061</ele>
        <time>2020-06-14T07:52:42.000Z</time>
      </trkpt>
      <trkpt lat="47.31005" lon="-2.39355">
        <ele>37.799999237061</ele>
        <time>2020-06-14T07:52:50.000Z</time>
      </trkpt>
      <trkpt lat="47.31029" lon="-2.39427">
        <ele>37.799999237061</ele>
        <time>2020-06-14T07:52:59.000Z</time>
      </trkpt>
      <trkpt lat="47.31039" lon="-2.39458">
        <ele>37.799999237061</ele>
        <time>2020-06-14T07:53:03.000Z</time>
      </trkpt>
      <trkpt lat="47.31043" lon="-2.39462">
        <ele>37.799999237061</ele>
        <time>2020-06-14T07:53:04.000Z</time>
      </trkpt>
      <trkpt lat="47.31053" lon="-2.3946">
        <ele>37.799999237061</ele>
        <time>2020-06-14T07:53:06.000Z</time>
      </trkpt>
      <trkpt lat="47.31058" lon="-2.39457">
        <ele>37.400001525879</ele>
        <time>2020-06-14T07:53:07.000Z</time>
      </trkpt>
      <trkpt lat="47.31063" lon="-2.39453">
        <ele>37</ele>
        <time>2020-06-14T07:53:08.000Z</time>
      </trkpt>
      <trkpt lat="47.31067" lon="-2.39448">
        <ele>36.599998474121</ele>
        <time>2020-06-14T07:53:09.000Z</time>
      </trkpt>
      <trkpt lat="47.31072" lon="-2.39442">
        <ele>36.200000762939</ele>
        <time>2020-06-14T07:53:10.000Z</time>
      </trkpt>
      <trkpt lat="47.31076" lon="-2.39437">
        <ele>35.799999237061</ele>
        <time>2020-06-14T07:53:11.000Z</time>
      </trkpt>
      <trkpt lat="47.31103" lon="-2.394">
        <ele>35.799999237061</ele>
        <time>2020-06-14T07:53:17.000Z</time>
      </trkpt>
      <trkpt lat="47.31133" lon="-2.39359">
        <ele>35.799999237061</ele>
        <time>2020-06-14T07:53:24.000Z</time>
      </trkpt>
      <trkpt lat="47.31158" lon="-2.39333">
        <ele>36.200000762939</ele>
        <time>2020-06-14T07:53:29.000Z</time>
      </trkpt>
      <trkpt lat="47.31163" lon="-2.39329">
        <ele>36.599998474121</ele>
        <time>2020-06-14T07:53:30.000Z</time>
      </trkpt>
      <trkpt lat="47.31168" lon="-2.39326">
        <ele>37</ele>
        <time>2020-06-14T07:53:31.000Z</time>
      </trkpt>
      <trkpt lat="47.31173" lon="-2.39322">
        <ele>37.400001525879</ele>
        <time>2020-06-14T07:53:32.000Z</time>
      </trkpt>
      <trkpt lat="47.31178" lon="-2.39318">
        <ele>37.799999237061</ele>
        <time>2020-06-14T07:53:33.000Z</time>
      </trkpt>
      <trkpt lat="47.31203" lon="-2.393">
        <ele>37.799999237061</ele>
        <time>2020-06-14T07:53:38.000Z</time>
      </trkpt>
      <trkpt lat="47.31232" lon="-2.39274">
        <ele>37.799999237061</ele>
        <time>2020-06-14T07:53:44.000Z</time>
      </trkpt>
      <trkpt lat="47.31245" lon="-2.3926">
        <ele>38.200000762939</ele>
        <time>2020-06-14T07:53:47.000Z</time>
      </trkpt>
      <trkpt lat="47.31249" lon="-2.39255">
        <ele>38.599998474121</ele>
        <time>2020-06-14T07:53:48.000Z</time>
      </trkpt>
      <trkpt lat="47.31253" lon="-2.39249">
        <ele>39.200000762939</ele>
        <time>2020-06-14T07:53:49.000Z</time>
      </trkpt>
      <trkpt lat="47.31257" lon="-2.39243">
        <ele>39.599998474121</ele>
        <time>2020-06-14T07:53:50.000Z</time>
      </trkpt>
      <trkpt lat="47.31261" lon="-2.39238">
        <ele>40</ele>
        <time>2020-06-14T07:53:51.000Z</time>
      </trkpt>
      <trkpt lat="47.31286" lon="-2.392">
        <ele>40</ele>
        <time>2020-06-14T07:53:57.000Z</time>
      </trkpt>
      <trkpt lat="47.31314" lon="-2.39167">
        <ele>40</ele>
        <time>2020-06-14T07:54:03.000Z</time>
      </trkpt>
      <trkpt lat="47.31348" lon="-2.3913">
        <ele>40</ele>
        <time>2020-06-14T07:54:10.000Z</time>
      </trkpt>
      <trkpt lat="47.31387" lon="-2.39089">
        <ele>40</ele>
        <time>2020-06-14T07:54:18.000Z</time>
      </trkpt>
      <trkpt lat="47.31418" lon="-2.39043">
        <ele>40</ele>
        <time>2020-06-14T07:54:24.000Z</time>
      </trkpt>
      <trkpt lat="47.31431" lon="-2.39017">
        <ele>40</ele>
        <time>2020-06-14T07:54:27.000Z</time>
      </trkpt>
      <trkpt lat="47.31437" lon="-2.39">
        <ele>40</ele>
        <time>2020-06-14T07:54:29.000Z</time>
      </trkpt>
      <trkpt lat="47.31461" lon="-2.38949">
        <ele>40</ele>
        <time>2020-06-14T07:54:35.000Z</time>
      </trkpt>
      <trkpt lat="47.31497" lon="-2.3888">
        <ele>40</ele>
        <time>2020-06-14T07:54:43.000Z</time>
      </trkpt>
      <trkpt lat="47.3151" lon="-2.38854">
        <ele>39.599998474121</ele>
        <time>2020-06-14T07:54:46.000Z</time>
      </trkpt>
      <trkpt lat="47.31515" lon="-2.38845">
        <ele>39.200000762939</ele>
        <time>2020-06-14T07:54:47.000Z</time>
      </trkpt>
      <trkpt lat="47.31519" lon="-2.38836">
        <ele>38.799999237061</ele>
        <time>2020-06-14T07:54:48.000Z</time>
      </trkpt>
      <trkpt lat="47.31523" lon="-2.38827">
        <ele>38.400001525879</ele>
        <time>2020-06-14T07:54:49.000Z</time>
      </trkpt>
      <trkpt lat="47.31528" lon="-2.38818">
        <ele>38</ele>
        <time>2020-06-14T07:54:50.000Z</time>
      </trkpt>
      <trkpt lat="47.3156" lon="-2.38759">
        <ele>38</ele>
        <time>2020-06-14T07:54:57.000Z</time>
      </trkpt>
      <trkpt lat="47.31599" lon="-2.387">
        <ele>38</ele>
        <time>2020-06-14T07:55:05.000Z</time>
      </trkpt>
      <trkpt lat="47.31639" lon="-2.38643">
        <ele>38</ele>
        <time>2020-06-14T07:55:13.000Z</time>
      </trkpt>
      <trkpt lat="47.31661" lon="-2.38619">
        <ele>38</ele>
        <time>2020-06-14T07:55:17.000Z</time>
      </trkpt>
      <trkpt lat="47.31674" lon="-2.3861">
        <ele>38</ele>
        <time>2020-06-14T07:55:19.000Z</time>
      </trkpt>
      <trkpt lat="47.31711" lon="-2.38587">
        <ele>38</ele>
        <time>2020-06-14T07:55:25.000Z</time>
      </trkpt>
      <trkpt lat="47.31766" lon="-2.38557">
        <ele>38</ele>
        <time>2020-06-14T07:55:34.000Z</time>
      </trkpt>
      <trkpt lat="47.31801" lon="-2.38539">
        <ele>38</ele>
        <time>2020-06-14T07:55:40.000Z</time>
      </trkpt>
      <trkpt lat="47.31807" lon="-2.38539">
        <ele>38</ele>
        <time>2020-06-14T07:55:41.000Z</time>
      </trkpt>
      <trkpt lat="47.31831" lon="-2.38534">
        <ele>37.599998474121</ele>
        <time>2020-06-14T07:55:45.000Z</time>
      </trkpt>
      <trkpt lat="47.31836" lon="-2.38533">
        <ele>37</ele>
        <time>2020-06-14T07:55:46.000Z</time>
      </trkpt>
      <trkpt lat="47.31842" lon="-2.38531">
        <ele>36.599998474121</ele>
        <time>2020-06-14T07:55:47.000Z</time>
      </trkpt>
      <trkpt lat="47.31847" lon="-2.3853">
        <ele>36.200000762939</ele>
        <time>2020-06-14T07:55:48.000Z</time>
      </trkpt>
      <trkpt lat="47.31853" lon="-2.38528">
        <ele>35.799999237061</ele>
        <time>2020-06-14T07:55:49.000Z</time>
      </trkpt>
      <trkpt lat="47.31878" lon="-2.38517">
        <ele>35.400001525879</ele>
        <time>2020-06-14T07:55:54.000Z</time>
      </trkpt>
      <trkpt lat="47.31883" lon="-2.38515">
        <ele>35</ele>
        <time>2020-06-14T07:55:55.000Z</time>
      </trkpt>
      <trkpt lat="47.31888" lon="-2.38513">
        <ele>34.400001525879</ele>
        <time>2020-06-14T07:55:56.000Z</time>
      </trkpt>
      <trkpt lat="47.31893" lon="-2.38511">
        <ele>34</ele>
        <time>2020-06-14T07:55:57.000Z</time>
      </trkpt>
      <trkpt lat="47.31899" lon="-2.38508">
        <ele>33.599998474121</ele>
        <time>2020-06-14T07:55:58.000Z</time>
      </trkpt>
      <trkpt lat="47.3192" lon="-2.38495">
        <ele>33.599998474121</ele>
        <time>2020-06-14T07:56:02.000Z</time>
      </trkpt>
      <trkpt lat="47.3193" lon="-2.38491">
        <ele>33.200000762939</ele>
        <time>2020-06-14T07:56:04.000Z</time>
      </trkpt>
      <trkpt lat="47.31935" lon="-2.3849">
        <ele>32.599998474121</ele>
        <time>2020-06-14T07:56:05.000Z</time>
      </trkpt>
      <trkpt lat="47.31941" lon="-2.38489">
        <ele>32.200000762939</ele>
        <time>2020-06-14T07:56:06.000Z</time>
      </trkpt>
      <trkpt lat="47.31946" lon="-2.38488">
        <ele>31.799999237061</ele>
        <time>2020-06-14T07:56:07.000Z</time>
      </trkpt>
      <trkpt lat="47.31952" lon="-2.38486">
        <ele>31.39999961853</ele>
        <time>2020-06-14T07:56:08.000Z</time>
      </trkpt>
      <trkpt lat="47.31972" lon="-2.3848">
        <ele>31</ele>
        <time>2020-06-14T07:56:12.000Z</time>
      </trkpt>
      <trkpt lat="47.31977" lon="-2.38478">
        <ele>30.60000038147</ele>
        <time>2020-06-14T07:56:13.000Z</time>
      </trkpt>
      <trkpt lat="47.31982" lon="-2.38476">
        <ele>30.200000762939</ele>
        <time>2020-06-14T07:56:14.000Z</time>
      </trkpt>
      <trkpt lat="47.31986" lon="-2.38474">
        <ele>29.799999237061</ele>
        <time>2020-06-14T07:56:15.000Z</time>
      </trkpt>
      <trkpt lat="47.3199" lon="-2.38472">
        <ele>29.39999961853</ele>
        <time>2020-06-14T07:56:16.000Z</time>
      </trkpt>
      <trkpt lat="47.32002" lon="-2.38466">
        <ele>29.39999961853</ele>
        <time>2020-06-14T07:56:19.000Z</time>
      </trkpt>
      <trkpt lat="47.32006" lon="-2.38465">
        <ele>29.39999961853</ele>
        <time>2020-06-14T07:56:20.000Z</time>
      </trkpt>
      <trkpt lat="47.32033" lon="-2.38453">
        <ele>29.39999961853</ele>
        <time>2020-06-14T07:56:26.000Z</time>
      </trkpt>
      <trkpt lat="47.32054" lon="-2.38445">
        <ele>29</ele>
        <time>2020-06-14T07:56:30.000Z</time>
      </trkpt>
      <trkpt lat="47.32059" lon="-2.38443">
        <ele>28.60000038147</ele>
        <time>2020-06-14T07:56:31.000Z</time>
      </trkpt>
      <trkpt lat="47.32064" lon="-2.3844">
        <ele>27.799999237061</ele>
        <time>2020-06-14T07:56:32.000Z</time>
      </trkpt>
      <trkpt lat="47.3207" lon="-2.38437">
        <ele>27.39999961853</ele>
        <time>2020-06-14T07:56:33.000Z</time>
      </trkpt>
      <trkpt lat="47.32102" lon="-2.38423">
        <ele>27.39999961853</ele>
        <time>2020-06-14T07:56:39.000Z</time>
      </trkpt>
      <trkpt lat="47.32131" lon="-2.38406">
        <ele>27.39999961853</ele>
        <time>2020-06-14T07:56:45.000Z</time>
      </trkpt>
      <trkpt lat="47.32145" lon="-2.38388">
        <ele>27</ele>
        <time>2020-06-14T07:56:49.000Z</time>
      </trkpt>
      <trkpt lat="47.32148" lon="-2.38384">
        <ele>26.60000038147</ele>
        <time>2020-06-14T07:56:50.000Z</time>
      </trkpt>
      <trkpt lat="47.3215" lon="-2.38381">
        <ele>26.200000762939</ele>
        <time>2020-06-14T07:56:51.000Z</time>
      </trkpt>
      <trkpt lat="47.32153" lon="-2.38376">
        <ele>25.60000038147</ele>
        <time>2020-06-14T07:56:52.000Z</time>
      </trkpt>
      <trkpt lat="47.32156" lon="-2.38371">
        <ele>25.200000762939</ele>
        <time>2020-06-14T07:56:53.000Z</time>
      </trkpt>
      <trkpt lat="47.32159" lon="-2.38366">
        <ele>25.200000762939</ele>
        <time>2020-06-14T07:56:54.000Z</time>
      </trkpt>
      <trkpt lat="47.32169" lon="-2.38349">
        <ele>25.200000762939</ele>
        <time>2020-06-14T07:56:58.000Z</time>
      </trkpt>
      <trkpt lat="47.32187" lon="-2.38325">
        <ele>25.200000762939</ele>
        <time>2020-06-14T07:57:04.000Z</time>
      </trkpt>
      <trkpt lat="47.32209" lon="-2.38297">
        <ele>25.200000762939</ele>
        <time>2020-06-14T07:57:10.000Z</time>
      </trkpt>
      <trkpt lat="47.32213" lon="-2.38297">
        <ele>25.200000762939</ele>
        <time>2020-06-14T07:57:11.000Z</time>
      </trkpt>
      <trkpt lat="47.32221" lon="-2.38297">
        <ele>25.200000762939</ele>
        <time>2020-06-14T07:57:13.000Z</time>
      </trkpt>
      <trkpt lat="47.32226" lon="-2.38297">
        <ele>25.200000762939</ele>
        <time>2020-06-14T07:57:14.000Z</time>
      </trkpt>
      <trkpt lat="47.32241" lon="-2.38294">
        <ele>25.200000762939</ele>
        <time>2020-06-14T07:57:17.000Z</time>
      </trkpt>
      <trkpt lat="47.32245" lon="-2.38293">
        <ele>25.200000762939</ele>
        <time>2020-06-14T07:57:18.000Z</time>
      </trkpt>
      <trkpt lat="47.32261" lon="-2.38289">
        <ele>25.200000762939</ele>
        <time>2020-06-14T07:57:21.000Z</time>
      </trkpt>
      <trkpt lat="47.32271" lon="-2.38288">
        <ele>25.200000762939</ele>
        <time>2020-06-14T07:57:23.000Z</time>
      </trkpt>
      <trkpt lat="47.32302" lon="-2.38295">
        <ele>25.200000762939</ele>
        <time>2020-06-14T07:57:28.000Z</time>
      </trkpt>
      <trkpt lat="47.32335" lon="-2.38309">
        <ele>25.200000762939</ele>
        <time>2020-06-14T07:57:34.000Z</time>
      </trkpt>
      <trkpt lat="47.32358" lon="-2.3832">
        <ele>25.60000038147</ele>
        <time>2020-06-14T07:57:39.000Z</time>
      </trkpt>
      <trkpt lat="47.32362" lon="-2.38323">
        <ele>26</ele>
        <time>2020-06-14T07:57:40.000Z</time>
      </trkpt>
      <trkpt lat="47.32366" lon="-2.38326">
        <ele>26.60000038147</ele>
        <time>2020-06-14T07:57:41.000Z</time>
      </trkpt>
      <trkpt lat="47.32371" lon="-2.38328">
        <ele>27</ele>
        <time>2020-06-14T07:57:42.000Z</time>
      </trkpt>
      <trkpt lat="47.32375" lon="-2.3833">
        <ele>27.39999961853</ele>
        <time>2020-06-14T07:57:43.000Z</time>
      </trkpt>
      <trkpt lat="47.32379" lon="-2.38333">
        <ele>27.39999961853</ele>
        <time>2020-06-14T07:57:44.000Z</time>
      </trkpt>
      <trkpt lat="47.32404" lon="-2.38344">
        <ele>27.39999961853</ele>
        <time>2020-06-14T07:57:50.000Z</time>
      </trkpt>
      <trkpt lat="47.32414" lon="-2.38348">
        <ele>27.799999237061</ele>
        <time>2020-06-14T07:57:52.000Z</time>
      </trkpt>
      <trkpt lat="47.3242" lon="-2.3835">
        <ele>28.200000762939</ele>
        <time>2020-06-14T07:57:53.000Z</time>
      </trkpt>
      <trkpt lat="47.32426" lon="-2.38352">
        <ele>28.60000038147</ele>
        <time>2020-06-14T07:57:54.000Z</time>
      </trkpt>
      <trkpt lat="47.32432" lon="-2.38355">
        <ele>29</ele>
        <time>2020-06-14T07:57:55.000Z</time>
      </trkpt>
      <trkpt lat="47.32437" lon="-2.38357">
        <ele>29.39999961853</ele>
        <time>2020-06-14T07:57:56.000Z</time>
      </trkpt>
      <trkpt lat="47.32473" lon="-2.38371">
        <ele>29.39999961853</ele>
        <time>2020-06-14T07:58:02.000Z</time>
      </trkpt>
      <trkpt lat="47.3248" lon="-2.38373">
        <ele>29.39999961853</ele>
        <time>2020-06-14T07:58:03.000Z</time>
      </trkpt>
      <trkpt lat="47.32503" lon="-2.3838">
        <ele>29.39999961853</ele>
        <time>2020-06-14T07:58:07.000Z</time>
      </trkpt>
      <trkpt lat="47.32509" lon="-2.38382">
        <ele>29.39999961853</ele>
        <time>2020-06-14T07:58:08.000Z</time>
      </trkpt>
      <trkpt lat="47.32513" lon="-2.38382">
        <ele>29.39999961853</ele>
        <time>2020-06-14T07:58:09.000Z</time>
      </trkpt>
      <trkpt lat="47.32521" lon="-2.38374">
        <ele>29.39999961853</ele>
        <time>2020-06-14T07:58:11.000Z</time>
      </trkpt>
      <trkpt lat="47.32524" lon="-2.38357">
        <ele>29.39999961853</ele>
        <time>2020-06-14T07:58:14.000Z</time>
      </trkpt>
      <trkpt lat="47.32525" lon="-2.38344">
        <ele>29.39999961853</ele>
        <time>2020-06-14T07:58:16.000Z</time>
      </trkpt>
      <trkpt lat="47.32525" lon="-2.38337">
        <ele>29.39999961853</ele>
        <time>2020-06-14T07:58:17.000Z</time>
      </trkpt>
      <trkpt lat="47.32528" lon="-2.38323">
        <ele>29.39999961853</ele>
        <time>2020-06-14T07:58:19.000Z</time>
      </trkpt>
      <trkpt lat="47.3253" lon="-2.38317">
        <ele>29.39999961853</ele>
        <time>2020-06-14T07:58:20.000Z</time>
      </trkpt>
      <trkpt lat="47.32532" lon="-2.38312">
        <ele>29</ele>
        <time>2020-06-14T07:58:21.000Z</time>
      </trkpt>
      <trkpt lat="47.32537" lon="-2.38311">
        <ele>28.60000038147</ele>
        <time>2020-06-14T07:58:22.000Z</time>
      </trkpt>
      <trkpt lat="47.32542" lon="-2.38308">
        <ele>28.200000762939</ele>
        <time>2020-06-14T07:58:23.000Z</time>
      </trkpt>
      <trkpt lat="47.32548" lon="-2.38307">
        <ele>27.799999237061</ele>
        <time>2020-06-14T07:58:24.000Z</time>
      </trkpt>
      <trkpt lat="47.32554" lon="-2.38305">
        <ele>27.200000762939</ele>
        <time>2020-06-14T07:58:25.000Z</time>
      </trkpt>
      <trkpt lat="47.32561" lon="-2.38302">
        <ele>27.200000762939</ele>
        <time>2020-06-14T07:58:26.000Z</time>
      </trkpt>
      <trkpt lat="47.3259" lon="-2.38294">
        <ele>26.799999237061</ele>
        <time>2020-06-14T07:58:30.000Z</time>
      </trkpt>
      <trkpt lat="47.32598" lon="-2.38295">
        <ele>26.39999961853</ele>
        <time>2020-06-14T07:58:31.000Z</time>
      </trkpt>
      <trkpt lat="47.32605" lon="-2.38297">
        <ele>26</ele>
        <time>2020-06-14T07:58:32.000Z</time>
      </trkpt>
      <trkpt lat="47.32612" lon="-2.38301">
        <ele>25.60000038147</ele>
        <time>2020-06-14T07:58:33.000Z</time>
      </trkpt>
      <trkpt lat="47.32618" lon="-2.38307">
        <ele>25.200000762939</ele>
        <time>2020-06-14T07:58:34.000Z</time>
      </trkpt>
      <trkpt lat="47.32632" lon="-2.38325">
        <ele>25.200000762939</ele>
        <time>2020-06-14T07:58:37.000Z</time>
      </trkpt>
      <trkpt lat="47.32637" lon="-2.38331">
        <ele>25.200000762939</ele>
        <time>2020-06-14T07:58:38.000Z</time>
      </trkpt>
      <trkpt lat="47.32649" lon="-2.38346">
        <ele>25.799999237061</ele>
        <time>2020-06-14T07:58:41.000Z</time>
      </trkpt>
      <trkpt lat="47.32652" lon="-2.38351">
        <ele>26.200000762939</ele>
        <time>2020-06-14T07:58:42.000Z</time>
      </trkpt>
      <trkpt lat="47.32656" lon="-2.38355">
        <ele>26.60000038147</ele>
        <time>2020-06-14T07:58:43.000Z</time>
      </trkpt>
      <trkpt lat="47.32659" lon="-2.3836">
        <ele>27</ele>
        <time>2020-06-14T07:58:44.000Z</time>
      </trkpt>
      <trkpt lat="47.32662" lon="-2.38363">
        <ele>27.60000038147</ele>
        <time>2020-06-14T07:58:45.000Z</time>
      </trkpt>
      <trkpt lat="47.32669" lon="-2.38371">
        <ele>27.60000038147</ele>
        <time>2020-06-14T07:58:47.000Z</time>
      </trkpt>
      <trkpt lat="47.32674" lon="-2.38379">
        <ele>27.60000038147</ele>
        <time>2020-06-14T07:58:49.000Z</time>
      </trkpt>
      <trkpt lat="47.32679" lon="-2.38386">
        <ele>28</ele>
        <time>2020-06-14T07:58:51.000Z</time>
      </trkpt>
      <trkpt lat="47.32682" lon="-2.3839">
        <ele>28.39999961853</ele>
        <time>2020-06-14T07:58:52.000Z</time>
      </trkpt>
      <trkpt lat="47.32685" lon="-2.38394">
        <ele>28.799999237061</ele>
        <time>2020-06-14T07:58:53.000Z</time>
      </trkpt>
      <trkpt lat="47.32688" lon="-2.38397">
        <ele>29.200000762939</ele>
        <time>2020-06-14T07:58:54.000Z</time>
      </trkpt>
      <trkpt lat="47.32691" lon="-2.384">
        <ele>29.60000038147</ele>
        <time>2020-06-14T07:58:55.000Z</time>
      </trkpt>
      <trkpt lat="47.32709" lon="-2.38409">
        <ele>29.60000038147</ele>
        <time>2020-06-14T07:59:00.000Z</time>
      </trkpt>
      <trkpt lat="47.32714" lon="-2.38408">
        <ele>30</ele>
        <time>2020-06-14T07:59:02.000Z</time>
      </trkpt>
      <trkpt lat="47.32717" lon="-2.38407">
        <ele>30.60000038147</ele>
        <time>2020-06-14T07:59:03.000Z</time>
      </trkpt>
      <trkpt lat="47.3272" lon="-2.38406">
        <ele>31</ele>
        <time>2020-06-14T07:59:04.000Z</time>
      </trkpt>
      <trkpt lat="47.32724" lon="-2.38405">
        <ele>31.39999961853</ele>
        <time>2020-06-14T07:59:05.000Z</time>
      </trkpt>
      <trkpt lat="47.32727" lon="-2.38404">
        <ele>31.799999237061</ele>
        <time>2020-06-14T07:59:06.000Z</time>
      </trkpt>
      <trkpt lat="47.32737" lon="-2.384">
        <ele>31.799999237061</ele>
        <time>2020-06-14T07:59:09.000Z</time>
      </trkpt>
      <trkpt lat="47.3276" lon="-2.38395">
        <ele>31.799999237061</ele>
        <time>2020-06-14T07:59:15.000Z</time>
      </trkpt>
      <trkpt lat="47.32764" lon="-2.38394">
        <ele>32.200000762939</ele>
        <time>2020-06-14T07:59:16.000Z</time>
      </trkpt>
      <trkpt lat="47.32767" lon="-2.38393">
        <ele>32.599998474121</ele>
        <time>2020-06-14T07:59:17.000Z</time>
      </trkpt>
      <trkpt lat="47.32771" lon="-2.38392">
        <ele>33</ele>
        <time>2020-06-14T07:59:18.000Z</time>
      </trkpt>
      <trkpt lat="47.32775" lon="-2.3839">
        <ele>33.400001525879</ele>
        <time>2020-06-14T07:59:19.000Z</time>
      </trkpt>
      <trkpt lat="47.32779" lon="-2.38386">
        <ele>33.799999237061</ele>
        <time>2020-06-14T07:59:20.000Z</time>
      </trkpt>
      <trkpt lat="47.32781" lon="-2.38382">
        <ele>33.799999237061</ele>
        <time>2020-06-14T07:59:21.000Z</time>
      </trkpt>
      <trkpt lat="47.32788" lon="-2.38355">
        <ele>33.799999237061</ele>
        <time>2020-06-14T07:59:25.000Z</time>
      </trkpt>
      <trkpt lat="47.32793" lon="-2.3832">
        <ele>33.799999237061</ele>
        <time>2020-06-14T07:59:29.000Z</time>
      </trkpt>
      <trkpt lat="47.32795" lon="-2.3831">
        <ele>33.799999237061</ele>
        <time>2020-06-14T07:59:30.000Z</time>
      </trkpt>
      <trkpt lat="47.328" lon="-2.38288">
        <ele>33.400001525879</ele>
        <time>2020-06-14T07:59:32.000Z</time>
      </trkpt>
      <trkpt lat="47.32802" lon="-2.38277">
        <ele>33</ele>
        <time>2020-06-14T07:59:33.000Z</time>
      </trkpt>
      <trkpt lat="47.32805" lon="-2.38265">
        <ele>32.599998474121</ele>
        <time>2020-06-14T07:59:34.000Z</time>
      </trkpt>
      <trkpt lat="47.32808" lon="-2.38254">
        <ele>32.200000762939</ele>
        <time>2020-06-14T07:59:35.000Z</time>
      </trkpt>
      <trkpt lat="47.32811" lon="-2.38241">
        <ele>31.799999237061</ele>
        <time>2020-06-14T07:59:36.000Z</time>
      </trkpt>
      <trkpt lat="47.32815" lon="-2.38229">
        <ele>31.39999961853</ele>
        <time>2020-06-14T07:59:37.000Z</time>
      </trkpt>
      <trkpt lat="47.32819" lon="-2.38217">
        <ele>31</ele>
        <time>2020-06-14T07:59:38.000Z</time>
      </trkpt>
      <trkpt lat="47.32823" lon="-2.38204">
        <ele>30.60000038147</ele>
        <time>2020-06-14T07:59:39.000Z</time>
      </trkpt>
      <trkpt lat="47.32827" lon="-2.38192">
        <ele>30</ele>
        <time>2020-06-14T07:59:40.000Z</time>
      </trkpt>
      <trkpt lat="47.32832" lon="-2.3818">
        <ele>29.60000038147</ele>
        <time>2020-06-14T07:59:41.000Z</time>
      </trkpt>
      <trkpt lat="47.32843" lon="-2.38156">
        <ele>29.200000762939</ele>
        <time>2020-06-14T07:59:43.000Z</time>
      </trkpt>
      <trkpt lat="47.32849" lon="-2.38145">
        <ele>28.799999237061</ele>
        <time>2020-06-14T07:59:44.000Z</time>
      </trkpt>
      <trkpt lat="47.32855" lon="-2.38135">
        <ele>28.200000762939</ele>
        <time>2020-06-14T07:59:45.000Z</time>
      </trkpt>
      <trkpt lat="47.32861" lon="-2.38126">
        <ele>27.799999237061</ele>
        <time>2020-06-14T07:59:46.000Z</time>
      </trkpt>
      <trkpt lat="47.32867" lon="-2.38116">
        <ele>27.39999961853</ele>
        <time>2020-06-14T07:59:47.000Z</time>
      </trkpt>
      <trkpt lat="47.32878" lon="-2.38097">
        <ele>26.60000038147</ele>
        <time>2020-06-14T07:59:49.000Z</time>
      </trkpt>
      <trkpt lat="47.32883" lon="-2.38087">
        <ele>26.200000762939</ele>
        <time>2020-06-14T07:59:50.000Z</time>
      </trkpt>
      <trkpt lat="47.32889" lon="-2.38078">
        <ele>25.60000038147</ele>
        <time>2020-06-14T07:59:51.000Z</time>
      </trkpt>
      <trkpt lat="47.32893" lon="-2.38068">
        <ele>25.200000762939</ele>
        <time>2020-06-14T07:59:52.000Z</time>
      </trkpt>
      <trkpt lat="47.32929" lon="-2.38009">
        <ele>25.200000762939</ele>
        <time>2020-06-14T07:59:59.000Z</time>
      </trkpt>
      <trkpt lat="47.32934" lon="-2.38002">
        <ele>24.799999237061</ele>
        <time>2020-06-14T08:00:00.000Z</time>
      </trkpt>
      <trkpt lat="47.32939" lon="-2.37995">
        <ele>24.39999961853</ele>
        <time>2020-06-14T08:00:01.000Z</time>
      </trkpt>
      <trkpt lat="47.32944" lon="-2.37988">
        <ele>24</ele>
        <time>2020-06-14T08:00:02.000Z</time>
      </trkpt>
      <trkpt lat="47.32949" lon="-2.37981">
        <ele>23.60000038147</ele>
        <time>2020-06-14T08:00:03.000Z</time>
      </trkpt>
      <trkpt lat="47.32954" lon="-2.37975">
        <ele>23.200000762939</ele>
        <time>2020-06-14T08:00:04.000Z</time>
      </trkpt>
      <trkpt lat="47.32959" lon="-2.37969">
        <ele>23.200000762939</ele>
        <time>2020-06-14T08:00:05.000Z</time>
      </trkpt>
      <trkpt lat="47.32987" lon="-2.37926">
        <ele>23.200000762939</ele>
        <time>2020-06-14T08:00:11.000Z</time>
      </trkpt>
      <trkpt lat="47.33013" lon="-2.37877">
        <ele>23.200000762939</ele>
        <time>2020-06-14T08:00:17.000Z</time>
      </trkpt>
      <trkpt lat="47.33027" lon="-2.37847">
        <ele>23.200000762939</ele>
        <time>2020-06-14T08:00:21.000Z</time>
      </trkpt>
      <trkpt lat="47.33044" lon="-2.37823">
        <ele>22.799999237061</ele>
        <time>2020-06-14T08:00:25.000Z</time>
      </trkpt>
      <trkpt lat="47.33049" lon="-2.37817">
        <ele>22.200000762939</ele>
        <time>2020-06-14T08:00:26.000Z</time>
      </trkpt>
      <trkpt lat="47.33053" lon="-2.37811">
        <ele>21.799999237061</ele>
        <time>2020-06-14T08:00:27.000Z</time>
      </trkpt>
      <trkpt lat="47.33058" lon="-2.37805">
        <ele>21.39999961853</ele>
        <time>2020-06-14T08:00:28.000Z</time>
      </trkpt>
      <trkpt lat="47.33063" lon="-2.37799">
        <ele>21</ele>
        <time>2020-06-14T08:00:29.000Z</time>
      </trkpt>
      <trkpt lat="47.33088" lon="-2.37772">
        <ele>21</ele>
        <time>2020-06-14T08:00:34.000Z</time>
      </trkpt>
      <trkpt lat="47.33104" lon="-2.37755">
        <ele>20.60000038147</ele>
        <time>2020-06-14T08:00:37.000Z</time>
      </trkpt>
      <trkpt lat="47.33109" lon="-2.3775">
        <ele>19.60000038147</ele>
        <time>2020-06-14T08:00:38.000Z</time>
      </trkpt>
      <trkpt lat="47.33114" lon="-2.37745">
        <ele>19.200000762939</ele>
        <time>2020-06-14T08:00:39.000Z</time>
      </trkpt>
      <trkpt lat="47.33119" lon="-2.3774">
        <ele>18.799999237061</ele>
        <time>2020-06-14T08:00:40.000Z</time>
      </trkpt>
      <trkpt lat="47.33125" lon="-2.37736">
        <ele>18.799999237061</ele>
        <time>2020-06-14T08:00:41.000Z</time>
      </trkpt>
      <trkpt lat="47.33148" lon="-2.37742">
        <ele>18.799999237061</ele>
        <time>2020-06-14T08:00:45.000Z</time>
      </trkpt>
      <trkpt lat="47.33158" lon="-2.37759">
        <ele>18.799999237061</ele>
        <time>2020-06-14T08:00:47.000Z</time>
      </trkpt>
      <trkpt lat="47.33167" lon="-2.37774">
        <ele>18.799999237061</ele>
        <time>2020-06-14T08:00:49.000Z</time>
      </trkpt>
      <trkpt lat="47.33198" lon="-2.37821">
        <ele>18.799999237061</ele>
        <time>2020-06-14T08:00:56.000Z</time>
      </trkpt>
      <trkpt lat="47.33215" lon="-2.37848">
        <ele>19.200000762939</ele>
        <time>2020-06-14T08:01:00.000Z</time>
      </trkpt>
      <trkpt lat="47.33219" lon="-2.37853">
        <ele>19.60000038147</ele>
        <time>2020-06-14T08:01:01.000Z</time>
      </trkpt>
      <trkpt lat="47.33224" lon="-2.37859">
        <ele>20</ele>
        <time>2020-06-14T08:01:02.000Z</time>
      </trkpt>
      <trkpt lat="47.33228" lon="-2.37863">
        <ele>20.799999237061</ele>
        <time>2020-06-14T08:01:03.000Z</time>
      </trkpt>
      <trkpt lat="47.33234" lon="-2.37867">
        <ele>20.799999237061</ele>
        <time>2020-06-14T08:01:04.000Z</time>
      </trkpt>
      <trkpt lat="47.33249" lon="-2.37879">
        <ele>20.799999237061</ele>
        <time>2020-06-14T08:01:07.000Z</time>
      </trkpt>
      <trkpt lat="47.33261" lon="-2.3789">
        <ele>20.799999237061</ele>
        <time>2020-06-14T08:01:10.000Z</time>
      </trkpt>
      <trkpt lat="47.33269" lon="-2.37898">
        <ele>21.39999961853</ele>
        <time>2020-06-14T08:01:12.000Z</time>
      </trkpt>
      <trkpt lat="47.33273" lon="-2.37901">
        <ele>21.799999237061</ele>
        <time>2020-06-14T08:01:13.000Z</time>
      </trkpt>
      <trkpt lat="47.33277" lon="-2.37906">
        <ele>22.200000762939</ele>
        <time>2020-06-14T08:01:14.000Z</time>
      </trkpt>
      <trkpt lat="47.3328" lon="-2.3791">
        <ele>22.799999237061</ele>
        <time>2020-06-14T08:01:15.000Z</time>
      </trkpt>
      <trkpt lat="47.33284" lon="-2.37914">
        <ele>23.200000762939</ele>
        <time>2020-06-14T08:01:16.000Z</time>
      </trkpt>
      <trkpt lat="47.33294" lon="-2.37928">
        <ele>23.200000762939</ele>
        <time>2020-06-14T08:01:19.000Z</time>
      </trkpt>
      <trkpt lat="47.33308" lon="-2.37946">
        <ele>23.60000038147</ele>
        <time>2020-06-14T08:01:23.000Z</time>
      </trkpt>
      <trkpt lat="47.33311" lon="-2.3795">
        <ele>24.200000762939</ele>
        <time>2020-06-14T08:01:24.000Z</time>
      </trkpt>
      <trkpt lat="47.33315" lon="-2.37953">
        <ele>24.60000038147</ele>
        <time>2020-06-14T08:01:25.000Z</time>
      </trkpt>
      <trkpt lat="47.33318" lon="-2.37957">
        <ele>25</ele>
        <time>2020-06-14T08:01:26.000Z</time>
      </trkpt>
      <trkpt lat="47.33322" lon="-2.3796">
        <ele>25.39999961853</ele>
        <time>2020-06-14T08:01:27.000Z</time>
      </trkpt>
      <trkpt lat="47.33334" lon="-2.37965">
        <ele>25.39999961853</ele>
        <time>2020-06-14T08:01:30.000Z</time>
      </trkpt>
      <trkpt lat="47.33347" lon="-2.37975">
        <ele>25.39999961853</ele>
        <time>2020-06-14T08:01:35.000Z</time>
      </trkpt>
      <trkpt lat="47.33349" lon="-2.37984">
        <ele>25.799999237061</ele>
        <time>2020-06-14T08:01:37.000Z</time>
      </trkpt>
      <trkpt lat="47.3335" lon="-2.37988">
        <ele>26.39999961853</ele>
        <time>2020-06-14T08:01:38.000Z</time>
      </trkpt>
      <trkpt lat="47.33351" lon="-2.37992">
        <ele>26.799999237061</ele>
        <time>2020-06-14T08:01:39.000Z</time>
      </trkpt>
      <trkpt lat="47.33352" lon="-2.37996">
        <ele>27.200000762939</ele>
        <time>2020-06-14T08:01:40.000Z</time>
      </trkpt>
      <trkpt lat="47.33353" lon="-2.38">
        <ele>27.60000038147</ele>
        <time>2020-06-14T08:01:41.000Z</time>
      </trkpt>
      <trkpt lat="47.33356" lon="-2.38019">
        <ele>27.60000038147</ele>
        <time>2020-06-14T08:01:46.000Z</time>
      </trkpt>
      <trkpt lat="47.33362" lon="-2.38052">
        <ele>27.60000038147</ele>
        <time>2020-06-14T08:01:54.000Z</time>
      </trkpt>
      <trkpt lat="47.33364" lon="-2.3806">
        <ele>28</ele>
        <time>2020-06-14T08:01:56.000Z</time>
      </trkpt>
      <trkpt lat="47.33366" lon="-2.38064">
        <ele>28.39999961853</ele>
        <time>2020-06-14T08:01:57.000Z</time>
      </trkpt>
      <trkpt lat="47.33367" lon="-2.38068">
        <ele>28.799999237061</ele>
        <time>2020-06-14T08:01:58.000Z</time>
      </trkpt>
      <trkpt lat="47.33368" lon="-2.38072">
        <ele>29.200000762939</ele>
        <time>2020-06-14T08:01:59.000Z</time>
      </trkpt>
      <trkpt lat="47.33369" lon="-2.38076">
        <ele>29.60000038147</ele>
        <time>2020-06-14T08:02:00.000Z</time>
      </trkpt>
      <trkpt lat="47.3337" lon="-2.38079">
        <ele>29.60000038147</ele>
        <time>2020-06-14T08:02:01.000Z</time>
      </trkpt>
      <trkpt lat="47.33383" lon="-2.38108">
        <ele>29.60000038147</ele>
        <time>2020-06-14T08:02:09.000Z</time>
      </trkpt>
      <trkpt lat="47.3339" lon="-2.38122">
        <ele>30</ele>
        <time>2020-06-14T08:02:13.000Z</time>
      </trkpt>
      <trkpt lat="47.33391" lon="-2.38126">
        <ele>30.39999961853</ele>
        <time>2020-06-14T08:02:14.000Z</time>
      </trkpt>
      <trkpt lat="47.33393" lon="-2.3813">
        <ele>30.799999237061</ele>
        <time>2020-06-14T08:02:15.000Z</time>
      </trkpt>
      <trkpt lat="47.33395" lon="-2.38133">
        <ele>31.200000762939</ele>
        <time>2020-06-14T08:02:16.000Z</time>
      </trkpt>
      <trkpt lat="47.33396" lon="-2.38137">
        <ele>31.60000038147</ele>
        <time>2020-06-14T08:02:17.000Z</time>
      </trkpt>
      <trkpt lat="47.33398" lon="-2.38141">
        <ele>31.60000038147</ele>
        <time>2020-06-14T08:02:18.000Z</time>
      </trkpt>
      <trkpt lat="47.33407" lon="-2.38172">
        <ele>31.60000038147</ele>
        <time>2020-06-14T08:02:25.000Z</time>
      </trkpt>
      <trkpt lat="47.3341" lon="-2.38207">
        <ele>31.60000038147</ele>
        <time>2020-06-14T08:02:31.000Z</time>
      </trkpt>
      <trkpt lat="47.33414" lon="-2.38248">
        <ele>31.60000038147</ele>
        <time>2020-06-14T08:02:38.000Z</time>
      </trkpt>
      <trkpt lat="47.3342" lon="-2.38295">
        <ele>31.60000038147</ele>
        <time>2020-06-14T08:02:45.000Z</time>
      </trkpt>
      <trkpt lat="47.33428" lon="-2.38346">
        <ele>31.60000038147</ele>
        <time>2020-06-14T08:02:53.000Z</time>
      </trkpt>
      <trkpt lat="47.33435" lon="-2.38376">
        <ele>31.60000038147</ele>
        <time>2020-06-14T08:02:59.000Z</time>
      </trkpt>
      <trkpt lat="47.33436" lon="-2.38379">
        <ele>31.60000038147</ele>
        <time>2020-06-14T08:03:00.000Z</time>
      </trkpt>
      <trkpt lat="47.33437" lon="-2.38401">
        <ele>31.60000038147</ele>
        <time>2020-06-14T08:03:05.000Z</time>
      </trkpt>
      <trkpt lat="47.33436" lon="-2.38429">
        <ele>31.60000038147</ele>
        <time>2020-06-14T08:03:10.000Z</time>
      </trkpt>
      <trkpt lat="47.33435" lon="-2.38436">
        <ele>31.60000038147</ele>
        <time>2020-06-14T08:03:11.000Z</time>
      </trkpt>
      <trkpt lat="47.33432" lon="-2.38477">
        <ele>31.60000038147</ele>
        <time>2020-06-14T08:03:18.000Z</time>
      </trkpt>
      <trkpt lat="47.33425" lon="-2.38521">
        <ele>31.60000038147</ele>
        <time>2020-06-14T08:03:26.000Z</time>
      </trkpt>
      <trkpt lat="47.33422" lon="-2.38557">
        <ele>31.60000038147</ele>
        <time>2020-06-14T08:03:32.000Z</time>
      </trkpt>
      <trkpt lat="47.33414" lon="-2.3861">
        <ele>31.60000038147</ele>
        <time>2020-06-14T08:03:40.000Z</time>
      </trkpt>
      <trkpt lat="47.33408" lon="-2.38667">
        <ele>31.60000038147</ele>
        <time>2020-06-14T08:03:48.000Z</time>
      </trkpt>
      <trkpt lat="47.334" lon="-2.3873">
        <ele>31.60000038147</ele>
        <time>2020-06-14T08:03:57.000Z</time>
      </trkpt>
      <trkpt lat="47.33394" lon="-2.38778">
        <ele>31.60000038147</ele>
        <time>2020-06-14T08:04:04.000Z</time>
      </trkpt>
      <trkpt lat="47.33391" lon="-2.38804">
        <ele>32.200000762939</ele>
        <time>2020-06-14T08:04:08.000Z</time>
      </trkpt>
      <trkpt lat="47.33391" lon="-2.38811">
        <ele>32.599998474121</ele>
        <time>2020-06-14T08:04:09.000Z</time>
      </trkpt>
      <trkpt lat="47.33391" lon="-2.38817">
        <ele>33</ele>
        <time>2020-06-14T08:04:10.000Z</time>
      </trkpt>
      <trkpt lat="47.3339" lon="-2.38823">
        <ele>33.400001525879</ele>
        <time>2020-06-14T08:04:11.000Z</time>
      </trkpt>
      <trkpt lat="47.3339" lon="-2.38829">
        <ele>33.799999237061</ele>
        <time>2020-06-14T08:04:12.000Z</time>
      </trkpt>
      <trkpt lat="47.33389" lon="-2.38841">
        <ele>33.799999237061</ele>
        <time>2020-06-14T08:04:14.000Z</time>
      </trkpt>
      <trkpt lat="47.33388" lon="-2.38861">
        <ele>33.799999237061</ele>
        <time>2020-06-14T08:04:17.000Z</time>
      </trkpt>
      <trkpt lat="47.33379" lon="-2.38913">
        <ele>33.799999237061</ele>
        <time>2020-06-14T08:04:25.000Z</time>
      </trkpt>
      <trkpt lat="47.33372" lon="-2.38963">
        <ele>33.799999237061</ele>
        <time>2020-06-14T08:04:32.000Z</time>
      </trkpt>
      <trkpt lat="47.33365" lon="-2.39018">
        <ele>33.799999237061</ele>
        <time>2020-06-14T08:04:40.000Z</time>
      </trkpt>
      <trkpt lat="47.33361" lon="-2.39044">
        <ele>34.200000762939</ele>
        <time>2020-06-14T08:04:44.000Z</time>
      </trkpt>
      <trkpt lat="47.33361" lon="-2.39051">
        <ele>35</ele>
        <time>2020-06-14T08:04:45.000Z</time>
      </trkpt>
      <trkpt lat="47.33359" lon="-2.39057">
        <ele>35.400001525879</ele>
        <time>2020-06-14T08:04:46.000Z</time>
      </trkpt>
      <trkpt lat="47.33357" lon="-2.39063">
        <ele>36</ele>
        <time>2020-06-14T08:04:47.000Z</time>
      </trkpt>
      <trkpt lat="47.33353" lon="-2.39074">
        <ele>36</ele>
        <time>2020-06-14T08:04:49.000Z</time>
      </trkpt>
      <trkpt lat="47.33351" lon="-2.39086">
        <ele>36</ele>
        <time>2020-06-14T08:04:51.000Z</time>
      </trkpt>
      <trkpt lat="47.33349" lon="-2.39105">
        <ele>36</ele>
        <time>2020-06-14T08:04:54.000Z</time>
      </trkpt>
      <trkpt lat="47.33346" lon="-2.39124">
        <ele>36</ele>
        <time>2020-06-14T08:04:57.000Z</time>
      </trkpt>
      <trkpt lat="47.33345" lon="-2.3913">
        <ele>36</ele>
        <time>2020-06-14T08:04:58.000Z</time>
      </trkpt>
      <trkpt lat="47.33336" lon="-2.39174">
        <ele>36</ele>
        <time>2020-06-14T08:05:05.000Z</time>
      </trkpt>
      <trkpt lat="47.33329" lon="-2.39207">
        <ele>36.400001525879</ele>
        <time>2020-06-14T08:05:10.000Z</time>
      </trkpt>
      <trkpt lat="47.33327" lon="-2.39214">
        <ele>36.799999237061</ele>
        <time>2020-06-14T08:05:11.000Z</time>
      </trkpt>
      <trkpt lat="47.33326" lon="-2.39221">
        <ele>37.200000762939</ele>
        <time>2020-06-14T08:05:12.000Z</time>
      </trkpt>
      <trkpt lat="47.33324" lon="-2.39227">
        <ele>37.599998474121</ele>
        <time>2020-06-14T08:05:13.000Z</time>
      </trkpt>
      <trkpt lat="47.33323" lon="-2.39234">
        <ele>38</ele>
        <time>2020-06-14T08:05:14.000Z</time>
      </trkpt>
      <trkpt lat="47.33311" lon="-2.39289">
        <ele>38</ele>
        <time>2020-06-14T08:05:22.000Z</time>
      </trkpt>
      <trkpt lat="47.33299" lon="-2.39346">
        <ele>38</ele>
        <time>2020-06-14T08:05:30.000Z</time>
      </trkpt>
      <trkpt lat="47.33282" lon="-2.39414">
        <ele>38</ele>
        <time>2020-06-14T08:05:39.000Z</time>
      </trkpt>
      <trkpt lat="47.3328" lon="-2.39434">
        <ele>38</ele>
        <time>2020-06-14T08:05:42.000Z</time>
      </trkpt>
      <trkpt lat="47.33284" lon="-2.39437">
        <ele>38</ele>
        <time>2020-06-14T08:05:43.000Z</time>
      </trkpt>
      <trkpt lat="47.33299" lon="-2.39436">
        <ele>38</ele>
        <time>2020-06-14T08:05:46.000Z</time>
      </trkpt>
      <trkpt lat="47.3331" lon="-2.39433">
        <ele>38</ele>
        <time>2020-06-14T08:05:48.000Z</time>
      </trkpt>
      <trkpt lat="47.33323" lon="-2.3943">
        <ele>37.599998474121</ele>
        <time>2020-06-14T08:05:50.000Z</time>
      </trkpt>
      <trkpt lat="47.33329" lon="-2.39428">
        <ele>37.200000762939</ele>
        <time>2020-06-14T08:05:51.000Z</time>
      </trkpt>
      <trkpt lat="47.33336" lon="-2.39427">
        <ele>36.799999237061</ele>
        <time>2020-06-14T08:05:52.000Z</time>
      </trkpt>
      <trkpt lat="47.33343" lon="-2.39425">
        <ele>36.200000762939</ele>
        <time>2020-06-14T08:05:53.000Z</time>
      </trkpt>
      <trkpt lat="47.3335" lon="-2.39424">
        <ele>35.799999237061</ele>
        <time>2020-06-14T08:05:54.000Z</time>
      </trkpt>
      <trkpt lat="47.33375" lon="-2.39415">
        <ele>35.799999237061</ele>
        <time>2020-06-14T08:05:58.000Z</time>
      </trkpt>
      <trkpt lat="47.3342" lon="-2.39398">
        <ele>35.799999237061</ele>
        <time>2020-06-14T08:06:05.000Z</time>
      </trkpt>
      <trkpt lat="47.33446" lon="-2.39388">
        <ele>35.799999237061</ele>
        <time>2020-06-14T08:06:09.000Z</time>
      </trkpt>
      <trkpt lat="47.33452" lon="-2.39386">
        <ele>35.400001525879</ele>
        <time>2020-06-14T08:06:10.000Z</time>
      </trkpt>
      <trkpt lat="47.33458" lon="-2.39384">
        <ele>35</ele>
        <time>2020-06-14T08:06:11.000Z</time>
      </trkpt>
      <trkpt lat="47.33464" lon="-2.39382">
        <ele>34.599998474121</ele>
        <time>2020-06-14T08:06:12.000Z</time>
      </trkpt>
      <trkpt lat="47.33471" lon="-2.39381">
        <ele>34</ele>
        <time>2020-06-14T08:06:13.000Z</time>
      </trkpt>
      <trkpt lat="47.33477" lon="-2.39379">
        <ele>33.599998474121</ele>
        <time>2020-06-14T08:06:14.000Z</time>
      </trkpt>
      <trkpt lat="47.335" lon="-2.39374">
        <ele>33.599998474121</ele>
        <time>2020-06-14T08:06:18.000Z</time>
      </trkpt>
      <trkpt lat="47.33543" lon="-2.39368">
        <ele>33.599998474121</ele>
        <time>2020-06-14T08:06:25.000Z</time>
      </trkpt>
      <trkpt lat="47.3357" lon="-2.39359">
        <ele>33.599998474121</ele>
        <time>2020-06-14T08:06:29.000Z</time>
      </trkpt>
      <trkpt lat="47.33577" lon="-2.39356">
        <ele>33.200000762939</ele>
        <time>2020-06-14T08:06:30.000Z</time>
      </trkpt>
      <trkpt lat="47.33583" lon="-2.39353">
        <ele>32.799999237061</ele>
        <time>2020-06-14T08:06:31.000Z</time>
      </trkpt>
      <trkpt lat="47.3359" lon="-2.3935">
        <ele>32.400001525879</ele>
        <time>2020-06-14T08:06:32.000Z</time>
      </trkpt>
      <trkpt lat="47.33597" lon="-2.39348">
        <ele>32</ele>
        <time>2020-06-14T08:06:33.000Z</time>
      </trkpt>
      <trkpt lat="47.33604" lon="-2.39345">
        <ele>31.60000038147</ele>
        <time>2020-06-14T08:06:34.000Z</time>
      </trkpt>
      <trkpt lat="47.33623" lon="-2.39334">
        <ele>31.60000038147</ele>
        <time>2020-06-14T08:06:37.000Z</time>
      </trkpt>
      <trkpt lat="47.33647" lon="-2.39313">
        <ele>31.60000038147</ele>
        <time>2020-06-14T08:06:41.000Z</time>
      </trkpt>
      <trkpt lat="47.33658" lon="-2.39302">
        <ele>31.200000762939</ele>
        <time>2020-06-14T08:06:43.000Z</time>
      </trkpt>
      <trkpt lat="47.33665" lon="-2.39299">
        <ele>30.799999237061</ele>
        <time>2020-06-14T08:06:44.000Z</time>
      </trkpt>
      <trkpt lat="47.33671" lon="-2.39297">
        <ele>30.200000762939</ele>
        <time>2020-06-14T08:06:45.000Z</time>
      </trkpt>
      <trkpt lat="47.33677" lon="-2.39296">
        <ele>29.799999237061</ele>
        <time>2020-06-14T08:06:46.000Z</time>
      </trkpt>
      <trkpt lat="47.33683" lon="-2.39298">
        <ele>29.39999961853</ele>
        <time>2020-06-14T08:06:47.000Z</time>
      </trkpt>
      <trkpt lat="47.33701" lon="-2.39302">
        <ele>29.39999961853</ele>
        <time>2020-06-14T08:06:50.000Z</time>
      </trkpt>
      <trkpt lat="47.3372" lon="-2.39306">
        <ele>29.39999961853</ele>
        <time>2020-06-14T08:06:53.000Z</time>
      </trkpt>
      <trkpt lat="47.33733" lon="-2.39305">
        <ele>29.39999961853</ele>
        <time>2020-06-14T08:06:55.000Z</time>
      </trkpt>
      <trkpt lat="47.33774" lon="-2.393">
        <ele>29.39999961853</ele>
        <time>2020-06-14T08:07:02.000Z</time>
      </trkpt>
      <trkpt lat="47.33813" lon="-2.39292">
        <ele>29.39999961853</ele>
        <time>2020-06-14T08:07:08.000Z</time>
      </trkpt>
      <trkpt lat="47.33862" lon="-2.39287">
        <ele>29</ele>
        <time>2020-06-14T08:07:15.000Z</time>
      </trkpt>
      <trkpt lat="47.3387" lon="-2.39286">
        <ele>28.60000038147</ele>
        <time>2020-06-14T08:07:16.000Z</time>
      </trkpt>
      <trkpt lat="47.33877" lon="-2.39284">
        <ele>28.200000762939</ele>
        <time>2020-06-14T08:07:17.000Z</time>
      </trkpt>
      <trkpt lat="47.33884" lon="-2.39283">
        <ele>27.799999237061</ele>
        <time>2020-06-14T08:07:18.000Z</time>
      </trkpt>
      <trkpt lat="47.33891" lon="-2.39282">
        <ele>27.39999961853</ele>
        <time>2020-06-14T08:07:19.000Z</time>
      </trkpt>
      <trkpt lat="47.33905" lon="-2.39279">
        <ele>27.39999961853</ele>
        <time>2020-06-14T08:07:21.000Z</time>
      </trkpt>
      <trkpt lat="47.33912" lon="-2.39276">
        <ele>27.39999961853</ele>
        <time>2020-06-14T08:07:22.000Z</time>
      </trkpt>
      <trkpt lat="47.33939" lon="-2.39269">
        <ele>27.39999961853</ele>
        <time>2020-06-14T08:07:26.000Z</time>
      </trkpt>
      <trkpt lat="47.33975" lon="-2.39264">
        <ele>27</ele>
        <time>2020-06-14T08:07:31.000Z</time>
      </trkpt>
      <trkpt lat="47.33981" lon="-2.39262">
        <ele>26.60000038147</ele>
        <time>2020-06-14T08:07:32.000Z</time>
      </trkpt>
      <trkpt lat="47.33989" lon="-2.39261">
        <ele>26.200000762939</ele>
        <time>2020-06-14T08:07:33.000Z</time>
      </trkpt>
      <trkpt lat="47.33996" lon="-2.3926">
        <ele>25.799999237061</ele>
        <time>2020-06-14T08:07:34.000Z</time>
      </trkpt>
      <trkpt lat="47.34003" lon="-2.39258">
        <ele>25.39999961853</ele>
        <time>2020-06-14T08:07:35.000Z</time>
      </trkpt>
      <trkpt lat="47.34039" lon="-2.39253">
        <ele>25.39999961853</ele>
        <time>2020-06-14T08:07:40.000Z</time>
      </trkpt>
      <trkpt lat="47.34058" lon="-2.39257">
        <ele>25.39999961853</ele>
        <time>2020-06-14T08:07:43.000Z</time>
      </trkpt>
      <trkpt lat="47.34062" lon="-2.39262">
        <ele>25</ele>
        <time>2020-06-14T08:07:44.000Z</time>
      </trkpt>
      <trkpt lat="47.34065" lon="-2.39268">
        <ele>24.60000038147</ele>
        <time>2020-06-14T08:07:45.000Z</time>
      </trkpt>
      <trkpt lat="47.34067" lon="-2.39274">
        <ele>24.200000762939</ele>
        <time>2020-06-14T08:07:46.000Z</time>
      </trkpt>
      <trkpt lat="47.34068" lon="-2.39282">
        <ele>23.60000038147</ele>
        <time>2020-06-14T08:07:47.000Z</time>
      </trkpt>
      <trkpt lat="47.34068" lon="-2.3929">
        <ele>23.200000762939</ele>
        <time>2020-06-14T08:07:48.000Z</time>
      </trkpt>
      <trkpt lat="47.34071" lon="-2.39307">
        <ele>23.200000762939</ele>
        <time>2020-06-14T08:07:50.000Z</time>
      </trkpt>
      <trkpt lat="47.34073" lon="-2.39325">
        <ele>23.200000762939</ele>
        <time>2020-06-14T08:07:52.000Z</time>
      </trkpt>
      <trkpt lat="47.34079" lon="-2.39353">
        <ele>23.200000762939</ele>
        <time>2020-06-14T08:07:55.000Z</time>
      </trkpt>
      <trkpt lat="47.34081" lon="-2.39371">
        <ele>23.200000762939</ele>
        <time>2020-06-14T08:07:57.000Z</time>
      </trkpt>
      <trkpt lat="47.34083" lon="-2.39387">
        <ele>23.200000762939</ele>
        <time>2020-06-14T08:07:59.000Z</time>
      </trkpt>
      <trkpt lat="47.3409" lon="-2.39418">
        <ele>23.200000762939</ele>
        <time>2020-06-14T08:08:03.000Z</time>
      </trkpt>
      <trkpt lat="47.34093" lon="-2.39425">
        <ele>23.200000762939</ele>
        <time>2020-06-14T08:08:04.000Z</time>
      </trkpt>
      <trkpt lat="47.34103" lon="-2.39431">
        <ele>23.200000762939</ele>
        <time>2020-06-14T08:08:06.000Z</time>
      </trkpt>
      <trkpt lat="47.34117" lon="-2.39423">
        <ele>23.200000762939</ele>
        <time>2020-06-14T08:08:09.000Z</time>
      </trkpt>
      <trkpt lat="47.34122" lon="-2.39419">
        <ele>23.200000762939</ele>
        <time>2020-06-14T08:08:10.000Z</time>
      </trkpt>
      <trkpt lat="47.3416" lon="-2.39394">
        <ele>23.60000038147</ele>
        <time>2020-06-14T08:08:18.000Z</time>
      </trkpt>
      <trkpt lat="47.34165" lon="-2.39391">
        <ele>24</ele>
        <time>2020-06-14T08:08:19.000Z</time>
      </trkpt>
      <trkpt lat="47.3417" lon="-2.39387">
        <ele>24.39999961853</ele>
        <time>2020-06-14T08:08:20.000Z</time>
      </trkpt>
      <trkpt lat="47.34175" lon="-2.39384">
        <ele>25</ele>
        <time>2020-06-14T08:08:21.000Z</time>
      </trkpt>
      <trkpt lat="47.34179" lon="-2.39382">
        <ele>25.39999961853</ele>
        <time>2020-06-14T08:08:22.000Z</time>
      </trkpt>
      <trkpt lat="47.34198" lon="-2.3937">
        <ele>25.39999961853</ele>
        <time>2020-06-14T08:08:26.000Z</time>
      </trkpt>
      <trkpt lat="47.34226" lon="-2.39352">
        <ele>25.39999961853</ele>
        <time>2020-06-14T08:08:31.000Z</time>
      </trkpt>
      <trkpt lat="47.34232" lon="-2.39348">
        <ele>25.39999961853</ele>
        <time>2020-06-14T08:08:32.000Z</time>
      </trkpt>
      <trkpt lat="47.34268" lon="-2.39323">
        <ele>25.39999961853</ele>
        <time>2020-06-14T08:08:38.000Z</time>
      </trkpt>
      <trkpt lat="47.34286" lon="-2.39314">
        <ele>25</ele>
        <time>2020-06-14T08:08:41.000Z</time>
      </trkpt>
      <trkpt lat="47.34292" lon="-2.39311">
        <ele>24.60000038147</ele>
        <time>2020-06-14T08:08:42.000Z</time>
      </trkpt>
      <trkpt lat="47.34299" lon="-2.39308">
        <ele>24.200000762939</ele>
        <time>2020-06-14T08:08:43.000Z</time>
      </trkpt>
      <trkpt lat="47.34305" lon="-2.39305">
        <ele>23.799999237061</ele>
        <time>2020-06-14T08:08:44.000Z</time>
      </trkpt>
      <trkpt lat="47.34312" lon="-2.39302">
        <ele>23.39999961853</ele>
        <time>2020-06-14T08:08:45.000Z</time>
      </trkpt>
      <trkpt lat="47.34364" lon="-2.39274">
        <ele>22.799999237061</ele>
        <time>2020-06-14T08:08:53.000Z</time>
      </trkpt>
      <trkpt lat="47.34372" lon="-2.3927">
        <ele>22.39999961853</ele>
        <time>2020-06-14T08:08:54.000Z</time>
      </trkpt>
      <trkpt lat="47.34379" lon="-2.39266">
        <ele>22</ele>
        <time>2020-06-14T08:08:55.000Z</time>
      </trkpt>
      <trkpt lat="47.34386" lon="-2.39263">
        <ele>21.60000038147</ele>
        <time>2020-06-14T08:08:56.000Z</time>
      </trkpt>
      <trkpt lat="47.34392" lon="-2.39259">
        <ele>21.200000762939</ele>
        <time>2020-06-14T08:08:57.000Z</time>
      </trkpt>
      <trkpt lat="47.34407" lon="-2.39254">
        <ele>20.799999237061</ele>
        <time>2020-06-14T08:08:59.000Z</time>
      </trkpt>
      <trkpt lat="47.34414" lon="-2.39251">
        <ele>20.39999961853</ele>
        <time>2020-06-14T08:09:00.000Z</time>
      </trkpt>
      <trkpt lat="47.34422" lon="-2.39249">
        <ele>19.799999237061</ele>
        <time>2020-06-14T08:09:01.000Z</time>
      </trkpt>
      <trkpt lat="47.34429" lon="-2.39247">
        <ele>19.39999961853</ele>
        <time>2020-06-14T08:09:02.000Z</time>
      </trkpt>
      <trkpt lat="47.34437" lon="-2.39245">
        <ele>19</ele>
        <time>2020-06-14T08:09:03.000Z</time>
      </trkpt>
      <trkpt lat="47.34462" lon="-2.39238">
        <ele>18.60000038147</ele>
        <time>2020-06-14T08:09:06.000Z</time>
      </trkpt>
      <trkpt lat="47.3447" lon="-2.39235">
        <ele>18.200000762939</ele>
        <time>2020-06-14T08:09:07.000Z</time>
      </trkpt>
      <trkpt lat="47.34479" lon="-2.39232">
        <ele>17.799999237061</ele>
        <time>2020-06-14T08:09:08.000Z</time>
      </trkpt>
      <trkpt lat="47.34488" lon="-2.3923">
        <ele>17.39999961853</ele>
        <time>2020-06-14T08:09:09.000Z</time>
      </trkpt>
      <trkpt lat="47.34497" lon="-2.39228">
        <ele>17</ele>
        <time>2020-06-14T08:09:10.000Z</time>
      </trkpt>
      <trkpt lat="47.34523" lon="-2.39224">
        <ele>17</ele>
        <time>2020-06-14T08:09:13.000Z</time>
      </trkpt>
      <trkpt lat="47.3454" lon="-2.39225">
        <ele>16.60000038147</ele>
        <time>2020-06-14T08:09:15.000Z</time>
      </trkpt>
      <trkpt lat="47.34549" lon="-2.39226">
        <ele>16.200000762939</ele>
        <time>2020-06-14T08:09:16.000Z</time>
      </trkpt>
      <trkpt lat="47.34559" lon="-2.39228">
        <ele>15.199999809265</ele>
        <time>2020-06-14T08:09:17.000Z</time>
      </trkpt>
      <trkpt lat="47.34568" lon="-2.3923">
        <ele>14.800000190735</ele>
        <time>2020-06-14T08:09:18.000Z</time>
      </trkpt>
      <trkpt lat="47.34602" lon="-2.39251">
        <ele>14.800000190735</ele>
        <time>2020-06-14T08:09:22.000Z</time>
      </trkpt>
      <trkpt lat="47.34636" lon="-2.39278">
        <ele>14.800000190735</ele>
        <time>2020-06-14T08:09:27.000Z</time>
      </trkpt>
      <trkpt lat="47.34642" lon="-2.39283">
        <ele>14.39999961853</ele>
        <time>2020-06-14T08:09:28.000Z</time>
      </trkpt>
      <trkpt lat="47.34647" lon="-2.39289">
        <ele>14</ele>
        <time>2020-06-14T08:09:29.000Z</time>
      </trkpt>
      <trkpt lat="47.34651" lon="-2.39295">
        <ele>13.60000038147</ele>
        <time>2020-06-14T08:09:30.000Z</time>
      </trkpt>
      <trkpt lat="47.34656" lon="-2.393">
        <ele>13.199999809265</ele>
        <time>2020-06-14T08:09:31.000Z</time>
      </trkpt>
      <trkpt lat="47.34659" lon="-2.39306">
        <ele>12.800000190735</ele>
        <time>2020-06-14T08:09:32.000Z</time>
      </trkpt>
      <trkpt lat="47.3466" lon="-2.3932">
        <ele>12.800000190735</ele>
        <time>2020-06-14T08:09:34.000Z</time>
      </trkpt>
      <trkpt lat="47.34651" lon="-2.39339">
        <ele>12.800000190735</ele>
        <time>2020-06-14T08:09:38.000Z</time>
      </trkpt>
      <trkpt lat="47.34645" lon="-2.39348">
        <ele>12.800000190735</ele>
        <time>2020-06-14T08:09:40.000Z</time>
      </trkpt>
      <trkpt lat="47.34636" lon="-2.39362">
        <ele>12.800000190735</ele>
        <time>2020-06-14T08:09:43.000Z</time>
      </trkpt>
      <trkpt lat="47.34618" lon="-2.39388">
        <ele>12.800000190735</ele>
        <time>2020-06-14T08:09:49.000Z</time>
      </trkpt>
      <trkpt lat="47.34614" lon="-2.39394">
        <ele>12.800000190735</ele>
        <time>2020-06-14T08:09:53.000Z</time>
      </trkpt>
      <trkpt lat="47.3461" lon="-2.39401">
        <ele>12.800000190735</ele>
        <time>2020-06-14T08:10:10.000Z</time>
      </trkpt>
      <trkpt lat="47.34613" lon="-2.39399">
        <ele>12.800000190735</ele>
        <time>2020-06-14T08:10:13.000Z</time>
      </trkpt>
      <trkpt lat="47.34614" lon="-2.39398">
        <ele>12.800000190735</ele>
        <time>2020-06-14T08:10:14.000Z</time>
      </trkpt>
      <trkpt lat="47.34615" lon="-2.39396">
        <ele>12.800000190735</ele>
        <time>2020-06-14T08:10:18.000Z</time>
      </trkpt>
      <trkpt lat="47.34603" lon="-2.39413">
        <ele>12.800000190735</ele>
        <time>2020-06-14T08:14:03.000Z</time>
      </trkpt>
      <trkpt lat="47.34595" lon="-2.39425">
        <ele>12.800000190735</ele>
        <time>2020-06-14T08:14:09.000Z</time>
      </trkpt>
      <trkpt lat="47.3458" lon="-2.39443">
        <ele>12.800000190735</ele>
        <time>2020-06-14T08:14:16.000Z</time>
      </trkpt>
      <trkpt lat="47.34578" lon="-2.39445">
        <ele>13.199999809265</ele>
        <time>2020-06-14T08:14:17.000Z</time>
      </trkpt>
      <trkpt lat="47.34576" lon="-2.39448">
        <ele>13.60000038147</ele>
        <time>2020-06-14T08:14:18.000Z</time>
      </trkpt>
      <trkpt lat="47.34573" lon="-2.3945">
        <ele>14</ele>
        <time>2020-06-14T08:14:19.000Z</time>
      </trkpt>
      <trkpt lat="47.34571" lon="-2.39452">
        <ele>14.39999961853</ele>
        <time>2020-06-14T08:14:20.000Z</time>
      </trkpt>
      <trkpt lat="47.34568" lon="-2.39454">
        <ele>14.800000190735</ele>
        <time>2020-06-14T08:14:21.000Z</time>
      </trkpt>
      <trkpt lat="47.34563" lon="-2.39459">
        <ele>14.800000190735</ele>
        <time>2020-06-14T08:14:23.000Z</time>
      </trkpt>
      <trkpt lat="47.34553" lon="-2.39475">
        <ele>14.800000190735</ele>
        <time>2020-06-14T08:14:28.000Z</time>
      </trkpt>
      <trkpt lat="47.34551" lon="-2.39494">
        <ele>14.800000190735</ele>
        <time>2020-06-14T08:14:33.000Z</time>
      </trkpt>
      <trkpt lat="47.34548" lon="-2.39515">
        <ele>14.800000190735</ele>
        <time>2020-06-14T08:14:38.000Z</time>
      </trkpt>
      <trkpt lat="47.34546" lon="-2.39532">
        <ele>15.199999809265</ele>
        <time>2020-06-14T08:14:42.000Z</time>
      </trkpt>
      <trkpt lat="47.34546" lon="-2.39537">
        <ele>15.60000038147</ele>
        <time>2020-06-14T08:14:43.000Z</time>
      </trkpt>
      <trkpt lat="47.34545" lon="-2.39541">
        <ele>16.200000762939</ele>
        <time>2020-06-14T08:14:44.000Z</time>
      </trkpt>
      <trkpt lat="47.34544" lon="-2.39545">
        <ele>16.60000038147</ele>
        <time>2020-06-14T08:14:45.000Z</time>
      </trkpt>
      <trkpt lat="47.34543" lon="-2.39549">
        <ele>17</ele>
        <time>2020-06-14T08:14:46.000Z</time>
      </trkpt>
      <trkpt lat="47.34534" lon="-2.39574">
        <ele>17</ele>
        <time>2020-06-14T08:14:51.000Z</time>
      </trkpt>
      <trkpt lat="47.34523" lon="-2.39598">
        <ele>17</ele>
        <time>2020-06-14T08:14:57.000Z</time>
      </trkpt>
      <trkpt lat="47.34512" lon="-2.39629">
        <ele>17</ele>
        <time>2020-06-14T08:15:04.000Z</time>
      </trkpt>
      <trkpt lat="47.34497" lon="-2.39654">
        <ele>17</ele>
        <time>2020-06-14T08:15:10.000Z</time>
      </trkpt>
      <trkpt lat="47.34474" lon="-2.39695">
        <ele>17</ele>
        <time>2020-06-14T08:15:18.000Z</time>
      </trkpt>
      <trkpt lat="47.34472" lon="-2.39723">
        <ele>17</ele>
        <time>2020-06-14T08:15:22.000Z</time>
      </trkpt>
      <trkpt lat="47.34473" lon="-2.39761">
        <ele>17</ele>
        <time>2020-06-14T08:15:28.000Z</time>
      </trkpt>
      <trkpt lat="47.34482" lon="-2.39768">
        <ele>17</ele>
        <time>2020-06-14T08:15:31.000Z</time>
      </trkpt>
      <trkpt lat="47.34504" lon="-2.3978">
        <ele>17</ele>
        <time>2020-06-14T08:15:38.000Z</time>
      </trkpt>
      <trkpt lat="47.34526" lon="-2.39796">
        <ele>17</ele>
        <time>2020-06-14T08:15:44.000Z</time>
      </trkpt>
      <trkpt lat="47.34546" lon="-2.39816">
        <ele>17</ele>
        <time>2020-06-14T08:15:49.000Z</time>
      </trkpt>
      <trkpt lat="47.34551" lon="-2.3982">
        <ele>17</ele>
        <time>2020-06-14T08:15:50.000Z</time>
      </trkpt>
      <trkpt lat="47.34581" lon="-2.39846">
        <ele>17</ele>
        <time>2020-06-14T08:15:57.000Z</time>
      </trkpt>
      <trkpt lat="47.34602" lon="-2.39858">
        <ele>17</ele>
        <time>2020-06-14T08:16:02.000Z</time>
      </trkpt>
      <trkpt lat="47.34606" lon="-2.39861">
        <ele>17</ele>
        <time>2020-06-14T08:16:03.000Z</time>
      </trkpt>
      <trkpt lat="47.34612" lon="-2.39868">
        <ele>16.60000038147</ele>
        <time>2020-06-14T08:16:05.000Z</time>
      </trkpt>
      <trkpt lat="47.34613" lon="-2.39872">
        <ele>16.200000762939</ele>
        <time>2020-06-14T08:16:06.000Z</time>
      </trkpt>
      <trkpt lat="47.34613" lon="-2.39877">
        <ele>15.800000190735</ele>
        <time>2020-06-14T08:16:07.000Z</time>
      </trkpt>
      <trkpt lat="47.34612" lon="-2.39883">
        <ele>15.39999961853</ele>
        <time>2020-06-14T08:16:08.000Z</time>
      </trkpt>
      <trkpt lat="47.34611" lon="-2.39888">
        <ele>15</ele>
        <time>2020-06-14T08:16:09.000Z</time>
      </trkpt>
      <trkpt lat="47.3461" lon="-2.39894">
        <ele>15</ele>
        <time>2020-06-14T08:16:10.000Z</time>
      </trkpt>
      <trkpt lat="47.34609" lon="-2.39899">
        <ele>15</ele>
        <time>2020-06-14T08:16:11.000Z</time>
      </trkpt>
      <trkpt lat="47.34599" lon="-2.39926">
        <ele>15</ele>
        <time>2020-06-14T08:16:17.000Z</time>
      </trkpt>
      <trkpt lat="47.34595" lon="-2.39946">
        <ele>15</ele>
        <time>2020-06-14T08:16:22.000Z</time>
      </trkpt>
      <trkpt lat="47.34596" lon="-2.39954">
        <ele>15</ele>
        <time>2020-06-14T08:16:24.000Z</time>
      </trkpt>
      <trkpt lat="47.34594" lon="-2.39962">
        <ele>15</ele>
        <time>2020-06-14T08:16:26.000Z</time>
      </trkpt>
      <trkpt lat="47.34592" lon="-2.3997">
        <ele>15</ele>
        <time>2020-06-14T08:16:28.000Z</time>
      </trkpt>
      <trkpt lat="47.3459" lon="-2.39993">
        <ele>15</ele>
        <time>2020-06-14T08:16:33.000Z</time>
      </trkpt>
      <trkpt lat="47.34596" lon="-2.40006">
        <ele>15</ele>
        <time>2020-06-14T08:16:36.000Z</time>
      </trkpt>
      <trkpt lat="47.34602" lon="-2.40015">
        <ele>15</ele>
        <time>2020-06-14T08:16:38.000Z</time>
      </trkpt>
      <trkpt lat="47.34621" lon="-2.40044">
        <ele>15</ele>
        <time>2020-06-14T08:16:44.000Z</time>
      </trkpt>
      <trkpt lat="47.34646" lon="-2.40087">
        <ele>15</ele>
        <time>2020-06-14T08:16:51.000Z</time>
      </trkpt>
      <trkpt lat="47.34667" lon="-2.40114">
        <ele>15</ele>
        <time>2020-06-14T08:16:56.000Z</time>
      </trkpt>
      <trkpt lat="47.34671" lon="-2.40118">
        <ele>15</ele>
        <time>2020-06-14T08:16:57.000Z</time>
      </trkpt>
      <trkpt lat="47.34676" lon="-2.40121">
        <ele>15</ele>
        <time>2020-06-14T08:16:58.000Z</time>
      </trkpt>
      <trkpt lat="47.34691" lon="-2.40126">
        <ele>15</ele>
        <time>2020-06-14T08:17:01.000Z</time>
      </trkpt>
      <trkpt lat="47.34706" lon="-2.40128">
        <ele>15</ele>
        <time>2020-06-14T08:17:04.000Z</time>
      </trkpt>
      <trkpt lat="47.34716" lon="-2.40132">
        <ele>15</ele>
        <time>2020-06-14T08:17:06.000Z</time>
      </trkpt>
      <trkpt lat="47.3473" lon="-2.40142">
        <ele>15</ele>
        <time>2020-06-14T08:17:09.000Z</time>
      </trkpt>
      <trkpt lat="47.34735" lon="-2.40146">
        <ele>15</ele>
        <time>2020-06-14T08:17:10.000Z</time>
      </trkpt>
      <trkpt lat="47.34739" lon="-2.4015">
        <ele>15</ele>
        <time>2020-06-14T08:17:11.000Z</time>
      </trkpt>
      <trkpt lat="47.34761" lon="-2.40181">
        <ele>15</ele>
        <time>2020-06-14T08:17:17.000Z</time>
      </trkpt>
      <trkpt lat="47.3478" lon="-2.40207">
        <ele>15</ele>
        <time>2020-06-14T08:17:22.000Z</time>
      </trkpt>
      <trkpt lat="47.3479" lon="-2.40214">
        <ele>15</ele>
        <time>2020-06-14T08:17:24.000Z</time>
      </trkpt>
      <trkpt lat="47.348" lon="-2.40224">
        <ele>15</ele>
        <time>2020-06-14T08:17:26.000Z</time>
      </trkpt>
      <trkpt lat="47.34809" lon="-2.40238">
        <ele>15</ele>
        <time>2020-06-14T08:17:28.000Z</time>
      </trkpt>
      <trkpt lat="47.3483" lon="-2.40285">
        <ele>14.60000038147</ele>
        <time>2020-06-14T08:17:34.000Z</time>
      </trkpt>
      <trkpt lat="47.34834" lon="-2.40292">
        <ele>14.199999809265</ele>
        <time>2020-06-14T08:17:35.000Z</time>
      </trkpt>
      <trkpt lat="47.34838" lon="-2.40299">
        <ele>13.800000190735</ele>
        <time>2020-06-14T08:17:36.000Z</time>
      </trkpt>
      <trkpt lat="47.34842" lon="-2.40306">
        <ele>13.39999961853</ele>
        <time>2020-06-14T08:17:37.000Z</time>
      </trkpt>
      <trkpt lat="47.34845" lon="-2.40313">
        <ele>13</ele>
        <time>2020-06-14T08:17:38.000Z</time>
      </trkpt>
      <trkpt lat="47.34849" lon="-2.4032">
        <ele>13</ele>
        <time>2020-06-14T08:17:39.000Z</time>
      </trkpt>
      <trkpt lat="47.34857" lon="-2.40344">
        <ele>13</ele>
        <time>2020-06-14T08:17:42.000Z</time>
      </trkpt>
      <trkpt lat="47.34859" lon="-2.40353">
        <ele>13</ele>
        <time>2020-06-14T08:17:43.000Z</time>
      </trkpt>
      <trkpt lat="47.34866" lon="-2.40392">
        <ele>13</ele>
        <time>2020-06-14T08:17:47.000Z</time>
      </trkpt>
      <trkpt lat="47.34868" lon="-2.40402">
        <ele>12.39999961853</ele>
        <time>2020-06-14T08:17:48.000Z</time>
      </trkpt>
      <trkpt lat="47.34869" lon="-2.40412">
        <ele>12</ele>
        <time>2020-06-14T08:17:49.000Z</time>
      </trkpt>
      <trkpt lat="47.34871" lon="-2.40422">
        <ele>11.39999961853</ele>
        <time>2020-06-14T08:17:50.000Z</time>
      </trkpt>
      <trkpt lat="47.34872" lon="-2.40433">
        <ele>10.800000190735</ele>
        <time>2020-06-14T08:17:51.000Z</time>
      </trkpt>
      <trkpt lat="47.34874" lon="-2.40442">
        <ele>10.39999961853</ele>
        <time>2020-06-14T08:17:52.000Z</time>
      </trkpt>
      <trkpt lat="47.34877" lon="-2.40462">
        <ele>10.39999961853</ele>
        <time>2020-06-14T08:17:54.000Z</time>
      </trkpt>
      <trkpt lat="47.34887" lon="-2.40526">
        <ele>10.39999961853</ele>
        <time>2020-06-14T08:18:00.000Z</time>
      </trkpt>
      <trkpt lat="47.34889" lon="-2.40547">
        <ele>10</ele>
        <time>2020-06-14T08:18:02.000Z</time>
      </trkpt>
      <trkpt lat="47.34887" lon="-2.40557">
        <ele>9.6000003814697</ele>
        <time>2020-06-14T08:18:03.000Z</time>
      </trkpt>
      <trkpt lat="47.34885" lon="-2.40566">
        <ele>9.1999998092651</ele>
        <time>2020-06-14T08:18:04.000Z</time>
      </trkpt>
      <trkpt lat="47.34882" lon="-2.40573">
        <ele>8.8000001907349</ele>
        <time>2020-06-14T08:18:05.000Z</time>
      </trkpt>
      <trkpt lat="47.34878" lon="-2.40581">
        <ele>8.3999996185303</ele>
        <time>2020-06-14T08:18:06.000Z</time>
      </trkpt>
      <trkpt lat="47.3487" lon="-2.40594">
        <ele>8.3999996185303</ele>
        <time>2020-06-14T08:18:08.000Z</time>
      </trkpt>
      <trkpt lat="47.34866" lon="-2.40599">
        <ele>8.3999996185303</ele>
        <time>2020-06-14T08:18:09.000Z</time>
      </trkpt>
      <trkpt lat="47.34848" lon="-2.4062">
        <ele>8.3999996185303</ele>
        <time>2020-06-14T08:18:13.000Z</time>
      </trkpt>
      <trkpt lat="47.34844" lon="-2.40627">
        <ele>8.3999996185303</ele>
        <time>2020-06-14T08:18:14.000Z</time>
      </trkpt>
      <trkpt lat="47.34833" lon="-2.40658">
        <ele>8.3999996185303</ele>
        <time>2020-06-14T08:18:18.000Z</time>
      </trkpt>
      <trkpt lat="47.34831" lon="-2.40666">
        <ele>8.3999996185303</ele>
        <time>2020-06-14T08:18:19.000Z</time>
      </trkpt>
      <trkpt lat="47.34823" lon="-2.40721">
        <ele>8.3999996185303</ele>
        <time>2020-06-14T08:18:26.000Z</time>
      </trkpt>
      <trkpt lat="47.34825" lon="-2.40746">
        <ele>8.3999996185303</ele>
        <time>2020-06-14T08:18:29.000Z</time>
      </trkpt>
      <trkpt lat="47.34829" lon="-2.4076">
        <ele>8.3999996185303</ele>
        <time>2020-06-14T08:18:31.000Z</time>
      </trkpt>
      <trkpt lat="47.34835" lon="-2.40771">
        <ele>8.8000001907349</ele>
        <time>2020-06-14T08:18:33.000Z</time>
      </trkpt>
      <trkpt lat="47.3484" lon="-2.40774">
        <ele>9.1999998092651</ele>
        <time>2020-06-14T08:18:34.000Z</time>
      </trkpt>
      <trkpt lat="47.34846" lon="-2.40776">
        <ele>9.6000003814697</ele>
        <time>2020-06-14T08:18:35.000Z</time>
      </trkpt>
      <trkpt lat="47.34851" lon="-2.40776">
        <ele>10</ele>
        <time>2020-06-14T08:18:36.000Z</time>
      </trkpt>
      <trkpt lat="47.34856" lon="-2.40776">
        <ele>10.39999961853</ele>
        <time>2020-06-14T08:18:37.000Z</time>
      </trkpt>
      <trkpt lat="47.34861" lon="-2.40776">
        <ele>10.39999961853</ele>
        <time>2020-06-14T08:18:38.000Z</time>
      </trkpt>
      <trkpt lat="47.34884" lon="-2.40777">
        <ele>10.39999961853</ele>
        <time>2020-06-14T08:18:43.000Z</time>
      </trkpt>
      <trkpt lat="47.34888" lon="-2.40778">
        <ele>10.39999961853</ele>
        <time>2020-06-14T08:18:44.000Z</time>
      </trkpt>
      <trkpt lat="47.34892" lon="-2.4078">
        <ele>10.39999961853</ele>
        <time>2020-06-14T08:18:45.000Z</time>
      </trkpt>
      <trkpt lat="47.349" lon="-2.40791">
        <ele>10.39999961853</ele>
        <time>2020-06-14T08:18:47.000Z</time>
      </trkpt>
      <trkpt lat="47.34906" lon="-2.40804">
        <ele>10.39999961853</ele>
        <time>2020-06-14T08:18:49.000Z</time>
      </trkpt>
      <trkpt lat="47.34919" lon="-2.40831">
        <ele>10.39999961853</ele>
        <time>2020-06-14T08:18:53.000Z</time>
      </trkpt>
      <trkpt lat="47.34925" lon="-2.40845">
        <ele>10.39999961853</ele>
        <time>2020-06-14T08:18:55.000Z</time>
      </trkpt>
      <trkpt lat="47.34935" lon="-2.40877">
        <ele>10.39999961853</ele>
        <time>2020-06-14T08:18:59.000Z</time>
      </trkpt>
      <trkpt lat="47.34936" lon="-2.40885">
        <ele>10.39999961853</ele>
        <time>2020-06-14T08:19:00.000Z</time>
      </trkpt>
      <trkpt lat="47.3494" lon="-2.40928">
        <ele>10.39999961853</ele>
        <time>2020-06-14T08:19:05.000Z</time>
      </trkpt>
      <trkpt lat="47.34937" lon="-2.40985">
        <ele>10.39999961853</ele>
        <time>2020-06-14T08:19:12.000Z</time>
      </trkpt>
      <trkpt lat="47.34936" lon="-2.40993">
        <ele>10.39999961853</ele>
        <time>2020-06-14T08:19:13.000Z</time>
      </trkpt>
      <trkpt lat="47.34934" lon="-2.41026">
        <ele>10.39999961853</ele>
        <time>2020-06-14T08:19:17.000Z</time>
      </trkpt>
      <trkpt lat="47.34941" lon="-2.41059">
        <ele>10.39999961853</ele>
        <time>2020-06-14T08:19:21.000Z</time>
      </trkpt>
      <trkpt lat="47.34948" lon="-2.41077">
        <ele>10.39999961853</ele>
        <time>2020-06-14T08:19:23.000Z</time>
      </trkpt>
      <trkpt lat="47.34959" lon="-2.41105">
        <ele>10.39999961853</ele>
        <time>2020-06-14T08:19:26.000Z</time>
      </trkpt>
      <trkpt lat="47.34982" lon="-2.41154">
        <ele>10.39999961853</ele>
        <time>2020-06-14T08:19:32.000Z</time>
      </trkpt>
      <trkpt lat="47.35009" lon="-2.41214">
        <ele>10.39999961853</ele>
        <time>2020-06-14T08:19:40.000Z</time>
      </trkpt>
      <trkpt lat="47.35028" lon="-2.41262">
        <ele>10.39999961853</ele>
        <time>2020-06-14T08:19:46.000Z</time>
      </trkpt>
      <trkpt lat="47.35047" lon="-2.4131">
        <ele>10.39999961853</ele>
        <time>2020-06-14T08:19:52.000Z</time>
      </trkpt>
      <trkpt lat="47.35065" lon="-2.41361">
        <ele>10.39999961853</ele>
        <time>2020-06-14T08:19:58.000Z</time>
      </trkpt>
      <trkpt lat="47.35082" lon="-2.41399">
        <ele>10.39999961853</ele>
        <time>2020-06-14T08:20:03.000Z</time>
      </trkpt>
      <trkpt lat="47.35095" lon="-2.41404">
        <ele>10</ele>
        <time>2020-06-14T08:20:06.000Z</time>
      </trkpt>
      <trkpt lat="47.35099" lon="-2.41401">
        <ele>9.6000003814697</ele>
        <time>2020-06-14T08:20:07.000Z</time>
      </trkpt>
      <trkpt lat="47.35104" lon="-2.41397">
        <ele>9.1999998092651</ele>
        <time>2020-06-14T08:20:08.000Z</time>
      </trkpt>
      <trkpt lat="47.35109" lon="-2.41394">
        <ele>8.8000001907349</ele>
        <time>2020-06-14T08:20:09.000Z</time>
      </trkpt>
      <trkpt lat="47.35114" lon="-2.4139">
        <ele>8.3999996185303</ele>
        <time>2020-06-14T08:20:10.000Z</time>
      </trkpt>
      <trkpt lat="47.35149" lon="-2.41369">
        <ele>8.3999996185303</ele>
        <time>2020-06-14T08:20:16.000Z</time>
      </trkpt>
      <trkpt lat="47.35178" lon="-2.41359">
        <ele>8.3999996185303</ele>
        <time>2020-06-14T08:20:21.000Z</time>
      </trkpt>
      <trkpt lat="47.35184" lon="-2.41359">
        <ele>8.3999996185303</ele>
        <time>2020-06-14T08:20:22.000Z</time>
      </trkpt>
      <trkpt lat="47.35202" lon="-2.41374">
        <ele>8.3999996185303</ele>
        <time>2020-06-14T08:20:26.000Z</time>
      </trkpt>
      <trkpt lat="47.35207" lon="-2.41382">
        <ele>8.3999996185303</ele>
        <time>2020-06-14T08:20:27.000Z</time>
      </trkpt>
      <trkpt lat="47.35226" lon="-2.41412">
        <ele>8.3999996185303</ele>
        <time>2020-06-14T08:20:31.000Z</time>
      </trkpt>
      <trkpt lat="47.35249" lon="-2.41445">
        <ele>8.3999996185303</ele>
        <time>2020-06-14T08:20:36.000Z</time>
      </trkpt>
      <trkpt lat="47.35255" lon="-2.41448">
        <ele>8.3999996185303</ele>
        <time>2020-06-14T08:20:37.000Z</time>
      </trkpt>
      <trkpt lat="47.35273" lon="-2.41447">
        <ele>8.3999996185303</ele>
        <time>2020-06-14T08:20:40.000Z</time>
      </trkpt>
      <trkpt lat="47.35294" lon="-2.41427">
        <ele>8.3999996185303</ele>
        <time>2020-06-14T08:20:44.000Z</time>
      </trkpt>
      <trkpt lat="47.35298" lon="-2.4142">
        <ele>8.3999996185303</ele>
        <time>2020-06-14T08:20:45.000Z</time>
      </trkpt>
      <trkpt lat="47.35316" lon="-2.41383">
        <ele>8.3999996185303</ele>
        <time>2020-06-14T08:20:50.000Z</time>
      </trkpt>
      <trkpt lat="47.35334" lon="-2.41354">
        <ele>8.3999996185303</ele>
        <time>2020-06-14T08:20:54.000Z</time>
      </trkpt>
      <trkpt lat="47.35339" lon="-2.4135">
        <ele>8.3999996185303</ele>
        <time>2020-06-14T08:20:55.000Z</time>
      </trkpt>
      <trkpt lat="47.35355" lon="-2.41327">
        <ele>8.3999996185303</ele>
        <time>2020-06-14T08:20:59.000Z</time>
      </trkpt>
      <trkpt lat="47.35364" lon="-2.4131">
        <ele>8.3999996185303</ele>
        <time>2020-06-14T08:21:02.000Z</time>
      </trkpt>
      <trkpt lat="47.35377" lon="-2.41292">
        <ele>8.3999996185303</ele>
        <time>2020-06-14T08:21:06.000Z</time>
      </trkpt>
      <trkpt lat="47.35396" lon="-2.41277">
        <ele>8.3999996185303</ele>
        <time>2020-06-14T08:21:10.000Z</time>
      </trkpt>
      <trkpt lat="47.35402" lon="-2.41272">
        <ele>8.3999996185303</ele>
        <time>2020-06-14T08:21:11.000Z</time>
      </trkpt>
      <trkpt lat="47.35423" lon="-2.41249">
        <ele>8.3999996185303</ele>
        <time>2020-06-14T08:21:15.000Z</time>
      </trkpt>
      <trkpt lat="47.35448" lon="-2.41212">
        <ele>8.3999996185303</ele>
        <time>2020-06-14T08:21:21.000Z</time>
      </trkpt>
      <trkpt lat="47.35453" lon="-2.41207">
        <ele>8.3999996185303</ele>
        <time>2020-06-14T08:21:22.000Z</time>
      </trkpt>
      <trkpt lat="47.35475" lon="-2.41189">
        <ele>8.3999996185303</ele>
        <time>2020-06-14T08:21:26.000Z</time>
      </trkpt>
      <trkpt lat="47.35519" lon="-2.41155">
        <ele>8.3999996185303</ele>
        <time>2020-06-14T08:21:34.000Z</time>
      </trkpt>
      <trkpt lat="47.35553" lon="-2.4113">
        <ele>8.3999996185303</ele>
        <time>2020-06-14T08:21:40.000Z</time>
      </trkpt>
      <trkpt lat="47.35588" lon="-2.41099">
        <ele>8.3999996185303</ele>
        <time>2020-06-14T08:21:46.000Z</time>
      </trkpt>
      <trkpt lat="47.3562" lon="-2.41064">
        <ele>8.3999996185303</ele>
        <time>2020-06-14T08:21:52.000Z</time>
      </trkpt>
      <trkpt lat="47.3565" lon="-2.41029">
        <ele>8.3999996185303</ele>
        <time>2020-06-14T08:21:58.000Z</time>
      </trkpt>
      <trkpt lat="47.35676" lon="-2.4099">
        <ele>8.3999996185303</ele>
        <time>2020-06-14T08:22:04.000Z</time>
      </trkpt>
      <trkpt lat="47.35693" lon="-2.40963">
        <ele>8.3999996185303</ele>
        <time>2020-06-14T08:22:09.000Z</time>
      </trkpt>
      <trkpt lat="47.35714" lon="-2.40932">
        <ele>8.3999996185303</ele>
        <time>2020-06-14T08:22:14.000Z</time>
      </trkpt>
      <trkpt lat="47.35747" lon="-2.40885">
        <ele>8.3999996185303</ele>
        <time>2020-06-14T08:22:21.000Z</time>
      </trkpt>
      <trkpt lat="47.3578" lon="-2.40834">
        <ele>8.3999996185303</ele>
        <time>2020-06-14T08:22:28.000Z</time>
      </trkpt>
      <trkpt lat="47.35813" lon="-2.40783">
        <ele>8.3999996185303</ele>
        <time>2020-06-14T08:22:35.000Z</time>
      </trkpt>
      <trkpt lat="47.35848" lon="-2.40731">
        <ele>8.3999996185303</ele>
        <time>2020-06-14T08:22:43.000Z</time>
      </trkpt>
      <trkpt lat="47.35856" lon="-2.40695">
        <ele>8.3999996185303</ele>
        <time>2020-06-14T08:22:47.000Z</time>
      </trkpt>
      <trkpt lat="47.35858" lon="-2.40686">
        <ele>8.3999996185303</ele>
        <time>2020-06-14T08:22:48.000Z</time>
      </trkpt>
      <trkpt lat="47.35867" lon="-2.40662">
        <ele>8.3999996185303</ele>
        <time>2020-06-14T08:22:51.000Z</time>
      </trkpt>
      <trkpt lat="47.35875" lon="-2.40648">
        <ele>8.3999996185303</ele>
        <time>2020-06-14T08:22:53.000Z</time>
      </trkpt>
      <trkpt lat="47.35883" lon="-2.40634">
        <ele>8.3999996185303</ele>
        <time>2020-06-14T08:22:55.000Z</time>
      </trkpt>
      <trkpt lat="47.35894" lon="-2.40612">
        <ele>8.3999996185303</ele>
        <time>2020-06-14T08:22:58.000Z</time>
      </trkpt>
      <trkpt lat="47.35906" lon="-2.40591">
        <ele>8.3999996185303</ele>
        <time>2020-06-14T08:23:01.000Z</time>
      </trkpt>
      <trkpt lat="47.35937" lon="-2.40547">
        <ele>8.3999996185303</ele>
        <time>2020-06-14T08:23:08.000Z</time>
      </trkpt>
      <trkpt lat="47.35963" lon="-2.4051">
        <ele>8.3999996185303</ele>
        <time>2020-06-14T08:23:14.000Z</time>
      </trkpt>
      <trkpt lat="47.35991" lon="-2.40475">
        <ele>8.3999996185303</ele>
        <time>2020-06-14T08:23:20.000Z</time>
      </trkpt>
      <trkpt lat="47.36014" lon="-2.40446">
        <ele>8.3999996185303</ele>
        <time>2020-06-14T08:23:25.000Z</time>
      </trkpt>
      <trkpt lat="47.36017" lon="-2.40439">
        <ele>8.3999996185303</ele>
        <time>2020-06-14T08:23:26.000Z</time>
      </trkpt>
      <trkpt lat="47.36025" lon="-2.40408">
        <ele>8.3999996185303</ele>
        <time>2020-06-14T08:23:30.000Z</time>
      </trkpt>
      <trkpt lat="47.36026" lon="-2.4039">
        <ele>8.3999996185303</ele>
        <time>2020-06-14T08:23:32.000Z</time>
      </trkpt>
      <trkpt lat="47.36028" lon="-2.40347">
        <ele>8.3999996185303</ele>
        <time>2020-06-14T08:23:37.000Z</time>
      </trkpt>
      <trkpt lat="47.36032" lon="-2.40331">
        <ele>8.3999996185303</ele>
        <time>2020-06-14T08:23:39.000Z</time>
      </trkpt>
      <trkpt lat="47.36038" lon="-2.40318">
        <ele>8.3999996185303</ele>
        <time>2020-06-14T08:23:41.000Z</time>
      </trkpt>
      <trkpt lat="47.36055" lon="-2.40295">
        <ele>8.3999996185303</ele>
        <time>2020-06-14T08:23:45.000Z</time>
      </trkpt>
      <trkpt lat="47.3606" lon="-2.4029">
        <ele>8.3999996185303</ele>
        <time>2020-06-14T08:23:46.000Z</time>
      </trkpt>
      <trkpt lat="47.36081" lon="-2.40271">
        <ele>8.3999996185303</ele>
        <time>2020-06-14T08:23:50.000Z</time>
      </trkpt>
      <trkpt lat="47.36089" lon="-2.40265">
        <ele>8.3999996185303</ele>
        <time>2020-06-14T08:23:52.000Z</time>
      </trkpt>
      <trkpt lat="47.3611" lon="-2.4025">
        <ele>8.3999996185303</ele>
        <time>2020-06-14T08:23:57.000Z</time>
      </trkpt>
      <trkpt lat="47.36119" lon="-2.40243">
        <ele>8.3999996185303</ele>
        <time>2020-06-14T08:23:59.000Z</time>
      </trkpt>
      <trkpt lat="47.36129" lon="-2.40235">
        <ele>8.3999996185303</ele>
        <time>2020-06-14T08:24:01.000Z</time>
      </trkpt>
      <trkpt lat="47.36147" lon="-2.40219">
        <ele>8.3999996185303</ele>
        <time>2020-06-14T08:24:05.000Z</time>
      </trkpt>
      <trkpt lat="47.3617" lon="-2.402">
        <ele>8.3999996185303</ele>
        <time>2020-06-14T08:24:10.000Z</time>
      </trkpt>
      <trkpt lat="47.3619" lon="-2.40181">
        <ele>8.3999996185303</ele>
        <time>2020-06-14T08:24:15.000Z</time>
      </trkpt>
      <trkpt lat="47.36194" lon="-2.40178">
        <ele>8.3999996185303</ele>
        <time>2020-06-14T08:24:16.000Z</time>
      </trkpt>
      <trkpt lat="47.36211" lon="-2.40161">
        <ele>8.3999996185303</ele>
        <time>2020-06-14T08:24:20.000Z</time>
      </trkpt>
      <trkpt lat="47.36223" lon="-2.40151">
        <ele>8.3999996185303</ele>
        <time>2020-06-14T08:24:23.000Z</time>
      </trkpt>
      <trkpt lat="47.36232" lon="-2.40144">
        <ele>8.3999996185303</ele>
        <time>2020-06-14T08:24:25.000Z</time>
      </trkpt>
      <trkpt lat="47.36256" lon="-2.40127">
        <ele>8.3999996185303</ele>
        <time>2020-06-14T08:24:30.000Z</time>
      </trkpt>
      <trkpt lat="47.36281" lon="-2.40119">
        <ele>8.3999996185303</ele>
        <time>2020-06-14T08:24:34.000Z</time>
      </trkpt>
      <trkpt lat="47.36293" lon="-2.40114">
        <ele>8.3999996185303</ele>
        <time>2020-06-14T08:24:36.000Z</time>
      </trkpt>
      <trkpt lat="47.36323" lon="-2.40103">
        <ele>8.3999996185303</ele>
        <time>2020-06-14T08:24:41.000Z</time>
      </trkpt>
      <trkpt lat="47.3634" lon="-2.40095">
        <ele>8.3999996185303</ele>
        <time>2020-06-14T08:24:44.000Z</time>
      </trkpt>
      <trkpt lat="47.36358" lon="-2.40089">
        <ele>8.3999996185303</ele>
        <time>2020-06-14T08:24:47.000Z</time>
      </trkpt>
      <trkpt lat="47.36394" lon="-2.40077">
        <ele>8.3999996185303</ele>
        <time>2020-06-14T08:24:53.000Z</time>
      </trkpt>
      <trkpt lat="47.36399" lon="-2.40076">
        <ele>8.3999996185303</ele>
        <time>2020-06-14T08:24:54.000Z</time>
      </trkpt>
      <trkpt lat="47.36434" lon="-2.40065">
        <ele>8.3999996185303</ele>
        <time>2020-06-14T08:25:00.000Z</time>
      </trkpt>
      <trkpt lat="47.36439" lon="-2.40063">
        <ele>7.8000001907349</ele>
        <time>2020-06-14T08:25:01.000Z</time>
      </trkpt>
      <trkpt lat="47.36445" lon="-2.40061">
        <ele>7.4000000953674</ele>
        <time>2020-06-14T08:25:02.000Z</time>
      </trkpt>
      <trkpt lat="47.36451" lon="-2.40059">
        <ele>7</ele>
        <time>2020-06-14T08:25:03.000Z</time>
      </trkpt>
      <trkpt lat="47.36456" lon="-2.40055">
        <ele>6.5999999046326</ele>
        <time>2020-06-14T08:25:04.000Z</time>
      </trkpt>
      <trkpt lat="47.36462" lon="-2.40051">
        <ele>6.1999998092651</ele>
        <time>2020-06-14T08:25:05.000Z</time>
      </trkpt>
      <trkpt lat="47.36467" lon="-2.40047">
        <ele>6.1999998092651</ele>
        <time>2020-06-14T08:25:06.000Z</time>
      </trkpt>
      <trkpt lat="47.36488" lon="-2.40031">
        <ele>6.1999998092651</ele>
        <time>2020-06-14T08:25:10.000Z</time>
      </trkpt>
      <trkpt lat="47.36497" lon="-2.40021">
        <ele>6.1999998092651</ele>
        <time>2020-06-14T08:25:12.000Z</time>
      </trkpt>
      <trkpt lat="47.36533" lon="-2.39987">
        <ele>6.1999998092651</ele>
        <time>2020-06-14T08:25:19.000Z</time>
      </trkpt>
      <trkpt lat="47.36538" lon="-2.39981">
        <ele>6.1999998092651</ele>
        <time>2020-06-14T08:25:20.000Z</time>
      </trkpt>
      <trkpt lat="47.36555" lon="-2.39957">
        <ele>6.1999998092651</ele>
        <time>2020-06-14T08:25:24.000Z</time>
      </trkpt>
      <trkpt lat="47.36578" lon="-2.39922">
        <ele>6.1999998092651</ele>
        <time>2020-06-14T08:25:30.000Z</time>
      </trkpt>
      <trkpt lat="47.36585" lon="-2.39911">
        <ele>6.1999998092651</ele>
        <time>2020-06-14T08:25:32.000Z</time>
      </trkpt>
      <trkpt lat="47.36585" lon="-2.39899">
        <ele>6.1999998092651</ele>
        <time>2020-06-14T08:25:34.000Z</time>
      </trkpt>
      <trkpt lat="47.36578" lon="-2.39883">
        <ele>6.1999998092651</ele>
        <time>2020-06-14T08:25:37.000Z</time>
      </trkpt>
      <trkpt lat="47.36574" lon="-2.39879">
        <ele>6.1999998092651</ele>
        <time>2020-06-14T08:25:38.000Z</time>
      </trkpt>
      <trkpt lat="47.36555" lon="-2.39862">
        <ele>6.1999998092651</ele>
        <time>2020-06-14T08:25:43.000Z</time>
      </trkpt>
      <trkpt lat="47.36552" lon="-2.39859">
        <ele>5.8000001907349</ele>
        <time>2020-06-14T08:25:44.000Z</time>
      </trkpt>
      <trkpt lat="47.36549" lon="-2.39856">
        <ele>5.1999998092651</ele>
        <time>2020-06-14T08:25:45.000Z</time>
      </trkpt>
      <trkpt lat="47.36547" lon="-2.39852">
        <ele>4.8000001907349</ele>
        <time>2020-06-14T08:25:46.000Z</time>
      </trkpt>
      <trkpt lat="47.36544" lon="-2.39848">
        <ele>3.7999999523163</ele>
        <time>2020-06-14T08:25:47.000Z</time>
      </trkpt>
      <trkpt lat="47.36542" lon="-2.39844">
        <ele>3.7999999523163</ele>
        <time>2020-06-14T08:25:48.000Z</time>
      </trkpt>
      <trkpt lat="47.36539" lon="-2.39838">
        <ele>3.7999999523163</ele>
        <time>2020-06-14T08:25:49.000Z</time>
      </trkpt>
      <trkpt lat="47.36529" lon="-2.39816">
        <ele>3.7999999523163</ele>
        <time>2020-06-14T08:25:53.000Z</time>
      </trkpt>
      <trkpt lat="47.36527" lon="-2.39809">
        <ele>3.7999999523163</ele>
        <time>2020-06-14T08:25:54.000Z</time>
      </trkpt>
      <trkpt lat="47.36512" lon="-2.39786">
        <ele>3.7999999523163</ele>
        <time>2020-06-14T08:25:58.000Z</time>
      </trkpt>
      <trkpt lat="47.36507" lon="-2.39783">
        <ele>3.7999999523163</ele>
        <time>2020-06-14T08:25:59.000Z</time>
      </trkpt>
      <trkpt lat="47.36492" lon="-2.39774">
        <ele>3.7999999523163</ele>
        <time>2020-06-14T08:26:02.000Z</time>
      </trkpt>
      <trkpt lat="47.36488" lon="-2.3977">
        <ele>3.7999999523163</ele>
        <time>2020-06-14T08:26:03.000Z</time>
      </trkpt>
      <trkpt lat="47.3648" lon="-2.39751">
        <ele>3.7999999523163</ele>
        <time>2020-06-14T08:26:06.000Z</time>
      </trkpt>
      <trkpt lat="47.36477" lon="-2.39743">
        <ele>3.7999999523163</ele>
        <time>2020-06-14T08:26:07.000Z</time>
      </trkpt>
      <trkpt lat="47.36468" lon="-2.39714">
        <ele>3.7999999523163</ele>
        <time>2020-06-14T08:26:10.000Z</time>
      </trkpt>
      <trkpt lat="47.36465" lon="-2.39706">
        <ele>3.7999999523163</ele>
        <time>2020-06-14T08:26:11.000Z</time>
      </trkpt>
      <trkpt lat="47.36462" lon="-2.39698">
        <ele>4.1999998092651</ele>
        <time>2020-06-14T08:26:12.000Z</time>
      </trkpt>
      <trkpt lat="47.36459" lon="-2.39692">
        <ele>4.5999999046326</ele>
        <time>2020-06-14T08:26:13.000Z</time>
      </trkpt>
      <trkpt lat="47.36457" lon="-2.39685">
        <ele>5</ele>
        <time>2020-06-14T08:26:14.000Z</time>
      </trkpt>
      <trkpt lat="47.36456" lon="-2.39678">
        <ele>5.4000000953674</ele>
        <time>2020-06-14T08:26:15.000Z</time>
      </trkpt>
      <trkpt lat="47.36454" lon="-2.39672">
        <ele>5.8000001907349</ele>
        <time>2020-06-14T08:26:16.000Z</time>
      </trkpt>
      <trkpt lat="47.36451" lon="-2.39658">
        <ele>5.8000001907349</ele>
        <time>2020-06-14T08:26:18.000Z</time>
      </trkpt>
      <trkpt lat="47.36458" lon="-2.39642">
        <ele>5.8000001907349</ele>
        <time>2020-06-14T08:26:21.000Z</time>
      </trkpt>
      <trkpt lat="47.36468" lon="-2.39641">
        <ele>5.8000001907349</ele>
        <time>2020-06-14T08:26:23.000Z</time>
      </trkpt>
      <trkpt lat="47.36478" lon="-2.39638">
        <ele>5.8000001907349</ele>
        <time>2020-06-14T08:26:25.000Z</time>
      </trkpt>
      <trkpt lat="47.36508" lon="-2.3962">
        <ele>5.8000001907349</ele>
        <time>2020-06-14T08:26:31.000Z</time>
      </trkpt>
      <trkpt lat="47.36537" lon="-2.39606">
        <ele>5.8000001907349</ele>
        <time>2020-06-14T08:26:37.000Z</time>
      </trkpt>
      <trkpt lat="47.36571" lon="-2.39599">
        <ele>5.8000001907349</ele>
        <time>2020-06-14T08:26:44.000Z</time>
      </trkpt>
      <trkpt lat="47.36607" lon="-2.39604">
        <ele>5.8000001907349</ele>
        <time>2020-06-14T08:26:51.000Z</time>
      </trkpt>
      <trkpt lat="47.36642" lon="-2.39613">
        <ele>5.8000001907349</ele>
        <time>2020-06-14T08:26:57.000Z</time>
      </trkpt>
      <trkpt lat="47.36652" lon="-2.39619">
        <ele>5.8000001907349</ele>
        <time>2020-06-14T08:26:59.000Z</time>
      </trkpt>
      <trkpt lat="47.36662" lon="-2.39628">
        <ele>5.8000001907349</ele>
        <time>2020-06-14T08:27:01.000Z</time>
      </trkpt>
      <trkpt lat="47.36677" lon="-2.39646">
        <ele>5.8000001907349</ele>
        <time>2020-06-14T08:27:04.000Z</time>
      </trkpt>
      <trkpt lat="47.36682" lon="-2.3965">
        <ele>5.8000001907349</ele>
        <time>2020-06-14T08:27:05.000Z</time>
      </trkpt>
      <trkpt lat="47.36687" lon="-2.39654">
        <ele>5.8000001907349</ele>
        <time>2020-06-14T08:27:06.000Z</time>
      </trkpt>
      <trkpt lat="47.36715" lon="-2.39672">
        <ele>5.8000001907349</ele>
        <time>2020-06-14T08:27:12.000Z</time>
      </trkpt>
      <trkpt lat="47.36736" lon="-2.39675">
        <ele>5.8000001907349</ele>
        <time>2020-06-14T08:27:16.000Z</time>
      </trkpt>
      <trkpt lat="47.36746" lon="-2.39677">
        <ele>5.8000001907349</ele>
        <time>2020-06-14T08:27:18.000Z</time>
      </trkpt>
      <trkpt lat="47.3676" lon="-2.39679">
        <ele>5.8000001907349</ele>
        <time>2020-06-14T08:27:21.000Z</time>
      </trkpt>
      <trkpt lat="47.36769" lon="-2.39677">
        <ele>5.8000001907349</ele>
        <time>2020-06-14T08:27:23.000Z</time>
      </trkpt>
      <trkpt lat="47.36783" lon="-2.39673">
        <ele>5.8000001907349</ele>
        <time>2020-06-14T08:27:26.000Z</time>
      </trkpt>
      <trkpt lat="47.36792" lon="-2.39668">
        <ele>5.8000001907349</ele>
        <time>2020-06-14T08:27:28.000Z</time>
      </trkpt>
      <trkpt lat="47.36796" lon="-2.39665">
        <ele>5.8000001907349</ele>
        <time>2020-06-14T08:27:29.000Z</time>
      </trkpt>
      <trkpt lat="47.36808" lon="-2.39658">
        <ele>5.8000001907349</ele>
        <time>2020-06-14T08:27:32.000Z</time>
      </trkpt>
      <trkpt lat="47.36813" lon="-2.39657">
        <ele>5.8000001907349</ele>
        <time>2020-06-14T08:27:33.000Z</time>
      </trkpt>
      <trkpt lat="47.36817" lon="-2.39655">
        <ele>5.8000001907349</ele>
        <time>2020-06-14T08:27:34.000Z</time>
      </trkpt>
      <trkpt lat="47.3683" lon="-2.39648">
        <ele>5.8000001907349</ele>
        <time>2020-06-14T08:27:37.000Z</time>
      </trkpt>
      <trkpt lat="47.36834" lon="-2.39644">
        <ele>5.8000001907349</ele>
        <time>2020-06-14T08:27:38.000Z</time>
      </trkpt>
      <trkpt lat="47.36846" lon="-2.3963">
        <ele>5.8000001907349</ele>
        <time>2020-06-14T08:27:41.000Z</time>
      </trkpt>
      <trkpt lat="47.36872" lon="-2.39603">
        <ele>5.8000001907349</ele>
        <time>2020-06-14T08:27:47.000Z</time>
      </trkpt>
      <trkpt lat="47.36886" lon="-2.39588">
        <ele>5.8000001907349</ele>
        <time>2020-06-14T08:27:50.000Z</time>
      </trkpt>
      <trkpt lat="47.36899" lon="-2.39573">
        <ele>5.8000001907349</ele>
        <time>2020-06-14T08:27:53.000Z</time>
      </trkpt>
      <trkpt lat="47.36922" lon="-2.39536">
        <ele>5.8000001907349</ele>
        <time>2020-06-14T08:27:59.000Z</time>
      </trkpt>
      <trkpt lat="47.36933" lon="-2.3952">
        <ele>5.8000001907349</ele>
        <time>2020-06-14T08:28:02.000Z</time>
      </trkpt>
      <trkpt lat="47.36939" lon="-2.3951">
        <ele>5.8000001907349</ele>
        <time>2020-06-14T08:28:04.000Z</time>
      </trkpt>
      <trkpt lat="47.36947" lon="-2.39501">
        <ele>5.8000001907349</ele>
        <time>2020-06-14T08:28:06.000Z</time>
      </trkpt>
      <trkpt lat="47.36959" lon="-2.39489">
        <ele>6.1999998092651</ele>
        <time>2020-06-14T08:28:09.000Z</time>
      </trkpt>
      <trkpt lat="47.36963" lon="-2.39486">
        <ele>6.5999999046326</ele>
        <time>2020-06-14T08:28:10.000Z</time>
      </trkpt>
      <trkpt lat="47.36968" lon="-2.39483">
        <ele>7</ele>
        <time>2020-06-14T08:28:11.000Z</time>
      </trkpt>
      <trkpt lat="47.36972" lon="-2.39479">
        <ele>7.4000000953674</ele>
        <time>2020-06-14T08:28:12.000Z</time>
      </trkpt>
      <trkpt lat="47.36977" lon="-2.39476">
        <ele>7.8000001907349</ele>
        <time>2020-06-14T08:28:13.000Z</time>
      </trkpt>
      <trkpt lat="47.36995" lon="-2.3946">
        <ele>7.8000001907349</ele>
        <time>2020-06-14T08:28:17.000Z</time>
      </trkpt>
      <trkpt lat="47.3702" lon="-2.39437">
        <ele>7.8000001907349</ele>
        <time>2020-06-14T08:28:23.000Z</time>
      </trkpt>
      <trkpt lat="47.37024" lon="-2.39432">
        <ele>7.8000001907349</ele>
        <time>2020-06-14T08:28:24.000Z</time>
      </trkpt>
      <trkpt lat="47.37045" lon="-2.39409">
        <ele>7.8000001907349</ele>
        <time>2020-06-14T08:28:29.000Z</time>
      </trkpt>
      <trkpt lat="47.37069" lon="-2.39385">
        <ele>7.8000001907349</ele>
        <time>2020-06-14T08:28:35.000Z</time>
      </trkpt>
      <trkpt lat="47.37072" lon="-2.3938">
        <ele>7.8000001907349</ele>
        <time>2020-06-14T08:28:36.000Z</time>
      </trkpt>
      <trkpt lat="47.37077" lon="-2.39377">
        <ele>7.8000001907349</ele>
        <time>2020-06-14T08:28:37.000Z</time>
      </trkpt>
      <trkpt lat="47.37091" lon="-2.39366">
        <ele>8.3999996185303</ele>
        <time>2020-06-14T08:28:40.000Z</time>
      </trkpt>
      <trkpt lat="47.37095" lon="-2.39361">
        <ele>8.8000001907349</ele>
        <time>2020-06-14T08:28:41.000Z</time>
      </trkpt>
      <trkpt lat="47.371" lon="-2.39357">
        <ele>9.1999998092651</ele>
        <time>2020-06-14T08:28:42.000Z</time>
      </trkpt>
      <trkpt lat="47.37105" lon="-2.39352">
        <ele>9.6000003814697</ele>
        <time>2020-06-14T08:28:43.000Z</time>
      </trkpt>
      <trkpt lat="47.37111" lon="-2.39348">
        <ele>10</ele>
        <time>2020-06-14T08:28:44.000Z</time>
      </trkpt>
      <trkpt lat="47.3713" lon="-2.3933">
        <ele>10</ele>
        <time>2020-06-14T08:28:48.000Z</time>
      </trkpt>
      <trkpt lat="47.37155" lon="-2.39307">
        <ele>10</ele>
        <time>2020-06-14T08:28:54.000Z</time>
      </trkpt>
      <trkpt lat="47.37183" lon="-2.3928">
        <ele>10</ele>
        <time>2020-06-14T08:29:00.000Z</time>
      </trkpt>
      <trkpt lat="47.37211" lon="-2.39253">
        <ele>10</ele>
        <time>2020-06-14T08:29:06.000Z</time>
      </trkpt>
      <trkpt lat="47.3724" lon="-2.39226">
        <ele>10</ele>
        <time>2020-06-14T08:29:12.000Z</time>
      </trkpt>
      <trkpt lat="47.37269" lon="-2.39197">
        <ele>10</ele>
        <time>2020-06-14T08:29:18.000Z</time>
      </trkpt>
      <trkpt lat="47.37283" lon="-2.39184">
        <ele>10</ele>
        <time>2020-06-14T08:29:21.000Z</time>
      </trkpt>
      <trkpt lat="47.37301" lon="-2.39168">
        <ele>10</ele>
        <time>2020-06-14T08:29:25.000Z</time>
      </trkpt>
      <trkpt lat="47.37315" lon="-2.39152">
        <ele>10</ele>
        <time>2020-06-14T08:29:30.000Z</time>
      </trkpt>
      <trkpt lat="47.37323" lon="-2.39129">
        <ele>10</ele>
        <time>2020-06-14T08:29:36.000Z</time>
      </trkpt>
      <trkpt lat="47.3732" lon="-2.39103">
        <ele>10</ele>
        <time>2020-06-14T08:29:40.000Z</time>
      </trkpt>
      <trkpt lat="47.37318" lon="-2.39089">
        <ele>10</ele>
        <time>2020-06-14T08:29:42.000Z</time>
      </trkpt>
      <trkpt lat="47.37314" lon="-2.39062">
        <ele>10</ele>
        <time>2020-06-14T08:29:46.000Z</time>
      </trkpt>
      <trkpt lat="47.37307" lon="-2.39024">
        <ele>10</ele>
        <time>2020-06-14T08:29:52.000Z</time>
      </trkpt>
      <trkpt lat="47.37305" lon="-2.38986">
        <ele>10</ele>
        <time>2020-06-14T08:29:57.000Z</time>
      </trkpt>
      <trkpt lat="47.37299" lon="-2.38952">
        <ele>10</ele>
        <time>2020-06-14T08:30:03.000Z</time>
      </trkpt>
      <trkpt lat="47.37288" lon="-2.38908">
        <ele>10</ele>
        <time>2020-06-14T08:30:11.000Z</time>
      </trkpt>
      <trkpt lat="47.37276" lon="-2.38867">
        <ele>10</ele>
        <time>2020-06-14T08:30:19.000Z</time>
      </trkpt>
      <trkpt lat="47.37263" lon="-2.38822">
        <ele>10</ele>
        <time>2020-06-14T08:30:27.000Z</time>
      </trkpt>
      <trkpt lat="47.37246" lon="-2.38772">
        <ele>10</ele>
        <time>2020-06-14T08:30:35.000Z</time>
      </trkpt>
      <trkpt lat="47.37241" lon="-2.38761">
        <ele>10</ele>
        <time>2020-06-14T08:30:37.000Z</time>
      </trkpt>
      <trkpt lat="47.37234" lon="-2.38744">
        <ele>10</ele>
        <time>2020-06-14T08:30:40.000Z</time>
      </trkpt>
      <trkpt lat="47.3723" lon="-2.38732">
        <ele>10</ele>
        <time>2020-06-14T08:30:42.000Z</time>
      </trkpt>
      <trkpt lat="47.37219" lon="-2.38699">
        <ele>10</ele>
        <time>2020-06-14T08:30:47.000Z</time>
      </trkpt>
      <trkpt lat="47.37204" lon="-2.38662">
        <ele>10</ele>
        <time>2020-06-14T08:30:53.000Z</time>
      </trkpt>
      <trkpt lat="47.37187" lon="-2.38623">
        <ele>10</ele>
        <time>2020-06-14T08:31:00.000Z</time>
      </trkpt>
      <trkpt lat="47.37172" lon="-2.38586">
        <ele>9.6000003814697</ele>
        <time>2020-06-14T08:31:07.000Z</time>
      </trkpt>
      <trkpt lat="47.3717" lon="-2.3858">
        <ele>9.1999998092651</ele>
        <time>2020-06-14T08:31:08.000Z</time>
      </trkpt>
      <trkpt lat="47.37167" lon="-2.38575">
        <ele>8.6000003814697</ele>
        <time>2020-06-14T08:31:09.000Z</time>
      </trkpt>
      <trkpt lat="47.37164" lon="-2.38569">
        <ele>8.1999998092651</ele>
        <time>2020-06-14T08:31:10.000Z</time>
      </trkpt>
      <trkpt lat="47.37162" lon="-2.38563">
        <ele>7.8000001907349</ele>
        <time>2020-06-14T08:31:11.000Z</time>
      </trkpt>
      <trkpt lat="47.37156" lon="-2.38551">
        <ele>7.8000001907349</ele>
        <time>2020-06-14T08:31:13.000Z</time>
      </trkpt>
      <trkpt lat="47.37144" lon="-2.38534">
        <ele>7.8000001907349</ele>
        <time>2020-06-14T08:31:16.000Z</time>
      </trkpt>
      <trkpt lat="47.37137" lon="-2.38525">
        <ele>7.8000001907349</ele>
        <time>2020-06-14T08:31:18.000Z</time>
      </trkpt>
      <trkpt lat="47.37133" lon="-2.38521">
        <ele>7.8000001907349</ele>
        <time>2020-06-14T08:31:19.000Z</time>
      </trkpt>
      <trkpt lat="47.371" lon="-2.38496">
        <ele>7.8000001907349</ele>
        <time>2020-06-14T08:31:26.000Z</time>
      </trkpt>
      <trkpt lat="47.37085" lon="-2.38485">
        <ele>7.4000000953674</ele>
        <time>2020-06-14T08:31:29.000Z</time>
      </trkpt>
      <trkpt lat="47.3708" lon="-2.38481">
        <ele>7</ele>
        <time>2020-06-14T08:31:30.000Z</time>
      </trkpt>
      <trkpt lat="47.37076" lon="-2.38478">
        <ele>6.1999998092651</ele>
        <time>2020-06-14T08:31:31.000Z</time>
      </trkpt>
      <trkpt lat="47.3707" lon="-2.38476">
        <ele>5.8000001907349</ele>
        <time>2020-06-14T08:31:32.000Z</time>
      </trkpt>
      <trkpt lat="47.37066" lon="-2.38472">
        <ele>5.8000001907349</ele>
        <time>2020-06-14T08:31:33.000Z</time>
      </trkpt>
      <trkpt lat="47.37062" lon="-2.38459">
        <ele>5.4000000953674</ele>
        <time>2020-06-14T08:31:35.000Z</time>
      </trkpt>
      <trkpt lat="47.37063" lon="-2.38452">
        <ele>5</ele>
        <time>2020-06-14T08:31:36.000Z</time>
      </trkpt>
      <trkpt lat="47.37064" lon="-2.38445">
        <ele>4.5999999046326</ele>
        <time>2020-06-14T08:31:37.000Z</time>
      </trkpt>
      <trkpt lat="47.37066" lon="-2.38437">
        <ele>4.1999998092651</ele>
        <time>2020-06-14T08:31:38.000Z</time>
      </trkpt>
      <trkpt lat="47.37069" lon="-2.38431">
        <ele>3.5999999046326</ele>
        <time>2020-06-14T08:31:39.000Z</time>
      </trkpt>
      <trkpt lat="47.37073" lon="-2.38424">
        <ele>3.5999999046326</ele>
        <time>2020-06-14T08:31:40.000Z</time>
      </trkpt>
      <trkpt lat="47.37076" lon="-2.38417">
        <ele>3.5999999046326</ele>
        <time>2020-06-14T08:31:41.000Z</time>
      </trkpt>
      <trkpt lat="47.37092" lon="-2.38394">
        <ele>3.5999999046326</ele>
        <time>2020-06-14T08:31:45.000Z</time>
      </trkpt>
      <trkpt lat="47.37099" lon="-2.38385">
        <ele>3.5999999046326</ele>
        <time>2020-06-14T08:31:47.000Z</time>
      </trkpt>
      <trkpt lat="47.37112" lon="-2.38377">
        <ele>3.5999999046326</ele>
        <time>2020-06-14T08:31:50.000Z</time>
      </trkpt>
      <trkpt lat="47.37116" lon="-2.38375">
        <ele>3.5999999046326</ele>
        <time>2020-06-14T08:31:51.000Z</time>
      </trkpt>
      <trkpt lat="47.37134" lon="-2.38369">
        <ele>3.5999999046326</ele>
        <time>2020-06-14T08:31:55.000Z</time>
      </trkpt>
      <trkpt lat="47.37138" lon="-2.38367">
        <ele>3.5999999046326</ele>
        <time>2020-06-14T08:31:56.000Z</time>
      </trkpt>
      <trkpt lat="47.37142" lon="-2.38365">
        <ele>3.5999999046326</ele>
        <time>2020-06-14T08:31:57.000Z</time>
      </trkpt>
      <trkpt lat="47.37158" lon="-2.38359">
        <ele>4</ele>
        <time>2020-06-14T08:32:01.000Z</time>
      </trkpt>
      <trkpt lat="47.37163" lon="-2.38357">
        <ele>4.5999999046326</ele>
        <time>2020-06-14T08:32:02.000Z</time>
      </trkpt>
      <trkpt lat="47.37168" lon="-2.38356">
        <ele>5</ele>
        <time>2020-06-14T08:32:03.000Z</time>
      </trkpt>
      <trkpt lat="47.37173" lon="-2.38354">
        <ele>5.4000000953674</ele>
        <time>2020-06-14T08:32:04.000Z</time>
      </trkpt>
      <trkpt lat="47.37179" lon="-2.38353">
        <ele>5.8000001907349</ele>
        <time>2020-06-14T08:32:05.000Z</time>
      </trkpt>
      <trkpt lat="47.37188" lon="-2.3835">
        <ele>5.8000001907349</ele>
        <time>2020-06-14T08:32:07.000Z</time>
      </trkpt>
      <trkpt lat="47.37208" lon="-2.38347">
        <ele>5.8000001907349</ele>
        <time>2020-06-14T08:32:12.000Z</time>
      </trkpt>
      <trkpt lat="47.37225" lon="-2.38343">
        <ele>6.1999998092651</ele>
        <time>2020-06-14T08:32:15.000Z</time>
      </trkpt>
      <trkpt lat="47.37232" lon="-2.38343">
        <ele>6.5999999046326</ele>
        <time>2020-06-14T08:32:16.000Z</time>
      </trkpt>
      <trkpt lat="47.37238" lon="-2.38342">
        <ele>7</ele>
        <time>2020-06-14T08:32:17.000Z</time>
      </trkpt>
      <trkpt lat="47.37243" lon="-2.3834">
        <ele>7.4000000953674</ele>
        <time>2020-06-14T08:32:18.000Z</time>
      </trkpt>
      <trkpt lat="47.37248" lon="-2.38338">
        <ele>7.8000001907349</ele>
        <time>2020-06-14T08:32:19.000Z</time>
      </trkpt>
      <trkpt lat="47.37259" lon="-2.38331">
        <ele>7.8000001907349</ele>
        <time>2020-06-14T08:32:22.000Z</time>
      </trkpt>
      <trkpt lat="47.3728" lon="-2.38316">
        <ele>7.8000001907349</ele>
        <time>2020-06-14T08:32:27.000Z</time>
      </trkpt>
      <trkpt lat="47.37304" lon="-2.38302">
        <ele>7.8000001907349</ele>
        <time>2020-06-14T08:32:33.000Z</time>
      </trkpt>
      <trkpt lat="47.37323" lon="-2.38292">
        <ele>7.8000001907349</ele>
        <time>2020-06-14T08:32:37.000Z</time>
      </trkpt>
      <trkpt lat="47.37328" lon="-2.38289">
        <ele>7.8000001907349</ele>
        <time>2020-06-14T08:32:38.000Z</time>
      </trkpt>
      <trkpt lat="47.3735" lon="-2.38277">
        <ele>7.8000001907349</ele>
        <time>2020-06-14T08:32:43.000Z</time>
      </trkpt>
      <trkpt lat="47.37376" lon="-2.38264">
        <ele>7.8000001907349</ele>
        <time>2020-06-14T08:32:48.000Z</time>
      </trkpt>
      <trkpt lat="47.374" lon="-2.38248">
        <ele>7.8000001907349</ele>
        <time>2020-06-14T08:32:54.000Z</time>
      </trkpt>
      <trkpt lat="47.37416" lon="-2.38236">
        <ele>7.8000001907349</ele>
        <time>2020-06-14T08:32:58.000Z</time>
      </trkpt>
      <trkpt lat="47.37429" lon="-2.38227">
        <ele>7.8000001907349</ele>
        <time>2020-06-14T08:33:00.000Z</time>
      </trkpt>
      <trkpt lat="47.37468" lon="-2.38206">
        <ele>7.8000001907349</ele>
        <time>2020-06-14T08:33:06.000Z</time>
      </trkpt>
      <trkpt lat="47.37504" lon="-2.38186">
        <ele>7.8000001907349</ele>
        <time>2020-06-14T08:33:12.000Z</time>
      </trkpt>
      <trkpt lat="47.37543" lon="-2.3816">
        <ele>7.8000001907349</ele>
        <time>2020-06-14T08:33:19.000Z</time>
      </trkpt>
      <trkpt lat="47.37587" lon="-2.38134">
        <ele>7.8000001907349</ele>
        <time>2020-06-14T08:33:26.000Z</time>
      </trkpt>
      <trkpt lat="47.37635" lon="-2.3811">
        <ele>7.8000001907349</ele>
        <time>2020-06-14T08:33:33.000Z</time>
      </trkpt>
      <trkpt lat="47.37671" lon="-2.3808">
        <ele>7.8000001907349</ele>
        <time>2020-06-14T08:33:40.000Z</time>
      </trkpt>
      <trkpt lat="47.37693" lon="-2.38057">
        <ele>7.8000001907349</ele>
        <time>2020-06-14T08:33:46.000Z</time>
      </trkpt>
      <trkpt lat="47.37703" lon="-2.38045">
        <ele>7.8000001907349</ele>
        <time>2020-06-14T08:33:51.000Z</time>
      </trkpt>
      <trkpt lat="47.37715" lon="-2.38033">
        <ele>7.8000001907349</ele>
        <time>2020-06-14T08:33:57.000Z</time>
      </trkpt>
      <trkpt lat="47.3773" lon="-2.38024">
        <ele>8.1999998092651</ele>
        <time>2020-06-14T08:34:01.000Z</time>
      </trkpt>
      <trkpt lat="47.37735" lon="-2.38021">
        <ele>8.8000001907349</ele>
        <time>2020-06-14T08:34:02.000Z</time>
      </trkpt>
      <trkpt lat="47.37739" lon="-2.38018">
        <ele>9.1999998092651</ele>
        <time>2020-06-14T08:34:03.000Z</time>
      </trkpt>
      <trkpt lat="47.37743" lon="-2.38016">
        <ele>9.6000003814697</ele>
        <time>2020-06-14T08:34:04.000Z</time>
      </trkpt>
      <trkpt lat="47.37747" lon="-2.38013">
        <ele>10</ele>
        <time>2020-06-14T08:34:05.000Z</time>
      </trkpt>
      <trkpt lat="47.37759" lon="-2.38005">
        <ele>10</ele>
        <time>2020-06-14T08:34:08.000Z</time>
      </trkpt>
      <trkpt lat="47.37787" lon="-2.37985">
        <ele>10</ele>
        <time>2020-06-14T08:34:14.000Z</time>
      </trkpt>
      <trkpt lat="47.37807" lon="-2.37971">
        <ele>10.39999961853</ele>
        <time>2020-06-14T08:34:18.000Z</time>
      </trkpt>
      <trkpt lat="47.37812" lon="-2.37967">
        <ele>10.800000190735</ele>
        <time>2020-06-14T08:34:19.000Z</time>
      </trkpt>
      <trkpt lat="47.37817" lon="-2.37964">
        <ele>11.199999809265</ele>
        <time>2020-06-14T08:34:20.000Z</time>
      </trkpt>
      <trkpt lat="47.37822" lon="-2.37961">
        <ele>11.60000038147</ele>
        <time>2020-06-14T08:34:21.000Z</time>
      </trkpt>
      <trkpt lat="47.37827" lon="-2.37958">
        <ele>12</ele>
        <time>2020-06-14T08:34:22.000Z</time>
      </trkpt>
      <trkpt lat="47.37864" lon="-2.37931">
        <ele>12</ele>
        <time>2020-06-14T08:34:29.000Z</time>
      </trkpt>
      <trkpt lat="47.37903" lon="-2.37902">
        <ele>12</ele>
        <time>2020-06-14T08:34:36.000Z</time>
      </trkpt>
      <trkpt lat="47.37935" lon="-2.37879">
        <ele>12</ele>
        <time>2020-06-14T08:34:42.000Z</time>
      </trkpt>
      <trkpt lat="47.37968" lon="-2.37855">
        <ele>12</ele>
        <time>2020-06-14T08:34:48.000Z</time>
      </trkpt>
      <trkpt lat="47.38003" lon="-2.37832">
        <ele>12</ele>
        <time>2020-06-14T08:34:55.000Z</time>
      </trkpt>
      <trkpt lat="47.38038" lon="-2.37802">
        <ele>12</ele>
        <time>2020-06-14T08:35:02.000Z</time>
      </trkpt>
      <trkpt lat="47.38042" lon="-2.37798">
        <ele>12</ele>
        <time>2020-06-14T08:35:03.000Z</time>
      </trkpt>
      <trkpt lat="47.38067" lon="-2.37776">
        <ele>11.60000038147</ele>
        <time>2020-06-14T08:35:08.000Z</time>
      </trkpt>
      <trkpt lat="47.38073" lon="-2.37771">
        <ele>11.199999809265</ele>
        <time>2020-06-14T08:35:09.000Z</time>
      </trkpt>
      <trkpt lat="47.38079" lon="-2.37764">
        <ele>10.60000038147</ele>
        <time>2020-06-14T08:35:10.000Z</time>
      </trkpt>
      <trkpt lat="47.38086" lon="-2.37758">
        <ele>10.199999809265</ele>
        <time>2020-06-14T08:35:11.000Z</time>
      </trkpt>
      <trkpt lat="47.38092" lon="-2.37753">
        <ele>9.8000001907349</ele>
        <time>2020-06-14T08:35:12.000Z</time>
      </trkpt>
      <trkpt lat="47.381" lon="-2.37748">
        <ele>9.8000001907349</ele>
        <time>2020-06-14T08:35:13.000Z</time>
      </trkpt>
      <trkpt lat="47.38127" lon="-2.37726">
        <ele>9.3999996185303</ele>
        <time>2020-06-14T08:35:17.000Z</time>
      </trkpt>
      <trkpt lat="47.38134" lon="-2.3772">
        <ele>9</ele>
        <time>2020-06-14T08:35:18.000Z</time>
      </trkpt>
      <trkpt lat="47.3814" lon="-2.37714">
        <ele>8.6000003814697</ele>
        <time>2020-06-14T08:35:19.000Z</time>
      </trkpt>
      <trkpt lat="47.38147" lon="-2.37709">
        <ele>8.1999998092651</ele>
        <time>2020-06-14T08:35:20.000Z</time>
      </trkpt>
      <trkpt lat="47.38153" lon="-2.37703">
        <ele>7.8000001907349</ele>
        <time>2020-06-14T08:35:21.000Z</time>
      </trkpt>
      <trkpt lat="47.38177" lon="-2.37681">
        <ele>7.8000001907349</ele>
        <time>2020-06-14T08:35:25.000Z</time>
      </trkpt>
      <trkpt lat="47.3821" lon="-2.37657">
        <ele>7.8000001907349</ele>
        <time>2020-06-14T08:35:30.000Z</time>
      </trkpt>
      <trkpt lat="47.3822" lon="-2.37649">
        <ele>7.4000000953674</ele>
        <time>2020-06-14T08:35:32.000Z</time>
      </trkpt>
      <trkpt lat="47.38225" lon="-2.37646">
        <ele>6.8000001907349</ele>
        <time>2020-06-14T08:35:33.000Z</time>
      </trkpt>
      <trkpt lat="47.3823" lon="-2.37643">
        <ele>6.4000000953674</ele>
        <time>2020-06-14T08:35:34.000Z</time>
      </trkpt>
      <trkpt lat="47.38234" lon="-2.37641">
        <ele>6</ele>
        <time>2020-06-14T08:35:35.000Z</time>
      </trkpt>
      <trkpt lat="47.38237" lon="-2.37639">
        <ele>5.4000000953674</ele>
        <time>2020-06-14T08:35:36.000Z</time>
      </trkpt>
      <trkpt lat="47.38242" lon="-2.37637">
        <ele>5.4000000953674</ele>
        <time>2020-06-14T08:35:37.000Z</time>
      </trkpt>
      <trkpt lat="47.3825" lon="-2.37635">
        <ele>5.4000000953674</ele>
        <time>2020-06-14T08:35:39.000Z</time>
      </trkpt>
      <trkpt lat="47.38258" lon="-2.37633">
        <ele>5</ele>
        <time>2020-06-14T08:35:42.000Z</time>
      </trkpt>
      <trkpt lat="47.3826" lon="-2.37632">
        <ele>4.5999999046326</ele>
        <time>2020-06-14T08:35:43.000Z</time>
      </trkpt>
      <trkpt lat="47.38262" lon="-2.37632">
        <ele>4.1999998092651</ele>
        <time>2020-06-14T08:35:44.000Z</time>
      </trkpt>
      <trkpt lat="47.38264" lon="-2.37632">
        <ele>3.7999999523163</ele>
        <time>2020-06-14T08:35:45.000Z</time>
      </trkpt>
      <trkpt lat="47.38267" lon="-2.37632">
        <ele>3.4000000953674</ele>
        <time>2020-06-14T08:35:46.000Z</time>
      </trkpt>
      <trkpt lat="47.3827" lon="-2.3763">
        <ele>3.4000000953674</ele>
        <time>2020-06-14T08:35:47.000Z</time>
      </trkpt>
      <trkpt lat="47.38272" lon="-2.37629">
        <ele>3.4000000953674</ele>
        <time>2020-06-14T08:35:48.000Z</time>
      </trkpt>
      <trkpt lat="47.38285" lon="-2.3762">
        <ele>3.4000000953674</ele>
        <time>2020-06-14T08:35:52.000Z</time>
      </trkpt>
      <trkpt lat="47.38289" lon="-2.37618">
        <ele>3.4000000953674</ele>
        <time>2020-06-14T08:35:53.000Z</time>
      </trkpt>
      <trkpt lat="47.38318" lon="-2.37606">
        <ele>3.4000000953674</ele>
        <time>2020-06-14T08:35:59.000Z</time>
      </trkpt>
      <trkpt lat="47.38352" lon="-2.37592">
        <ele>3.4000000953674</ele>
        <time>2020-06-14T08:36:06.000Z</time>
      </trkpt>
      <trkpt lat="47.38357" lon="-2.37585">
        <ele>3.4000000953674</ele>
        <time>2020-06-14T08:36:08.000Z</time>
      </trkpt>
      <trkpt lat="47.38359" lon="-2.37577">
        <ele>3</ele>
        <time>2020-06-14T08:36:10.000Z</time>
      </trkpt>
      <trkpt lat="47.3836" lon="-2.37573">
        <ele>2.5999999046326</ele>
        <time>2020-06-14T08:36:11.000Z</time>
      </trkpt>
      <trkpt lat="47.38361" lon="-2.37568">
        <ele>2.2000000476837</ele>
        <time>2020-06-14T08:36:12.000Z</time>
      </trkpt>
      <trkpt lat="47.38361" lon="-2.37564">
        <ele>1.7999999523163</ele>
        <time>2020-06-14T08:36:13.000Z</time>
      </trkpt>
      <trkpt lat="47.38361" lon="-2.37559">
        <ele>1.3999999761581</ele>
        <time>2020-06-14T08:36:14.000Z</time>
      </trkpt>
      <trkpt lat="47.38362" lon="-2.37554">
        <ele>1.3999999761581</ele>
        <time>2020-06-14T08:36:15.000Z</time>
      </trkpt>
      <trkpt lat="47.38366" lon="-2.37521">
        <ele>1.3999999761581</ele>
        <time>2020-06-14T08:36:21.000Z</time>
      </trkpt>
      <trkpt lat="47.38367" lon="-2.37491">
        <ele>1.3999999761581</ele>
        <time>2020-06-14T08:36:26.000Z</time>
      </trkpt>
      <trkpt lat="47.3836" lon="-2.37462">
        <ele>1.3999999761581</ele>
        <time>2020-06-14T08:36:31.000Z</time>
      </trkpt>
      <trkpt lat="47.38352" lon="-2.37432">
        <ele>1.3999999761581</ele>
        <time>2020-06-14T08:36:37.000Z</time>
      </trkpt>
      <trkpt lat="47.38347" lon="-2.37413">
        <ele>1</ele>
        <time>2020-06-14T08:36:42.000Z</time>
      </trkpt>
      <trkpt lat="47.38346" lon="-2.3741">
        <ele>0.60000002384186</ele>
        <time>2020-06-14T08:36:43.000Z</time>
      </trkpt>
      <trkpt lat="47.38346" lon="-2.37407">
        <ele>0.20000000298023</ele>
        <time>2020-06-14T08:36:44.000Z</time>
      </trkpt>
      <trkpt lat="47.38347" lon="-2.37403">
        <ele>-0.20000000298023</ele>
        <time>2020-06-14T08:36:45.000Z</time>
      </trkpt>
      <trkpt lat="47.38348" lon="-2.37401">
        <ele>-0.60000002384186</ele>
        <time>2020-06-14T08:36:46.000Z</time>
      </trkpt>
      <trkpt lat="47.38347" lon="-2.37395">
        <ele>-0.60000002384186</ele>
        <time>2020-06-14T08:36:48.000Z</time>
      </trkpt>
      <trkpt lat="47.38342" lon="-2.37374">
        <ele>-0.60000002384186</ele>
        <time>2020-06-14T08:36:54.000Z</time>
      </trkpt>
      <trkpt lat="47.38342" lon="-2.37368">
        <ele>-0.60000002384186</ele>
        <time>2020-06-14T08:36:56.000Z</time>
      </trkpt>
      <trkpt lat="47.38344" lon="-2.37358">
        <ele>-0.60000002384186</ele>
        <time>2020-06-14T08:36:59.000Z</time>
      </trkpt>
      <trkpt lat="47.38344" lon="-2.37351">
        <ele>-0.60000002384186</ele>
        <time>2020-06-14T08:37:01.000Z</time>
      </trkpt>
      <trkpt lat="47.3834" lon="-2.37332">
        <ele>-0.60000002384186</ele>
        <time>2020-06-14T08:37:05.000Z</time>
      </trkpt>
      <trkpt lat="47.38338" lon="-2.37309">
        <ele>-0.60000002384186</ele>
        <time>2020-06-14T08:37:12.000Z</time>
      </trkpt>
      <trkpt lat="47.38339" lon="-2.37303">
        <ele>-0.60000002384186</ele>
        <time>2020-06-14T08:37:14.000Z</time>
      </trkpt>
      <trkpt lat="47.38338" lon="-2.37297">
        <ele>-0.60000002384186</ele>
        <time>2020-06-14T08:37:17.000Z</time>
      </trkpt>
      <trkpt lat="47.38329" lon="-2.37287">
        <ele>-0.60000002384186</ele>
        <time>2020-06-14T08:37:26.000Z</time>
      </trkpt>
      <trkpt lat="47.38324" lon="-2.37273">
        <ele>-0.60000002384186</ele>
        <time>2020-06-14T08:37:31.000Z</time>
      </trkpt>
      <trkpt lat="47.38321" lon="-2.37268">
        <ele>-0.60000002384186</ele>
        <time>2020-06-14T08:37:33.000Z</time>
      </trkpt>
      <trkpt lat="47.38314" lon="-2.37256">
        <ele>-0.60000002384186</ele>
        <time>2020-06-14T08:37:37.000Z</time>
      </trkpt>
      <trkpt lat="47.38303" lon="-2.37241">
        <ele>-0.60000002384186</ele>
        <time>2020-06-14T08:37:43.000Z</time>
      </trkpt>
      <trkpt lat="47.38294" lon="-2.37231">
        <ele>-0.60000002384186</ele>
        <time>2020-06-14T08:37:50.000Z</time>
      </trkpt>
      <trkpt lat="47.38292" lon="-2.3723">
        <ele>-0.60000002384186</ele>
        <time>2020-06-14T08:37:51.000Z</time>
      </trkpt>
      <trkpt lat="47.38279" lon="-2.37224">
        <ele>-0.60000002384186</ele>
        <time>2020-06-14T08:37:56.000Z</time>
      </trkpt>
      <trkpt lat="47.38263" lon="-2.37223">
        <ele>-0.60000002384186</ele>
        <time>2020-06-14T08:38:01.000Z</time>
      </trkpt>
      <trkpt lat="47.38259" lon="-2.3722">
        <ele>-0.60000002384186</ele>
        <time>2020-06-14T08:38:03.000Z</time>
      </trkpt>
      <trkpt lat="47.38257" lon="-2.37214">
        <ele>-0.60000002384186</ele>
        <time>2020-06-14T08:38:05.000Z</time>
      </trkpt>
      <trkpt lat="47.38254" lon="-2.3721">
        <ele>-0.60000002384186</ele>
        <time>2020-06-14T08:38:07.000Z</time>
      </trkpt>
      <trkpt lat="47.38253" lon="-2.37206">
        <ele>-0.60000002384186</ele>
        <time>2020-06-14T08:38:08.000Z</time>
      </trkpt>
      <trkpt lat="47.38251" lon="-2.372">
        <ele>-0.60000002384186</ele>
        <time>2020-06-14T08:38:10.000Z</time>
      </trkpt>
      <trkpt lat="47.38244" lon="-2.3718">
        <ele>-0.60000002384186</ele>
        <time>2020-06-14T08:38:18.000Z</time>
      </trkpt>
      <trkpt lat="47.38232" lon="-2.37153">
        <ele>-0.20000000298023</ele>
        <time>2020-06-14T08:38:24.000Z</time>
      </trkpt>
      <trkpt lat="47.38229" lon="-2.37148">
        <ele>0.20000000298023</ele>
        <time>2020-06-14T08:38:25.000Z</time>
      </trkpt>
      <trkpt lat="47.38227" lon="-2.37145">
        <ele>0.60000002384186</ele>
        <time>2020-06-14T08:38:26.000Z</time>
      </trkpt>
      <trkpt lat="47.38224" lon="-2.37139">
        <ele>1</ele>
        <time>2020-06-14T08:38:27.000Z</time>
      </trkpt>
      <trkpt lat="47.38216" lon="-2.3713">
        <ele>1.6000000238419</ele>
        <time>2020-06-14T08:38:28.000Z</time>
      </trkpt>
      <trkpt lat="47.38211" lon="-2.3712">
        <ele>1.6000000238419</ele>
        <time>2020-06-14T08:38:30.000Z</time>
      </trkpt>
      <trkpt lat="47.38196" lon="-2.37095">
        <ele>2</ele>
        <time>2020-06-14T08:38:35.000Z</time>
      </trkpt>
      <trkpt lat="47.38192" lon="-2.37091">
        <ele>2.4000000953674</ele>
        <time>2020-06-14T08:38:36.000Z</time>
      </trkpt>
      <trkpt lat="47.38189" lon="-2.37086">
        <ele>2.7999999523163</ele>
        <time>2020-06-14T08:38:37.000Z</time>
      </trkpt>
      <trkpt lat="47.38186" lon="-2.37081">
        <ele>3.2000000476837</ele>
        <time>2020-06-14T08:38:38.000Z</time>
      </trkpt>
      <trkpt lat="47.38184" lon="-2.37075">
        <ele>3.5999999046326</ele>
        <time>2020-06-14T08:38:39.000Z</time>
      </trkpt>
      <trkpt lat="47.38164" lon="-2.37044">
        <ele>3.5999999046326</ele>
        <time>2020-06-14T08:38:44.000Z</time>
      </trkpt>
      <trkpt lat="47.38155" lon="-2.37022">
        <ele>3.5999999046326</ele>
        <time>2020-06-14T08:38:51.000Z</time>
      </trkpt>
      <trkpt lat="47.38147" lon="-2.37006">
        <ele>3.5999999046326</ele>
        <time>2020-06-14T08:38:56.000Z</time>
      </trkpt>
      <trkpt lat="47.38143" lon="-2.36993">
        <ele>3.5999999046326</ele>
        <time>2020-06-14T08:39:02.000Z</time>
      </trkpt>
      <trkpt lat="47.3814" lon="-2.36987">
        <ele>3.5999999046326</ele>
        <time>2020-06-14T08:39:07.000Z</time>
      </trkpt>
      <trkpt lat="47.38138" lon="-2.36983">
        <ele>3.5999999046326</ele>
        <time>2020-06-14T08:39:36.000Z</time>
      </trkpt>
      <trkpt lat="47.38128" lon="-2.36959">
        <ele>3.5999999046326</ele>
        <time>2020-06-14T08:39:43.000Z</time>
      </trkpt>
      <trkpt lat="47.38122" lon="-2.36945">
        <ele>4</ele>
        <time>2020-06-14T08:39:46.000Z</time>
      </trkpt>
      <trkpt lat="47.3812" lon="-2.36941">
        <ele>4.4000000953674</ele>
        <time>2020-06-14T08:39:47.000Z</time>
      </trkpt>
      <trkpt lat="47.38118" lon="-2.36936">
        <ele>4.8000001907349</ele>
        <time>2020-06-14T08:39:48.000Z</time>
      </trkpt>
      <trkpt lat="47.38116" lon="-2.36932">
        <ele>5.1999998092651</ele>
        <time>2020-06-14T08:39:49.000Z</time>
      </trkpt>
      <trkpt lat="47.38113" lon="-2.36927">
        <ele>5.5999999046326</ele>
        <time>2020-06-14T08:39:50.000Z</time>
      </trkpt>
      <trkpt lat="47.3811" lon="-2.36911">
        <ele>5.5999999046326</ele>
        <time>2020-06-14T08:39:54.000Z</time>
      </trkpt>
      <trkpt lat="47.38111" lon="-2.36909">
        <ele>5.5999999046326</ele>
        <time>2020-06-14T08:39:55.000Z</time>
      </trkpt>
      <trkpt lat="47.38117" lon="-2.36905">
        <ele>5.5999999046326</ele>
        <time>2020-06-14T08:39:58.000Z</time>
      </trkpt>
      <trkpt lat="47.38134" lon="-2.36896">
        <ele>5.5999999046326</ele>
        <time>2020-06-14T08:40:03.000Z</time>
      </trkpt>
      <trkpt lat="47.38138" lon="-2.36894">
        <ele>5.5999999046326</ele>
        <time>2020-06-14T08:40:04.000Z</time>
      </trkpt>
      <trkpt lat="47.3816" lon="-2.36882">
        <ele>5.5999999046326</ele>
        <time>2020-06-14T08:40:09.000Z</time>
      </trkpt>
      <trkpt lat="47.3819" lon="-2.36863">
        <ele>5.1999998092651</ele>
        <time>2020-06-14T08:40:16.000Z</time>
      </trkpt>
      <trkpt lat="47.38195" lon="-2.36859">
        <ele>4.8000001907349</ele>
        <time>2020-06-14T08:40:17.000Z</time>
      </trkpt>
      <trkpt lat="47.38201" lon="-2.36856">
        <ele>4.1999998092651</ele>
        <time>2020-06-14T08:40:18.000Z</time>
      </trkpt>
      <trkpt lat="47.38206" lon="-2.36853">
        <ele>3.7999999523163</ele>
        <time>2020-06-14T08:40:19.000Z</time>
      </trkpt>
      <trkpt lat="47.38213" lon="-2.3685">
        <ele>3.4000000953674</ele>
        <time>2020-06-14T08:40:20.000Z</time>
      </trkpt>
      <trkpt lat="47.38231" lon="-2.36839">
        <ele>3.4000000953674</ele>
        <time>2020-06-14T08:40:23.000Z</time>
      </trkpt>
      <trkpt lat="47.38242" lon="-2.36833">
        <ele>3</ele>
        <time>2020-06-14T08:40:25.000Z</time>
      </trkpt>
      <trkpt lat="47.38248" lon="-2.36829">
        <ele>2.5999999046326</ele>
        <time>2020-06-14T08:40:26.000Z</time>
      </trkpt>
      <trkpt lat="47.38254" lon="-2.36826">
        <ele>2.2000000476837</ele>
        <time>2020-06-14T08:40:27.000Z</time>
      </trkpt>
      <trkpt lat="47.3826" lon="-2.36822">
        <ele>1.7999999523163</ele>
        <time>2020-06-14T08:40:28.000Z</time>
      </trkpt>
      <trkpt lat="47.38267" lon="-2.36819">
        <ele>1.3999999761581</ele>
        <time>2020-06-14T08:40:29.000Z</time>
      </trkpt>
      <trkpt lat="47.38302" lon="-2.36807">
        <ele>1.3999999761581</ele>
        <time>2020-06-14T08:40:35.000Z</time>
      </trkpt>
      <trkpt lat="47.38312" lon="-2.36804">
        <ele>1.3999999761581</ele>
        <time>2020-06-14T08:40:37.000Z</time>
      </trkpt>
      <trkpt lat="47.38328" lon="-2.36796">
        <ele>1.3999999761581</ele>
        <time>2020-06-14T08:40:40.000Z</time>
      </trkpt>
      <trkpt lat="47.38353" lon="-2.36779">
        <ele>1.3999999761581</ele>
        <time>2020-06-14T08:40:46.000Z</time>
      </trkpt>
      <trkpt lat="47.3836" lon="-2.36766">
        <ele>1.3999999761581</ele>
        <time>2020-06-14T08:40:48.000Z</time>
      </trkpt>
      <trkpt lat="47.38368" lon="-2.36744">
        <ele>1.3999999761581</ele>
        <time>2020-06-14T08:40:51.000Z</time>
      </trkpt>
      <trkpt lat="47.38371" lon="-2.36732">
        <ele>1.3999999761581</ele>
        <time>2020-06-14T08:40:53.000Z</time>
      </trkpt>
      <trkpt lat="47.38373" lon="-2.36718">
        <ele>1.3999999761581</ele>
        <time>2020-06-14T08:40:55.000Z</time>
      </trkpt>
      <trkpt lat="47.38381" lon="-2.36698">
        <ele>1.3999999761581</ele>
        <time>2020-06-14T08:40:58.000Z</time>
      </trkpt>
      <trkpt lat="47.38385" lon="-2.36684">
        <ele>1.3999999761581</ele>
        <time>2020-06-14T08:41:00.000Z</time>
      </trkpt>
      <trkpt lat="47.384" lon="-2.36643">
        <ele>1.3999999761581</ele>
        <time>2020-06-14T08:41:07.000Z</time>
      </trkpt>
      <trkpt lat="47.38416" lon="-2.36614">
        <ele>1.3999999761581</ele>
        <time>2020-06-14T08:41:13.000Z</time>
      </trkpt>
      <trkpt lat="47.38438" lon="-2.36596">
        <ele>1.3999999761581</ele>
        <time>2020-06-14T08:41:19.000Z</time>
      </trkpt>
      <trkpt lat="47.38467" lon="-2.36581">
        <ele>1.3999999761581</ele>
        <time>2020-06-14T08:41:25.000Z</time>
      </trkpt>
      <trkpt lat="47.3849" lon="-2.36569">
        <ele>1.3999999761581</ele>
        <time>2020-06-14T08:41:30.000Z</time>
      </trkpt>
      <trkpt lat="47.38517" lon="-2.36543">
        <ele>1.3999999761581</ele>
        <time>2020-06-14T08:41:36.000Z</time>
      </trkpt>
      <trkpt lat="47.38526" lon="-2.36533">
        <ele>1.3999999761581</ele>
        <time>2020-06-14T08:41:38.000Z</time>
      </trkpt>
      <trkpt lat="47.38532" lon="-2.36524">
        <ele>1.3999999761581</ele>
        <time>2020-06-14T08:41:40.000Z</time>
      </trkpt>
      <trkpt lat="47.3854" lon="-2.3651">
        <ele>1.3999999761581</ele>
        <time>2020-06-14T08:41:43.000Z</time>
      </trkpt>
      <trkpt lat="47.38553" lon="-2.36488">
        <ele>1.3999999761581</ele>
        <time>2020-06-14T08:41:46.000Z</time>
      </trkpt>
      <trkpt lat="47.38575" lon="-2.36442">
        <ele>1.3999999761581</ele>
        <time>2020-06-14T08:41:53.000Z</time>
      </trkpt>
      <trkpt lat="47.38591" lon="-2.36406">
        <ele>1.3999999761581</ele>
        <time>2020-06-14T08:41:58.000Z</time>
      </trkpt>
      <trkpt lat="47.38601" lon="-2.36387">
        <ele>1.3999999761581</ele>
        <time>2020-06-14T08:42:00.000Z</time>
      </trkpt>
      <trkpt lat="47.38614" lon="-2.36353">
        <ele>1.3999999761581</ele>
        <time>2020-06-14T08:42:04.000Z</time>
      </trkpt>
      <trkpt lat="47.3862" lon="-2.36336">
        <ele>1.3999999761581</ele>
        <time>2020-06-14T08:42:06.000Z</time>
      </trkpt>
      <trkpt lat="47.38625" lon="-2.36317">
        <ele>1.3999999761581</ele>
        <time>2020-06-14T08:42:08.000Z</time>
      </trkpt>
      <trkpt lat="47.38624" lon="-2.363">
        <ele>1.3999999761581</ele>
        <time>2020-06-14T08:42:10.000Z</time>
      </trkpt>
      <trkpt lat="47.3862" lon="-2.36285">
        <ele>1.3999999761581</ele>
        <time>2020-06-14T08:42:12.000Z</time>
      </trkpt>
      <trkpt lat="47.38614" lon="-2.36276">
        <ele>1.3999999761581</ele>
        <time>2020-06-14T08:42:14.000Z</time>
      </trkpt>
      <trkpt lat="47.386" lon="-2.36268">
        <ele>1.3999999761581</ele>
        <time>2020-06-14T08:42:17.000Z</time>
      </trkpt>
      <trkpt lat="47.38589" lon="-2.36266">
        <ele>1.3999999761581</ele>
        <time>2020-06-14T08:42:19.000Z</time>
      </trkpt>
      <trkpt lat="47.38569" lon="-2.36265">
        <ele>1.3999999761581</ele>
        <time>2020-06-14T08:42:23.000Z</time>
      </trkpt>
      <trkpt lat="47.38542" lon="-2.36267">
        <ele>1.3999999761581</ele>
        <time>2020-06-14T08:42:29.000Z</time>
      </trkpt>
      <trkpt lat="47.38532" lon="-2.36266">
        <ele>1.3999999761581</ele>
        <time>2020-06-14T08:42:31.000Z</time>
      </trkpt>
      <trkpt lat="47.38517" lon="-2.36261">
        <ele>1.3999999761581</ele>
        <time>2020-06-14T08:42:34.000Z</time>
      </trkpt>
      <trkpt lat="47.38504" lon="-2.36255">
        <ele>1.3999999761581</ele>
        <time>2020-06-14T08:42:37.000Z</time>
      </trkpt>
      <trkpt lat="47.38489" lon="-2.36255">
        <ele>1.3999999761581</ele>
        <time>2020-06-14T08:42:40.000Z</time>
      </trkpt>
      <trkpt lat="47.38482" lon="-2.36259">
        <ele>1.3999999761581</ele>
        <time>2020-06-14T08:42:42.000Z</time>
      </trkpt>
      <trkpt lat="47.38477" lon="-2.36263">
        <ele>1.3999999761581</ele>
        <time>2020-06-14T08:42:44.000Z</time>
      </trkpt>
      <trkpt lat="47.38465" lon="-2.36261">
        <ele>1.3999999761581</ele>
        <time>2020-06-14T08:42:48.000Z</time>
      </trkpt>
      <trkpt lat="47.3845" lon="-2.36257">
        <ele>1.3999999761581</ele>
        <time>2020-06-14T08:42:53.000Z</time>
      </trkpt>
      <trkpt lat="47.3844" lon="-2.36245">
        <ele>1.3999999761581</ele>
        <time>2020-06-14T08:42:58.000Z</time>
      </trkpt>
      <trkpt lat="47.38438" lon="-2.36241">
        <ele>1.3999999761581</ele>
        <time>2020-06-14T08:43:00.000Z</time>
      </trkpt>
      <trkpt lat="47.38438" lon="-2.36235">
        <ele>1.3999999761581</ele>
        <time>2020-06-14T08:43:02.000Z</time>
      </trkpt>
      <trkpt lat="47.38437" lon="-2.36226">
        <ele>1.3999999761581</ele>
        <time>2020-06-14T08:43:05.000Z</time>
      </trkpt>
      <trkpt lat="47.38435" lon="-2.36223">
        <ele>1.3999999761581</ele>
        <time>2020-06-14T08:43:07.000Z</time>
      </trkpt>
      <trkpt lat="47.3843" lon="-2.36222">
        <ele>1.3999999761581</ele>
        <time>2020-06-14T08:43:10.000Z</time>
      </trkpt>
      <trkpt lat="47.38426" lon="-2.36222">
        <ele>1.3999999761581</ele>
        <time>2020-06-14T08:43:12.000Z</time>
      </trkpt>
      <trkpt lat="47.38419" lon="-2.36213">
        <ele>1.3999999761581</ele>
        <time>2020-06-14T08:43:15.000Z</time>
      </trkpt>
      <trkpt lat="47.38408" lon="-2.36206">
        <ele>1.3999999761581</ele>
        <time>2020-06-14T08:43:18.000Z</time>
      </trkpt>
      <trkpt lat="47.38404" lon="-2.36204">
        <ele>1.3999999761581</ele>
        <time>2020-06-14T08:43:19.000Z</time>
      </trkpt>
      <trkpt lat="47.38393" lon="-2.36195">
        <ele>1.3999999761581</ele>
        <time>2020-06-14T08:43:23.000Z</time>
      </trkpt>
      <trkpt lat="47.38389" lon="-2.36189">
        <ele>1.3999999761581</ele>
        <time>2020-06-14T08:43:24.000Z</time>
      </trkpt>
      <trkpt lat="47.38379" lon="-2.3617">
        <ele>1.3999999761581</ele>
        <time>2020-06-14T08:43:27.000Z</time>
      </trkpt>
      <trkpt lat="47.38364" lon="-2.3614">
        <ele>1.3999999761581</ele>
        <time>2020-06-14T08:43:31.000Z</time>
      </trkpt>
      <trkpt lat="47.38358" lon="-2.36127">
        <ele>1.3999999761581</ele>
        <time>2020-06-14T08:43:33.000Z</time>
      </trkpt>
      <trkpt lat="47.38351" lon="-2.36113">
        <ele>1.3999999761581</ele>
        <time>2020-06-14T08:43:35.000Z</time>
      </trkpt>
      <trkpt lat="47.3834" lon="-2.36091">
        <ele>1.3999999761581</ele>
        <time>2020-06-14T08:43:38.000Z</time>
      </trkpt>
      <trkpt lat="47.38321" lon="-2.36053">
        <ele>1.3999999761581</ele>
        <time>2020-06-14T08:43:44.000Z</time>
      </trkpt>
      <trkpt lat="47.38319" lon="-2.36046">
        <ele>1.3999999761581</ele>
        <time>2020-06-14T08:43:45.000Z</time>
      </trkpt>
      <trkpt lat="47.38317" lon="-2.36039">
        <ele>1.3999999761581</ele>
        <time>2020-06-14T08:43:46.000Z</time>
      </trkpt>
      <trkpt lat="47.38313" lon="-2.36017">
        <ele>1.3999999761581</ele>
        <time>2020-06-14T08:43:49.000Z</time>
      </trkpt>
      <trkpt lat="47.38312" lon="-2.3601">
        <ele>1.3999999761581</ele>
        <time>2020-06-14T08:43:50.000Z</time>
      </trkpt>
      <trkpt lat="47.38302" lon="-2.35962">
        <ele>1.3999999761581</ele>
        <time>2020-06-14T08:43:57.000Z</time>
      </trkpt>
      <trkpt lat="47.38291" lon="-2.35932">
        <ele>1.3999999761581</ele>
        <time>2020-06-14T08:44:02.000Z</time>
      </trkpt>
      <trkpt lat="47.38279" lon="-2.35935">
        <ele>1.3999999761581</ele>
        <time>2020-06-14T08:44:05.000Z</time>
      </trkpt>
      <trkpt lat="47.38261" lon="-2.35944">
        <ele>1.3999999761581</ele>
        <time>2020-06-14T08:44:09.000Z</time>
      </trkpt>
      <trkpt lat="47.38256" lon="-2.35947">
        <ele>1.3999999761581</ele>
        <time>2020-06-14T08:44:10.000Z</time>
      </trkpt>
      <trkpt lat="47.38252" lon="-2.3595">
        <ele>1.7999999523163</ele>
        <time>2020-06-14T08:44:11.000Z</time>
      </trkpt>
      <trkpt lat="47.38247" lon="-2.35952">
        <ele>2.2000000476837</ele>
        <time>2020-06-14T08:44:12.000Z</time>
      </trkpt>
      <trkpt lat="47.38242" lon="-2.35955">
        <ele>2.5999999046326</ele>
        <time>2020-06-14T08:44:13.000Z</time>
      </trkpt>
      <trkpt lat="47.38238" lon="-2.35958">
        <ele>3</ele>
        <time>2020-06-14T08:44:14.000Z</time>
      </trkpt>
      <trkpt lat="47.38234" lon="-2.35961">
        <ele>3.4000000953674</ele>
        <time>2020-06-14T08:44:15.000Z</time>
      </trkpt>
      <trkpt lat="47.38225" lon="-2.35967">
        <ele>3.4000000953674</ele>
        <time>2020-06-14T08:44:17.000Z</time>
      </trkpt>
      <trkpt lat="47.38193" lon="-2.35988">
        <ele>3.4000000953674</ele>
        <time>2020-06-14T08:44:24.000Z</time>
      </trkpt>
      <trkpt lat="47.38151" lon="-2.3602">
        <ele>3.4000000953674</ele>
        <time>2020-06-14T08:44:33.000Z</time>
      </trkpt>
      <trkpt lat="47.38133" lon="-2.36031">
        <ele>3.4000000953674</ele>
        <time>2020-06-14T08:44:37.000Z</time>
      </trkpt>
      <trkpt lat="47.38119" lon="-2.36038">
        <ele>3.4000000953674</ele>
        <time>2020-06-14T08:44:40.000Z</time>
      </trkpt>
      <trkpt lat="47.38083" lon="-2.36049">
        <ele>3.4000000953674</ele>
        <time>2020-06-14T08:44:47.000Z</time>
      </trkpt>
      <trkpt lat="47.38046" lon="-2.36062">
        <ele>3.4000000953674</ele>
        <time>2020-06-14T08:44:54.000Z</time>
      </trkpt>
      <trkpt lat="47.38012" lon="-2.36075">
        <ele>4</ele>
        <time>2020-06-14T08:45:00.000Z</time>
      </trkpt>
      <trkpt lat="47.38006" lon="-2.36077">
        <ele>4.4000000953674</ele>
        <time>2020-06-14T08:45:01.000Z</time>
      </trkpt>
      <trkpt lat="47.38" lon="-2.36079">
        <ele>4.8000001907349</ele>
        <time>2020-06-14T08:45:02.000Z</time>
      </trkpt>
      <trkpt lat="47.37994" lon="-2.36081">
        <ele>5.1999998092651</ele>
        <time>2020-06-14T08:45:03.000Z</time>
      </trkpt>
      <trkpt lat="47.37989" lon="-2.36084">
        <ele>5.5999999046326</ele>
        <time>2020-06-14T08:45:04.000Z</time>
      </trkpt>
      <trkpt lat="47.37963" lon="-2.36097">
        <ele>5.5999999046326</ele>
        <time>2020-06-14T08:45:09.000Z</time>
      </trkpt>
      <trkpt lat="47.37958" lon="-2.361">
        <ele>5.5999999046326</ele>
        <time>2020-06-14T08:45:10.000Z</time>
      </trkpt>
      <trkpt lat="47.37939" lon="-2.3611">
        <ele>5.5999999046326</ele>
        <time>2020-06-14T08:45:14.000Z</time>
      </trkpt>
      <trkpt lat="47.3791" lon="-2.36125">
        <ele>6</ele>
        <time>2020-06-14T08:45:20.000Z</time>
      </trkpt>
      <trkpt lat="47.37905" lon="-2.36126">
        <ele>6.4000000953674</ele>
        <time>2020-06-14T08:45:21.000Z</time>
      </trkpt>
      <trkpt lat="47.379" lon="-2.36127">
        <ele>7</ele>
        <time>2020-06-14T08:45:22.000Z</time>
      </trkpt>
      <trkpt lat="47.37895" lon="-2.36128">
        <ele>7.4000000953674</ele>
        <time>2020-06-14T08:45:23.000Z</time>
      </trkpt>
      <trkpt lat="47.3789" lon="-2.36127">
        <ele>7.8000001907349</ele>
        <time>2020-06-14T08:45:24.000Z</time>
      </trkpt>
      <trkpt lat="47.37885" lon="-2.36125">
        <ele>7.8000001907349</ele>
        <time>2020-06-14T08:45:25.000Z</time>
      </trkpt>
      <trkpt lat="47.37863" lon="-2.36113">
        <ele>7.8000001907349</ele>
        <time>2020-06-14T08:45:30.000Z</time>
      </trkpt>
      <trkpt lat="47.37853" lon="-2.36109">
        <ele>7.8000001907349</ele>
        <time>2020-06-14T08:45:32.000Z</time>
      </trkpt>
      <trkpt lat="47.37814" lon="-2.36088">
        <ele>7.8000001907349</ele>
        <time>2020-06-14T08:45:40.000Z</time>
      </trkpt>
      <trkpt lat="47.37787" lon="-2.36074">
        <ele>7.8000001907349</ele>
        <time>2020-06-14T08:45:45.000Z</time>
      </trkpt>
      <trkpt lat="47.37757" lon="-2.3606">
        <ele>7.8000001907349</ele>
        <time>2020-06-14T08:45:50.000Z</time>
      </trkpt>
      <trkpt lat="47.37716" lon="-2.36032">
        <ele>7.8000001907349</ele>
        <time>2020-06-14T08:45:57.000Z</time>
      </trkpt>
      <trkpt lat="47.37688" lon="-2.36021">
        <ele>7.8000001907349</ele>
        <time>2020-06-14T08:46:02.000Z</time>
      </trkpt>
      <trkpt lat="47.37656" lon="-2.3601">
        <ele>7.8000001907349</ele>
        <time>2020-06-14T08:46:08.000Z</time>
      </trkpt>
      <trkpt lat="47.37647" lon="-2.36009">
        <ele>7.8000001907349</ele>
        <time>2020-06-14T08:46:10.000Z</time>
      </trkpt>
      <trkpt lat="47.37643" lon="-2.36011">
        <ele>7.8000001907349</ele>
        <time>2020-06-14T08:46:11.000Z</time>
      </trkpt>
      <trkpt lat="47.3764" lon="-2.3602">
        <ele>7.4000000953674</ele>
        <time>2020-06-14T08:46:13.000Z</time>
      </trkpt>
      <trkpt lat="47.3764" lon="-2.36026">
        <ele>7</ele>
        <time>2020-06-14T08:46:14.000Z</time>
      </trkpt>
      <trkpt lat="47.3764" lon="-2.36031">
        <ele>6.5999999046326</ele>
        <time>2020-06-14T08:46:15.000Z</time>
      </trkpt>
      <trkpt lat="47.37639" lon="-2.36037">
        <ele>6.1999998092651</ele>
        <time>2020-06-14T08:46:16.000Z</time>
      </trkpt>
      <trkpt lat="47.37637" lon="-2.36043">
        <ele>5.8000001907349</ele>
        <time>2020-06-14T08:46:17.000Z</time>
      </trkpt>
      <trkpt lat="47.37633" lon="-2.3605">
        <ele>5.8000001907349</ele>
        <time>2020-06-14T08:46:19.000Z</time>
      </trkpt>
      <trkpt lat="47.37615" lon="-2.36055">
        <ele>5.8000001907349</ele>
        <time>2020-06-14T08:46:24.000Z</time>
      </trkpt>
      <trkpt lat="47.37583" lon="-2.36061">
        <ele>5.8000001907349</ele>
        <time>2020-06-14T08:46:31.000Z</time>
      </trkpt>
      <trkpt lat="47.37545" lon="-2.36074">
        <ele>5.8000001907349</ele>
        <time>2020-06-14T08:46:38.000Z</time>
      </trkpt>
      <trkpt lat="47.37506" lon="-2.36088">
        <ele>5.8000001907349</ele>
        <time>2020-06-14T08:46:45.000Z</time>
      </trkpt>
      <trkpt lat="47.37473" lon="-2.36107">
        <ele>5.8000001907349</ele>
        <time>2020-06-14T08:46:51.000Z</time>
      </trkpt>
      <trkpt lat="47.37424" lon="-2.3614">
        <ele>5.8000001907349</ele>
        <time>2020-06-14T08:46:59.000Z</time>
      </trkpt>
      <trkpt lat="47.37419" lon="-2.36142">
        <ele>5.1999998092651</ele>
        <time>2020-06-14T08:47:00.000Z</time>
      </trkpt>
      <trkpt lat="47.37416" lon="-2.36142">
        <ele>4.8000001907349</ele>
        <time>2020-06-14T08:47:01.000Z</time>
      </trkpt>
      <trkpt lat="47.37413" lon="-2.3614">
        <ele>4.1999998092651</ele>
        <time>2020-06-14T08:47:02.000Z</time>
      </trkpt>
      <trkpt lat="47.3741" lon="-2.36137">
        <ele>3.7999999523163</ele>
        <time>2020-06-14T08:47:03.000Z</time>
      </trkpt>
      <trkpt lat="47.37407" lon="-2.36133">
        <ele>3.2000000476837</ele>
        <time>2020-06-14T08:47:04.000Z</time>
      </trkpt>
      <trkpt lat="47.37399" lon="-2.36123">
        <ele>3.2000000476837</ele>
        <time>2020-06-14T08:47:06.000Z</time>
      </trkpt>
      <trkpt lat="47.37396" lon="-2.36118">
        <ele>3.2000000476837</ele>
        <time>2020-06-14T08:47:07.000Z</time>
      </trkpt>
      <trkpt lat="47.37388" lon="-2.3611">
        <ele>2.7999999523163</ele>
        <time>2020-06-14T08:47:09.000Z</time>
      </trkpt>
      <trkpt lat="47.37384" lon="-2.36109">
        <ele>2.4000000953674</ele>
        <time>2020-06-14T08:47:10.000Z</time>
      </trkpt>
      <trkpt lat="47.37379" lon="-2.36111">
        <ele>1.6000000238419</ele>
        <time>2020-06-14T08:47:11.000Z</time>
      </trkpt>
      <trkpt lat="47.37374" lon="-2.36114">
        <ele>1.2000000476837</ele>
        <time>2020-06-14T08:47:12.000Z</time>
      </trkpt>
      <trkpt lat="47.37365" lon="-2.3612">
        <ele>1.2000000476837</ele>
        <time>2020-06-14T08:47:14.000Z</time>
      </trkpt>
      <trkpt lat="47.3735" lon="-2.36129">
        <ele>1.2000000476837</ele>
        <time>2020-06-14T08:47:18.000Z</time>
      </trkpt>
      <trkpt lat="47.37343" lon="-2.36125">
        <ele>1.2000000476837</ele>
        <time>2020-06-14T08:47:20.000Z</time>
      </trkpt>
      <trkpt lat="47.37339" lon="-2.36123">
        <ele>1.2000000476837</ele>
        <time>2020-06-14T08:47:21.000Z</time>
      </trkpt>
      <trkpt lat="47.37335" lon="-2.36122">
        <ele>1.2000000476837</ele>
        <time>2020-06-14T08:47:22.000Z</time>
      </trkpt>
      <trkpt lat="47.37318" lon="-2.36121">
        <ele>1.2000000476837</ele>
        <time>2020-06-14T08:47:26.000Z</time>
      </trkpt>
      <trkpt lat="47.37313" lon="-2.36122">
        <ele>1.2000000476837</ele>
        <time>2020-06-14T08:47:27.000Z</time>
      </trkpt>
      <trkpt lat="47.37295" lon="-2.3613">
        <ele>1.2000000476837</ele>
        <time>2020-06-14T08:47:32.000Z</time>
      </trkpt>
      <trkpt lat="47.37289" lon="-2.36135">
        <ele>1.2000000476837</ele>
        <time>2020-06-14T08:47:35.000Z</time>
      </trkpt>
      <trkpt lat="47.37288" lon="-2.36136">
        <ele>1.2000000476837</ele>
        <time>2020-06-14T08:47:36.000Z</time>
      </trkpt>
      <trkpt lat="47.37284" lon="-2.36132">
        <ele>1.2000000476837</ele>
        <time>2020-06-14T08:47:40.000Z</time>
      </trkpt>
      <trkpt lat="47.37282" lon="-2.36131">
        <ele>1.2000000476837</ele>
        <time>2020-06-14T08:47:41.000Z</time>
      </trkpt>
      <trkpt lat="47.37277" lon="-2.36127">
        <ele>1.2000000476837</ele>
        <time>2020-06-14T08:47:45.000Z</time>
      </trkpt>
      <trkpt lat="47.37251" lon="-2.36111">
        <ele>1.2000000476837</ele>
        <time>2020-06-14T08:48:52.000Z</time>
      </trkpt>
      <trkpt lat="47.3725" lon="-2.3611">
        <ele>1.2000000476837</ele>
        <time>2020-06-14T08:48:53.000Z</time>
      </trkpt>
      <trkpt lat="47.37242" lon="-2.36106">
        <ele>1.2000000476837</ele>
        <time>2020-06-14T08:49:00.000Z</time>
      </trkpt>
      <trkpt lat="47.37235" lon="-2.361">
        <ele>1.2000000476837</ele>
        <time>2020-06-14T08:49:07.000Z</time>
      </trkpt>
      <trkpt lat="47.37233" lon="-2.36096">
        <ele>1.2000000476837</ele>
        <time>2020-06-14T08:49:10.000Z</time>
      </trkpt>
      <trkpt lat="47.37232" lon="-2.36084">
        <ele>1.2000000476837</ele>
        <time>2020-06-14T09:01:03.000Z</time>
      </trkpt>
      <trkpt lat="47.37233" lon="-2.36081">
        <ele>1.2000000476837</ele>
        <time>2020-06-14T09:01:04.000Z</time>
      </trkpt>
      <trkpt lat="47.37233" lon="-2.36077">
        <ele>1.2000000476837</ele>
        <time>2020-06-14T09:01:05.000Z</time>
      </trkpt>
      <trkpt lat="47.37232" lon="-2.36063">
        <ele>1.2000000476837</ele>
        <time>2020-06-14T09:01:08.000Z</time>
      </trkpt>
      <trkpt lat="47.3723" lon="-2.36039">
        <ele>1.2000000476837</ele>
        <time>2020-06-14T09:01:13.000Z</time>
      </trkpt>
      <trkpt lat="47.3723" lon="-2.36035">
        <ele>1.2000000476837</ele>
        <time>2020-06-14T09:01:14.000Z</time>
      </trkpt>
      <trkpt lat="47.37241" lon="-2.36008">
        <ele>1.2000000476837</ele>
        <time>2020-06-14T09:01:19.000Z</time>
      </trkpt>
      <trkpt lat="47.37263" lon="-2.35967">
        <ele>1.2000000476837</ele>
        <time>2020-06-14T09:01:26.000Z</time>
      </trkpt>
      <trkpt lat="47.37277" lon="-2.35932">
        <ele>1.2000000476837</ele>
        <time>2020-06-14T09:01:32.000Z</time>
      </trkpt>
      <trkpt lat="47.37282" lon="-2.3592">
        <ele>1.2000000476837</ele>
        <time>2020-06-14T09:01:34.000Z</time>
      </trkpt>
      <trkpt lat="47.37293" lon="-2.35891">
        <ele>1.2000000476837</ele>
        <time>2020-06-14T09:01:39.000Z</time>
      </trkpt>
      <trkpt lat="47.37303" lon="-2.35873">
        <ele>1.2000000476837</ele>
        <time>2020-06-14T09:01:44.000Z</time>
      </trkpt>
      <trkpt lat="47.37325" lon="-2.35857">
        <ele>1.2000000476837</ele>
        <time>2020-06-14T09:01:49.000Z</time>
      </trkpt>
      <trkpt lat="47.37352" lon="-2.35838">
        <ele>1.2000000476837</ele>
        <time>2020-06-14T09:01:55.000Z</time>
      </trkpt>
      <trkpt lat="47.37381" lon="-2.35816">
        <ele>1.2000000476837</ele>
        <time>2020-06-14T09:02:01.000Z</time>
      </trkpt>
      <trkpt lat="47.37387" lon="-2.35798">
        <ele>1.2000000476837</ele>
        <time>2020-06-14T09:02:04.000Z</time>
      </trkpt>
      <trkpt lat="47.37389" lon="-2.3579">
        <ele>1.2000000476837</ele>
        <time>2020-06-14T09:02:05.000Z</time>
      </trkpt>
      <trkpt lat="47.37393" lon="-2.35774">
        <ele>1.2000000476837</ele>
        <time>2020-06-14T09:02:07.000Z</time>
      </trkpt>
      <trkpt lat="47.37398" lon="-2.35757">
        <ele>1.2000000476837</ele>
        <time>2020-06-14T09:02:09.000Z</time>
      </trkpt>
      <trkpt lat="47.37401" lon="-2.35733">
        <ele>1.2000000476837</ele>
        <time>2020-06-14T09:02:12.000Z</time>
      </trkpt>
      <trkpt lat="47.37409" lon="-2.35665">
        <ele>1.2000000476837</ele>
        <time>2020-06-14T09:02:20.000Z</time>
      </trkpt>
      <trkpt lat="47.374" lon="-2.3565">
        <ele>1.2000000476837</ele>
        <time>2020-06-14T09:02:23.000Z</time>
      </trkpt>
      <trkpt lat="47.37392" lon="-2.35646">
        <ele>1.2000000476837</ele>
        <time>2020-06-14T09:02:25.000Z</time>
      </trkpt>
      <trkpt lat="47.37383" lon="-2.35641">
        <ele>1.2000000476837</ele>
        <time>2020-06-14T09:02:27.000Z</time>
      </trkpt>
      <trkpt lat="47.37358" lon="-2.35631">
        <ele>1.2000000476837</ele>
        <time>2020-06-14T09:02:33.000Z</time>
      </trkpt>
      <trkpt lat="47.3732" lon="-2.35619">
        <ele>1.2000000476837</ele>
        <time>2020-06-14T09:02:41.000Z</time>
      </trkpt>
      <trkpt lat="47.37284" lon="-2.35605">
        <ele>1.2000000476837</ele>
        <time>2020-06-14T09:02:49.000Z</time>
      </trkpt>
      <trkpt lat="47.37268" lon="-2.35581">
        <ele>1.2000000476837</ele>
        <time>2020-06-14T09:02:54.000Z</time>
      </trkpt>
      <trkpt lat="47.37252" lon="-2.35551">
        <ele>1.2000000476837</ele>
        <time>2020-06-14T09:03:00.000Z</time>
      </trkpt>
      <trkpt lat="47.37237" lon="-2.35526">
        <ele>1.6000000238419</ele>
        <time>2020-06-14T09:03:05.000Z</time>
      </trkpt>
      <trkpt lat="47.37235" lon="-2.35521">
        <ele>2</ele>
        <time>2020-06-14T09:03:06.000Z</time>
      </trkpt>
      <trkpt lat="47.37232" lon="-2.35516">
        <ele>2.4000000953674</ele>
        <time>2020-06-14T09:03:07.000Z</time>
      </trkpt>
      <trkpt lat="47.3723" lon="-2.35511">
        <ele>2.7999999523163</ele>
        <time>2020-06-14T09:03:08.000Z</time>
      </trkpt>
      <trkpt lat="47.37227" lon="-2.35506">
        <ele>3.2000000476837</ele>
        <time>2020-06-14T09:03:09.000Z</time>
      </trkpt>
      <trkpt lat="47.37212" lon="-2.3548">
        <ele>3.2000000476837</ele>
        <time>2020-06-14T09:03:14.000Z</time>
      </trkpt>
      <trkpt lat="47.37193" lon="-2.35449">
        <ele>3.2000000476837</ele>
        <time>2020-06-14T09:03:21.000Z</time>
      </trkpt>
      <trkpt lat="47.37185" lon="-2.35428">
        <ele>3.2000000476837</ele>
        <time>2020-06-14T09:03:27.000Z</time>
      </trkpt>
      <trkpt lat="47.37187" lon="-2.35419">
        <ele>3.2000000476837</ele>
        <time>2020-06-14T09:03:29.000Z</time>
      </trkpt>
      <trkpt lat="47.37191" lon="-2.3541">
        <ele>3.2000000476837</ele>
        <time>2020-06-14T09:03:31.000Z</time>
      </trkpt>
      <trkpt lat="47.37215" lon="-2.35373">
        <ele>3.2000000476837</ele>
        <time>2020-06-14T09:03:39.000Z</time>
      </trkpt>
      <trkpt lat="47.37238" lon="-2.35336">
        <ele>3.2000000476837</ele>
        <time>2020-06-14T09:03:46.000Z</time>
      </trkpt>
      <trkpt lat="47.37245" lon="-2.35326">
        <ele>3.2000000476837</ele>
        <time>2020-06-14T09:03:48.000Z</time>
      </trkpt>
      <trkpt lat="47.37258" lon="-2.35309">
        <ele>3.2000000476837</ele>
        <time>2020-06-14T09:03:52.000Z</time>
      </trkpt>
      <trkpt lat="47.3726" lon="-2.35304">
        <ele>3.2000000476837</ele>
        <time>2020-06-14T09:03:53.000Z</time>
      </trkpt>
      <trkpt lat="47.3726" lon="-2.35288">
        <ele>3.2000000476837</ele>
        <time>2020-06-14T09:03:57.000Z</time>
      </trkpt>
      <trkpt lat="47.37259" lon="-2.35289">
        <ele>3.2000000476837</ele>
        <time>2020-06-14T09:03:58.000Z</time>
      </trkpt>
      <trkpt lat="47.37258" lon="-2.35285">
        <ele>3.2000000476837</ele>
        <time>2020-06-14T09:04:03.000Z</time>
      </trkpt>
      <trkpt lat="47.37257" lon="-2.35282">
        <ele>3.2000000476837</ele>
        <time>2020-06-14T09:04:04.000Z</time>
      </trkpt>
      <trkpt lat="47.37252" lon="-2.35264">
        <ele>3.2000000476837</ele>
        <time>2020-06-14T09:04:08.000Z</time>
      </trkpt>
      <trkpt lat="47.37241" lon="-2.35228">
        <ele>3.2000000476837</ele>
        <time>2020-06-14T09:04:13.000Z</time>
      </trkpt>
      <trkpt lat="47.37228" lon="-2.35185">
        <ele>3.2000000476837</ele>
        <time>2020-06-14T09:04:19.000Z</time>
      </trkpt>
      <trkpt lat="47.37226" lon="-2.3518">
        <ele>3.2000000476837</ele>
        <time>2020-06-14T09:04:22.000Z</time>
      </trkpt>
      <trkpt lat="47.37226" lon="-2.3518">
        <ele>3.2000000476837</ele>
        <time>2020-06-14T09:04:23.000Z</time>
      </trkpt>
      <trkpt lat="47.37225" lon="-2.35177">
        <ele>3.2000000476837</ele>
        <time>2020-06-14T09:04:32.000Z</time>
      </trkpt>
      <trkpt lat="47.37224" lon="-2.35169">
        <ele>3.2000000476837</ele>
        <time>2020-06-14T09:04:34.000Z</time>
      </trkpt>
      <trkpt lat="47.37221" lon="-2.35146">
        <ele>3.2000000476837</ele>
        <time>2020-06-14T09:04:38.000Z</time>
      </trkpt>
      <trkpt lat="47.37215" lon="-2.35114">
        <ele>3.2000000476837</ele>
        <time>2020-06-14T09:04:42.000Z</time>
      </trkpt>
      <trkpt lat="47.37202" lon="-2.35057">
        <ele>3.2000000476837</ele>
        <time>2020-06-14T09:04:48.000Z</time>
      </trkpt>
      <trkpt lat="47.37189" lon="-2.34987">
        <ele>3.2000000476837</ele>
        <time>2020-06-14T09:04:55.000Z</time>
      </trkpt>
      <trkpt lat="47.37175" lon="-2.34943">
        <ele>3.2000000476837</ele>
        <time>2020-06-14T09:05:00.000Z</time>
      </trkpt>
      <trkpt lat="47.37171" lon="-2.34936">
        <ele>3.2000000476837</ele>
        <time>2020-06-14T09:05:01.000Z</time>
      </trkpt>
      <trkpt lat="47.37151" lon="-2.34914">
        <ele>3.2000000476837</ele>
        <time>2020-06-14T09:05:05.000Z</time>
      </trkpt>
      <trkpt lat="47.37146" lon="-2.34909">
        <ele>3.2000000476837</ele>
        <time>2020-06-14T09:05:06.000Z</time>
      </trkpt>
      <trkpt lat="47.37111" lon="-2.34886">
        <ele>3.2000000476837</ele>
        <time>2020-06-14T09:05:12.000Z</time>
      </trkpt>
      <trkpt lat="47.3707" lon="-2.34865">
        <ele>3.2000000476837</ele>
        <time>2020-06-14T09:05:19.000Z</time>
      </trkpt>
      <trkpt lat="47.37064" lon="-2.34865">
        <ele>3.2000000476837</ele>
        <time>2020-06-14T09:05:20.000Z</time>
      </trkpt>
      <trkpt lat="47.37045" lon="-2.34869">
        <ele>3.2000000476837</ele>
        <time>2020-06-14T09:05:23.000Z</time>
      </trkpt>
      <trkpt lat="47.37039" lon="-2.34872">
        <ele>3.2000000476837</ele>
        <time>2020-06-14T09:05:24.000Z</time>
      </trkpt>
      <trkpt lat="47.37006" lon="-2.34879">
        <ele>3.2000000476837</ele>
        <time>2020-06-14T09:05:29.000Z</time>
      </trkpt>
      <trkpt lat="47.36987" lon="-2.34876">
        <ele>3.2000000476837</ele>
        <time>2020-06-14T09:05:33.000Z</time>
      </trkpt>
      <trkpt lat="47.36975" lon="-2.34872">
        <ele>3.2000000476837</ele>
        <time>2020-06-14T09:05:37.000Z</time>
      </trkpt>
      <trkpt lat="47.36973" lon="-2.34875">
        <ele>3.2000000476837</ele>
        <time>2020-06-14T09:05:38.000Z</time>
      </trkpt>
      <trkpt lat="47.36969" lon="-2.34883">
        <ele>3.5999999046326</ele>
        <time>2020-06-14T09:05:40.000Z</time>
      </trkpt>
      <trkpt lat="47.36967" lon="-2.34889">
        <ele>4.1999998092651</ele>
        <time>2020-06-14T09:05:41.000Z</time>
      </trkpt>
      <trkpt lat="47.36965" lon="-2.34894">
        <ele>4.5999999046326</ele>
        <time>2020-06-14T09:05:42.000Z</time>
      </trkpt>
      <trkpt lat="47.36963" lon="-2.34899">
        <ele>5</ele>
        <time>2020-06-14T09:05:43.000Z</time>
      </trkpt>
      <trkpt lat="47.36961" lon="-2.34906">
        <ele>5.5999999046326</ele>
        <time>2020-06-14T09:05:44.000Z</time>
      </trkpt>
      <trkpt lat="47.36955" lon="-2.34919">
        <ele>5.5999999046326</ele>
        <time>2020-06-14T09:05:46.000Z</time>
      </trkpt>
      <trkpt lat="47.36951" lon="-2.34926">
        <ele>5.5999999046326</ele>
        <time>2020-06-14T09:05:47.000Z</time>
      </trkpt>
      <trkpt lat="47.3693" lon="-2.34939">
        <ele>5.5999999046326</ele>
        <time>2020-06-14T09:05:51.000Z</time>
      </trkpt>
      <trkpt lat="47.36925" lon="-2.34941">
        <ele>5.5999999046326</ele>
        <time>2020-06-14T09:05:52.000Z</time>
      </trkpt>
      <trkpt lat="47.36898" lon="-2.34948">
        <ele>5.5999999046326</ele>
        <time>2020-06-14T09:05:57.000Z</time>
      </trkpt>
      <trkpt lat="47.36873" lon="-2.34952">
        <ele>5.5999999046326</ele>
        <time>2020-06-14T09:06:02.000Z</time>
      </trkpt>
      <trkpt lat="47.36842" lon="-2.3496">
        <ele>5.5999999046326</ele>
        <time>2020-06-14T09:06:09.000Z</time>
      </trkpt>
      <trkpt lat="47.36838" lon="-2.3496">
        <ele>6</ele>
        <time>2020-06-14T09:06:10.000Z</time>
      </trkpt>
      <trkpt lat="47.36834" lon="-2.34961">
        <ele>6.4000000953674</ele>
        <time>2020-06-14T09:06:11.000Z</time>
      </trkpt>
      <trkpt lat="47.36829" lon="-2.34963">
        <ele>6.8000001907349</ele>
        <time>2020-06-14T09:06:12.000Z</time>
      </trkpt>
      <trkpt lat="47.36825" lon="-2.34964">
        <ele>7.4000000953674</ele>
        <time>2020-06-14T09:06:13.000Z</time>
      </trkpt>
      <trkpt lat="47.36821" lon="-2.34965">
        <ele>7.8000001907349</ele>
        <time>2020-06-14T09:06:14.000Z</time>
      </trkpt>
      <trkpt lat="47.36809" lon="-2.34968">
        <ele>7.8000001907349</ele>
        <time>2020-06-14T09:06:17.000Z</time>
      </trkpt>
      <trkpt lat="47.36802" lon="-2.34973">
        <ele>7.8000001907349</ele>
        <time>2020-06-14T09:06:19.000Z</time>
      </trkpt>
      <trkpt lat="47.36792" lon="-2.34987">
        <ele>7.8000001907349</ele>
        <time>2020-06-14T09:06:22.000Z</time>
      </trkpt>
      <trkpt lat="47.36786" lon="-2.34996">
        <ele>7.8000001907349</ele>
        <time>2020-06-14T09:06:24.000Z</time>
      </trkpt>
      <trkpt lat="47.36771" lon="-2.35023">
        <ele>7.8000001907349</ele>
        <time>2020-06-14T09:06:29.000Z</time>
      </trkpt>
      <trkpt lat="47.36742" lon="-2.35073">
        <ele>7.8000001907349</ele>
        <time>2020-06-14T09:06:37.000Z</time>
      </trkpt>
      <trkpt lat="47.36708" lon="-2.35131">
        <ele>7.8000001907349</ele>
        <time>2020-06-14T09:06:45.000Z</time>
      </trkpt>
      <trkpt lat="47.36673" lon="-2.35189">
        <ele>7.4000000953674</ele>
        <time>2020-06-14T09:06:53.000Z</time>
      </trkpt>
      <trkpt lat="47.36669" lon="-2.35196">
        <ele>7</ele>
        <time>2020-06-14T09:06:54.000Z</time>
      </trkpt>
      <trkpt lat="47.36665" lon="-2.35202">
        <ele>6.5999999046326</ele>
        <time>2020-06-14T09:06:55.000Z</time>
      </trkpt>
      <trkpt lat="47.36662" lon="-2.35209">
        <ele>6</ele>
        <time>2020-06-14T09:06:56.000Z</time>
      </trkpt>
      <trkpt lat="47.36658" lon="-2.35214">
        <ele>5.5999999046326</ele>
        <time>2020-06-14T09:06:57.000Z</time>
      </trkpt>
      <trkpt lat="47.36652" lon="-2.35225">
        <ele>5.5999999046326</ele>
        <time>2020-06-14T09:06:59.000Z</time>
      </trkpt>
      <trkpt lat="47.36649" lon="-2.35229">
        <ele>5.5999999046326</ele>
        <time>2020-06-14T09:07:00.000Z</time>
      </trkpt>
      <trkpt lat="47.36639" lon="-2.35227">
        <ele>5.5999999046326</ele>
        <time>2020-06-14T09:07:02.000Z</time>
      </trkpt>
      <trkpt lat="47.36627" lon="-2.3521">
        <ele>5.5999999046326</ele>
        <time>2020-06-14T09:07:05.000Z</time>
      </trkpt>
      <trkpt lat="47.36619" lon="-2.35196">
        <ele>5.5999999046326</ele>
        <time>2020-06-14T09:07:07.000Z</time>
      </trkpt>
      <trkpt lat="47.36602" lon="-2.35164">
        <ele>5.5999999046326</ele>
        <time>2020-06-14T09:07:11.000Z</time>
      </trkpt>
      <trkpt lat="47.36584" lon="-2.35135">
        <ele>5.5999999046326</ele>
        <time>2020-06-14T09:07:15.000Z</time>
      </trkpt>
      <trkpt lat="47.36575" lon="-2.3512">
        <ele>5.5999999046326</ele>
        <time>2020-06-14T09:07:17.000Z</time>
      </trkpt>
      <trkpt lat="47.36553" lon="-2.35085">
        <ele>5.5999999046326</ele>
        <time>2020-06-14T09:07:22.000Z</time>
      </trkpt>
      <trkpt lat="47.36534" lon="-2.35052">
        <ele>5.5999999046326</ele>
        <time>2020-06-14T09:07:27.000Z</time>
      </trkpt>
      <trkpt lat="47.36504" lon="-2.35">
        <ele>5.5999999046326</ele>
        <time>2020-06-14T09:07:35.000Z</time>
      </trkpt>
      <trkpt lat="47.36495" lon="-2.34985">
        <ele>5.5999999046326</ele>
        <time>2020-06-14T09:07:39.000Z</time>
      </trkpt>
      <trkpt lat="47.36493" lon="-2.34986">
        <ele>5.5999999046326</ele>
        <time>2020-06-14T09:07:40.000Z</time>
      </trkpt>
      <trkpt lat="47.36491" lon="-2.34991">
        <ele>5.5999999046326</ele>
        <time>2020-06-14T09:07:42.000Z</time>
      </trkpt>
      <trkpt lat="47.36495" lon="-2.35008">
        <ele>5.5999999046326</ele>
        <time>2020-06-14T09:07:47.000Z</time>
      </trkpt>
      <trkpt lat="47.36501" lon="-2.35015">
        <ele>5.5999999046326</ele>
        <time>2020-06-14T09:07:49.000Z</time>
      </trkpt>
      <trkpt lat="47.3651" lon="-2.35028">
        <ele>5.5999999046326</ele>
        <time>2020-06-14T09:07:52.000Z</time>
      </trkpt>
      <trkpt lat="47.36521" lon="-2.35046">
        <ele>5.5999999046326</ele>
        <time>2020-06-14T09:07:56.000Z</time>
      </trkpt>
      <trkpt lat="47.36526" lon="-2.35055">
        <ele>5.5999999046326</ele>
        <time>2020-06-14T09:07:58.000Z</time>
      </trkpt>
      <trkpt lat="47.36535" lon="-2.35069">
        <ele>5.5999999046326</ele>
        <time>2020-06-14T09:08:02.000Z</time>
      </trkpt>
      <trkpt lat="47.36548" lon="-2.35093">
        <ele>5.5999999046326</ele>
        <time>2020-06-14T09:08:08.000Z</time>
      </trkpt>
      <trkpt lat="47.36546" lon="-2.35095">
        <ele>5.5999999046326</ele>
        <time>2020-06-14T09:08:09.000Z</time>
      </trkpt>
      <trkpt lat="47.36543" lon="-2.35099">
        <ele>5.5999999046326</ele>
        <time>2020-06-14T09:08:11.000Z</time>
      </trkpt>
      <trkpt lat="47.36536" lon="-2.351">
        <ele>5.5999999046326</ele>
        <time>2020-06-14T09:08:13.000Z</time>
      </trkpt>
      <trkpt lat="47.3653" lon="-2.351">
        <ele>5.5999999046326</ele>
        <time>2020-06-14T09:08:15.000Z</time>
      </trkpt>
      <trkpt lat="47.36508" lon="-2.35102">
        <ele>5.5999999046326</ele>
        <time>2020-06-14T09:08:21.000Z</time>
      </trkpt>
      <trkpt lat="47.36476" lon="-2.35089">
        <ele>5.5999999046326</ele>
        <time>2020-06-14T09:08:27.000Z</time>
      </trkpt>
      <trkpt lat="47.36466" lon="-2.35085">
        <ele>5.5999999046326</ele>
        <time>2020-06-14T09:08:29.000Z</time>
      </trkpt>
      <trkpt lat="47.36452" lon="-2.35078">
        <ele>5.5999999046326</ele>
        <time>2020-06-14T09:08:32.000Z</time>
      </trkpt>
      <trkpt lat="47.36447" lon="-2.35076">
        <ele>5.5999999046326</ele>
        <time>2020-06-14T09:08:33.000Z</time>
      </trkpt>
      <trkpt lat="47.36426" lon="-2.35066">
        <ele>5.5999999046326</ele>
        <time>2020-06-14T09:08:39.000Z</time>
      </trkpt>
      <trkpt lat="47.36423" lon="-2.35062">
        <ele>5.5999999046326</ele>
        <time>2020-06-14T09:08:43.000Z</time>
      </trkpt>
      <trkpt lat="47.36412" lon="-2.35057">
        <ele>5.5999999046326</ele>
        <time>2020-06-14T09:09:14.000Z</time>
      </trkpt>
      <trkpt lat="47.3641" lon="-2.35049">
        <ele>5.5999999046326</ele>
        <time>2020-06-14T09:09:16.000Z</time>
      </trkpt>
      <trkpt lat="47.36404" lon="-2.35031">
        <ele>5.5999999046326</ele>
        <time>2020-06-14T09:09:23.000Z</time>
      </trkpt>
      <trkpt lat="47.36403" lon="-2.3503">
        <ele>5.5999999046326</ele>
        <time>2020-06-14T09:09:24.000Z</time>
      </trkpt>
      <trkpt lat="47.36396" lon="-2.3501">
        <ele>5.5999999046326</ele>
        <time>2020-06-14T09:11:12.000Z</time>
      </trkpt>
      <trkpt lat="47.36396" lon="-2.35006">
        <ele>5.5999999046326</ele>
        <time>2020-06-14T09:11:14.000Z</time>
      </trkpt>
      <trkpt lat="47.36391" lon="-2.35005">
        <ele>5.5999999046326</ele>
        <time>2020-06-14T09:11:17.000Z</time>
      </trkpt>
      <trkpt lat="47.36388" lon="-2.35005">
        <ele>5.5999999046326</ele>
        <time>2020-06-14T09:11:18.000Z</time>
      </trkpt>
      <trkpt lat="47.36382" lon="-2.35007">
        <ele>5.5999999046326</ele>
        <time>2020-06-14T09:11:21.000Z</time>
      </trkpt>
      <trkpt lat="47.3638" lon="-2.35006">
        <ele>5.5999999046326</ele>
        <time>2020-06-14T09:11:23.000Z</time>
      </trkpt>
      <trkpt lat="47.36379" lon="-2.35003">
        <ele>5.5999999046326</ele>
        <time>2020-06-14T09:11:24.000Z</time>
      </trkpt>
      <trkpt lat="47.36379" lon="-2.34998">
        <ele>5.5999999046326</ele>
        <time>2020-06-14T09:11:26.000Z</time>
      </trkpt>
      <trkpt lat="47.36379" lon="-2.34994">
        <ele>5.5999999046326</ele>
        <time>2020-06-14T09:11:28.000Z</time>
      </trkpt>
      <trkpt lat="47.36373" lon="-2.34976">
        <ele>5.5999999046326</ele>
        <time>2020-06-14T09:11:35.000Z</time>
      </trkpt>
      <trkpt lat="47.36368" lon="-2.34962">
        <ele>5.5999999046326</ele>
        <time>2020-06-14T09:11:39.000Z</time>
      </trkpt>
      <trkpt lat="47.36367" lon="-2.34961">
        <ele>5.5999999046326</ele>
        <time>2020-06-14T09:11:40.000Z</time>
      </trkpt>
      <trkpt lat="47.36362" lon="-2.34961">
        <ele>5.5999999046326</ele>
        <time>2020-06-14T09:11:42.000Z</time>
      </trkpt>
      <trkpt lat="47.36358" lon="-2.34968">
        <ele>5.5999999046326</ele>
        <time>2020-06-14T09:11:44.000Z</time>
      </trkpt>
      <trkpt lat="47.36352" lon="-2.34975">
        <ele>5.5999999046326</ele>
        <time>2020-06-14T09:11:46.000Z</time>
      </trkpt>
      <trkpt lat="47.36344" lon="-2.34982">
        <ele>5.5999999046326</ele>
        <time>2020-06-14T09:11:49.000Z</time>
      </trkpt>
      <trkpt lat="47.36331" lon="-2.34997">
        <ele>5.5999999046326</ele>
        <time>2020-06-14T09:11:56.000Z</time>
      </trkpt>
      <trkpt lat="47.36313" lon="-2.3501">
        <ele>5.5999999046326</ele>
        <time>2020-06-14T09:12:03.000Z</time>
      </trkpt>
      <trkpt lat="47.36309" lon="-2.35009">
        <ele>5.5999999046326</ele>
        <time>2020-06-14T09:12:04.000Z</time>
      </trkpt>
      <trkpt lat="47.36299" lon="-2.35001">
        <ele>5.5999999046326</ele>
        <time>2020-06-14T09:12:07.000Z</time>
      </trkpt>
      <trkpt lat="47.36293" lon="-2.34985">
        <ele>5.5999999046326</ele>
        <time>2020-06-14T09:12:10.000Z</time>
      </trkpt>
      <trkpt lat="47.36291" lon="-2.34979">
        <ele>5.5999999046326</ele>
        <time>2020-06-14T09:12:11.000Z</time>
      </trkpt>
      <trkpt lat="47.36282" lon="-2.34931">
        <ele>5.5999999046326</ele>
        <time>2020-06-14T09:12:19.000Z</time>
      </trkpt>
      <trkpt lat="47.36279" lon="-2.3493">
        <ele>6</ele>
        <time>2020-06-14T09:12:20.000Z</time>
      </trkpt>
      <trkpt lat="47.36275" lon="-2.34934">
        <ele>6.4000000953674</ele>
        <time>2020-06-14T09:12:21.000Z</time>
      </trkpt>
      <trkpt lat="47.36272" lon="-2.34939">
        <ele>6.8000001907349</ele>
        <time>2020-06-14T09:12:22.000Z</time>
      </trkpt>
      <trkpt lat="47.3627" lon="-2.34945">
        <ele>7.4000000953674</ele>
        <time>2020-06-14T09:12:23.000Z</time>
      </trkpt>
      <trkpt lat="47.36267" lon="-2.34951">
        <ele>7.8000001907349</ele>
        <time>2020-06-14T09:12:24.000Z</time>
      </trkpt>
      <trkpt lat="47.36261" lon="-2.34963">
        <ele>7.8000001907349</ele>
        <time>2020-06-14T09:12:26.000Z</time>
      </trkpt>
      <trkpt lat="47.36235" lon="-2.3502">
        <ele>7.8000001907349</ele>
        <time>2020-06-14T09:12:35.000Z</time>
      </trkpt>
      <trkpt lat="47.36209" lon="-2.35061">
        <ele>7.8000001907349</ele>
        <time>2020-06-14T09:12:42.000Z</time>
      </trkpt>
      <trkpt lat="47.36199" lon="-2.3507">
        <ele>7.8000001907349</ele>
        <time>2020-06-14T09:12:44.000Z</time>
      </trkpt>
      <trkpt lat="47.3618" lon="-2.35088">
        <ele>7.8000001907349</ele>
        <time>2020-06-14T09:12:48.000Z</time>
      </trkpt>
      <trkpt lat="47.36142" lon="-2.35127">
        <ele>7.8000001907349</ele>
        <time>2020-06-14T09:12:56.000Z</time>
      </trkpt>
      <trkpt lat="47.36112" lon="-2.35163">
        <ele>7.8000001907349</ele>
        <time>2020-06-14T09:13:03.000Z</time>
      </trkpt>
      <trkpt lat="47.36103" lon="-2.35171">
        <ele>7.8000001907349</ele>
        <time>2020-06-14T09:13:05.000Z</time>
      </trkpt>
      <trkpt lat="47.36094" lon="-2.35169">
        <ele>7.8000001907349</ele>
        <time>2020-06-14T09:13:07.000Z</time>
      </trkpt>
      <trkpt lat="47.36089" lon="-2.3515">
        <ele>7.8000001907349</ele>
        <time>2020-06-14T09:13:10.000Z</time>
      </trkpt>
      <trkpt lat="47.3609" lon="-2.35134">
        <ele>7.8000001907349</ele>
        <time>2020-06-14T09:13:12.000Z</time>
      </trkpt>
      <trkpt lat="47.36092" lon="-2.35109">
        <ele>7.8000001907349</ele>
        <time>2020-06-14T09:13:15.000Z</time>
      </trkpt>
      <trkpt lat="47.36098" lon="-2.35059">
        <ele>7.8000001907349</ele>
        <time>2020-06-14T09:13:21.000Z</time>
      </trkpt>
      <trkpt lat="47.36097" lon="-2.34997">
        <ele>7.8000001907349</ele>
        <time>2020-06-14T09:13:28.000Z</time>
      </trkpt>
      <trkpt lat="47.36088" lon="-2.34942">
        <ele>7.8000001907349</ele>
        <time>2020-06-14T09:13:34.000Z</time>
      </trkpt>
      <trkpt lat="47.36083" lon="-2.34892">
        <ele>7.8000001907349</ele>
        <time>2020-06-14T09:13:40.000Z</time>
      </trkpt>
      <trkpt lat="47.36081" lon="-2.34874">
        <ele>7.8000001907349</ele>
        <time>2020-06-14T09:13:43.000Z</time>
      </trkpt>
      <trkpt lat="47.36079" lon="-2.34872">
        <ele>7.8000001907349</ele>
        <time>2020-06-14T09:13:44.000Z</time>
      </trkpt>
      <trkpt lat="47.36069" lon="-2.34869">
        <ele>8.1999998092651</ele>
        <time>2020-06-14T09:13:47.000Z</time>
      </trkpt>
      <trkpt lat="47.36061" lon="-2.34869">
        <ele>8.6000003814697</ele>
        <time>2020-06-14T09:13:48.000Z</time>
      </trkpt>
      <trkpt lat="47.36052" lon="-2.3487">
        <ele>9</ele>
        <time>2020-06-14T09:13:49.000Z</time>
      </trkpt>
      <trkpt lat="47.36042" lon="-2.3487">
        <ele>10</ele>
        <time>2020-06-14T09:13:50.000Z</time>
      </trkpt>
      <trkpt lat="47.36003" lon="-2.34868">
        <ele>10</ele>
        <time>2020-06-14T09:13:56.000Z</time>
      </trkpt>
      <trkpt lat="47.35948" lon="-2.34862">
        <ele>10</ele>
        <time>2020-06-14T09:14:05.000Z</time>
      </trkpt>
      <trkpt lat="47.3593" lon="-2.3486">
        <ele>10</ele>
        <time>2020-06-14T09:14:08.000Z</time>
      </trkpt>
      <trkpt lat="47.35919" lon="-2.34851">
        <ele>10</ele>
        <time>2020-06-14T09:14:10.000Z</time>
      </trkpt>
      <trkpt lat="47.35908" lon="-2.34829">
        <ele>10</ele>
        <time>2020-06-14T09:14:13.000Z</time>
      </trkpt>
      <trkpt lat="47.35905" lon="-2.34821">
        <ele>10</ele>
        <time>2020-06-14T09:14:14.000Z</time>
      </trkpt>
      <trkpt lat="47.35887" lon="-2.34778">
        <ele>10</ele>
        <time>2020-06-14T09:14:20.000Z</time>
      </trkpt>
      <trkpt lat="47.35866" lon="-2.34726">
        <ele>10</ele>
        <time>2020-06-14T09:14:27.000Z</time>
      </trkpt>
      <trkpt lat="47.35838" lon="-2.3466">
        <ele>10</ele>
        <time>2020-06-14T09:14:36.000Z</time>
      </trkpt>
      <trkpt lat="47.35813" lon="-2.34605">
        <ele>10</ele>
        <time>2020-06-14T09:14:44.000Z</time>
      </trkpt>
      <trkpt lat="47.35802" lon="-2.34577">
        <ele>10</ele>
        <time>2020-06-14T09:14:48.000Z</time>
      </trkpt>
      <trkpt lat="47.35797" lon="-2.34561">
        <ele>10</ele>
        <time>2020-06-14T09:14:50.000Z</time>
      </trkpt>
      <trkpt lat="47.35787" lon="-2.34495">
        <ele>10</ele>
        <time>2020-06-14T09:14:58.000Z</time>
      </trkpt>
      <trkpt lat="47.35778" lon="-2.34415">
        <ele>10</ele>
        <time>2020-06-14T09:15:07.000Z</time>
      </trkpt>
      <trkpt lat="47.35772" lon="-2.34366">
        <ele>10.39999961853</ele>
        <time>2020-06-14T09:15:13.000Z</time>
      </trkpt>
      <trkpt lat="47.35771" lon="-2.34357">
        <ele>10.800000190735</ele>
        <time>2020-06-14T09:15:14.000Z</time>
      </trkpt>
      <trkpt lat="47.3577" lon="-2.3435">
        <ele>11.199999809265</ele>
        <time>2020-06-14T09:15:15.000Z</time>
      </trkpt>
      <trkpt lat="47.35769" lon="-2.34342">
        <ele>11.60000038147</ele>
        <time>2020-06-14T09:15:16.000Z</time>
      </trkpt>
      <trkpt lat="47.35768" lon="-2.34335">
        <ele>12</ele>
        <time>2020-06-14T09:15:17.000Z</time>
      </trkpt>
      <trkpt lat="47.35763" lon="-2.34284">
        <ele>12</ele>
        <time>2020-06-14T09:15:24.000Z</time>
      </trkpt>
      <trkpt lat="47.35764" lon="-2.34256">
        <ele>12.39999961853</ele>
        <time>2020-06-14T09:15:28.000Z</time>
      </trkpt>
      <trkpt lat="47.35764" lon="-2.34249">
        <ele>12.800000190735</ele>
        <time>2020-06-14T09:15:29.000Z</time>
      </trkpt>
      <trkpt lat="47.35765" lon="-2.34242">
        <ele>13.199999809265</ele>
        <time>2020-06-14T09:15:30.000Z</time>
      </trkpt>
      <trkpt lat="47.35765" lon="-2.34236">
        <ele>13.60000038147</ele>
        <time>2020-06-14T09:15:31.000Z</time>
      </trkpt>
      <trkpt lat="47.35765" lon="-2.3423">
        <ele>14</ele>
        <time>2020-06-14T09:15:32.000Z</time>
      </trkpt>
      <trkpt lat="47.35763" lon="-2.3421">
        <ele>14</ele>
        <time>2020-06-14T09:15:36.000Z</time>
      </trkpt>
      <trkpt lat="47.35761" lon="-2.34206">
        <ele>14</ele>
        <time>2020-06-14T09:15:37.000Z</time>
      </trkpt>
      <trkpt lat="47.3575" lon="-2.34204">
        <ele>14</ele>
        <time>2020-06-14T09:15:40.000Z</time>
      </trkpt>
      <trkpt lat="47.35746" lon="-2.34205">
        <ele>14</ele>
        <time>2020-06-14T09:15:41.000Z</time>
      </trkpt>
      <trkpt lat="47.35726" lon="-2.3421">
        <ele>14</ele>
        <time>2020-06-14T09:15:45.000Z</time>
      </trkpt>
      <trkpt lat="47.3572" lon="-2.34211">
        <ele>14</ele>
        <time>2020-06-14T09:15:46.000Z</time>
      </trkpt>
      <trkpt lat="47.35697" lon="-2.34211">
        <ele>14</ele>
        <time>2020-06-14T09:15:50.000Z</time>
      </trkpt>
      <trkpt lat="47.35657" lon="-2.34201">
        <ele>14</ele>
        <time>2020-06-14T09:15:56.000Z</time>
      </trkpt>
      <trkpt lat="47.35619" lon="-2.34191">
        <ele>13.60000038147</ele>
        <time>2020-06-14T09:16:02.000Z</time>
      </trkpt>
      <trkpt lat="47.35613" lon="-2.3419">
        <ele>13</ele>
        <time>2020-06-14T09:16:03.000Z</time>
      </trkpt>
      <trkpt lat="47.35607" lon="-2.34189">
        <ele>12.60000038147</ele>
        <time>2020-06-14T09:16:04.000Z</time>
      </trkpt>
      <trkpt lat="47.35601" lon="-2.34188">
        <ele>12.199999809265</ele>
        <time>2020-06-14T09:16:05.000Z</time>
      </trkpt>
      <trkpt lat="47.35594" lon="-2.34186">
        <ele>11.60000038147</ele>
        <time>2020-06-14T09:16:06.000Z</time>
      </trkpt>
      <trkpt lat="47.35576" lon="-2.34184">
        <ele>11.60000038147</ele>
        <time>2020-06-14T09:16:09.000Z</time>
      </trkpt>
      <trkpt lat="47.35566" lon="-2.34193">
        <ele>11.199999809265</ele>
        <time>2020-06-14T09:16:11.000Z</time>
      </trkpt>
      <trkpt lat="47.35563" lon="-2.34202">
        <ele>10.800000190735</ele>
        <time>2020-06-14T09:16:12.000Z</time>
      </trkpt>
      <trkpt lat="47.35561" lon="-2.34211">
        <ele>10.39999961853</ele>
        <time>2020-06-14T09:16:13.000Z</time>
      </trkpt>
      <trkpt lat="47.35561" lon="-2.3422">
        <ele>10</ele>
        <time>2020-06-14T09:16:14.000Z</time>
      </trkpt>
      <trkpt lat="47.3556" lon="-2.34231">
        <ele>9.6000003814697</ele>
        <time>2020-06-14T09:16:15.000Z</time>
      </trkpt>
      <trkpt lat="47.35555" lon="-2.34311">
        <ele>9.6000003814697</ele>
        <time>2020-06-14T09:16:23.000Z</time>
      </trkpt>
      <trkpt lat="47.35546" lon="-2.34378">
        <ele>9.6000003814697</ele>
        <time>2020-06-14T09:16:30.000Z</time>
      </trkpt>
      <trkpt lat="47.35534" lon="-2.34449">
        <ele>9.1999998092651</ele>
        <time>2020-06-14T09:16:38.000Z</time>
      </trkpt>
      <trkpt lat="47.35532" lon="-2.34458">
        <ele>8.6000003814697</ele>
        <time>2020-06-14T09:16:39.000Z</time>
      </trkpt>
      <trkpt lat="47.35531" lon="-2.34469">
        <ele>8.1999998092651</ele>
        <time>2020-06-14T09:16:40.000Z</time>
      </trkpt>
      <trkpt lat="47.3553" lon="-2.34479">
        <ele>7.5999999046326</ele>
        <time>2020-06-14T09:16:41.000Z</time>
      </trkpt>
      <trkpt lat="47.35528" lon="-2.3449">
        <ele>7</ele>
        <time>2020-06-14T09:16:42.000Z</time>
      </trkpt>
      <trkpt lat="47.35525" lon="-2.34511">
        <ele>6.5999999046326</ele>
        <time>2020-06-14T09:16:44.000Z</time>
      </trkpt>
      <trkpt lat="47.35524" lon="-2.34522">
        <ele>6.1999998092651</ele>
        <time>2020-06-14T09:16:45.000Z</time>
      </trkpt>
      <trkpt lat="47.35522" lon="-2.34532">
        <ele>5.8000001907349</ele>
        <time>2020-06-14T09:16:46.000Z</time>
      </trkpt>
      <trkpt lat="47.35519" lon="-2.34542">
        <ele>5.4000000953674</ele>
        <time>2020-06-14T09:16:47.000Z</time>
      </trkpt>
      <trkpt lat="47.35516" lon="-2.34551">
        <ele>5</ele>
        <time>2020-06-14T09:16:48.000Z</time>
      </trkpt>
      <trkpt lat="47.35513" lon="-2.3456">
        <ele>5</ele>
        <time>2020-06-14T09:16:49.000Z</time>
      </trkpt>
      <trkpt lat="47.35505" lon="-2.34577">
        <ele>5</ele>
        <time>2020-06-14T09:16:51.000Z</time>
      </trkpt>
      <trkpt lat="47.3549" lon="-2.3461">
        <ele>5</ele>
        <time>2020-06-14T09:16:55.000Z</time>
      </trkpt>
      <trkpt lat="47.35467" lon="-2.34665">
        <ele>5</ele>
        <time>2020-06-14T09:17:02.000Z</time>
      </trkpt>
      <trkpt lat="47.35447" lon="-2.34705">
        <ele>5</ele>
        <time>2020-06-14T09:17:08.000Z</time>
      </trkpt>
      <trkpt lat="47.35438" lon="-2.34704">
        <ele>5</ele>
        <time>2020-06-14T09:17:10.000Z</time>
      </trkpt>
      <trkpt lat="47.35425" lon="-2.34685">
        <ele>5.4000000953674</ele>
        <time>2020-06-14T09:17:14.000Z</time>
      </trkpt>
      <trkpt lat="47.35422" lon="-2.34679">
        <ele>5.8000001907349</ele>
        <time>2020-06-14T09:17:15.000Z</time>
      </trkpt>
      <trkpt lat="47.35419" lon="-2.34672">
        <ele>6.1999998092651</ele>
        <time>2020-06-14T09:17:16.000Z</time>
      </trkpt>
      <trkpt lat="47.35417" lon="-2.34665">
        <ele>6.5999999046326</ele>
        <time>2020-06-14T09:17:17.000Z</time>
      </trkpt>
      <trkpt lat="47.35414" lon="-2.34658">
        <ele>7.1999998092651</ele>
        <time>2020-06-14T09:17:18.000Z</time>
      </trkpt>
      <trkpt lat="47.35411" lon="-2.34651">
        <ele>7.1999998092651</ele>
        <time>2020-06-14T09:17:19.000Z</time>
      </trkpt>
      <trkpt lat="47.35395" lon="-2.34601">
        <ele>7.1999998092651</ele>
        <time>2020-06-14T09:17:25.000Z</time>
      </trkpt>
      <trkpt lat="47.3537" lon="-2.34543">
        <ele>7.1999998092651</ele>
        <time>2020-06-14T09:17:32.000Z</time>
      </trkpt>
      <trkpt lat="47.35344" lon="-2.34504">
        <ele>7.1999998092651</ele>
        <time>2020-06-14T09:17:38.000Z</time>
      </trkpt>
      <trkpt lat="47.35323" lon="-2.34485">
        <ele>7.1999998092651</ele>
        <time>2020-06-14T09:17:42.000Z</time>
      </trkpt>
      <trkpt lat="47.35311" lon="-2.34478">
        <ele>7.1999998092651</ele>
        <time>2020-06-14T09:17:44.000Z</time>
      </trkpt>
      <trkpt lat="47.35305" lon="-2.34475">
        <ele>7.1999998092651</ele>
        <time>2020-06-14T09:17:45.000Z</time>
      </trkpt>
      <trkpt lat="47.35292" lon="-2.34472">
        <ele>6.5999999046326</ele>
        <time>2020-06-14T09:17:47.000Z</time>
      </trkpt>
      <trkpt lat="47.35285" lon="-2.34472">
        <ele>6.1999998092651</ele>
        <time>2020-06-14T09:17:48.000Z</time>
      </trkpt>
      <trkpt lat="47.35278" lon="-2.34473">
        <ele>5.8000001907349</ele>
        <time>2020-06-14T09:17:49.000Z</time>
      </trkpt>
      <trkpt lat="47.35271" lon="-2.34475">
        <ele>5.4000000953674</ele>
        <time>2020-06-14T09:17:50.000Z</time>
      </trkpt>
      <trkpt lat="47.35264" lon="-2.34478">
        <ele>5</ele>
        <time>2020-06-14T09:17:51.000Z</time>
      </trkpt>
      <trkpt lat="47.35258" lon="-2.34481">
        <ele>5</ele>
        <time>2020-06-14T09:17:52.000Z</time>
      </trkpt>
      <trkpt lat="47.35232" lon="-2.34494">
        <ele>5</ele>
        <time>2020-06-14T09:17:56.000Z</time>
      </trkpt>
      <trkpt lat="47.35221" lon="-2.34501">
        <ele>5</ele>
        <time>2020-06-14T09:17:58.000Z</time>
      </trkpt>
      <trkpt lat="47.35209" lon="-2.34504">
        <ele>5</ele>
        <time>2020-06-14T09:18:00.000Z</time>
      </trkpt>
      <trkpt lat="47.35185" lon="-2.34512">
        <ele>5</ele>
        <time>2020-06-14T09:18:04.000Z</time>
      </trkpt>
      <trkpt lat="47.35152" lon="-2.34527">
        <ele>5</ele>
        <time>2020-06-14T09:18:10.000Z</time>
      </trkpt>
      <trkpt lat="47.35125" lon="-2.34538">
        <ele>5.4000000953674</ele>
        <time>2020-06-14T09:18:15.000Z</time>
      </trkpt>
      <trkpt lat="47.3512" lon="-2.3454">
        <ele>5.8000001907349</ele>
        <time>2020-06-14T09:18:16.000Z</time>
      </trkpt>
      <trkpt lat="47.35115" lon="-2.34542">
        <ele>6.1999998092651</ele>
        <time>2020-06-14T09:18:17.000Z</time>
      </trkpt>
      <trkpt lat="47.3511" lon="-2.34543">
        <ele>6.5999999046326</ele>
        <time>2020-06-14T09:18:18.000Z</time>
      </trkpt>
      <trkpt lat="47.35105" lon="-2.34545">
        <ele>7</ele>
        <time>2020-06-14T09:18:19.000Z</time>
      </trkpt>
      <trkpt lat="47.3509" lon="-2.3455">
        <ele>7</ele>
        <time>2020-06-14T09:18:23.000Z</time>
      </trkpt>
      <trkpt lat="47.35082" lon="-2.34543">
        <ele>7</ele>
        <time>2020-06-14T09:18:27.000Z</time>
      </trkpt>
      <trkpt lat="47.35076" lon="-2.34526">
        <ele>7</ele>
        <time>2020-06-14T09:18:32.000Z</time>
      </trkpt>
      <trkpt lat="47.35073" lon="-2.34518">
        <ele>6.5999999046326</ele>
        <time>2020-06-14T09:18:34.000Z</time>
      </trkpt>
      <trkpt lat="47.35072" lon="-2.34515">
        <ele>6</ele>
        <time>2020-06-14T09:18:35.000Z</time>
      </trkpt>
      <trkpt lat="47.3507" lon="-2.34513">
        <ele>5.5999999046326</ele>
        <time>2020-06-14T09:18:36.000Z</time>
      </trkpt>
      <trkpt lat="47.35069" lon="-2.34511">
        <ele>5.1999998092651</ele>
        <time>2020-06-14T09:18:37.000Z</time>
      </trkpt>
      <trkpt lat="47.35068" lon="-2.3451">
        <ele>4.8000001907349</ele>
        <time>2020-06-14T09:18:38.000Z</time>
      </trkpt>
      <trkpt lat="47.35065" lon="-2.34506">
        <ele>4.1999998092651</ele>
        <time>2020-06-14T09:18:41.000Z</time>
      </trkpt>
      <trkpt lat="47.35063" lon="-2.34505">
        <ele>2.5999999046326</ele>
        <time>2020-06-14T09:18:49.000Z</time>
      </trkpt>
      <trkpt lat="47.35061" lon="-2.34503">
        <ele>2.5999999046326</ele>
        <time>2020-06-14T09:18:50.000Z</time>
      </trkpt>
      <trkpt lat="47.3506" lon="-2.34501">
        <ele>2.5999999046326</ele>
        <time>2020-06-14T09:18:51.000Z</time>
      </trkpt>
      <trkpt lat="47.35049" lon="-2.34501">
        <ele>0.40000000596046</ele>
        <time>2020-06-14T09:19:30.000Z</time>
      </trkpt>
      <trkpt lat="47.35046" lon="-2.345">
        <ele>0.40000000596046</ele>
        <time>2020-06-14T09:19:31.000Z</time>
      </trkpt>
      <trkpt lat="47.3504" lon="-2.3449">
        <ele>0.40000000596046</ele>
        <time>2020-06-14T09:19:35.000Z</time>
      </trkpt>
      <trkpt lat="47.3503" lon="-2.34476">
        <ele>0.40000000596046</ele>
        <time>2020-06-14T09:19:40.000Z</time>
      </trkpt>
      <trkpt lat="47.35023" lon="-2.34473">
        <ele>0.80000001192093</ele>
        <time>2020-06-14T09:19:43.000Z</time>
      </trkpt>
      <trkpt lat="47.35021" lon="-2.34471">
        <ele>1.3999999761581</ele>
        <time>2020-06-14T09:19:44.000Z</time>
      </trkpt>
      <trkpt lat="47.35018" lon="-2.34469">
        <ele>1.7999999523163</ele>
        <time>2020-06-14T09:19:45.000Z</time>
      </trkpt>
      <trkpt lat="47.35016" lon="-2.34465">
        <ele>2.2000000476837</ele>
        <time>2020-06-14T09:19:46.000Z</time>
      </trkpt>
      <trkpt lat="47.35015" lon="-2.34461">
        <ele>2.7999999523163</ele>
        <time>2020-06-14T09:19:47.000Z</time>
      </trkpt>
      <trkpt lat="47.35008" lon="-2.34444">
        <ele>3.2000000476837</ele>
        <time>2020-06-14T09:19:51.000Z</time>
      </trkpt>
      <trkpt lat="47.35006" lon="-2.34439">
        <ele>3.5999999046326</ele>
        <time>2020-06-14T09:19:52.000Z</time>
      </trkpt>
      <trkpt lat="47.35004" lon="-2.34434">
        <ele>4</ele>
        <time>2020-06-14T09:19:53.000Z</time>
      </trkpt>
      <trkpt lat="47.35003" lon="-2.34429">
        <ele>4.4000000953674</ele>
        <time>2020-06-14T09:19:54.000Z</time>
      </trkpt>
      <trkpt lat="47.35002" lon="-2.34425">
        <ele>4.8000001907349</ele>
        <time>2020-06-14T09:19:55.000Z</time>
      </trkpt>
      <trkpt lat="47.35001" lon="-2.3442">
        <ele>4.8000001907349</ele>
        <time>2020-06-14T09:19:56.000Z</time>
      </trkpt>
      <trkpt lat="47.34996" lon="-2.34399">
        <ele>5.1999998092651</ele>
        <time>2020-06-14T09:20:01.000Z</time>
      </trkpt>
      <trkpt lat="47.34995" lon="-2.34396">
        <ele>5.8000001907349</ele>
        <time>2020-06-14T09:20:02.000Z</time>
      </trkpt>
      <trkpt lat="47.34995" lon="-2.34394">
        <ele>6.1999998092651</ele>
        <time>2020-06-14T09:20:03.000Z</time>
      </trkpt>
      <trkpt lat="47.34994" lon="-2.34391">
        <ele>6.5999999046326</ele>
        <time>2020-06-14T09:20:04.000Z</time>
      </trkpt>
      <trkpt lat="47.34993" lon="-2.34388">
        <ele>7</ele>
        <time>2020-06-14T09:20:05.000Z</time>
      </trkpt>
      <trkpt lat="47.34987" lon="-2.34378">
        <ele>7</ele>
        <time>2020-06-14T09:20:08.000Z</time>
      </trkpt>
      <trkpt lat="47.34973" lon="-2.34373">
        <ele>7</ele>
        <time>2020-06-14T09:20:13.000Z</time>
      </trkpt>
      <trkpt lat="47.34953" lon="-2.34374">
        <ele>7</ele>
        <time>2020-06-14T09:20:21.000Z</time>
      </trkpt>
      <trkpt lat="47.34939" lon="-2.34373">
        <ele>7</ele>
        <time>2020-06-14T09:20:27.000Z</time>
      </trkpt>
      <trkpt lat="47.34935" lon="-2.34373">
        <ele>7.4000000953674</ele>
        <time>2020-06-14T09:20:29.000Z</time>
      </trkpt>
      <trkpt lat="47.34933" lon="-2.34373">
        <ele>7.8000001907349</ele>
        <time>2020-06-14T09:20:30.000Z</time>
      </trkpt>
      <trkpt lat="47.3493" lon="-2.34373">
        <ele>8.1999998092651</ele>
        <time>2020-06-14T09:20:31.000Z</time>
      </trkpt>
      <trkpt lat="47.34927" lon="-2.34373">
        <ele>8.6000003814697</ele>
        <time>2020-06-14T09:20:32.000Z</time>
      </trkpt>
      <trkpt lat="47.34924" lon="-2.34373">
        <ele>9.1999998092651</ele>
        <time>2020-06-14T09:20:33.000Z</time>
      </trkpt>
      <trkpt lat="47.34922" lon="-2.34374">
        <ele>9.1999998092651</ele>
        <time>2020-06-14T09:20:34.000Z</time>
      </trkpt>
      <trkpt lat="47.34908" lon="-2.34379">
        <ele>9.1999998092651</ele>
        <time>2020-06-14T09:20:41.000Z</time>
      </trkpt>
      <trkpt lat="47.34894" lon="-2.34378">
        <ele>9.6000003814697</ele>
        <time>2020-06-14T09:20:47.000Z</time>
      </trkpt>
      <trkpt lat="47.3489" lon="-2.34377">
        <ele>10.39999961853</ele>
        <time>2020-06-14T09:20:48.000Z</time>
      </trkpt>
      <trkpt lat="47.34887" lon="-2.34377">
        <ele>10.800000190735</ele>
        <time>2020-06-14T09:20:49.000Z</time>
      </trkpt>
      <trkpt lat="47.34883" lon="-2.34376">
        <ele>11.199999809265</ele>
        <time>2020-06-14T09:20:50.000Z</time>
      </trkpt>
      <trkpt lat="47.34868" lon="-2.34378">
        <ele>11.199999809265</ele>
        <time>2020-06-14T09:20:55.000Z</time>
      </trkpt>
      <trkpt lat="47.34853" lon="-2.34379">
        <ele>11.199999809265</ele>
        <time>2020-06-14T09:21:00.000Z</time>
      </trkpt>
      <trkpt lat="47.34829" lon="-2.34381">
        <ele>11.199999809265</ele>
        <time>2020-06-14T09:21:06.000Z</time>
      </trkpt>
      <trkpt lat="47.34801" lon="-2.34383">
        <ele>11.199999809265</ele>
        <time>2020-06-14T09:21:12.000Z</time>
      </trkpt>
      <trkpt lat="47.34782" lon="-2.3439">
        <ele>11.199999809265</ele>
        <time>2020-06-14T09:21:18.000Z</time>
      </trkpt>
      <trkpt lat="47.34776" lon="-2.34404">
        <ele>11.199999809265</ele>
        <time>2020-06-14T09:21:23.000Z</time>
      </trkpt>
      <trkpt lat="47.34763" lon="-2.34426">
        <ele>11.199999809265</ele>
        <time>2020-06-14T09:21:31.000Z</time>
      </trkpt>
      <trkpt lat="47.34755" lon="-2.34448">
        <ele>10.800000190735</ele>
        <time>2020-06-14T09:21:37.000Z</time>
      </trkpt>
      <trkpt lat="47.34754" lon="-2.3445">
        <ele>10.39999961853</ele>
        <time>2020-06-14T09:21:38.000Z</time>
      </trkpt>
      <trkpt lat="47.34752" lon="-2.34452">
        <ele>10</ele>
        <time>2020-06-14T09:21:39.000Z</time>
      </trkpt>
      <trkpt lat="47.34752" lon="-2.34454">
        <ele>9.6000003814697</ele>
        <time>2020-06-14T09:21:40.000Z</time>
      </trkpt>
      <trkpt lat="47.34751" lon="-2.34456">
        <ele>9.1999998092651</ele>
        <time>2020-06-14T09:21:41.000Z</time>
      </trkpt>
      <trkpt lat="47.3475" lon="-2.34461">
        <ele>9.1999998092651</ele>
        <time>2020-06-14T09:21:43.000Z</time>
      </trkpt>
      <trkpt lat="47.34748" lon="-2.34475">
        <ele>9.1999998092651</ele>
        <time>2020-06-14T09:21:48.000Z</time>
      </trkpt>
      <trkpt lat="47.34749" lon="-2.34477">
        <ele>9.1999998092651</ele>
        <time>2020-06-14T09:21:49.000Z</time>
      </trkpt>
      <trkpt lat="47.34746" lon="-2.34482">
        <ele>9.1999998092651</ele>
        <time>2020-06-14T09:21:52.000Z</time>
      </trkpt>
      <trkpt lat="47.34745" lon="-2.34483">
        <ele>9.1999998092651</ele>
        <time>2020-06-14T09:21:53.000Z</time>
      </trkpt>
      <trkpt lat="47.34738" lon="-2.34485">
        <ele>9.1999998092651</ele>
        <time>2020-06-14T09:21:57.000Z</time>
      </trkpt>
      <trkpt lat="47.34732" lon="-2.34487">
        <ele>9.1999998092651</ele>
        <time>2020-06-14T09:22:29.000Z</time>
      </trkpt>
      <trkpt lat="47.34722" lon="-2.34491">
        <ele>9.1999998092651</ele>
        <time>2020-06-14T09:22:36.000Z</time>
      </trkpt>
      <trkpt lat="47.3472" lon="-2.34492">
        <ele>9.1999998092651</ele>
        <time>2020-06-14T09:22:38.000Z</time>
      </trkpt>
      <trkpt lat="47.34713" lon="-2.34495">
        <ele>10.39999961853</ele>
        <time>2020-06-14T09:23:17.000Z</time>
      </trkpt>
      <trkpt lat="47.34711" lon="-2.34495">
        <ele>10.39999961853</ele>
        <time>2020-06-14T09:23:18.000Z</time>
      </trkpt>
      <trkpt lat="47.34693" lon="-2.34505">
        <ele>10.39999961853</ele>
        <time>2020-06-14T09:23:27.000Z</time>
      </trkpt>
      <trkpt lat="47.34675" lon="-2.34511">
        <ele>10.39999961853</ele>
        <time>2020-06-14T09:23:35.000Z</time>
      </trkpt>
      <trkpt lat="47.34662" lon="-2.34515">
        <ele>10.39999961853</ele>
        <time>2020-06-14T09:23:42.000Z</time>
      </trkpt>
      <trkpt lat="47.3465" lon="-2.34518">
        <ele>10.39999961853</ele>
        <time>2020-06-14T09:23:49.000Z</time>
      </trkpt>
      <trkpt lat="47.34631" lon="-2.34525">
        <ele>10.39999961853</ele>
        <time>2020-06-14T09:23:56.000Z</time>
      </trkpt>
      <trkpt lat="47.34613" lon="-2.34529">
        <ele>10.39999961853</ele>
        <time>2020-06-14T09:24:04.000Z</time>
      </trkpt>
      <trkpt lat="47.34613" lon="-2.34528">
        <ele>10.39999961853</ele>
        <time>2020-06-14T09:24:05.000Z</time>
      </trkpt>
      <trkpt lat="47.34611" lon="-2.34528">
        <ele>10.39999961853</ele>
        <time>2020-06-14T09:24:09.000Z</time>
      </trkpt>
      <trkpt lat="47.34609" lon="-2.34527">
        <ele>10.39999961853</ele>
        <time>2020-06-14T09:24:10.000Z</time>
      </trkpt>
      <trkpt lat="47.34603" lon="-2.34512">
        <ele>10.39999961853</ele>
        <time>2020-06-14T09:24:14.000Z</time>
      </trkpt>
      <trkpt lat="47.34596" lon="-2.34478">
        <ele>10.39999961853</ele>
        <time>2020-06-14T09:24:21.000Z</time>
      </trkpt>
      <trkpt lat="47.34595" lon="-2.34471">
        <ele>10.800000190735</ele>
        <time>2020-06-14T09:24:22.000Z</time>
      </trkpt>
      <trkpt lat="47.34595" lon="-2.34465">
        <ele>11.199999809265</ele>
        <time>2020-06-14T09:24:23.000Z</time>
      </trkpt>
      <trkpt lat="47.34595" lon="-2.34459">
        <ele>11.60000038147</ele>
        <time>2020-06-14T09:24:24.000Z</time>
      </trkpt>
      <trkpt lat="47.34595" lon="-2.34452">
        <ele>12</ele>
        <time>2020-06-14T09:24:25.000Z</time>
      </trkpt>
      <trkpt lat="47.34595" lon="-2.34445">
        <ele>12.39999961853</ele>
        <time>2020-06-14T09:24:26.000Z</time>
      </trkpt>
      <trkpt lat="47.34595" lon="-2.3443">
        <ele>12.39999961853</ele>
        <time>2020-06-14T09:24:28.000Z</time>
      </trkpt>
      <trkpt lat="47.34598" lon="-2.34409">
        <ele>12.39999961853</ele>
        <time>2020-06-14T09:24:31.000Z</time>
      </trkpt>
      <trkpt lat="47.34603" lon="-2.34388">
        <ele>12.39999961853</ele>
        <time>2020-06-14T09:24:34.000Z</time>
      </trkpt>
      <trkpt lat="47.34618" lon="-2.34328">
        <ele>12.39999961853</ele>
        <time>2020-06-14T09:24:42.000Z</time>
      </trkpt>
      <trkpt lat="47.34639" lon="-2.3427">
        <ele>12.39999961853</ele>
        <time>2020-06-14T09:24:49.000Z</time>
      </trkpt>
      <trkpt lat="47.34648" lon="-2.34241">
        <ele>12</ele>
        <time>2020-06-14T09:24:52.000Z</time>
      </trkpt>
      <trkpt lat="47.34652" lon="-2.34231">
        <ele>11.60000038147</ele>
        <time>2020-06-14T09:24:53.000Z</time>
      </trkpt>
      <trkpt lat="47.34655" lon="-2.34221">
        <ele>11.199999809265</ele>
        <time>2020-06-14T09:24:54.000Z</time>
      </trkpt>
      <trkpt lat="47.34658" lon="-2.34211">
        <ele>10.39999961853</ele>
        <time>2020-06-14T09:24:55.000Z</time>
      </trkpt>
      <trkpt lat="47.34665" lon="-2.34192">
        <ele>10.39999961853</ele>
        <time>2020-06-14T09:24:57.000Z</time>
      </trkpt>
      <trkpt lat="47.34673" lon="-2.34168">
        <ele>10.39999961853</ele>
        <time>2020-06-14T09:25:00.000Z</time>
      </trkpt>
      <trkpt lat="47.34674" lon="-2.34162">
        <ele>10.39999961853</ele>
        <time>2020-06-14T09:25:01.000Z</time>
      </trkpt>
      <trkpt lat="47.34673" lon="-2.34156">
        <ele>10</ele>
        <time>2020-06-14T09:25:02.000Z</time>
      </trkpt>
      <trkpt lat="47.3467" lon="-2.34152">
        <ele>9.3999996185303</ele>
        <time>2020-06-14T09:25:03.000Z</time>
      </trkpt>
      <trkpt lat="47.34666" lon="-2.34151">
        <ele>9</ele>
        <time>2020-06-14T09:25:04.000Z</time>
      </trkpt>
      <trkpt lat="47.34661" lon="-2.34151">
        <ele>8.6000003814697</ele>
        <time>2020-06-14T09:25:05.000Z</time>
      </trkpt>
      <trkpt lat="47.34657" lon="-2.34151">
        <ele>8.1999998092651</ele>
        <time>2020-06-14T09:25:06.000Z</time>
      </trkpt>
      <trkpt lat="47.34648" lon="-2.34146">
        <ele>8.1999998092651</ele>
        <time>2020-06-14T09:25:08.000Z</time>
      </trkpt>
      <trkpt lat="47.34639" lon="-2.34137">
        <ele>8.1999998092651</ele>
        <time>2020-06-14T09:25:10.000Z</time>
      </trkpt>
      <trkpt lat="47.3463" lon="-2.34126">
        <ele>8.1999998092651</ele>
        <time>2020-06-14T09:25:12.000Z</time>
      </trkpt>
      <trkpt lat="47.34626" lon="-2.3412">
        <ele>8.1999998092651</ele>
        <time>2020-06-14T09:25:13.000Z</time>
      </trkpt>
      <trkpt lat="47.34613" lon="-2.34083">
        <ele>8.1999998092651</ele>
        <time>2020-06-14T09:25:17.000Z</time>
      </trkpt>
      <trkpt lat="47.346" lon="-2.34033">
        <ele>7.5999999046326</ele>
        <time>2020-06-14T09:25:22.000Z</time>
      </trkpt>
      <trkpt lat="47.34598" lon="-2.34024">
        <ele>7.1999998092651</ele>
        <time>2020-06-14T09:25:23.000Z</time>
      </trkpt>
      <trkpt lat="47.34596" lon="-2.34014">
        <ele>6.8000001907349</ele>
        <time>2020-06-14T09:25:24.000Z</time>
      </trkpt>
      <trkpt lat="47.34593" lon="-2.34005">
        <ele>6.4000000953674</ele>
        <time>2020-06-14T09:25:25.000Z</time>
      </trkpt>
      <trkpt lat="47.34591" lon="-2.33996">
        <ele>6</ele>
        <time>2020-06-14T09:25:26.000Z</time>
      </trkpt>
      <trkpt lat="47.34581" lon="-2.33963">
        <ele>6</ele>
        <time>2020-06-14T09:25:30.000Z</time>
      </trkpt>
      <trkpt lat="47.34569" lon="-2.33919">
        <ele>6</ele>
        <time>2020-06-14T09:25:36.000Z</time>
      </trkpt>
      <trkpt lat="47.34561" lon="-2.339">
        <ele>6</ele>
        <time>2020-06-14T09:25:39.000Z</time>
      </trkpt>
      <trkpt lat="47.34556" lon="-2.33889">
        <ele>6</ele>
        <time>2020-06-14T09:25:41.000Z</time>
      </trkpt>
      <trkpt lat="47.34552" lon="-2.33879">
        <ele>6</ele>
        <time>2020-06-14T09:25:43.000Z</time>
      </trkpt>
      <trkpt lat="47.34547" lon="-2.33861">
        <ele>6</ele>
        <time>2020-06-14T09:25:46.000Z</time>
      </trkpt>
      <trkpt lat="47.34546" lon="-2.33854">
        <ele>6</ele>
        <time>2020-06-14T09:25:47.000Z</time>
      </trkpt>
      <trkpt lat="47.34538" lon="-2.33807">
        <ele>6</ele>
        <time>2020-06-14T09:25:54.000Z</time>
      </trkpt>
      <trkpt lat="47.34533" lon="-2.33763">
        <ele>6</ele>
        <time>2020-06-14T09:26:00.000Z</time>
      </trkpt>
      <trkpt lat="47.34524" lon="-2.33717">
        <ele>6</ele>
        <time>2020-06-14T09:26:06.000Z</time>
      </trkpt>
      <trkpt lat="47.34516" lon="-2.33682">
        <ele>6</ele>
        <time>2020-06-14T09:26:12.000Z</time>
      </trkpt>
      <trkpt lat="47.34514" lon="-2.33661">
        <ele>6</ele>
        <time>2020-06-14T09:26:17.000Z</time>
      </trkpt>
      <trkpt lat="47.3451" lon="-2.33634">
        <ele>6</ele>
        <time>2020-06-14T09:26:23.000Z</time>
      </trkpt>
      <trkpt lat="47.34503" lon="-2.33606">
        <ele>6</ele>
        <time>2020-06-14T09:26:29.000Z</time>
      </trkpt>
      <trkpt lat="47.34493" lon="-2.33577">
        <ele>6</ele>
        <time>2020-06-14T09:26:36.000Z</time>
      </trkpt>
      <trkpt lat="47.34489" lon="-2.33556">
        <ele>5.4000000953674</ele>
        <time>2020-06-14T09:26:40.000Z</time>
      </trkpt>
      <trkpt lat="47.34488" lon="-2.33551">
        <ele>5</ele>
        <time>2020-06-14T09:26:41.000Z</time>
      </trkpt>
      <trkpt lat="47.34487" lon="-2.33545">
        <ele>4.5999999046326</ele>
        <time>2020-06-14T09:26:42.000Z</time>
      </trkpt>
      <trkpt lat="47.34487" lon="-2.3354">
        <ele>4.1999998092651</ele>
        <time>2020-06-14T09:26:43.000Z</time>
      </trkpt>
      <trkpt lat="47.34486" lon="-2.33536">
        <ele>3.7999999523163</ele>
        <time>2020-06-14T09:26:44.000Z</time>
      </trkpt>
      <trkpt lat="47.34484" lon="-2.33526">
        <ele>3.7999999523163</ele>
        <time>2020-06-14T09:26:46.000Z</time>
      </trkpt>
      <trkpt lat="47.34479" lon="-2.33495">
        <ele>3.7999999523163</ele>
        <time>2020-06-14T09:26:52.000Z</time>
      </trkpt>
      <trkpt lat="47.34476" lon="-2.33465">
        <ele>3.7999999523163</ele>
        <time>2020-06-14T09:26:58.000Z</time>
      </trkpt>
      <trkpt lat="47.34474" lon="-2.33441">
        <ele>3.7999999523163</ele>
        <time>2020-06-14T09:27:04.000Z</time>
      </trkpt>
      <trkpt lat="47.34469" lon="-2.33414">
        <ele>3.7999999523163</ele>
        <time>2020-06-14T09:27:10.000Z</time>
      </trkpt>
      <trkpt lat="47.34462" lon="-2.33375">
        <ele>3.7999999523163</ele>
        <time>2020-06-14T09:27:18.000Z</time>
      </trkpt>
      <trkpt lat="47.34458" lon="-2.33334">
        <ele>3.4000000953674</ele>
        <time>2020-06-14T09:27:26.000Z</time>
      </trkpt>
      <trkpt lat="47.34458" lon="-2.3333">
        <ele>3</ele>
        <time>2020-06-14T09:27:27.000Z</time>
      </trkpt>
      <trkpt lat="47.34457" lon="-2.33326">
        <ele>2.4000000953674</ele>
        <time>2020-06-14T09:27:28.000Z</time>
      </trkpt>
      <trkpt lat="47.34457" lon="-2.33321">
        <ele>2</ele>
        <time>2020-06-14T09:27:29.000Z</time>
      </trkpt>
      <trkpt lat="47.34456" lon="-2.33317">
        <ele>1.6000000238419</ele>
        <time>2020-06-14T09:27:30.000Z</time>
      </trkpt>
      <trkpt lat="47.34454" lon="-2.33313">
        <ele>1.6000000238419</ele>
        <time>2020-06-14T09:27:31.000Z</time>
      </trkpt>
      <trkpt lat="47.34443" lon="-2.33301">
        <ele>1.6000000238419</ele>
        <time>2020-06-14T09:27:36.000Z</time>
      </trkpt>
      <trkpt lat="47.34432" lon="-2.33297">
        <ele>1.6000000238419</ele>
        <time>2020-06-14T09:27:40.000Z</time>
      </trkpt>
      <trkpt lat="47.3443" lon="-2.33294">
        <ele>1.6000000238419</ele>
        <time>2020-06-14T09:27:41.000Z</time>
      </trkpt>
      <trkpt lat="47.34421" lon="-2.33269">
        <ele>1.6000000238419</ele>
        <time>2020-06-14T09:27:47.000Z</time>
      </trkpt>
      <trkpt lat="47.34415" lon="-2.33223">
        <ele>1.6000000238419</ele>
        <time>2020-06-14T09:27:54.000Z</time>
      </trkpt>
      <trkpt lat="47.3441" lon="-2.332">
        <ele>1.6000000238419</ele>
        <time>2020-06-14T09:27:57.000Z</time>
      </trkpt>
      <trkpt lat="47.34407" lon="-2.33185">
        <ele>1.6000000238419</ele>
        <time>2020-06-14T09:27:59.000Z</time>
      </trkpt>
      <trkpt lat="47.34404" lon="-2.33163">
        <ele>1.2000000476837</ele>
        <time>2020-06-14T09:28:03.000Z</time>
      </trkpt>
      <trkpt lat="47.34404" lon="-2.33158">
        <ele>0.80000001192093</ele>
        <time>2020-06-14T09:28:04.000Z</time>
      </trkpt>
      <trkpt lat="47.34404" lon="-2.33153">
        <ele>0.40000000596046</ele>
        <time>2020-06-14T09:28:05.000Z</time>
      </trkpt>
      <trkpt lat="47.34403" lon="-2.33149">
        <ele>4.7</ele>
        <time>2020-06-14T09:28:06.000Z</time>
      </trkpt>
      <trkpt lat="47.34403" lon="-2.33144">
        <ele>-0.40000000596046</ele>
        <time>2020-06-14T09:28:07.000Z</time>
      </trkpt>
      <trkpt lat="47.34401" lon="-2.33132">
        <ele>-0.40000000596046</ele>
        <time>2020-06-14T09:28:10.000Z</time>
      </trkpt>
      <trkpt lat="47.34397" lon="-2.33116">
        <ele>-0.40000000596046</ele>
        <time>2020-06-14T09:28:15.000Z</time>
      </trkpt>
      <trkpt lat="47.34391" lon="-2.33096">
        <ele>-0.40000000596046</ele>
        <time>2020-06-14T09:28:22.000Z</time>
      </trkpt>
      <trkpt lat="47.34386" lon="-2.33078">
        <ele>-0.40000000596046</ele>
        <time>2020-06-14T09:28:29.000Z</time>
      </trkpt>
      <trkpt lat="47.34381" lon="-2.33056">
        <ele>-0.40000000596046</ele>
        <time>2020-06-14T09:28:35.000Z</time>
      </trkpt>
      <trkpt lat="47.34375" lon="-2.33038">
        <ele>-0.40000000596046</ele>
        <time>2020-06-14T09:28:40.000Z</time>
      </trkpt>
      <trkpt lat="47.34374" lon="-2.33033">
        <ele>-0.40000000596046</ele>
        <time>2020-06-14T09:28:43.000Z</time>
      </trkpt>
      <trkpt lat="47.34364" lon="-2.3304">
        <ele>-2.4000000953674</ele>
        <time>2020-06-14T09:29:21.000Z</time>
      </trkpt>
      <trkpt lat="47.3435" lon="-2.33046">
        <ele>-2.4000000953674</ele>
        <time>2020-06-14T09:29:27.000Z</time>
      </trkpt>
      <trkpt lat="47.34334" lon="-2.33054">
        <ele>-2.4000000953674</ele>
        <time>2020-06-14T09:29:33.000Z</time>
      </trkpt>
      <trkpt lat="47.34314" lon="-2.33059">
        <ele>-2.4000000953674</ele>
        <time>2020-06-14T09:29:39.000Z</time>
      </trkpt>
      <trkpt lat="47.34306" lon="-2.33059">
        <ele>-2.4000000953674</ele>
        <time>2020-06-14T09:29:42.000Z</time>
      </trkpt>
      <trkpt lat="47.34304" lon="-2.33057">
        <ele>-2.4000000953674</ele>
        <time>2020-06-14T09:29:43.000Z</time>
      </trkpt>
      <trkpt lat="47.34289" lon="-2.3304">
        <ele>-2.4000000953674</ele>
        <time>2020-06-14T09:29:49.000Z</time>
      </trkpt>
      <trkpt lat="47.34278" lon="-2.33025">
        <ele>-2</ele>
        <time>2020-06-14T09:29:53.000Z</time>
      </trkpt>
      <trkpt lat="47.34275" lon="-2.33021">
        <ele>-1.6000000238419</ele>
        <time>2020-06-14T09:29:54.000Z</time>
      </trkpt>
      <trkpt lat="47.34272" lon="-2.33017">
        <ele>-1.2000000476837</ele>
        <time>2020-06-14T09:29:55.000Z</time>
      </trkpt>
      <trkpt lat="47.3427" lon="-2.33013">
        <ele>-0.80000001192093</ele>
        <time>2020-06-14T09:29:56.000Z</time>
      </trkpt>
      <trkpt lat="47.34268" lon="-2.33007">
        <ele>-0.40000000596046</ele>
        <time>2020-06-14T09:29:57.000Z</time>
      </trkpt>
      <trkpt lat="47.34261" lon="-2.32994">
        <ele>-0.40000000596046</ele>
        <time>2020-06-14T09:30:00.000Z</time>
      </trkpt>
      <trkpt lat="47.34255" lon="-2.32973">
        <ele>-0.40000000596046</ele>
        <time>2020-06-14T09:30:06.000Z</time>
      </trkpt>
      <trkpt lat="47.3425" lon="-2.32964">
        <ele>-0.40000000596046</ele>
        <time>2020-06-14T09:30:10.000Z</time>
      </trkpt>
      <trkpt lat="47.34247" lon="-2.32959">
        <ele>-0.40000000596046</ele>
        <time>2020-06-14T09:30:12.000Z</time>
      </trkpt>
      <trkpt lat="47.34241" lon="-2.32942">
        <ele>-0.40000000596046</ele>
        <time>2020-06-14T09:30:18.000Z</time>
      </trkpt>
      <trkpt lat="47.34232" lon="-2.32926">
        <ele>6.5</ele>
        <time>2020-06-14T09:30:24.000Z</time>
      </trkpt>
      <trkpt lat="47.3423" lon="-2.32924">
        <ele>0.40000000596046</ele>
        <time>2020-06-14T09:30:25.000Z</time>
      </trkpt>
      <trkpt lat="47.3423" lon="-2.32922">
        <ele>0.80000001192093</ele>
        <time>2020-06-14T09:30:26.000Z</time>
      </trkpt>
      <trkpt lat="47.3423" lon="-2.32919">
        <ele>1.2000000476837</ele>
        <time>2020-06-14T09:30:27.000Z</time>
      </trkpt>
      <trkpt lat="47.34229" lon="-2.32917">
        <ele>1.6000000238419</ele>
        <time>2020-06-14T09:30:28.000Z</time>
      </trkpt>
      <trkpt lat="47.34226" lon="-2.3291">
        <ele>1.6000000238419</ele>
        <time>2020-06-14T09:30:31.000Z</time>
      </trkpt>
      <trkpt lat="47.34212" lon="-2.32885">
        <ele>2</ele>
        <time>2020-06-14T09:30:38.000Z</time>
      </trkpt>
      <trkpt lat="47.34211" lon="-2.32882">
        <ele>2.4000000953674</ele>
        <time>2020-06-14T09:30:39.000Z</time>
      </trkpt>
      <trkpt lat="47.3421" lon="-2.32879">
        <ele>2.7999999523163</ele>
        <time>2020-06-14T09:30:40.000Z</time>
      </trkpt>
      <trkpt lat="47.34208" lon="-2.32876">
        <ele>3.2000000476837</ele>
        <time>2020-06-14T09:30:41.000Z</time>
      </trkpt>
      <trkpt lat="47.34205" lon="-2.32873">
        <ele>3.5999999046326</ele>
        <time>2020-06-14T09:30:42.000Z</time>
      </trkpt>
      <trkpt lat="47.34198" lon="-2.32863">
        <ele>3.5999999046326</ele>
        <time>2020-06-14T09:30:45.000Z</time>
      </trkpt>
      <trkpt lat="47.34188" lon="-2.32844">
        <ele>3.5999999046326</ele>
        <time>2020-06-14T09:30:51.000Z</time>
      </trkpt>
      <trkpt lat="47.34178" lon="-2.3282">
        <ele>3.5999999046326</ele>
        <time>2020-06-14T09:30:57.000Z</time>
      </trkpt>
      <trkpt lat="47.34173" lon="-2.32801">
        <ele>3.5999999046326</ele>
        <time>2020-06-14T09:31:02.000Z</time>
      </trkpt>
      <trkpt lat="47.3417" lon="-2.32784">
        <ele>4.4000000953674</ele>
        <time>2020-06-14T09:31:07.000Z</time>
      </trkpt>
      <trkpt lat="47.34169" lon="-2.32781">
        <ele>4.8000001907349</ele>
        <time>2020-06-14T09:31:08.000Z</time>
      </trkpt>
      <trkpt lat="47.34169" lon="-2.32779">
        <ele>5.1999998092651</ele>
        <time>2020-06-14T09:31:09.000Z</time>
      </trkpt>
      <trkpt lat="47.34168" lon="-2.32777">
        <ele>5.5999999046326</ele>
        <time>2020-06-14T09:31:10.000Z</time>
      </trkpt>
      <trkpt lat="47.34166" lon="-2.32773">
        <ele>5.5999999046326</ele>
        <time>2020-06-14T09:31:13.000Z</time>
      </trkpt>
      <trkpt lat="47.34165" lon="-2.32754">
        <ele>5.5999999046326</ele>
        <time>2020-06-14T09:31:17.000Z</time>
      </trkpt>
      <trkpt lat="47.34162" lon="-2.32725">
        <ele>5.5999999046326</ele>
        <time>2020-06-14T09:31:23.000Z</time>
      </trkpt>
      <trkpt lat="47.34161" lon="-2.32713">
        <ele>6</ele>
        <time>2020-06-14T09:31:25.000Z</time>
      </trkpt>
      <trkpt lat="47.34161" lon="-2.32707">
        <ele>6.5999999046326</ele>
        <time>2020-06-14T09:31:26.000Z</time>
      </trkpt>
      <trkpt lat="47.3416" lon="-2.327">
        <ele>7</ele>
        <time>2020-06-14T09:31:27.000Z</time>
      </trkpt>
      <trkpt lat="47.34159" lon="-2.32693">
        <ele>7.4000000953674</ele>
        <time>2020-06-14T09:31:28.000Z</time>
      </trkpt>
      <trkpt lat="47.34158" lon="-2.32687">
        <ele>7.8000001907349</ele>
        <time>2020-06-14T09:31:29.000Z</time>
      </trkpt>
      <trkpt lat="47.34158" lon="-2.32682">
        <ele>7.8000001907349</ele>
        <time>2020-06-14T09:31:30.000Z</time>
      </trkpt>
      <trkpt lat="47.34153" lon="-2.32639">
        <ele>7.8000001907349</ele>
        <time>2020-06-14T09:31:37.000Z</time>
      </trkpt>
      <trkpt lat="47.34151" lon="-2.32607">
        <ele>7.8000001907349</ele>
        <time>2020-06-14T09:31:43.000Z</time>
      </trkpt>
      <trkpt lat="47.3415" lon="-2.32595">
        <ele>7.8000001907349</ele>
        <time>2020-06-14T09:31:47.000Z</time>
      </trkpt>
      <trkpt lat="47.3415" lon="-2.32593">
        <ele>7.8000001907349</ele>
        <time>2020-06-14T09:31:49.000Z</time>
      </trkpt>
      <trkpt lat="47.34151" lon="-2.3259">
        <ele>7.8000001907349</ele>
        <time>2020-06-14T09:31:53.000Z</time>
      </trkpt>
      <trkpt lat="47.34151" lon="-2.32587">
        <ele>7.8000001907349</ele>
        <time>2020-06-14T09:31:54.000Z</time>
      </trkpt>
      <trkpt lat="47.34153" lon="-2.32563">
        <ele>7.8000001907349</ele>
        <time>2020-06-14T09:31:58.000Z</time>
      </trkpt>
      <trkpt lat="47.34152" lon="-2.32519">
        <ele>7.8000001907349</ele>
        <time>2020-06-14T09:32:05.000Z</time>
      </trkpt>
      <trkpt lat="47.3415" lon="-2.32489">
        <ele>7.8000001907349</ele>
        <time>2020-06-14T09:32:11.000Z</time>
      </trkpt>
      <trkpt lat="47.34142" lon="-2.32463">
        <ele>7.8000001907349</ele>
        <time>2020-06-14T09:32:17.000Z</time>
      </trkpt>
      <trkpt lat="47.34135" lon="-2.32435">
        <ele>7.8000001907349</ele>
        <time>2020-06-14T09:32:24.000Z</time>
      </trkpt>
      <trkpt lat="47.34126" lon="-2.32408">
        <ele>7.8000001907349</ele>
        <time>2020-06-14T09:32:31.000Z</time>
      </trkpt>
      <trkpt lat="47.3412" lon="-2.32381">
        <ele>7.8000001907349</ele>
        <time>2020-06-14T09:32:36.000Z</time>
      </trkpt>
      <trkpt lat="47.34111" lon="-2.32353">
        <ele>7.8000001907349</ele>
        <time>2020-06-14T09:32:42.000Z</time>
      </trkpt>
      <trkpt lat="47.34108" lon="-2.32347">
        <ele>7.1999998092651</ele>
        <time>2020-06-14T09:32:43.000Z</time>
      </trkpt>
      <trkpt lat="47.34106" lon="-2.32342">
        <ele>6.8000001907349</ele>
        <time>2020-06-14T09:32:44.000Z</time>
      </trkpt>
      <trkpt lat="47.34104" lon="-2.32336">
        <ele>6.4000000953674</ele>
        <time>2020-06-14T09:32:45.000Z</time>
      </trkpt>
      <trkpt lat="47.34101" lon="-2.3233">
        <ele>5.4000000953674</ele>
        <time>2020-06-14T09:32:46.000Z</time>
      </trkpt>
      <trkpt lat="47.34097" lon="-2.32317">
        <ele>5.4000000953674</ele>
        <time>2020-06-14T09:32:48.000Z</time>
      </trkpt>
      <trkpt lat="47.34081" lon="-2.32263">
        <ele>5.4000000953674</ele>
        <time>2020-06-14T09:32:55.000Z</time>
      </trkpt>
      <trkpt lat="47.3407" lon="-2.32238">
        <ele>5.4000000953674</ele>
        <time>2020-06-14T09:32:58.000Z</time>
      </trkpt>
      <trkpt lat="47.34065" lon="-2.32232">
        <ele>5</ele>
        <time>2020-06-14T09:32:59.000Z</time>
      </trkpt>
      <trkpt lat="47.34059" lon="-2.32228">
        <ele>4.5999999046326</ele>
        <time>2020-06-14T09:33:00.000Z</time>
      </trkpt>
      <trkpt lat="47.34053" lon="-2.32225">
        <ele>4.1999998092651</ele>
        <time>2020-06-14T09:33:01.000Z</time>
      </trkpt>
      <trkpt lat="47.34046" lon="-2.32224">
        <ele>3.5999999046326</ele>
        <time>2020-06-14T09:33:02.000Z</time>
      </trkpt>
      <trkpt lat="47.3404" lon="-2.32223">
        <ele>3.2000000476837</ele>
        <time>2020-06-14T09:33:03.000Z</time>
      </trkpt>
      <trkpt lat="47.34034" lon="-2.32222">
        <ele>3.2000000476837</ele>
        <time>2020-06-14T09:33:04.000Z</time>
      </trkpt>
      <trkpt lat="47.34016" lon="-2.32221">
        <ele>3.2000000476837</ele>
        <time>2020-06-14T09:33:07.000Z</time>
      </trkpt>
      <trkpt lat="47.33977" lon="-2.32223">
        <ele>3.2000000476837</ele>
        <time>2020-06-14T09:33:14.000Z</time>
      </trkpt>
      <trkpt lat="47.33955" lon="-2.32219">
        <ele>3.2000000476837</ele>
        <time>2020-06-14T09:33:18.000Z</time>
      </trkpt>
      <trkpt lat="47.3395" lon="-2.32214">
        <ele>3.2000000476837</ele>
        <time>2020-06-14T09:33:19.000Z</time>
      </trkpt>
      <trkpt lat="47.33922" lon="-2.32202">
        <ele>3.2000000476837</ele>
        <time>2020-06-14T09:33:24.000Z</time>
      </trkpt>
      <trkpt lat="47.3391" lon="-2.32203">
        <ele>3.2000000476837</ele>
        <time>2020-06-14T09:33:26.000Z</time>
      </trkpt>
      <trkpt lat="47.33885" lon="-2.32202">
        <ele>3.2000000476837</ele>
        <time>2020-06-14T09:33:30.000Z</time>
      </trkpt>
      <trkpt lat="47.33844" lon="-2.32205">
        <ele>3.2000000476837</ele>
        <time>2020-06-14T09:33:36.000Z</time>
      </trkpt>
      <trkpt lat="47.33803" lon="-2.32211">
        <ele>3.2000000476837</ele>
        <time>2020-06-14T09:33:42.000Z</time>
      </trkpt>
      <trkpt lat="47.33752" lon="-2.32225">
        <ele>3.2000000476837</ele>
        <time>2020-06-14T09:33:49.000Z</time>
      </trkpt>
      <trkpt lat="47.33709" lon="-2.32246">
        <ele>3.2000000476837</ele>
        <time>2020-06-14T09:33:55.000Z</time>
      </trkpt>
      <trkpt lat="47.33702" lon="-2.3225">
        <ele>3.5999999046326</ele>
        <time>2020-06-14T09:33:56.000Z</time>
      </trkpt>
      <trkpt lat="47.33695" lon="-2.32254">
        <ele>4</ele>
        <time>2020-06-14T09:33:57.000Z</time>
      </trkpt>
      <trkpt lat="47.33689" lon="-2.32258">
        <ele>4.4000000953674</ele>
        <time>2020-06-14T09:33:58.000Z</time>
      </trkpt>
      <trkpt lat="47.33682" lon="-2.32263">
        <ele>4.8000001907349</ele>
        <time>2020-06-14T09:33:59.000Z</time>
      </trkpt>
      <trkpt lat="47.33675" lon="-2.32267">
        <ele>5.1999998092651</ele>
        <time>2020-06-14T09:34:00.000Z</time>
      </trkpt>
      <trkpt lat="47.33654" lon="-2.32277">
        <ele>5.1999998092651</ele>
        <time>2020-06-14T09:34:03.000Z</time>
      </trkpt>
      <trkpt lat="47.33641" lon="-2.32281">
        <ele>5.1999998092651</ele>
        <time>2020-06-14T09:34:05.000Z</time>
      </trkpt>
      <trkpt lat="47.33586" lon="-2.3229">
        <ele>5.1999998092651</ele>
        <time>2020-06-14T09:34:12.000Z</time>
      </trkpt>
      <trkpt lat="47.33541" lon="-2.32301">
        <ele>5.1999998092651</ele>
        <time>2020-06-14T09:34:18.000Z</time>
      </trkpt>
      <trkpt lat="47.33511" lon="-2.32308">
        <ele>5.1999998092651</ele>
        <time>2020-06-14T09:34:22.000Z</time>
      </trkpt>
      <trkpt lat="47.33504" lon="-2.32311">
        <ele>4.8000001907349</ele>
        <time>2020-06-14T09:34:23.000Z</time>
      </trkpt>
      <trkpt lat="47.33497" lon="-2.32315">
        <ele>4</ele>
        <time>2020-06-14T09:34:24.000Z</time>
      </trkpt>
      <trkpt lat="47.3349" lon="-2.32318">
        <ele>3.5999999046326</ele>
        <time>2020-06-14T09:34:25.000Z</time>
      </trkpt>
      <trkpt lat="47.33483" lon="-2.32322">
        <ele>3</ele>
        <time>2020-06-14T09:34:26.000Z</time>
      </trkpt>
      <trkpt lat="47.33457" lon="-2.32337">
        <ele>3</ele>
        <time>2020-06-14T09:34:30.000Z</time>
      </trkpt>
      <trkpt lat="47.33422" lon="-2.32364">
        <ele>3</ele>
        <time>2020-06-14T09:34:36.000Z</time>
      </trkpt>
      <trkpt lat="47.33389" lon="-2.32393">
        <ele>3</ele>
        <time>2020-06-14T09:34:42.000Z</time>
      </trkpt>
      <trkpt lat="47.33354" lon="-2.32426">
        <ele>3</ele>
        <time>2020-06-14T09:34:49.000Z</time>
      </trkpt>
      <trkpt lat="47.33337" lon="-2.32449">
        <ele>3</ele>
        <time>2020-06-14T09:34:54.000Z</time>
      </trkpt>
      <trkpt lat="47.33329" lon="-2.32455">
        <ele>3</ele>
        <time>2020-06-14T09:34:56.000Z</time>
      </trkpt>
      <trkpt lat="47.3332" lon="-2.32459">
        <ele>3</ele>
        <time>2020-06-14T09:34:58.000Z</time>
      </trkpt>
      <trkpt lat="47.3331" lon="-2.32463">
        <ele>3</ele>
        <time>2020-06-14T09:35:00.000Z</time>
      </trkpt>
      <trkpt lat="47.33289" lon="-2.32474">
        <ele>3</ele>
        <time>2020-06-14T09:35:04.000Z</time>
      </trkpt>
      <trkpt lat="47.33255" lon="-2.32489">
        <ele>3</ele>
        <time>2020-06-14T09:35:10.000Z</time>
      </trkpt>
      <trkpt lat="47.33211" lon="-2.32508">
        <ele>3</ele>
        <time>2020-06-14T09:35:17.000Z</time>
      </trkpt>
      <trkpt lat="47.33165" lon="-2.32529">
        <ele>3</ele>
        <time>2020-06-14T09:35:24.000Z</time>
      </trkpt>
      <trkpt lat="47.33122" lon="-2.32559">
        <ele>3</ele>
        <time>2020-06-14T09:35:30.000Z</time>
      </trkpt>
      <trkpt lat="47.33075" lon="-2.32603">
        <ele>3</ele>
        <time>2020-06-14T09:35:37.000Z</time>
      </trkpt>
      <trkpt lat="47.3304" lon="-2.32632">
        <ele>2.5999999046326</ele>
        <time>2020-06-14T09:35:42.000Z</time>
      </trkpt>
      <trkpt lat="47.33033" lon="-2.32636">
        <ele>2.2000000476837</ele>
        <time>2020-06-14T09:35:43.000Z</time>
      </trkpt>
      <trkpt lat="47.33026" lon="-2.32638">
        <ele>1.7999999523163</ele>
        <time>2020-06-14T09:35:44.000Z</time>
      </trkpt>
      <trkpt lat="47.33019" lon="-2.32639">
        <ele>1.3999999761581</ele>
        <time>2020-06-14T09:35:45.000Z</time>
      </trkpt>
      <trkpt lat="47.33012" lon="-2.32636">
        <ele>1</ele>
        <time>2020-06-14T09:35:46.000Z</time>
      </trkpt>
      <trkpt lat="47.32999" lon="-2.32628">
        <ele>1</ele>
        <time>2020-06-14T09:35:48.000Z</time>
      </trkpt>
      <trkpt lat="47.32992" lon="-2.32628">
        <ele>1</ele>
        <time>2020-06-14T09:35:49.000Z</time>
      </trkpt>
      <trkpt lat="47.32985" lon="-2.3263">
        <ele>1</ele>
        <time>2020-06-14T09:35:50.000Z</time>
      </trkpt>
      <trkpt lat="47.32967" lon="-2.32643">
        <ele>1</ele>
        <time>2020-06-14T09:35:53.000Z</time>
      </trkpt>
      <trkpt lat="47.32949" lon="-2.32648">
        <ele>1</ele>
        <time>2020-06-14T09:35:56.000Z</time>
      </trkpt>
      <trkpt lat="47.32943" lon="-2.3265">
        <ele>1</ele>
        <time>2020-06-14T09:35:57.000Z</time>
      </trkpt>
      <trkpt lat="47.32931" lon="-2.3265">
        <ele>1</ele>
        <time>2020-06-14T09:35:59.000Z</time>
      </trkpt>
      <trkpt lat="47.3292" lon="-2.32643">
        <ele>1</ele>
        <time>2020-06-14T09:36:01.000Z</time>
      </trkpt>
      <trkpt lat="47.32912" lon="-2.32626">
        <ele>1</ele>
        <time>2020-06-14T09:36:04.000Z</time>
      </trkpt>
      <trkpt lat="47.32911" lon="-2.32592">
        <ele>1</ele>
        <time>2020-06-14T09:36:08.000Z</time>
      </trkpt>
      <trkpt lat="47.32905" lon="-2.32528">
        <ele>1</ele>
        <time>2020-06-14T09:36:15.000Z</time>
      </trkpt>
      <trkpt lat="47.32893" lon="-2.32475">
        <ele>1.3999999761581</ele>
        <time>2020-06-14T09:36:20.000Z</time>
      </trkpt>
      <trkpt lat="47.32889" lon="-2.32465">
        <ele>1.7999999523163</ele>
        <time>2020-06-14T09:36:21.000Z</time>
      </trkpt>
      <trkpt lat="47.32884" lon="-2.32458">
        <ele>2.2000000476837</ele>
        <time>2020-06-14T09:36:22.000Z</time>
      </trkpt>
      <trkpt lat="47.32877" lon="-2.32453">
        <ele>2.5999999046326</ele>
        <time>2020-06-14T09:36:23.000Z</time>
      </trkpt>
      <trkpt lat="47.32871" lon="-2.32449">
        <ele>3</ele>
        <time>2020-06-14T09:36:24.000Z</time>
      </trkpt>
      <trkpt lat="47.32864" lon="-2.32445">
        <ele>3</ele>
        <time>2020-06-14T09:36:25.000Z</time>
      </trkpt>
      <trkpt lat="47.32832" lon="-2.32421">
        <ele>3</ele>
        <time>2020-06-14T09:36:30.000Z</time>
      </trkpt>
      <trkpt lat="47.32825" lon="-2.32415">
        <ele>3.4000000953674</ele>
        <time>2020-06-14T09:36:31.000Z</time>
      </trkpt>
      <trkpt lat="47.32818" lon="-2.32409">
        <ele>3.7999999523163</ele>
        <time>2020-06-14T09:36:32.000Z</time>
      </trkpt>
      <trkpt lat="47.32812" lon="-2.32403">
        <ele>4.4000000953674</ele>
        <time>2020-06-14T09:36:33.000Z</time>
      </trkpt>
      <trkpt lat="47.32805" lon="-2.32397">
        <ele>4.8000001907349</ele>
        <time>2020-06-14T09:36:34.000Z</time>
      </trkpt>
      <trkpt lat="47.32799" lon="-2.3239">
        <ele>4.4000000953674</ele>
        <time>2020-06-14T09:36:35.000Z</time>
      </trkpt>
      <trkpt lat="47.32792" lon="-2.32384">
        <ele>4</ele>
        <time>2020-06-14T09:36:36.000Z</time>
      </trkpt>
      <trkpt lat="47.32785" lon="-2.32378">
        <ele>3.5999999046326</ele>
        <time>2020-06-14T09:36:37.000Z</time>
      </trkpt>
      <trkpt lat="47.32778" lon="-2.32373">
        <ele>3.4000000953674</ele>
        <time>2020-06-14T09:36:38.000Z</time>
      </trkpt>
      <trkpt lat="47.3277" lon="-2.32369">
        <ele>3</ele>
        <time>2020-06-14T09:36:39.000Z</time>
      </trkpt>
      <trkpt lat="47.32744" lon="-2.32353">
        <ele>3.4000000953674</ele>
        <time>2020-06-14T09:36:43.000Z</time>
      </trkpt>
      <trkpt lat="47.32737" lon="-2.32349">
        <ele>3.7999999523163</ele>
        <time>2020-06-14T09:36:44.000Z</time>
      </trkpt>
      <trkpt lat="47.32731" lon="-2.32345">
        <ele>4.1999998092651</ele>
        <time>2020-06-14T09:36:45.000Z</time>
      </trkpt>
      <trkpt lat="47.32725" lon="-2.32342">
        <ele>4.5999999046326</ele>
        <time>2020-06-14T09:36:46.000Z</time>
      </trkpt>
      <trkpt lat="47.32719" lon="-2.32338">
        <ele>5</ele>
        <time>2020-06-14T09:36:47.000Z</time>
      </trkpt>
      <trkpt lat="47.32681" lon="-2.32322">
        <ele>5</ele>
        <time>2020-06-14T09:36:53.000Z</time>
      </trkpt>
      <trkpt lat="47.32668" lon="-2.32317">
        <ele>5</ele>
        <time>2020-06-14T09:36:55.000Z</time>
      </trkpt>
      <trkpt lat="47.3265" lon="-2.32313">
        <ele>5</ele>
        <time>2020-06-14T09:36:58.000Z</time>
      </trkpt>
      <trkpt lat="47.32619" lon="-2.32311">
        <ele>5.4000000953674</ele>
        <time>2020-06-14T09:37:03.000Z</time>
      </trkpt>
      <trkpt lat="47.32613" lon="-2.32311">
        <ele>5.8000001907349</ele>
        <time>2020-06-14T09:37:04.000Z</time>
      </trkpt>
      <trkpt lat="47.32606" lon="-2.32311">
        <ele>6.1999998092651</ele>
        <time>2020-06-14T09:37:05.000Z</time>
      </trkpt>
      <trkpt lat="47.326" lon="-2.32311">
        <ele>6.5999999046326</ele>
        <time>2020-06-14T09:37:06.000Z</time>
      </trkpt>
      <trkpt lat="47.32595" lon="-2.32312">
        <ele>7.1999998092651</ele>
        <time>2020-06-14T09:37:07.000Z</time>
      </trkpt>
      <trkpt lat="47.32575" lon="-2.32314">
        <ele>7.1999998092651</ele>
        <time>2020-06-14T09:37:11.000Z</time>
      </trkpt>
      <trkpt lat="47.32558" lon="-2.32315">
        <ele>7.1999998092651</ele>
        <time>2020-06-14T09:37:16.000Z</time>
      </trkpt>
      <trkpt lat="47.32542" lon="-2.32316">
        <ele>7.1999998092651</ele>
        <time>2020-06-14T09:37:22.000Z</time>
      </trkpt>
      <trkpt lat="47.32535" lon="-2.3231">
        <ele>7.1999998092651</ele>
        <time>2020-06-14T09:37:25.000Z</time>
      </trkpt>
      <trkpt lat="47.32534" lon="-2.32306">
        <ele>7.1999998092651</ele>
        <time>2020-06-14T09:37:26.000Z</time>
      </trkpt>
      <trkpt lat="47.32538" lon="-2.32282">
        <ele>6.5999999046326</ele>
        <time>2020-06-14T09:37:30.000Z</time>
      </trkpt>
      <trkpt lat="47.3254" lon="-2.32274">
        <ele>6</ele>
        <time>2020-06-14T09:37:31.000Z</time>
      </trkpt>
      <trkpt lat="47.32542" lon="-2.32265">
        <ele>5.5999999046326</ele>
        <time>2020-06-14T09:37:32.000Z</time>
      </trkpt>
      <trkpt lat="47.32545" lon="-2.32257">
        <ele>5</ele>
        <time>2020-06-14T09:37:33.000Z</time>
      </trkpt>
      <trkpt lat="47.32548" lon="-2.32247">
        <ele>4.5999999046326</ele>
        <time>2020-06-14T09:37:34.000Z</time>
      </trkpt>
      <trkpt lat="47.32551" lon="-2.32237">
        <ele>4</ele>
        <time>2020-06-14T09:37:35.000Z</time>
      </trkpt>
      <trkpt lat="47.32554" lon="-2.32227">
        <ele>3.5999999046326</ele>
        <time>2020-06-14T09:37:36.000Z</time>
      </trkpt>
      <trkpt lat="47.32557" lon="-2.32217">
        <ele>3</ele>
        <time>2020-06-14T09:37:37.000Z</time>
      </trkpt>
      <trkpt lat="47.3256" lon="-2.32208">
        <ele>2.4000000953674</ele>
        <time>2020-06-14T09:37:38.000Z</time>
      </trkpt>
      <trkpt lat="47.32568" lon="-2.3218">
        <ele>2.4000000953674</ele>
        <time>2020-06-14T09:37:41.000Z</time>
      </trkpt>
      <trkpt lat="47.3258" lon="-2.32138">
        <ele>2.4000000953674</ele>
        <time>2020-06-14T09:37:47.000Z</time>
      </trkpt>
      <trkpt lat="47.32585" lon="-2.32119">
        <ele>2.4000000953674</ele>
        <time>2020-06-14T09:37:50.000Z</time>
      </trkpt>
      <trkpt lat="47.32585" lon="-2.32102">
        <ele>2.4000000953674</ele>
        <time>2020-06-14T09:37:53.000Z</time>
      </trkpt>
      <trkpt lat="47.3258" lon="-2.32095">
        <ele>3</ele>
        <time>2020-06-14T09:37:55.000Z</time>
      </trkpt>
      <trkpt lat="47.32576" lon="-2.32094">
        <ele>3.4000000953674</ele>
        <time>2020-06-14T09:37:56.000Z</time>
      </trkpt>
      <trkpt lat="47.32573" lon="-2.32093">
        <ele>3.7999999523163</ele>
        <time>2020-06-14T09:37:57.000Z</time>
      </trkpt>
      <trkpt lat="47.32568" lon="-2.32093">
        <ele>4.1999998092651</ele>
        <time>2020-06-14T09:37:58.000Z</time>
      </trkpt>
      <trkpt lat="47.32563" lon="-2.32094">
        <ele>4.5999999046326</ele>
        <time>2020-06-14T09:37:59.000Z</time>
      </trkpt>
      <trkpt lat="47.32557" lon="-2.32094">
        <ele>4.5999999046326</ele>
        <time>2020-06-14T09:38:00.000Z</time>
      </trkpt>
      <trkpt lat="47.32536" lon="-2.32094">
        <ele>4.5999999046326</ele>
        <time>2020-06-14T09:38:04.000Z</time>
      </trkpt>
      <trkpt lat="47.32527" lon="-2.32095">
        <ele>4.5999999046326</ele>
        <time>2020-06-14T09:38:06.000Z</time>
      </trkpt>
      <trkpt lat="47.32508" lon="-2.32098">
        <ele>4.5999999046326</ele>
        <time>2020-06-14T09:38:11.000Z</time>
      </trkpt>
      <trkpt lat="47.32498" lon="-2.32095">
        <ele>4.5999999046326</ele>
        <time>2020-06-14T09:38:15.000Z</time>
      </trkpt>
      <trkpt lat="47.32497" lon="-2.32093">
        <ele>4.5999999046326</ele>
        <time>2020-06-14T09:38:16.000Z</time>
      </trkpt>
      <trkpt lat="47.32496" lon="-2.32093">
        <ele>4.5999999046326</ele>
        <time>2020-06-14T09:38:18.000Z</time>
      </trkpt>
      <trkpt lat="47.32496" lon="-2.3209">
        <ele>4.5999999046326</ele>
        <time>2020-06-14T09:38:20.000Z</time>
      </trkpt>
      <trkpt lat="47.32496" lon="-2.32087">
        <ele>4.5999999046326</ele>
        <time>2020-06-14T09:38:21.000Z</time>
      </trkpt>
      <trkpt lat="47.32499" lon="-2.32066">
        <ele>4.5999999046326</ele>
        <time>2020-06-14T09:38:27.000Z</time>
      </trkpt>
      <trkpt lat="47.325" lon="-2.32046">
        <ele>4.5999999046326</ele>
        <time>2020-06-14T09:38:32.000Z</time>
      </trkpt>
      <trkpt lat="47.32501" lon="-2.32031">
        <ele>4.5999999046326</ele>
        <time>2020-06-14T09:38:38.000Z</time>
      </trkpt>
      <trkpt lat="47.32502" lon="-2.32014">
        <ele>4.5999999046326</ele>
        <time>2020-06-14T09:38:44.000Z</time>
      </trkpt>
      <trkpt lat="47.32504" lon="-2.31983">
        <ele>4.5999999046326</ele>
        <time>2020-06-14T09:38:51.000Z</time>
      </trkpt>
      <trkpt lat="47.32508" lon="-2.31944">
        <ele>4.5999999046326</ele>
        <time>2020-06-14T09:38:57.000Z</time>
      </trkpt>
      <trkpt lat="47.32513" lon="-2.31894">
        <ele>4.5999999046326</ele>
        <time>2020-06-14T09:39:04.000Z</time>
      </trkpt>
      <trkpt lat="47.32516" lon="-2.31861">
        <ele>5</ele>
        <time>2020-06-14T09:39:08.000Z</time>
      </trkpt>
      <trkpt lat="47.32516" lon="-2.31852">
        <ele>5.4000000953674</ele>
        <time>2020-06-14T09:39:09.000Z</time>
      </trkpt>
      <trkpt lat="47.32517" lon="-2.31842">
        <ele>5.8000001907349</ele>
        <time>2020-06-14T09:39:10.000Z</time>
      </trkpt>
      <trkpt lat="47.32515" lon="-2.31833">
        <ele>6.1999998092651</ele>
        <time>2020-06-14T09:39:11.000Z</time>
      </trkpt>
      <trkpt lat="47.32515" lon="-2.31824">
        <ele>6.8000001907349</ele>
        <time>2020-06-14T09:39:12.000Z</time>
      </trkpt>
      <trkpt lat="47.32514" lon="-2.31807">
        <ele>6.8000001907349</ele>
        <time>2020-06-14T09:39:14.000Z</time>
      </trkpt>
      <trkpt lat="47.32511" lon="-2.31754">
        <ele>6.8000001907349</ele>
        <time>2020-06-14T09:39:20.000Z</time>
      </trkpt>
      <trkpt lat="47.32505" lon="-2.31696">
        <ele>6.8000001907349</ele>
        <time>2020-06-14T09:39:27.000Z</time>
      </trkpt>
      <trkpt lat="47.32504" lon="-2.3167">
        <ele>6.8000001907349</ele>
        <time>2020-06-14T09:39:30.000Z</time>
      </trkpt>
      <trkpt lat="47.32506" lon="-2.31655">
        <ele>6.8000001907349</ele>
        <time>2020-06-14T09:39:32.000Z</time>
      </trkpt>
      <trkpt lat="47.32519" lon="-2.3163">
        <ele>6.8000001907349</ele>
        <time>2020-06-14T09:39:36.000Z</time>
      </trkpt>
      <trkpt lat="47.32524" lon="-2.31625">
        <ele>6.8000001907349</ele>
        <time>2020-06-14T09:39:37.000Z</time>
      </trkpt>
      <trkpt lat="47.32551" lon="-2.31588">
        <ele>6.8000001907349</ele>
        <time>2020-06-14T09:39:44.000Z</time>
      </trkpt>
      <trkpt lat="47.32555" lon="-2.31579">
        <ele>6.8000001907349</ele>
        <time>2020-06-14T09:39:46.000Z</time>
      </trkpt>
      <trkpt lat="47.32555" lon="-2.31574">
        <ele>6.8000001907349</ele>
        <time>2020-06-14T09:39:47.000Z</time>
      </trkpt>
      <trkpt lat="47.32554" lon="-2.31559">
        <ele>6.8000001907349</ele>
        <time>2020-06-14T09:39:50.000Z</time>
      </trkpt>
      <trkpt lat="47.32553" lon="-2.3155">
        <ele>6.8000001907349</ele>
        <time>2020-06-14T09:39:52.000Z</time>
      </trkpt>
      <trkpt lat="47.32552" lon="-2.31532">
        <ele>6.8000001907349</ele>
        <time>2020-06-14T09:39:55.000Z</time>
      </trkpt>
      <trkpt lat="47.32552" lon="-2.31518">
        <ele>6.8000001907349</ele>
        <time>2020-06-14T09:39:57.000Z</time>
      </trkpt>
      <trkpt lat="47.32553" lon="-2.31511">
        <ele>6.8000001907349</ele>
        <time>2020-06-14T09:39:58.000Z</time>
      </trkpt>
      <trkpt lat="47.32553" lon="-2.31479">
        <ele>6.8000001907349</ele>
        <time>2020-06-14T09:40:03.000Z</time>
      </trkpt>
      <trkpt lat="47.3255" lon="-2.31455">
        <ele>6.8000001907349</ele>
        <time>2020-06-14T09:40:06.000Z</time>
      </trkpt>
      <trkpt lat="47.32549" lon="-2.3144">
        <ele>6.8000001907349</ele>
        <time>2020-06-14T09:40:08.000Z</time>
      </trkpt>
      <trkpt lat="47.32546" lon="-2.31413">
        <ele>6.8000001907349</ele>
        <time>2020-06-14T09:40:13.000Z</time>
      </trkpt>
      <trkpt lat="47.32549" lon="-2.31382">
        <ele>6.8000001907349</ele>
        <time>2020-06-14T09:40:18.000Z</time>
      </trkpt>
      <trkpt lat="47.32552" lon="-2.3134">
        <ele>6.8000001907349</ele>
        <time>2020-06-14T09:40:23.000Z</time>
      </trkpt>
      <trkpt lat="47.32555" lon="-2.31332">
        <ele>6.8000001907349</ele>
        <time>2020-06-14T09:40:24.000Z</time>
      </trkpt>
      <trkpt lat="47.32563" lon="-2.31309">
        <ele>6.8000001907349</ele>
        <time>2020-06-14T09:40:27.000Z</time>
      </trkpt>
      <trkpt lat="47.32565" lon="-2.31299">
        <ele>6.8000001907349</ele>
        <time>2020-06-14T09:40:28.000Z</time>
      </trkpt>
      <trkpt lat="47.32566" lon="-2.31279">
        <ele>6.8000001907349</ele>
        <time>2020-06-14T09:40:30.000Z</time>
      </trkpt>
      <trkpt lat="47.32568" lon="-2.31217">
        <ele>6.8000001907349</ele>
        <time>2020-06-14T09:40:36.000Z</time>
      </trkpt>
      <trkpt lat="47.3256" lon="-2.31203">
        <ele>6.8000001907349</ele>
        <time>2020-06-14T09:40:38.000Z</time>
      </trkpt>
      <trkpt lat="47.32554" lon="-2.3118">
        <ele>6.8000001907349</ele>
        <time>2020-06-14T09:40:41.000Z</time>
      </trkpt>
      <trkpt lat="47.32552" lon="-2.31171">
        <ele>6.8000001907349</ele>
        <time>2020-06-14T09:40:42.000Z</time>
      </trkpt>
      <trkpt lat="47.32552" lon="-2.31155">
        <ele>6.8000001907349</ele>
        <time>2020-06-14T09:40:44.000Z</time>
      </trkpt>
      <trkpt lat="47.32554" lon="-2.31137">
        <ele>6.8000001907349</ele>
        <time>2020-06-14T09:40:46.000Z</time>
      </trkpt>
      <trkpt lat="47.32561" lon="-2.31099">
        <ele>6.8000001907349</ele>
        <time>2020-06-14T09:40:51.000Z</time>
      </trkpt>
      <trkpt lat="47.32562" lon="-2.31089">
        <ele>6.8000001907349</ele>
        <time>2020-06-14T09:40:53.000Z</time>
      </trkpt>
      <trkpt lat="47.32566" lon="-2.31061">
        <ele>6.8000001907349</ele>
        <time>2020-06-14T09:40:58.000Z</time>
      </trkpt>
      <trkpt lat="47.32566" lon="-2.31055">
        <ele>6.8000001907349</ele>
        <time>2020-06-14T09:40:59.000Z</time>
      </trkpt>
      <trkpt lat="47.32561" lon="-2.31029">
        <ele>7.1999998092651</ele>
        <time>2020-06-14T09:41:03.000Z</time>
      </trkpt>
      <trkpt lat="47.32561" lon="-2.31023">
        <ele>7.5999999046326</ele>
        <time>2020-06-14T09:41:04.000Z</time>
      </trkpt>
      <trkpt lat="47.3256" lon="-2.31016">
        <ele>8</ele>
        <time>2020-06-14T09:41:05.000Z</time>
      </trkpt>
      <trkpt lat="47.3256" lon="-2.31009">
        <ele>8.3999996185303</ele>
        <time>2020-06-14T09:41:06.000Z</time>
      </trkpt>
      <trkpt lat="47.3256" lon="-2.31001">
        <ele>8.8000001907349</ele>
        <time>2020-06-14T09:41:07.000Z</time>
      </trkpt>
      <trkpt lat="47.3256" lon="-2.30984">
        <ele>8.8000001907349</ele>
        <time>2020-06-14T09:41:09.000Z</time>
      </trkpt>
      <trkpt lat="47.32561" lon="-2.30976">
        <ele>8.8000001907349</ele>
        <time>2020-06-14T09:41:10.000Z</time>
      </trkpt>
      <trkpt lat="47.32563" lon="-2.3093">
        <ele>8.8000001907349</ele>
        <time>2020-06-14T09:41:16.000Z</time>
      </trkpt>
      <trkpt lat="47.32564" lon="-2.30911">
        <ele>8.8000001907349</ele>
        <time>2020-06-14T09:41:18.000Z</time>
      </trkpt>
      <trkpt lat="47.32565" lon="-2.3089">
        <ele>8.8000001907349</ele>
        <time>2020-06-14T09:41:20.000Z</time>
      </trkpt>
      <trkpt lat="47.32562" lon="-2.30826">
        <ele>8.8000001907349</ele>
        <time>2020-06-14T09:41:26.000Z</time>
      </trkpt>
      <trkpt lat="47.32554" lon="-2.30757">
        <ele>8.8000001907349</ele>
        <time>2020-06-14T09:41:33.000Z</time>
      </trkpt>
      <trkpt lat="47.32544" lon="-2.30696">
        <ele>8.8000001907349</ele>
        <time>2020-06-14T09:41:39.000Z</time>
      </trkpt>
      <trkpt lat="47.32537" lon="-2.30639">
        <ele>8.8000001907349</ele>
        <time>2020-06-14T09:41:45.000Z</time>
      </trkpt>
      <trkpt lat="47.32534" lon="-2.30631">
        <ele>8.8000001907349</ele>
        <time>2020-06-14T09:41:46.000Z</time>
      </trkpt>
      <trkpt lat="47.32529" lon="-2.30607">
        <ele>8.8000001907349</ele>
        <time>2020-06-14T09:41:49.000Z</time>
      </trkpt>
      <trkpt lat="47.32527" lon="-2.30591">
        <ele>8.8000001907349</ele>
        <time>2020-06-14T09:41:51.000Z</time>
      </trkpt>
      <trkpt lat="47.32524" lon="-2.30568">
        <ele>8.8000001907349</ele>
        <time>2020-06-14T09:41:54.000Z</time>
      </trkpt>
      <trkpt lat="47.3252" lon="-2.30546">
        <ele>8.8000001907349</ele>
        <time>2020-06-14T09:41:57.000Z</time>
      </trkpt>
      <trkpt lat="47.32517" lon="-2.30521">
        <ele>8.8000001907349</ele>
        <time>2020-06-14T09:42:00.000Z</time>
      </trkpt>
      <trkpt lat="47.32506" lon="-2.30464">
        <ele>8.8000001907349</ele>
        <time>2020-06-14T09:42:07.000Z</time>
      </trkpt>
      <trkpt lat="47.32499" lon="-2.30419">
        <ele>8.8000001907349</ele>
        <time>2020-06-14T09:42:13.000Z</time>
      </trkpt>
      <trkpt lat="47.32512" lon="-2.3041">
        <ele>8.8000001907349</ele>
        <time>2020-06-14T09:42:16.000Z</time>
      </trkpt>
      <trkpt lat="47.32518" lon="-2.30408">
        <ele>8.8000001907349</ele>
        <time>2020-06-14T09:42:17.000Z</time>
      </trkpt>
      <trkpt lat="47.32538" lon="-2.30397">
        <ele>8.8000001907349</ele>
        <time>2020-06-14T09:42:21.000Z</time>
      </trkpt>
      <trkpt lat="47.32541" lon="-2.30392">
        <ele>8.8000001907349</ele>
        <time>2020-06-14T09:42:22.000Z</time>
      </trkpt>
      <trkpt lat="47.32538" lon="-2.30373">
        <ele>8.8000001907349</ele>
        <time>2020-06-14T09:42:25.000Z</time>
      </trkpt>
      <trkpt lat="47.32535" lon="-2.30354">
        <ele>8.8000001907349</ele>
        <time>2020-06-14T09:42:28.000Z</time>
      </trkpt>
      <trkpt lat="47.32532" lon="-2.30341">
        <ele>8.8000001907349</ele>
        <time>2020-06-14T09:42:30.000Z</time>
      </trkpt>
      <trkpt lat="47.32528" lon="-2.30318">
        <ele>8.8000001907349</ele>
        <time>2020-06-14T09:42:33.000Z</time>
      </trkpt>
      <trkpt lat="47.32525" lon="-2.30303">
        <ele>8.8000001907349</ele>
        <time>2020-06-14T09:42:35.000Z</time>
      </trkpt>
      <trkpt lat="47.32523" lon="-2.30296">
        <ele>9.1999998092651</ele>
        <time>2020-06-14T09:42:36.000Z</time>
      </trkpt>
      <trkpt lat="47.32522" lon="-2.30289">
        <ele>9.8000001907349</ele>
        <time>2020-06-14T09:42:37.000Z</time>
      </trkpt>
      <trkpt lat="47.3252" lon="-2.30281">
        <ele>10.199999809265</ele>
        <time>2020-06-14T09:42:38.000Z</time>
      </trkpt>
      <trkpt lat="47.32519" lon="-2.30273">
        <ele>11</ele>
        <time>2020-06-14T09:42:39.000Z</time>
      </trkpt>
      <trkpt lat="47.32515" lon="-2.3025">
        <ele>11</ele>
        <time>2020-06-14T09:42:42.000Z</time>
      </trkpt>
      <trkpt lat="47.32507" lon="-2.3019">
        <ele>11</ele>
        <time>2020-06-14T09:42:49.000Z</time>
      </trkpt>
      <trkpt lat="47.32503" lon="-2.30165">
        <ele>11</ele>
        <time>2020-06-14T09:42:52.000Z</time>
      </trkpt>
      <trkpt lat="47.32501" lon="-2.30147">
        <ele>11</ele>
        <time>2020-06-14T09:42:54.000Z</time>
      </trkpt>
      <trkpt lat="47.325" lon="-2.30138">
        <ele>11.39999961853</ele>
        <time>2020-06-14T09:42:55.000Z</time>
      </trkpt>
      <trkpt lat="47.32499" lon="-2.3013">
        <ele>11.800000190735</ele>
        <time>2020-06-14T09:42:56.000Z</time>
      </trkpt>
      <trkpt lat="47.32498" lon="-2.30122">
        <ele>12.199999809265</ele>
        <time>2020-06-14T09:42:57.000Z</time>
      </trkpt>
      <trkpt lat="47.32497" lon="-2.30114">
        <ele>12.60000038147</ele>
        <time>2020-06-14T09:42:58.000Z</time>
      </trkpt>
      <trkpt lat="47.32495" lon="-2.30105">
        <ele>13</ele>
        <time>2020-06-14T09:42:59.000Z</time>
      </trkpt>
      <trkpt lat="47.32494" lon="-2.30097">
        <ele>13</ele>
        <time>2020-06-14T09:43:00.000Z</time>
      </trkpt>
      <trkpt lat="47.32494" lon="-2.30089">
        <ele>13</ele>
        <time>2020-06-14T09:43:01.000Z</time>
      </trkpt>
      <trkpt lat="47.32494" lon="-2.30073">
        <ele>13</ele>
        <time>2020-06-14T09:43:03.000Z</time>
      </trkpt>
      <trkpt lat="47.32492" lon="-2.3006">
        <ele>13</ele>
        <time>2020-06-14T09:43:05.000Z</time>
      </trkpt>
      <trkpt lat="47.32482" lon="-2.30028">
        <ele>13</ele>
        <time>2020-06-14T09:43:10.000Z</time>
      </trkpt>
      <trkpt lat="47.32472" lon="-2.29999">
        <ele>13</ele>
        <time>2020-06-14T09:43:15.000Z</time>
      </trkpt>
      <trkpt lat="47.32469" lon="-2.29993">
        <ele>13</ele>
        <time>2020-06-14T09:43:16.000Z</time>
      </trkpt>
      <trkpt lat="47.3246" lon="-2.29979">
        <ele>13</ele>
        <time>2020-06-14T09:43:19.000Z</time>
      </trkpt>
      <trkpt lat="47.32455" lon="-2.29971">
        <ele>13</ele>
        <time>2020-06-14T09:43:21.000Z</time>
      </trkpt>
      <trkpt lat="47.32442" lon="-2.2995">
        <ele>13</ele>
        <time>2020-06-14T09:43:27.000Z</time>
      </trkpt>
      <trkpt lat="47.32447" lon="-2.29936">
        <ele>13</ele>
        <time>2020-06-14T09:43:31.000Z</time>
      </trkpt>
      <trkpt lat="47.32447" lon="-2.29918">
        <ele>13</ele>
        <time>2020-06-14T09:43:35.000Z</time>
      </trkpt>
      <trkpt lat="47.32446" lon="-2.29913">
        <ele>13</ele>
        <time>2020-06-14T09:43:36.000Z</time>
      </trkpt>
      <trkpt lat="47.32442" lon="-2.29883">
        <ele>13</ele>
        <time>2020-06-14T09:43:42.000Z</time>
      </trkpt>
      <trkpt lat="47.32445" lon="-2.29864">
        <ele>13</ele>
        <time>2020-06-14T09:43:47.000Z</time>
      </trkpt>
      <trkpt lat="47.32449" lon="-2.29861">
        <ele>13</ele>
        <time>2020-06-14T09:43:49.000Z</time>
      </trkpt>
      <trkpt lat="47.32457" lon="-2.29853">
        <ele>13</ele>
        <time>2020-06-14T09:43:52.000Z</time>
      </trkpt>
      <trkpt lat="47.32467" lon="-2.29844">
        <ele>13</ele>
        <time>2020-06-14T09:43:56.000Z</time>
      </trkpt>
      <trkpt lat="47.32478" lon="-2.29834">
        <ele>13</ele>
        <time>2020-06-14T09:44:00.000Z</time>
      </trkpt>
      <trkpt lat="47.32502" lon="-2.29812">
        <ele>13</ele>
        <time>2020-06-14T09:44:06.000Z</time>
      </trkpt>
      <trkpt lat="47.32524" lon="-2.29792">
        <ele>13</ele>
        <time>2020-06-14T09:44:12.000Z</time>
      </trkpt>
      <trkpt lat="47.32524" lon="-2.29774">
        <ele>13</ele>
        <time>2020-06-14T09:44:15.000Z</time>
      </trkpt>
      <trkpt lat="47.32517" lon="-2.2975">
        <ele>13</ele>
        <time>2020-06-14T09:44:19.000Z</time>
      </trkpt>
      <trkpt lat="47.32515" lon="-2.29743">
        <ele>13</ele>
        <time>2020-06-14T09:44:20.000Z</time>
      </trkpt>
      <trkpt lat="47.32501" lon="-2.29693">
        <ele>13</ele>
        <time>2020-06-14T09:44:27.000Z</time>
      </trkpt>
      <trkpt lat="47.32488" lon="-2.29649">
        <ele>13</ele>
        <time>2020-06-14T09:44:32.000Z</time>
      </trkpt>
      <trkpt lat="47.32477" lon="-2.29609">
        <ele>12.60000038147</ele>
        <time>2020-06-14T09:44:36.000Z</time>
      </trkpt>
      <trkpt lat="47.32474" lon="-2.29599">
        <ele>12</ele>
        <time>2020-06-14T09:44:37.000Z</time>
      </trkpt>
      <trkpt lat="47.32471" lon="-2.2959">
        <ele>11.60000038147</ele>
        <time>2020-06-14T09:44:38.000Z</time>
      </trkpt>
      <trkpt lat="47.32468" lon="-2.29579">
        <ele>11</ele>
        <time>2020-06-14T09:44:39.000Z</time>
      </trkpt>
      <trkpt lat="47.32465" lon="-2.29569">
        <ele>10.60000038147</ele>
        <time>2020-06-14T09:44:40.000Z</time>
      </trkpt>
      <trkpt lat="47.32461" lon="-2.29557">
        <ele>10.199999809265</ele>
        <time>2020-06-14T09:44:41.000Z</time>
      </trkpt>
      <trkpt lat="47.32458" lon="-2.29547">
        <ele>9.8000001907349</ele>
        <time>2020-06-14T09:44:42.000Z</time>
      </trkpt>
      <trkpt lat="47.32455" lon="-2.29537">
        <ele>8.8000001907349</ele>
        <time>2020-06-14T09:44:43.000Z</time>
      </trkpt>
      <trkpt lat="47.32453" lon="-2.29529">
        <ele>8.3999996185303</ele>
        <time>2020-06-14T09:44:44.000Z</time>
      </trkpt>
      <trkpt lat="47.32445" lon="-2.29503">
        <ele>8</ele>
        <time>2020-06-14T09:44:47.000Z</time>
      </trkpt>
      <trkpt lat="47.32443" lon="-2.29496">
        <ele>7.5999999046326</ele>
        <time>2020-06-14T09:44:48.000Z</time>
      </trkpt>
      <trkpt lat="47.32442" lon="-2.29489">
        <ele>7.1999998092651</ele>
        <time>2020-06-14T09:44:49.000Z</time>
      </trkpt>
      <trkpt lat="47.3244" lon="-2.29482">
        <ele>6.8000001907349</ele>
        <time>2020-06-14T09:44:50.000Z</time>
      </trkpt>
      <trkpt lat="47.32438" lon="-2.29476">
        <ele>6.1999998092651</ele>
        <time>2020-06-14T09:44:51.000Z</time>
      </trkpt>
      <trkpt lat="47.32437" lon="-2.29469">
        <ele>5.8000001907349</ele>
        <time>2020-06-14T09:44:52.000Z</time>
      </trkpt>
      <trkpt lat="47.32435" lon="-2.29462">
        <ele>5.1999998092651</ele>
        <time>2020-06-14T09:44:53.000Z</time>
      </trkpt>
      <trkpt lat="47.32434" lon="-2.29455">
        <ele>4.8000001907349</ele>
        <time>2020-06-14T09:44:54.000Z</time>
      </trkpt>
      <trkpt lat="47.32433" lon="-2.29448">
        <ele>4.1999998092651</ele>
        <time>2020-06-14T09:44:55.000Z</time>
      </trkpt>
      <trkpt lat="47.32433" lon="-2.29434">
        <ele>4.1999998092651</ele>
        <time>2020-06-14T09:44:57.000Z</time>
      </trkpt>
      <trkpt lat="47.32429" lon="-2.29411">
        <ele>4.1999998092651</ele>
        <time>2020-06-14T09:45:00.000Z</time>
      </trkpt>
      <trkpt lat="47.32425" lon="-2.29394">
        <ele>4.1999998092651</ele>
        <time>2020-06-14T09:45:02.000Z</time>
      </trkpt>
      <trkpt lat="47.32424" lon="-2.29384">
        <ele>3.7999999523163</ele>
        <time>2020-06-14T09:45:03.000Z</time>
      </trkpt>
      <trkpt lat="47.32422" lon="-2.29376">
        <ele>3.4000000953674</ele>
        <time>2020-06-14T09:45:04.000Z</time>
      </trkpt>
      <trkpt lat="47.32421" lon="-2.29366">
        <ele>3</ele>
        <time>2020-06-14T09:45:05.000Z</time>
      </trkpt>
      <trkpt lat="47.32421" lon="-2.29357">
        <ele>2.5999999046326</ele>
        <time>2020-06-14T09:45:06.000Z</time>
      </trkpt>
      <trkpt lat="47.3242" lon="-2.29348">
        <ele>2.2000000476837</ele>
        <time>2020-06-14T09:45:07.000Z</time>
      </trkpt>
      <trkpt lat="47.3242" lon="-2.2934">
        <ele>2.2000000476837</ele>
        <time>2020-06-14T09:45:08.000Z</time>
      </trkpt>
      <trkpt lat="47.32417" lon="-2.29325">
        <ele>2.2000000476837</ele>
        <time>2020-06-14T09:45:10.000Z</time>
      </trkpt>
      <trkpt lat="47.32412" lon="-2.29301">
        <ele>2.2000000476837</ele>
        <time>2020-06-14T09:45:13.000Z</time>
      </trkpt>
      <trkpt lat="47.32403" lon="-2.2927">
        <ele>2.2000000476837</ele>
        <time>2020-06-14T09:45:17.000Z</time>
      </trkpt>
      <trkpt lat="47.32398" lon="-2.29265">
        <ele>2.2000000476837</ele>
        <time>2020-06-14T09:45:18.000Z</time>
      </trkpt>
      <trkpt lat="47.32381" lon="-2.29256">
        <ele>2.2000000476837</ele>
        <time>2020-06-14T09:45:21.000Z</time>
      </trkpt>
      <trkpt lat="47.32354" lon="-2.29243">
        <ele>2.2000000476837</ele>
        <time>2020-06-14T09:45:27.000Z</time>
      </trkpt>
      <trkpt lat="47.32347" lon="-2.29239">
        <ele>1.7999999523163</ele>
        <time>2020-06-14T09:45:29.000Z</time>
      </trkpt>
      <trkpt lat="47.32344" lon="-2.29238">
        <ele>1.3999999761581</ele>
        <time>2020-06-14T09:45:30.000Z</time>
      </trkpt>
      <trkpt lat="47.32341" lon="-2.29236">
        <ele>0.40000000596046</ele>
        <time>2020-06-14T09:45:31.000Z</time>
      </trkpt>
      <trkpt lat="47.32338" lon="-2.29234">
        <ele>4.4</ele>
        <time>2020-06-14T09:45:32.000Z</time>
      </trkpt>
      <trkpt lat="47.32334" lon="-2.29232">
        <ele>4.4</ele>
        <time>2020-06-14T09:45:33.000Z</time>
      </trkpt>
      <trkpt lat="47.32313" lon="-2.29218">
        <ele>4</ele>
        <time>2020-06-14T09:45:40.000Z</time>
      </trkpt>
      <trkpt lat="47.32303" lon="-2.29217">
        <ele>4.1</ele>
        <time>2020-06-14T09:45:42.000Z</time>
      </trkpt>
      <trkpt lat="47.32299" lon="-2.29217">
        <ele>4.2</ele>
        <time>2020-06-14T09:45:43.000Z</time>
      </trkpt>
      <trkpt lat="47.32289" lon="-2.2922">
        <ele>4.6</ele>
        <time>2020-06-14T09:45:45.000Z</time>
      </trkpt>
      <trkpt lat="47.32272" lon="-2.29224">
        <ele>5</ele>
        <time>2020-06-14T09:45:48.000Z</time>
      </trkpt>
      <trkpt lat="47.32251" lon="-2.29226">
        <ele>5.1</ele>
        <time>2020-06-14T09:45:52.000Z</time>
      </trkpt>
      <trkpt lat="47.32246" lon="-2.29224">
        <ele>5</ele>
        <time>2020-06-14T09:45:53.000Z</time>
      </trkpt>
      <trkpt lat="47.32232" lon="-2.29203">
        <ele>5</ele>
        <time>2020-06-14T09:45:57.000Z</time>
      </trkpt>
      <trkpt lat="47.32228" lon="-2.29197">
        <ele>5</ele>
        <time>2020-06-14T09:45:58.000Z</time>
      </trkpt>
      <trkpt lat="47.32215" lon="-2.29175">
        <ele>5.3</ele>
        <time>2020-06-14T09:46:02.000Z</time>
      </trkpt>
      <trkpt lat="47.32197" lon="-2.29152">
        <ele>5.9</ele>
        <time>2020-06-14T09:46:07.000Z</time>
      </trkpt>
      <trkpt lat="47.32194" lon="-2.29148">
        <ele>6</ele>
        <time>2020-06-14T09:46:08.000Z</time>
      </trkpt>
      <trkpt lat="47.32178" lon="-2.2913">
        <ele>6.7</ele>
        <time>2020-06-14T09:46:13.000Z</time>
      </trkpt>
      <trkpt lat="47.32166" lon="-2.29121">
        <ele>7</ele>
        <time>2020-06-14T09:46:16.000Z</time>
      </trkpt>
      <trkpt lat="47.32162" lon="-2.29116">
        <ele>7.2</ele>
        <time>2020-06-14T09:46:17.000Z</time>
      </trkpt>
      <trkpt lat="47.32152" lon="-2.29101">
        <ele>0.40000000596046</ele>
        <time>2020-06-14T09:46:20.000Z</time>
      </trkpt>
      <trkpt lat="47.32149" lon="-2.29095">
        <ele>1</ele>
        <time>2020-06-14T09:46:21.000Z</time>
      </trkpt>
      <trkpt lat="47.32147" lon="-2.2909">
        <ele>1.3999999761581</ele>
        <time>2020-06-14T09:46:22.000Z</time>
      </trkpt>
      <trkpt lat="47.32145" lon="-2.29084">
        <ele>1.7999999523163</ele>
        <time>2020-06-14T09:46:23.000Z</time>
      </trkpt>
      <trkpt lat="47.32142" lon="-2.29078">
        <ele>2.2000000476837</ele>
        <time>2020-06-14T09:46:24.000Z</time>
      </trkpt>
      <trkpt lat="47.32131" lon="-2.29051">
        <ele>2.2000000476837</ele>
        <time>2020-06-14T09:46:28.000Z</time>
      </trkpt>
      <trkpt lat="47.32118" lon="-2.29021">
        <ele>2.2000000476837</ele>
        <time>2020-06-14T09:46:33.000Z</time>
      </trkpt>
      <trkpt lat="47.32108" lon="-2.29">
        <ele>2.2000000476837</ele>
        <time>2020-06-14T09:46:36.000Z</time>
      </trkpt>
      <trkpt lat="47.32099" lon="-2.28987">
        <ele>2.2000000476837</ele>
        <time>2020-06-14T09:46:38.000Z</time>
      </trkpt>
      <trkpt lat="47.32089" lon="-2.28976">
        <ele>1.7999999523163</ele>
        <time>2020-06-14T09:46:40.000Z</time>
      </trkpt>
      <trkpt lat="47.32084" lon="-2.28971">
        <ele>1.3999999761581</ele>
        <time>2020-06-14T09:46:41.000Z</time>
      </trkpt>
      <trkpt lat="47.32078" lon="-2.28966">
        <ele>1</ele>
        <time>2020-06-14T09:46:42.000Z</time>
      </trkpt>
      <trkpt lat="47.32072" lon="-2.28962">
        <ele>0.60000002384186</ele>
        <time>2020-06-14T09:46:43.000Z</time>
      </trkpt>
      <trkpt lat="47.32067" lon="-2.28958">
        <ele>0.20000000298023</ele>
        <time>2020-06-14T09:46:44.000Z</time>
      </trkpt>
      <trkpt lat="47.32051" lon="-2.28946">
        <ele>0.20000000298023</ele>
        <time>2020-06-14T09:46:47.000Z</time>
      </trkpt>
      <trkpt lat="47.32045" lon="-2.28931">
        <ele>0.20000000298023</ele>
        <time>2020-06-14T09:46:49.000Z</time>
      </trkpt>
      <trkpt lat="47.32042" lon="-2.28914">
        <ele>0.20000000298023</ele>
        <time>2020-06-14T09:46:52.000Z</time>
      </trkpt>
      <trkpt lat="47.32039" lon="-2.28899">
        <ele>0.20000000298023</ele>
        <time>2020-06-14T09:46:54.000Z</time>
      </trkpt>
      <trkpt lat="47.32038" lon="-2.28891">
        <ele>0.20000000298023</ele>
        <time>2020-06-14T09:46:55.000Z</time>
      </trkpt>
      <trkpt lat="47.32036" lon="-2.28884">
        <ele>0.20000000298023</ele>
        <time>2020-06-14T09:46:56.000Z</time>
      </trkpt>
      <trkpt lat="47.32028" lon="-2.28872">
        <ele>0.20000000298023</ele>
        <time>2020-06-14T09:46:59.000Z</time>
      </trkpt>
      <trkpt lat="47.32014" lon="-2.28877">
        <ele>0.20000000298023</ele>
        <time>2020-06-14T09:47:02.000Z</time>
      </trkpt>
      <trkpt lat="47.32009" lon="-2.2888">
        <ele>0.20000000298023</ele>
        <time>2020-06-14T09:47:03.000Z</time>
      </trkpt>
      <trkpt lat="47.31994" lon="-2.28887">
        <ele>0.20000000298023</ele>
        <time>2020-06-14T09:47:06.000Z</time>
      </trkpt>
      <trkpt lat="47.31983" lon="-2.28889">
        <ele>0.20000000298023</ele>
        <time>2020-06-14T09:47:08.000Z</time>
      </trkpt>
      <trkpt lat="47.31948" lon="-2.28899">
        <ele>0.20000000298023</ele>
        <time>2020-06-14T09:47:15.000Z</time>
      </trkpt>
      <trkpt lat="47.31933" lon="-2.28907">
        <ele>0.20000000298023</ele>
        <time>2020-06-14T09:47:19.000Z</time>
      </trkpt>
      <trkpt lat="47.3193" lon="-2.28911">
        <ele>0.20000000298023</ele>
        <time>2020-06-14T09:47:20.000Z</time>
      </trkpt>
      <trkpt lat="47.31902" lon="-2.28936">
        <ele>0.20000000298023</ele>
        <time>2020-06-14T09:47:27.000Z</time>
      </trkpt>
      <trkpt lat="47.31879" lon="-2.28943">
        <ele>0.20000000298023</ele>
        <time>2020-06-14T09:47:32.000Z</time>
      </trkpt>
      <trkpt lat="47.31866" lon="-2.28946">
        <ele>0.20000000298023</ele>
        <time>2020-06-14T09:47:35.000Z</time>
      </trkpt>
      <trkpt lat="47.3186" lon="-2.28955">
        <ele>0.20000000298023</ele>
        <time>2020-06-14T09:47:37.000Z</time>
      </trkpt>
      <trkpt lat="47.31858" lon="-2.28979">
        <ele>0.20000000298023</ele>
        <time>2020-06-14T09:47:41.000Z</time>
      </trkpt>
      <trkpt lat="47.31855" lon="-2.29011">
        <ele>0.20000000298023</ele>
        <time>2020-06-14T09:47:45.000Z</time>
      </trkpt>
      <trkpt lat="47.31854" lon="-2.29019">
        <ele>0.60000002384186</ele>
        <time>2020-06-14T09:47:46.000Z</time>
      </trkpt>
      <trkpt lat="47.31852" lon="-2.29026">
        <ele>1</ele>
        <time>2020-06-14T09:47:47.000Z</time>
      </trkpt>
      <trkpt lat="47.31851" lon="-2.29034">
        <ele>1.6000000238419</ele>
        <time>2020-06-14T09:47:48.000Z</time>
      </trkpt>
      <trkpt lat="47.31849" lon="-2.29042">
        <ele>2.4000000953674</ele>
        <time>2020-06-14T09:47:49.000Z</time>
      </trkpt>
      <trkpt lat="47.31841" lon="-2.29082">
        <ele>2.4000000953674</ele>
        <time>2020-06-14T09:47:54.000Z</time>
      </trkpt>
      <trkpt lat="47.31834" lon="-2.29129">
        <ele>2.4000000953674</ele>
        <time>2020-06-14T09:48:00.000Z</time>
      </trkpt>
      <trkpt lat="47.31829" lon="-2.29161">
        <ele>2.7999999523163</ele>
        <time>2020-06-14T09:48:04.000Z</time>
      </trkpt>
      <trkpt lat="47.31828" lon="-2.29169">
        <ele>3.4000000953674</ele>
        <time>2020-06-14T09:48:05.000Z</time>
      </trkpt>
      <trkpt lat="47.31827" lon="-2.29177">
        <ele>3.7999999523163</ele>
        <time>2020-06-14T09:48:06.000Z</time>
      </trkpt>
      <trkpt lat="47.31826" lon="-2.29184">
        <ele>4.1999998092651</ele>
        <time>2020-06-14T09:48:07.000Z</time>
      </trkpt>
      <trkpt lat="47.31826" lon="-2.29192">
        <ele>4.5999999046326</ele>
        <time>2020-06-14T09:48:08.000Z</time>
      </trkpt>
      <trkpt lat="47.31825" lon="-2.29213">
        <ele>4.5999999046326</ele>
        <time>2020-06-14T09:48:11.000Z</time>
      </trkpt>
      <trkpt lat="47.31825" lon="-2.29221">
        <ele>4.5999999046326</ele>
        <time>2020-06-14T09:48:12.000Z</time>
      </trkpt>
      <trkpt lat="47.31826" lon="-2.29229">
        <ele>5.4000000953674</ele>
        <time>2020-06-14T09:48:13.000Z</time>
      </trkpt>
      <trkpt lat="47.31827" lon="-2.29237">
        <ele>6</ele>
        <time>2020-06-14T09:48:14.000Z</time>
      </trkpt>
      <trkpt lat="47.31828" lon="-2.29243">
        <ele>6.4000000953674</ele>
        <time>2020-06-14T09:48:15.000Z</time>
      </trkpt>
      <trkpt lat="47.31829" lon="-2.29251">
        <ele>6.8000001907349</ele>
        <time>2020-06-14T09:48:16.000Z</time>
      </trkpt>
      <trkpt lat="47.3183" lon="-2.29258">
        <ele>6.8000001907349</ele>
        <time>2020-06-14T09:48:17.000Z</time>
      </trkpt>
      <trkpt lat="47.31833" lon="-2.29308">
        <ele>6.8000001907349</ele>
        <time>2020-06-14T09:48:24.000Z</time>
      </trkpt>
      <trkpt lat="47.31837" lon="-2.29343">
        <ele>7.1999998092651</ele>
        <time>2020-06-14T09:48:29.000Z</time>
      </trkpt>
      <trkpt lat="47.31838" lon="-2.2935">
        <ele>7.5999999046326</ele>
        <time>2020-06-14T09:48:30.000Z</time>
      </trkpt>
      <trkpt lat="47.3184" lon="-2.29357">
        <ele>8</ele>
        <time>2020-06-14T09:48:31.000Z</time>
      </trkpt>
      <trkpt lat="47.31841" lon="-2.29364">
        <ele>8.3999996185303</ele>
        <time>2020-06-14T09:48:32.000Z</time>
      </trkpt>
      <trkpt lat="47.31843" lon="-2.29371">
        <ele>8.8000001907349</ele>
        <time>2020-06-14T09:48:33.000Z</time>
      </trkpt>
      <trkpt lat="47.31851" lon="-2.29398">
        <ele>8.8000001907349</ele>
        <time>2020-06-14T09:48:37.000Z</time>
      </trkpt>
      <trkpt lat="47.31853" lon="-2.29412">
        <ele>8.8000001907349</ele>
        <time>2020-06-14T09:48:39.000Z</time>
      </trkpt>
      <trkpt lat="47.31853" lon="-2.29432">
        <ele>8.8000001907349</ele>
        <time>2020-06-14T09:48:42.000Z</time>
      </trkpt>
      <trkpt lat="47.31851" lon="-2.29446">
        <ele>8.8000001907349</ele>
        <time>2020-06-14T09:48:44.000Z</time>
      </trkpt>
      <trkpt lat="47.31847" lon="-2.29481">
        <ele>8.8000001907349</ele>
        <time>2020-06-14T09:48:49.000Z</time>
      </trkpt>
      <trkpt lat="47.31848" lon="-2.29489">
        <ele>8.8000001907349</ele>
        <time>2020-06-14T09:48:50.000Z</time>
      </trkpt>
      <trkpt lat="47.31852" lon="-2.29513">
        <ele>8.8000001907349</ele>
        <time>2020-06-14T09:48:53.000Z</time>
      </trkpt>
      <trkpt lat="47.31854" lon="-2.29521">
        <ele>9.1999998092651</ele>
        <time>2020-06-14T09:48:54.000Z</time>
      </trkpt>
      <trkpt lat="47.31857" lon="-2.29529">
        <ele>9.6000003814697</ele>
        <time>2020-06-14T09:48:55.000Z</time>
      </trkpt>
      <trkpt lat="47.31859" lon="-2.29536">
        <ele>10</ele>
        <time>2020-06-14T09:48:56.000Z</time>
      </trkpt>
      <trkpt lat="47.31862" lon="-2.29544">
        <ele>10.39999961853</ele>
        <time>2020-06-14T09:48:57.000Z</time>
      </trkpt>
      <trkpt lat="47.31864" lon="-2.29552">
        <ele>10.800000190735</ele>
        <time>2020-06-14T09:48:58.000Z</time>
      </trkpt>
      <trkpt lat="47.3187" lon="-2.29575">
        <ele>10.800000190735</ele>
        <time>2020-06-14T09:49:01.000Z</time>
      </trkpt>
      <trkpt lat="47.31871" lon="-2.29591">
        <ele>10.800000190735</ele>
        <time>2020-06-14T09:49:03.000Z</time>
      </trkpt>
      <trkpt lat="47.31868" lon="-2.296">
        <ele>10.800000190735</ele>
        <time>2020-06-14T09:49:04.000Z</time>
      </trkpt>
      <trkpt lat="47.31858" lon="-2.29617">
        <ele>10.800000190735</ele>
        <time>2020-06-14T09:49:07.000Z</time>
      </trkpt>
      <trkpt lat="47.31851" lon="-2.29626">
        <ele>10.800000190735</ele>
        <time>2020-06-14T09:49:09.000Z</time>
      </trkpt>
      <trkpt lat="47.31836" lon="-2.29636">
        <ele>10.800000190735</ele>
        <time>2020-06-14T09:49:12.000Z</time>
      </trkpt>
      <trkpt lat="47.31806" lon="-2.29654">
        <ele>10.800000190735</ele>
        <time>2020-06-14T09:49:18.000Z</time>
      </trkpt>
      <trkpt lat="47.31801" lon="-2.29657">
        <ele>10.800000190735</ele>
        <time>2020-06-14T09:49:19.000Z</time>
      </trkpt>
      <trkpt lat="47.31766" lon="-2.29682">
        <ele>10.800000190735</ele>
        <time>2020-06-14T09:49:26.000Z</time>
      </trkpt>
      <trkpt lat="47.31742" lon="-2.29701">
        <ele>11.199999809265</ele>
        <time>2020-06-14T09:49:31.000Z</time>
      </trkpt>
      <trkpt lat="47.31737" lon="-2.29705">
        <ele>11.800000190735</ele>
        <time>2020-06-14T09:49:32.000Z</time>
      </trkpt>
      <trkpt lat="47.31733" lon="-2.29708">
        <ele>12.199999809265</ele>
        <time>2020-06-14T09:49:33.000Z</time>
      </trkpt>
      <trkpt lat="47.31728" lon="-2.29712">
        <ele>12.60000038147</ele>
        <time>2020-06-14T09:49:34.000Z</time>
      </trkpt>
      <trkpt lat="47.31724" lon="-2.29716">
        <ele>13.199999809265</ele>
        <time>2020-06-14T09:49:35.000Z</time>
      </trkpt>
      <trkpt lat="47.31702" lon="-2.29733">
        <ele>13.199999809265</ele>
        <time>2020-06-14T09:49:40.000Z</time>
      </trkpt>
      <trkpt lat="47.31688" lon="-2.29739">
        <ele>13.199999809265</ele>
        <time>2020-06-14T09:49:43.000Z</time>
      </trkpt>
      <trkpt lat="47.31677" lon="-2.29741">
        <ele>13.199999809265</ele>
        <time>2020-06-14T09:49:45.000Z</time>
      </trkpt>
      <trkpt lat="47.31666" lon="-2.29741">
        <ele>13.199999809265</ele>
        <time>2020-06-14T09:49:47.000Z</time>
      </trkpt>
      <trkpt lat="47.31657" lon="-2.29731">
        <ele>13.199999809265</ele>
        <time>2020-06-14T09:49:49.000Z</time>
      </trkpt>
      <trkpt lat="47.31648" lon="-2.29707">
        <ele>13.199999809265</ele>
        <time>2020-06-14T09:49:52.000Z</time>
      </trkpt>
      <trkpt lat="47.31645" lon="-2.29699">
        <ele>13.199999809265</ele>
        <time>2020-06-14T09:49:53.000Z</time>
      </trkpt>
      <trkpt lat="47.31624" lon="-2.29641">
        <ele>13.199999809265</ele>
        <time>2020-06-14T09:50:00.000Z</time>
      </trkpt>
      <trkpt lat="47.3162" lon="-2.29635">
        <ele>13.199999809265</ele>
        <time>2020-06-14T09:50:01.000Z</time>
      </trkpt>
      <trkpt lat="47.31604" lon="-2.29611">
        <ele>13.199999809265</ele>
        <time>2020-06-14T09:50:05.000Z</time>
      </trkpt>
      <trkpt lat="47.31584" lon="-2.29593">
        <ele>13.199999809265</ele>
        <time>2020-06-14T09:50:09.000Z</time>
      </trkpt>
      <trkpt lat="47.31574" lon="-2.29581">
        <ele>13.199999809265</ele>
        <time>2020-06-14T09:50:11.000Z</time>
      </trkpt>
      <trkpt lat="47.3156" lon="-2.29561">
        <ele>13.199999809265</ele>
        <time>2020-06-14T09:50:14.000Z</time>
      </trkpt>
      <trkpt lat="47.31549" lon="-2.29539">
        <ele>13.199999809265</ele>
        <time>2020-06-14T09:50:17.000Z</time>
      </trkpt>
      <trkpt lat="47.31544" lon="-2.2952">
        <ele>13.199999809265</ele>
        <time>2020-06-14T09:50:19.000Z</time>
      </trkpt>
      <trkpt lat="47.31537" lon="-2.29483">
        <ele>13.199999809265</ele>
        <time>2020-06-14T09:50:23.000Z</time>
      </trkpt>
      <trkpt lat="47.31532" lon="-2.29465">
        <ele>13.199999809265</ele>
        <time>2020-06-14T09:50:25.000Z</time>
      </trkpt>
      <trkpt lat="47.31529" lon="-2.29456">
        <ele>12.60000038147</ele>
        <time>2020-06-14T09:50:26.000Z</time>
      </trkpt>
      <trkpt lat="47.31525" lon="-2.29447">
        <ele>12.199999809265</ele>
        <time>2020-06-14T09:50:27.000Z</time>
      </trkpt>
      <trkpt lat="47.31522" lon="-2.29438">
        <ele>11.800000190735</ele>
        <time>2020-06-14T09:50:28.000Z</time>
      </trkpt>
      <trkpt lat="47.31518" lon="-2.29429">
        <ele>11.39999961853</ele>
        <time>2020-06-14T09:50:29.000Z</time>
      </trkpt>
      <trkpt lat="47.31513" lon="-2.29421">
        <ele>11</ele>
        <time>2020-06-14T09:50:30.000Z</time>
      </trkpt>
      <trkpt lat="47.31505" lon="-2.29407">
        <ele>11</ele>
        <time>2020-06-14T09:50:32.000Z</time>
      </trkpt>
      <trkpt lat="47.31497" lon="-2.29398">
        <ele>11</ele>
        <time>2020-06-14T09:50:34.000Z</time>
      </trkpt>
      <trkpt lat="47.31486" lon="-2.29396">
        <ele>10.60000038147</ele>
        <time>2020-06-14T09:50:36.000Z</time>
      </trkpt>
      <trkpt lat="47.31481" lon="-2.29395">
        <ele>10.199999809265</ele>
        <time>2020-06-14T09:50:37.000Z</time>
      </trkpt>
      <trkpt lat="47.31476" lon="-2.29395">
        <ele>9.8000001907349</ele>
        <time>2020-06-14T09:50:38.000Z</time>
      </trkpt>
      <trkpt lat="47.31471" lon="-2.29396">
        <ele>9.3999996185303</ele>
        <time>2020-06-14T09:50:39.000Z</time>
      </trkpt>
      <trkpt lat="47.31464" lon="-2.29397">
        <ele>9</ele>
        <time>2020-06-14T09:50:40.000Z</time>
      </trkpt>
      <trkpt lat="47.3145" lon="-2.29393">
        <ele>9</ele>
        <time>2020-06-14T09:50:42.000Z</time>
      </trkpt>
      <trkpt lat="47.3143" lon="-2.2937">
        <ele>9</ele>
        <time>2020-06-14T09:50:46.000Z</time>
      </trkpt>
      <trkpt lat="47.31401" lon="-2.29334">
        <ele>9</ele>
        <time>2020-06-14T09:50:51.000Z</time>
      </trkpt>
      <trkpt lat="47.31394" lon="-2.29327">
        <ele>8.3999996185303</ele>
        <time>2020-06-14T09:50:52.000Z</time>
      </trkpt>
      <trkpt lat="47.31387" lon="-2.29322">
        <ele>8</ele>
        <time>2020-06-14T09:50:53.000Z</time>
      </trkpt>
      <trkpt lat="47.31379" lon="-2.29319">
        <ele>7.4000000953674</ele>
        <time>2020-06-14T09:50:54.000Z</time>
      </trkpt>
      <trkpt lat="47.3137" lon="-2.29317">
        <ele>7</ele>
        <time>2020-06-14T09:50:55.000Z</time>
      </trkpt>
      <trkpt lat="47.31361" lon="-2.29314">
        <ele>6.4000000953674</ele>
        <time>2020-06-14T09:50:56.000Z</time>
      </trkpt>
      <trkpt lat="47.31318" lon="-2.29297">
        <ele>6.4000000953674</ele>
        <time>2020-06-14T09:51:01.000Z</time>
      </trkpt>
      <trkpt lat="47.3131" lon="-2.29296">
        <ele>6.4000000953674</ele>
        <time>2020-06-14T09:51:02.000Z</time>
      </trkpt>
      <trkpt lat="47.31289" lon="-2.29303">
        <ele>6.4000000953674</ele>
        <time>2020-06-14T09:51:05.000Z</time>
      </trkpt>
      <trkpt lat="47.31273" lon="-2.29328">
        <ele>6.4000000953674</ele>
        <time>2020-06-14T09:51:08.000Z</time>
      </trkpt>
      <trkpt lat="47.3126" lon="-2.29362">
        <ele>6.4000000953674</ele>
        <time>2020-06-14T09:51:12.000Z</time>
      </trkpt>
      <trkpt lat="47.31253" lon="-2.29379">
        <ele>6.4000000953674</ele>
        <time>2020-06-14T09:51:14.000Z</time>
      </trkpt>
      <trkpt lat="47.31244" lon="-2.29391">
        <ele>6.4000000953674</ele>
        <time>2020-06-14T09:51:16.000Z</time>
      </trkpt>
      <trkpt lat="47.31232" lon="-2.294">
        <ele>6.4000000953674</ele>
        <time>2020-06-14T09:51:18.000Z</time>
      </trkpt>
      <trkpt lat="47.31219" lon="-2.29409">
        <ele>6.4000000953674</ele>
        <time>2020-06-14T09:51:20.000Z</time>
      </trkpt>
      <trkpt lat="47.31185" lon="-2.29434">
        <ele>6</ele>
        <time>2020-06-14T09:51:25.000Z</time>
      </trkpt>
      <trkpt lat="47.31178" lon="-2.2944">
        <ele>5.5999999046326</ele>
        <time>2020-06-14T09:51:26.000Z</time>
      </trkpt>
      <trkpt lat="47.3117" lon="-2.29446">
        <ele>5</ele>
        <time>2020-06-14T09:51:27.000Z</time>
      </trkpt>
      <trkpt lat="47.31163" lon="-2.29452">
        <ele>4.5999999046326</ele>
        <time>2020-06-14T09:51:28.000Z</time>
      </trkpt>
      <trkpt lat="47.31156" lon="-2.29457">
        <ele>4</ele>
        <time>2020-06-14T09:51:29.000Z</time>
      </trkpt>
      <trkpt lat="47.31144" lon="-2.2947">
        <ele>4</ele>
        <time>2020-06-14T09:51:31.000Z</time>
      </trkpt>
      <trkpt lat="47.3114" lon="-2.29495">
        <ele>4</ele>
        <time>2020-06-14T09:51:34.000Z</time>
      </trkpt>
      <trkpt lat="47.31147" lon="-2.29519">
        <ele>4</ele>
        <time>2020-06-14T09:51:37.000Z</time>
      </trkpt>
      <trkpt lat="47.3115" lon="-2.29527">
        <ele>4</ele>
        <time>2020-06-14T09:51:38.000Z</time>
      </trkpt>
      <trkpt lat="47.31163" lon="-2.29569">
        <ele>4</ele>
        <time>2020-06-14T09:51:43.000Z</time>
      </trkpt>
      <trkpt lat="47.31163" lon="-2.29579">
        <ele>4</ele>
        <time>2020-06-14T09:51:44.000Z</time>
      </trkpt>
      <trkpt lat="47.31155" lon="-2.296">
        <ele>4</ele>
        <time>2020-06-14T09:51:47.000Z</time>
      </trkpt>
      <trkpt lat="47.31134" lon="-2.29618">
        <ele>4</ele>
        <time>2020-06-14T09:51:51.000Z</time>
      </trkpt>
      <trkpt lat="47.31128" lon="-2.29623">
        <ele>4</ele>
        <time>2020-06-14T09:51:52.000Z</time>
      </trkpt>
      <trkpt lat="47.31101" lon="-2.2965">
        <ele>4</ele>
        <time>2020-06-14T09:51:57.000Z</time>
      </trkpt>
      <trkpt lat="47.31074" lon="-2.29679">
        <ele>4</ele>
        <time>2020-06-14T09:52:03.000Z</time>
      </trkpt>
      <trkpt lat="47.31057" lon="-2.29694">
        <ele>4</ele>
        <time>2020-06-14T09:52:07.000Z</time>
      </trkpt>
      <trkpt lat="47.31052" lon="-2.29696">
        <ele>4</ele>
        <time>2020-06-14T09:52:08.000Z</time>
      </trkpt>
      <trkpt lat="47.31041" lon="-2.29699">
        <ele>4</ele>
        <time>2020-06-14T09:52:10.000Z</time>
      </trkpt>
      <trkpt lat="47.31033" lon="-2.29693">
        <ele>4</ele>
        <time>2020-06-14T09:52:12.000Z</time>
      </trkpt>
      <trkpt lat="47.31026" lon="-2.29676">
        <ele>4</ele>
        <time>2020-06-14T09:52:15.000Z</time>
      </trkpt>
      <trkpt lat="47.31024" lon="-2.29669">
        <ele>4</ele>
        <time>2020-06-14T09:52:16.000Z</time>
      </trkpt>
      <trkpt lat="47.31007" lon="-2.29626">
        <ele>4</ele>
        <time>2020-06-14T09:52:23.000Z</time>
      </trkpt>
      <trkpt lat="47.31004" lon="-2.2962">
        <ele>4</ele>
        <time>2020-06-14T09:52:24.000Z</time>
      </trkpt>
      <trkpt lat="47.30993" lon="-2.29603">
        <ele>4</ele>
        <time>2020-06-14T09:52:27.000Z</time>
      </trkpt>
      <trkpt lat="47.30989" lon="-2.29599">
        <ele>4</ele>
        <time>2020-06-14T09:52:28.000Z</time>
      </trkpt>
      <trkpt lat="47.30973" lon="-2.29587">
        <ele>4</ele>
        <time>2020-06-14T09:52:33.000Z</time>
      </trkpt>
      <trkpt lat="47.30948" lon="-2.29577">
        <ele>4</ele>
        <time>2020-06-14T09:52:41.000Z</time>
      </trkpt>
      <trkpt lat="47.30932" lon="-2.29573">
        <ele>4</ele>
        <time>2020-06-14T09:52:47.000Z</time>
      </trkpt>
      <trkpt lat="47.30908" lon="-2.29568">
        <ele>4</ele>
        <time>2020-06-14T09:52:54.000Z</time>
      </trkpt>
      <trkpt lat="47.30891" lon="-2.29563">
        <ele>4</ele>
        <time>2020-06-14T09:52:59.000Z</time>
      </trkpt>
      <trkpt lat="47.30867" lon="-2.29554">
        <ele>4</ele>
        <time>2020-06-14T09:53:06.000Z</time>
      </trkpt>
      <trkpt lat="47.30843" lon="-2.29547">
        <ele>4</ele>
        <time>2020-06-14T09:53:12.000Z</time>
      </trkpt>
      <trkpt lat="47.30824" lon="-2.29546">
        <ele>4</ele>
        <time>2020-06-14T09:53:16.000Z</time>
      </trkpt>
      <trkpt lat="47.30814" lon="-2.29548">
        <ele>4</ele>
        <time>2020-06-14T09:53:18.000Z</time>
      </trkpt>
      <trkpt lat="47.30784" lon="-2.29558">
        <ele>4</ele>
        <time>2020-06-14T09:53:25.000Z</time>
      </trkpt>
      <trkpt lat="47.30772" lon="-2.29562">
        <ele>4</ele>
        <time>2020-06-14T09:53:28.000Z</time>
      </trkpt>
      <trkpt lat="47.30767" lon="-2.29563">
        <ele>3.5999999046326</ele>
        <time>2020-06-14T09:53:29.000Z</time>
      </trkpt>
      <trkpt lat="47.30763" lon="-2.29564">
        <ele>3.2000000476837</ele>
        <time>2020-06-14T09:53:30.000Z</time>
      </trkpt>
      <trkpt lat="47.30758" lon="-2.29565">
        <ele>2.7999999523163</ele>
        <time>2020-06-14T09:53:31.000Z</time>
      </trkpt>
      <trkpt lat="47.30753" lon="-2.29566">
        <ele>2.2000000476837</ele>
        <time>2020-06-14T09:53:32.000Z</time>
      </trkpt>
      <trkpt lat="47.30748" lon="-2.29568">
        <ele>1.7999999523163</ele>
        <time>2020-06-14T09:53:33.000Z</time>
      </trkpt>
      <trkpt lat="47.30734" lon="-2.29575">
        <ele>1.7999999523163</ele>
        <time>2020-06-14T09:53:36.000Z</time>
      </trkpt>
      <trkpt lat="47.30707" lon="-2.29583">
        <ele>1.7999999523163</ele>
        <time>2020-06-14T09:53:42.000Z</time>
      </trkpt>
      <trkpt lat="47.30689" lon="-2.29589">
        <ele>1.7999999523163</ele>
        <time>2020-06-14T09:53:47.000Z</time>
      </trkpt>
      <trkpt lat="47.30676" lon="-2.29591">
        <ele>1.3999999761581</ele>
        <time>2020-06-14T09:53:50.000Z</time>
      </trkpt>
      <trkpt lat="47.3067" lon="-2.29591">
        <ele>1</ele>
        <time>2020-06-14T09:53:51.000Z</time>
      </trkpt>
      <trkpt lat="47.30664" lon="-2.29593">
        <ele>0.60000002384186</ele>
        <time>2020-06-14T09:53:52.000Z</time>
      </trkpt>
      <trkpt lat="47.30657" lon="-2.29594">
        <ele>0.20000000298023</ele>
        <time>2020-06-14T09:53:53.000Z</time>
      </trkpt>
      <trkpt lat="47.3065" lon="-2.29597">
        <ele>-0.20000000298023</ele>
        <time>2020-06-14T09:53:54.000Z</time>
      </trkpt>
      <trkpt lat="47.30636" lon="-2.29601">
        <ele>-0.20000000298023</ele>
        <time>2020-06-14T09:53:56.000Z</time>
      </trkpt>
      <trkpt lat="47.306" lon="-2.29613">
        <ele>-0.20000000298023</ele>
        <time>2020-06-14T09:54:01.000Z</time>
      </trkpt>
      <trkpt lat="47.30558" lon="-2.29625">
        <ele>-0.20000000298023</ele>
        <time>2020-06-14T09:54:07.000Z</time>
      </trkpt>
      <trkpt lat="47.30551" lon="-2.29626">
        <ele>-0.20000000298023</ele>
        <time>2020-06-14T09:54:08.000Z</time>
      </trkpt>
      <trkpt lat="47.30538" lon="-2.29631">
        <ele>-0.20000000298023</ele>
        <time>2020-06-14T09:54:10.000Z</time>
      </trkpt>
      <trkpt lat="47.30532" lon="-2.29633">
        <ele>-0.20000000298023</ele>
        <time>2020-06-14T09:54:11.000Z</time>
      </trkpt>
      <trkpt lat="47.30513" lon="-2.2964">
        <ele>-0.20000000298023</ele>
        <time>2020-06-14T09:54:14.000Z</time>
      </trkpt>
      <trkpt lat="47.305" lon="-2.29644">
        <ele>0.20000000298023</ele>
        <time>2020-06-14T09:54:16.000Z</time>
      </trkpt>
      <trkpt lat="47.30493" lon="-2.29647">
        <ele>0.60000002384186</ele>
        <time>2020-06-14T09:54:17.000Z</time>
      </trkpt>
      <trkpt lat="47.30486" lon="-2.29651">
        <ele>1</ele>
        <time>2020-06-14T09:54:18.000Z</time>
      </trkpt>
      <trkpt lat="47.30479" lon="-2.29653">
        <ele>1.6000000238419</ele>
        <time>2020-06-14T09:54:19.000Z</time>
      </trkpt>
      <trkpt lat="47.30472" lon="-2.29655">
        <ele>2</ele>
        <time>2020-06-14T09:54:20.000Z</time>
      </trkpt>
      <trkpt lat="47.30424" lon="-2.29669">
        <ele>2</ele>
        <time>2020-06-14T09:54:27.000Z</time>
      </trkpt>
      <trkpt lat="47.30384" lon="-2.29684">
        <ele>2</ele>
        <time>2020-06-14T09:54:33.000Z</time>
      </trkpt>
      <trkpt lat="47.30378" lon="-2.29686">
        <ele>1.3999999761581</ele>
        <time>2020-06-14T09:54:34.000Z</time>
      </trkpt>
      <trkpt lat="47.30371" lon="-2.29687">
        <ele>1</ele>
        <time>2020-06-14T09:54:35.000Z</time>
      </trkpt>
      <trkpt lat="47.30365" lon="-2.29689">
        <ele>0.60000002384186</ele>
        <time>2020-06-14T09:54:36.000Z</time>
      </trkpt>
      <trkpt lat="47.30359" lon="-2.29692">
        <ele>1.9</ele>
        <time>2020-06-14T09:54:37.000Z</time>
      </trkpt>
      <trkpt lat="47.30353" lon="-2.29694">
        <ele>-0.40000000596046</ele>
        <time>2020-06-14T09:54:38.000Z</time>
      </trkpt>
      <trkpt lat="47.30342" lon="-2.29699">
        <ele>-0.40000000596046</ele>
        <time>2020-06-14T09:54:40.000Z</time>
      </trkpt>
      <trkpt lat="47.3031" lon="-2.29707">
        <ele>-0.40000000596046</ele>
        <time>2020-06-14T09:54:46.000Z</time>
      </trkpt>
      <trkpt lat="47.30278" lon="-2.29716">
        <ele>-0.40000000596046</ele>
        <time>2020-06-14T09:54:52.000Z</time>
      </trkpt>
      <trkpt lat="47.30273" lon="-2.29718">
        <ele>2.9</ele>
        <time>2020-06-14T09:54:53.000Z</time>
      </trkpt>
      <trkpt lat="47.30267" lon="-2.2972">
        <ele>0.40000000596046</ele>
        <time>2020-06-14T09:54:54.000Z</time>
      </trkpt>
      <trkpt lat="47.30262" lon="-2.29721">
        <ele>0.80000001192093</ele>
        <time>2020-06-14T09:54:55.000Z</time>
      </trkpt>
      <trkpt lat="47.30255" lon="-2.2972">
        <ele>1.2000000476837</ele>
        <time>2020-06-14T09:54:56.000Z</time>
      </trkpt>
      <trkpt lat="47.30249" lon="-2.29718">
        <ele>1.6000000238419</ele>
        <time>2020-06-14T09:54:57.000Z</time>
      </trkpt>
      <trkpt lat="47.30238" lon="-2.29714">
        <ele>1.6000000238419</ele>
        <time>2020-06-14T09:54:59.000Z</time>
      </trkpt>
      <trkpt lat="47.30213" lon="-2.29702">
        <ele>1.6000000238419</ele>
        <time>2020-06-14T09:55:03.000Z</time>
      </trkpt>
      <trkpt lat="47.30181" lon="-2.2968">
        <ele>1.6000000238419</ele>
        <time>2020-06-14T09:55:09.000Z</time>
      </trkpt>
      <trkpt lat="47.30147" lon="-2.29662">
        <ele>1.6000000238419</ele>
        <time>2020-06-14T09:55:16.000Z</time>
      </trkpt>
      <trkpt lat="47.30137" lon="-2.29659">
        <ele>1.6000000238419</ele>
        <time>2020-06-14T09:55:18.000Z</time>
      </trkpt>
      <trkpt lat="47.30114" lon="-2.29655">
        <ele>1.6000000238419</ele>
        <time>2020-06-14T09:55:23.000Z</time>
      </trkpt>
      <trkpt lat="47.30072" lon="-2.29644">
        <ele>1.6000000238419</ele>
        <time>2020-06-14T09:55:32.000Z</time>
      </trkpt>
      <trkpt lat="47.30041" lon="-2.29636">
        <ele>1.6000000238419</ele>
        <time>2020-06-14T09:55:39.000Z</time>
      </trkpt>
      <trkpt lat="47.29999" lon="-2.29636">
        <ele>1.6000000238419</ele>
        <time>2020-06-14T09:55:49.000Z</time>
      </trkpt>
      <trkpt lat="47.29965" lon="-2.29639">
        <ele>1.6000000238419</ele>
        <time>2020-06-14T09:55:57.000Z</time>
      </trkpt>
      <trkpt lat="47.29951" lon="-2.29644">
        <ele>1.6000000238419</ele>
        <time>2020-06-14T09:56:02.000Z</time>
      </trkpt>
      <trkpt lat="47.29934" lon="-2.29652">
        <ele>1.6000000238419</ele>
        <time>2020-06-14T09:56:10.000Z</time>
      </trkpt>
      <trkpt lat="47.29917" lon="-2.29662">
        <ele>1.6000000238419</ele>
        <time>2020-06-14T09:56:18.000Z</time>
      </trkpt>
      <trkpt lat="47.29909" lon="-2.29671">
        <ele>2</ele>
        <time>2020-06-14T09:56:23.000Z</time>
      </trkpt>
      <trkpt lat="47.29907" lon="-2.29674">
        <ele>2.4000000953674</ele>
        <time>2020-06-14T09:56:24.000Z</time>
      </trkpt>
      <trkpt lat="47.29905" lon="-2.29678">
        <ele>2.7999999523163</ele>
        <time>2020-06-14T09:56:25.000Z</time>
      </trkpt>
      <trkpt lat="47.29903" lon="-2.29682">
        <ele>3.2000000476837</ele>
        <time>2020-06-14T09:56:26.000Z</time>
      </trkpt>
      <trkpt lat="47.299" lon="-2.29685">
        <ele>3.5999999046326</ele>
        <time>2020-06-14T09:56:27.000Z</time>
      </trkpt>
      <trkpt lat="47.29893" lon="-2.2969">
        <ele>3.5999999046326</ele>
        <time>2020-06-14T09:56:29.000Z</time>
      </trkpt>
      <trkpt lat="47.29872" lon="-2.29698">
        <ele>3.5999999046326</ele>
        <time>2020-06-14T09:56:34.000Z</time>
      </trkpt>
      <trkpt lat="47.29849" lon="-2.29716">
        <ele>3.5999999046326</ele>
        <time>2020-06-14T09:56:41.000Z</time>
      </trkpt>
      <trkpt lat="47.29845" lon="-2.29719">
        <ele>4.1999998092651</ele>
        <time>2020-06-14T09:56:42.000Z</time>
      </trkpt>
      <trkpt lat="47.29841" lon="-2.29722">
        <ele>4.5999999046326</ele>
        <time>2020-06-14T09:56:43.000Z</time>
      </trkpt>
      <trkpt lat="47.29838" lon="-2.29725">
        <ele>5</ele>
        <time>2020-06-14T09:56:44.000Z</time>
      </trkpt>
      <trkpt lat="47.29834" lon="-2.29728">
        <ele>5.5999999046326</ele>
        <time>2020-06-14T09:56:45.000Z</time>
      </trkpt>
      <trkpt lat="47.2983" lon="-2.29731">
        <ele>6</ele>
        <time>2020-06-14T09:56:46.000Z</time>
      </trkpt>
      <trkpt lat="47.29823" lon="-2.29737">
        <ele>6</ele>
        <time>2020-06-14T09:56:48.000Z</time>
      </trkpt>
      <trkpt lat="47.29797" lon="-2.29756">
        <ele>6</ele>
        <time>2020-06-14T09:56:54.000Z</time>
      </trkpt>
      <trkpt lat="47.29763" lon="-2.29772">
        <ele>6</ele>
        <time>2020-06-14T09:57:01.000Z</time>
      </trkpt>
      <trkpt lat="47.29729" lon="-2.29778">
        <ele>6</ele>
        <time>2020-06-14T09:57:08.000Z</time>
      </trkpt>
      <trkpt lat="47.29705" lon="-2.29782">
        <ele>6</ele>
        <time>2020-06-14T09:57:13.000Z</time>
      </trkpt>
      <trkpt lat="47.29695" lon="-2.29783">
        <ele>6</ele>
        <time>2020-06-14T09:57:15.000Z</time>
      </trkpt>
      <trkpt lat="47.2967" lon="-2.29786">
        <ele>6</ele>
        <time>2020-06-14T09:57:21.000Z</time>
      </trkpt>
      <trkpt lat="47.29655" lon="-2.29781">
        <ele>6</ele>
        <time>2020-06-14T09:57:26.000Z</time>
      </trkpt>
      <trkpt lat="47.29634" lon="-2.29775">
        <ele>6</ele>
        <time>2020-06-14T09:57:31.000Z</time>
      </trkpt>
      <trkpt lat="47.2963" lon="-2.29773">
        <ele>6</ele>
        <time>2020-06-14T09:57:32.000Z</time>
      </trkpt>
      <trkpt lat="47.29602" lon="-2.29751">
        <ele>6</ele>
        <time>2020-06-14T09:57:39.000Z</time>
      </trkpt>
      <trkpt lat="47.2958" lon="-2.2973">
        <ele>6</ele>
        <time>2020-06-14T09:57:45.000Z</time>
      </trkpt>
      <trkpt lat="47.29552" lon="-2.29703">
        <ele>6</ele>
        <time>2020-06-14T09:57:53.000Z</time>
      </trkpt>
      <trkpt lat="47.29529" lon="-2.2968">
        <ele>6</ele>
        <time>2020-06-14T09:58:00.000Z</time>
      </trkpt>
      <trkpt lat="47.29512" lon="-2.29669">
        <ele>6</ele>
        <time>2020-06-14T09:58:06.000Z</time>
      </trkpt>
      <trkpt lat="47.29493" lon="-2.29668">
        <ele>6</ele>
        <time>2020-06-14T09:58:12.000Z</time>
      </trkpt>
      <trkpt lat="47.29471" lon="-2.29687">
        <ele>6</ele>
        <time>2020-06-14T09:58:18.000Z</time>
      </trkpt>
      <trkpt lat="47.29457" lon="-2.29706">
        <ele>6</ele>
        <time>2020-06-14T09:58:22.000Z</time>
      </trkpt>
      <trkpt lat="47.29453" lon="-2.29711">
        <ele>6</ele>
        <time>2020-06-14T09:58:23.000Z</time>
      </trkpt>
      <trkpt lat="47.29446" lon="-2.29722">
        <ele>6.4000000953674</ele>
        <time>2020-06-14T09:58:25.000Z</time>
      </trkpt>
      <trkpt lat="47.29443" lon="-2.29727">
        <ele>7</ele>
        <time>2020-06-14T09:58:26.000Z</time>
      </trkpt>
      <trkpt lat="47.29439" lon="-2.29732">
        <ele>7.4000000953674</ele>
        <time>2020-06-14T09:58:27.000Z</time>
      </trkpt>
      <trkpt lat="47.29436" lon="-2.29737">
        <ele>7.8000001907349</ele>
        <time>2020-06-14T09:58:28.000Z</time>
      </trkpt>
      <trkpt lat="47.29433" lon="-2.29742">
        <ele>8.3999996185303</ele>
        <time>2020-06-14T09:58:29.000Z</time>
      </trkpt>
      <trkpt lat="47.29415" lon="-2.29778">
        <ele>8.3999996185303</ele>
        <time>2020-06-14T09:58:35.000Z</time>
      </trkpt>
      <trkpt lat="47.29414" lon="-2.29785">
        <ele>8.3999996185303</ele>
        <time>2020-06-14T09:58:36.000Z</time>
      </trkpt>
      <trkpt lat="47.29404" lon="-2.29813">
        <ele>8.3999996185303</ele>
        <time>2020-06-14T09:58:40.000Z</time>
      </trkpt>
      <trkpt lat="47.29401" lon="-2.2982">
        <ele>8.3999996185303</ele>
        <time>2020-06-14T09:58:41.000Z</time>
      </trkpt>
      <trkpt lat="47.29396" lon="-2.29835">
        <ele>8.3999996185303</ele>
        <time>2020-06-14T09:58:43.000Z</time>
      </trkpt>
      <trkpt lat="47.29386" lon="-2.29858">
        <ele>8.3999996185303</ele>
        <time>2020-06-14T09:58:46.000Z</time>
      </trkpt>
      <trkpt lat="47.29361" lon="-2.29934">
        <ele>8.3999996185303</ele>
        <time>2020-06-14T09:58:55.000Z</time>
      </trkpt>
      <trkpt lat="47.29347" lon="-2.29989">
        <ele>8.3999996185303</ele>
        <time>2020-06-14T09:59:02.000Z</time>
      </trkpt>
      <trkpt lat="47.29342" lon="-2.30049">
        <ele>8.3999996185303</ele>
        <time>2020-06-14T09:59:09.000Z</time>
      </trkpt>
      <trkpt lat="47.29335" lon="-2.30113">
        <ele>8.3999996185303</ele>
        <time>2020-06-14T09:59:16.000Z</time>
      </trkpt>
      <trkpt lat="47.29331" lon="-2.30128">
        <ele>8.3999996185303</ele>
        <time>2020-06-14T09:59:18.000Z</time>
      </trkpt>
      <trkpt lat="47.29325" lon="-2.30138">
        <ele>8</ele>
        <time>2020-06-14T09:59:20.000Z</time>
      </trkpt>
      <trkpt lat="47.29321" lon="-2.3014">
        <ele>7.5999999046326</ele>
        <time>2020-06-14T09:59:21.000Z</time>
      </trkpt>
      <trkpt lat="47.29316" lon="-2.3014">
        <ele>6.8000001907349</ele>
        <time>2020-06-14T09:59:22.000Z</time>
      </trkpt>
      <trkpt lat="47.2931" lon="-2.30139">
        <ele>6.1999998092651</ele>
        <time>2020-06-14T09:59:23.000Z</time>
      </trkpt>
      <trkpt lat="47.29304" lon="-2.30138">
        <ele>6.1999998092651</ele>
        <time>2020-06-14T09:59:24.000Z</time>
      </trkpt>
      <trkpt lat="47.29298" lon="-2.30139">
        <ele>6.1999998092651</ele>
        <time>2020-06-14T09:59:25.000Z</time>
      </trkpt>
      <trkpt lat="47.2928" lon="-2.30139">
        <ele>6.1999998092651</ele>
        <time>2020-06-14T09:59:28.000Z</time>
      </trkpt>
      <trkpt lat="47.29256" lon="-2.3014">
        <ele>6.1999998092651</ele>
        <time>2020-06-14T09:59:33.000Z</time>
      </trkpt>
      <trkpt lat="47.29237" lon="-2.30142">
        <ele>6.1999998092651</ele>
        <time>2020-06-14T09:59:37.000Z</time>
      </trkpt>
      <trkpt lat="47.29232" lon="-2.30145">
        <ele>6.1999998092651</ele>
        <time>2020-06-14T09:59:38.000Z</time>
      </trkpt>
      <trkpt lat="47.29189" lon="-2.30165">
        <ele>6.1999998092651</ele>
        <time>2020-06-14T09:59:46.000Z</time>
      </trkpt>
      <trkpt lat="47.29148" lon="-2.30191">
        <ele>6.1999998092651</ele>
        <time>2020-06-14T09:59:54.000Z</time>
      </trkpt>
      <trkpt lat="47.29137" lon="-2.30197">
        <ele>6.8000001907349</ele>
        <time>2020-06-14T09:59:56.000Z</time>
      </trkpt>
      <trkpt lat="47.29132" lon="-2.302">
        <ele>7.1999998092651</ele>
        <time>2020-06-14T09:59:57.000Z</time>
      </trkpt>
      <trkpt lat="47.29127" lon="-2.30203">
        <ele>7.5999999046326</ele>
        <time>2020-06-14T09:59:58.000Z</time>
      </trkpt>
      <trkpt lat="47.29122" lon="-2.30206">
        <ele>8</ele>
        <time>2020-06-14T09:59:59.000Z</time>
      </trkpt>
      <trkpt lat="47.29117" lon="-2.30208">
        <ele>8.3999996185303</ele>
        <time>2020-06-14T10:00:00.000Z</time>
      </trkpt>
      <trkpt lat="47.29101" lon="-2.30216">
        <ele>8.3999996185303</ele>
        <time>2020-06-14T10:00:03.000Z</time>
      </trkpt>
      <trkpt lat="47.2906" lon="-2.30236">
        <ele>8.3999996185303</ele>
        <time>2020-06-14T10:00:11.000Z</time>
      </trkpt>
      <trkpt lat="47.29026" lon="-2.30245">
        <ele>8.3999996185303</ele>
        <time>2020-06-14T10:00:18.000Z</time>
      </trkpt>
      <trkpt lat="47.2901" lon="-2.30242">
        <ele>8.3999996185303</ele>
        <time>2020-06-14T10:00:21.000Z</time>
      </trkpt>
      <trkpt lat="47.29" lon="-2.30244">
        <ele>8.3999996185303</ele>
        <time>2020-06-14T10:00:23.000Z</time>
      </trkpt>
      <trkpt lat="47.28969" lon="-2.30248">
        <ele>8.3999996185303</ele>
        <time>2020-06-14T10:00:29.000Z</time>
      </trkpt>
      <trkpt lat="47.28964" lon="-2.30245">
        <ele>8.3999996185303</ele>
        <time>2020-06-14T10:00:30.000Z</time>
      </trkpt>
      <trkpt lat="47.28951" lon="-2.30226">
        <ele>8.3999996185303</ele>
        <time>2020-06-14T10:00:33.000Z</time>
      </trkpt>
      <trkpt lat="47.28937" lon="-2.30208">
        <ele>8.3999996185303</ele>
        <time>2020-06-14T10:00:36.000Z</time>
      </trkpt>
      <trkpt lat="47.28923" lon="-2.30191">
        <ele>8.3999996185303</ele>
        <time>2020-06-14T10:00:39.000Z</time>
      </trkpt>
      <trkpt lat="47.28892" lon="-2.30152">
        <ele>8.3999996185303</ele>
        <time>2020-06-14T10:00:46.000Z</time>
      </trkpt>
      <trkpt lat="47.28879" lon="-2.30134">
        <ele>8.8000001907349</ele>
        <time>2020-06-14T10:00:50.000Z</time>
      </trkpt>
      <trkpt lat="47.28875" lon="-2.3013">
        <ele>9.1999998092651</ele>
        <time>2020-06-14T10:00:51.000Z</time>
      </trkpt>
      <trkpt lat="47.28871" lon="-2.30126">
        <ele>9.6000003814697</ele>
        <time>2020-06-14T10:00:52.000Z</time>
      </trkpt>
      <trkpt lat="47.28867" lon="-2.30122">
        <ele>10</ele>
        <time>2020-06-14T10:00:53.000Z</time>
      </trkpt>
      <trkpt lat="47.28863" lon="-2.30118">
        <ele>10.39999961853</ele>
        <time>2020-06-14T10:00:54.000Z</time>
      </trkpt>
      <trkpt lat="47.28844" lon="-2.30096">
        <ele>10.39999961853</ele>
        <time>2020-06-14T10:00:59.000Z</time>
      </trkpt>
      <trkpt lat="47.28838" lon="-2.30087">
        <ele>10.39999961853</ele>
        <time>2020-06-14T10:01:01.000Z</time>
      </trkpt>
      <trkpt lat="47.28821" lon="-2.30069">
        <ele>10.39999961853</ele>
        <time>2020-06-14T10:01:05.000Z</time>
      </trkpt>
      <trkpt lat="47.28807" lon="-2.30053">
        <ele>10.800000190735</ele>
        <time>2020-06-14T10:01:08.000Z</time>
      </trkpt>
      <trkpt lat="47.28803" lon="-2.30048">
        <ele>11.199999809265</ele>
        <time>2020-06-14T10:01:09.000Z</time>
      </trkpt>
      <trkpt lat="47.28797" lon="-2.30044">
        <ele>11.60000038147</ele>
        <time>2020-06-14T10:01:10.000Z</time>
      </trkpt>
      <trkpt lat="47.28792" lon="-2.30041">
        <ele>12</ele>
        <time>2020-06-14T10:01:11.000Z</time>
      </trkpt>
      <trkpt lat="47.28787" lon="-2.30038">
        <ele>12.39999961853</ele>
        <time>2020-06-14T10:01:12.000Z</time>
      </trkpt>
      <trkpt lat="47.28777" lon="-2.30031">
        <ele>12.39999961853</ele>
        <time>2020-06-14T10:01:14.000Z</time>
      </trkpt>
      <trkpt lat="47.28769" lon="-2.30018">
        <ele>12.39999961853</ele>
        <time>2020-06-14T10:01:16.000Z</time>
      </trkpt>
      <trkpt lat="47.28766" lon="-2.30011">
        <ele>12.800000190735</ele>
        <time>2020-06-14T10:01:17.000Z</time>
      </trkpt>
      <trkpt lat="47.28763" lon="-2.30004">
        <ele>13.199999809265</ele>
        <time>2020-06-14T10:01:18.000Z</time>
      </trkpt>
      <trkpt lat="47.28759" lon="-2.29997">
        <ele>13.800000190735</ele>
        <time>2020-06-14T10:01:19.000Z</time>
      </trkpt>
      <trkpt lat="47.28755" lon="-2.29992">
        <ele>14.199999809265</ele>
        <time>2020-06-14T10:01:20.000Z</time>
      </trkpt>
      <trkpt lat="47.28751" lon="-2.29986">
        <ele>14.60000038147</ele>
        <time>2020-06-14T10:01:21.000Z</time>
      </trkpt>
      <trkpt lat="47.28747" lon="-2.29981">
        <ele>14.60000038147</ele>
        <time>2020-06-14T10:01:22.000Z</time>
      </trkpt>
      <trkpt lat="47.2874" lon="-2.29972">
        <ele>14.60000038147</ele>
        <time>2020-06-14T10:01:24.000Z</time>
      </trkpt>
      <trkpt lat="47.28728" lon="-2.2996">
        <ele>14.60000038147</ele>
        <time>2020-06-14T10:01:27.000Z</time>
      </trkpt>
      <trkpt lat="47.28724" lon="-2.29956">
        <ele>14.60000038147</ele>
        <time>2020-06-14T10:01:28.000Z</time>
      </trkpt>
      <trkpt lat="47.2872" lon="-2.29953">
        <ele>14.60000038147</ele>
        <time>2020-06-14T10:01:29.000Z</time>
      </trkpt>
      <trkpt lat="47.2871" lon="-2.29955">
        <ele>15</ele>
        <time>2020-06-14T10:01:31.000Z</time>
      </trkpt>
      <trkpt lat="47.28705" lon="-2.29956">
        <ele>15.39999961853</ele>
        <time>2020-06-14T10:01:32.000Z</time>
      </trkpt>
      <trkpt lat="47.28699" lon="-2.29956">
        <ele>15.800000190735</ele>
        <time>2020-06-14T10:01:33.000Z</time>
      </trkpt>
      <trkpt lat="47.28694" lon="-2.29953">
        <ele>16.200000762939</ele>
        <time>2020-06-14T10:01:34.000Z</time>
      </trkpt>
      <trkpt lat="47.2869" lon="-2.29947">
        <ele>16.60000038147</ele>
        <time>2020-06-14T10:01:35.000Z</time>
      </trkpt>
      <trkpt lat="47.28685" lon="-2.29933">
        <ele>16.60000038147</ele>
        <time>2020-06-14T10:01:37.000Z</time>
      </trkpt>
      <trkpt lat="47.28682" lon="-2.29926">
        <ele>16.60000038147</ele>
        <time>2020-06-14T10:01:38.000Z</time>
      </trkpt>
      <trkpt lat="47.2867" lon="-2.29918">
        <ele>16.60000038147</ele>
        <time>2020-06-14T10:01:41.000Z</time>
      </trkpt>
      <trkpt lat="47.28655" lon="-2.29906">
        <ele>16.60000038147</ele>
        <time>2020-06-14T10:01:45.000Z</time>
      </trkpt>
      <trkpt lat="47.2865" lon="-2.29895">
        <ele>16.60000038147</ele>
        <time>2020-06-14T10:01:47.000Z</time>
      </trkpt>
      <trkpt lat="47.28646" lon="-2.29876">
        <ele>17</ele>
        <time>2020-06-14T10:01:50.000Z</time>
      </trkpt>
      <trkpt lat="47.28645" lon="-2.29869">
        <ele>17.39999961853</ele>
        <time>2020-06-14T10:01:51.000Z</time>
      </trkpt>
      <trkpt lat="47.28644" lon="-2.29862">
        <ele>17.799999237061</ele>
        <time>2020-06-14T10:01:52.000Z</time>
      </trkpt>
      <trkpt lat="47.28644" lon="-2.29854">
        <ele>18.39999961853</ele>
        <time>2020-06-14T10:01:53.000Z</time>
      </trkpt>
      <trkpt lat="47.28644" lon="-2.29847">
        <ele>18.799999237061</ele>
        <time>2020-06-14T10:01:54.000Z</time>
      </trkpt>
      <trkpt lat="47.28643" lon="-2.29818">
        <ele>18.799999237061</ele>
        <time>2020-06-14T10:01:58.000Z</time>
      </trkpt>
      <trkpt lat="47.28642" lon="-2.29796">
        <ele>18.799999237061</ele>
        <time>2020-06-14T10:02:01.000Z</time>
      </trkpt>
      <trkpt lat="47.28636" lon="-2.29774">
        <ele>18.799999237061</ele>
        <time>2020-06-14T10:02:04.000Z</time>
      </trkpt>
      <trkpt lat="47.28633" lon="-2.29768">
        <ele>18.799999237061</ele>
        <time>2020-06-14T10:02:05.000Z</time>
      </trkpt>
      <trkpt lat="47.28623" lon="-2.29739">
        <ele>18.799999237061</ele>
        <time>2020-06-14T10:02:09.000Z</time>
      </trkpt>
      <trkpt lat="47.2862" lon="-2.29732">
        <ele>18.799999237061</ele>
        <time>2020-06-14T10:02:10.000Z</time>
      </trkpt>
      <trkpt lat="47.28604" lon="-2.29691">
        <ele>18.799999237061</ele>
        <time>2020-06-14T10:02:16.000Z</time>
      </trkpt>
      <trkpt lat="47.28598" lon="-2.29669">
        <ele>19.200000762939</ele>
        <time>2020-06-14T10:02:19.000Z</time>
      </trkpt>
      <trkpt lat="47.28597" lon="-2.29662">
        <ele>19.60000038147</ele>
        <time>2020-06-14T10:02:20.000Z</time>
      </trkpt>
      <trkpt lat="47.28595" lon="-2.29655">
        <ele>20.200000762939</ele>
        <time>2020-06-14T10:02:21.000Z</time>
      </trkpt>
      <trkpt lat="47.28595" lon="-2.29648">
        <ele>20.60000038147</ele>
        <time>2020-06-14T10:02:22.000Z</time>
      </trkpt>
      <trkpt lat="47.28594" lon="-2.29641">
        <ele>21.200000762939</ele>
        <time>2020-06-14T10:02:23.000Z</time>
      </trkpt>
      <trkpt lat="47.28593" lon="-2.29591">
        <ele>21.200000762939</ele>
        <time>2020-06-14T10:02:30.000Z</time>
      </trkpt>
      <trkpt lat="47.28596" lon="-2.29538">
        <ele>21.200000762939</ele>
        <time>2020-06-14T10:02:37.000Z</time>
      </trkpt>
      <trkpt lat="47.28592" lon="-2.29498">
        <ele>21.200000762939</ele>
        <time>2020-06-14T10:02:43.000Z</time>
      </trkpt>
      <trkpt lat="47.28584" lon="-2.2947">
        <ele>21.200000762939</ele>
        <time>2020-06-14T10:02:49.000Z</time>
      </trkpt>
      <trkpt lat="47.2858" lon="-2.29469">
        <ele>21.200000762939</ele>
        <time>2020-06-14T10:02:50.000Z</time>
      </trkpt>
      <trkpt lat="47.28574" lon="-2.29472">
        <ele>21.200000762939</ele>
        <time>2020-06-14T10:02:52.000Z</time>
      </trkpt>
      <trkpt lat="47.28567" lon="-2.29476">
        <ele>21.200000762939</ele>
        <time>2020-06-14T10:02:54.000Z</time>
      </trkpt>
      <trkpt lat="47.28551" lon="-2.29483">
        <ele>21.200000762939</ele>
        <time>2020-06-14T10:02:58.000Z</time>
      </trkpt>
      <trkpt lat="47.28543" lon="-2.29487">
        <ele>21.200000762939</ele>
        <time>2020-06-14T10:03:00.000Z</time>
      </trkpt>
      <trkpt lat="47.28533" lon="-2.29501">
        <ele>21.200000762939</ele>
        <time>2020-06-14T10:03:03.000Z</time>
      </trkpt>
      <trkpt lat="47.28529" lon="-2.29504">
        <ele>21.200000762939</ele>
        <time>2020-06-14T10:03:04.000Z</time>
      </trkpt>
      <trkpt lat="47.28514" lon="-2.29507">
        <ele>21.200000762939</ele>
        <time>2020-06-14T10:03:07.000Z</time>
      </trkpt>
      <trkpt lat="47.28509" lon="-2.29508">
        <ele>21.200000762939</ele>
        <time>2020-06-14T10:03:08.000Z</time>
      </trkpt>
      <trkpt lat="47.28499" lon="-2.29508">
        <ele>21.60000038147</ele>
        <time>2020-06-14T10:03:10.000Z</time>
      </trkpt>
      <trkpt lat="47.28494" lon="-2.29508">
        <ele>22</ele>
        <time>2020-06-14T10:03:11.000Z</time>
      </trkpt>
      <trkpt lat="47.28489" lon="-2.29508">
        <ele>22.39999961853</ele>
        <time>2020-06-14T10:03:12.000Z</time>
      </trkpt>
      <trkpt lat="47.28484" lon="-2.29508">
        <ele>22.799999237061</ele>
        <time>2020-06-14T10:03:13.000Z</time>
      </trkpt>
      <trkpt lat="47.2848" lon="-2.29507">
        <ele>23.200000762939</ele>
        <time>2020-06-14T10:03:14.000Z</time>
      </trkpt>
      <trkpt lat="47.28453" lon="-2.29505">
        <ele>23.200000762939</ele>
        <time>2020-06-14T10:03:20.000Z</time>
      </trkpt>
      <trkpt lat="47.28448" lon="-2.29506">
        <ele>23.200000762939</ele>
        <time>2020-06-14T10:03:21.000Z</time>
      </trkpt>
      <trkpt lat="47.28425" lon="-2.29504">
        <ele>23.200000762939</ele>
        <time>2020-06-14T10:03:26.000Z</time>
      </trkpt>
      <trkpt lat="47.28421" lon="-2.29501">
        <ele>23.200000762939</ele>
        <time>2020-06-14T10:03:27.000Z</time>
      </trkpt>
      <trkpt lat="47.28417" lon="-2.2949">
        <ele>23.200000762939</ele>
        <time>2020-06-14T10:03:29.000Z</time>
      </trkpt>
      <trkpt lat="47.28417" lon="-2.29471">
        <ele>23.200000762939</ele>
        <time>2020-06-14T10:03:32.000Z</time>
      </trkpt>
      <trkpt lat="47.28417" lon="-2.29464">
        <ele>23.200000762939</ele>
        <time>2020-06-14T10:03:33.000Z</time>
      </trkpt>
      <trkpt lat="47.28416" lon="-2.29427">
        <ele>23.200000762939</ele>
        <time>2020-06-14T10:03:39.000Z</time>
      </trkpt>
      <trkpt lat="47.28415" lon="-2.29409">
        <ele>23.200000762939</ele>
        <time>2020-06-14T10:03:42.000Z</time>
      </trkpt>
      <trkpt lat="47.28414" lon="-2.29396">
        <ele>23.200000762939</ele>
        <time>2020-06-14T10:03:44.000Z</time>
      </trkpt>
      <trkpt lat="47.28413" lon="-2.29384">
        <ele>23.200000762939</ele>
        <time>2020-06-14T10:03:46.000Z</time>
      </trkpt>
      <trkpt lat="47.28414" lon="-2.2936">
        <ele>23.200000762939</ele>
        <time>2020-06-14T10:03:50.000Z</time>
      </trkpt>
      <trkpt lat="47.2842" lon="-2.29353">
        <ele>23.200000762939</ele>
        <time>2020-06-14T10:03:52.000Z</time>
      </trkpt>
      <trkpt lat="47.28429" lon="-2.2935">
        <ele>23.200000762939</ele>
        <time>2020-06-14T10:03:54.000Z</time>
      </trkpt>
      <trkpt lat="47.28438" lon="-2.29346">
        <ele>23.200000762939</ele>
        <time>2020-06-14T10:03:56.000Z</time>
      </trkpt>
      <trkpt lat="47.28463" lon="-2.29335">
        <ele>23.200000762939</ele>
        <time>2020-06-14T10:04:01.000Z</time>
      </trkpt>
      <trkpt lat="47.28474" lon="-2.29331">
        <ele>23.200000762939</ele>
        <time>2020-06-14T10:04:03.000Z</time>
      </trkpt>
      <trkpt lat="47.28485" lon="-2.29317">
        <ele>23.200000762939</ele>
        <time>2020-06-14T10:04:07.000Z</time>
      </trkpt>
      <trkpt lat="47.28478" lon="-2.29316">
        <ele>23.200000762939</ele>
        <time>2020-06-14T10:04:10.000Z</time>
      </trkpt>
      <trkpt lat="47.28471" lon="-2.29319">
        <ele>23.200000762939</ele>
        <time>2020-06-14T10:04:12.000Z</time>
      </trkpt>
      <trkpt lat="47.28463" lon="-2.29324">
        <ele>23.200000762939</ele>
        <time>2020-06-14T10:04:14.000Z</time>
      </trkpt>
      <trkpt lat="47.28459" lon="-2.29326">
        <ele>23.200000762939</ele>
        <time>2020-06-14T10:04:15.000Z</time>
      </trkpt>
      <trkpt lat="47.28455" lon="-2.29328">
        <ele>23.799999237061</ele>
        <time>2020-06-14T10:04:16.000Z</time>
      </trkpt>
      <trkpt lat="47.2845" lon="-2.2933">
        <ele>24.200000762939</ele>
        <time>2020-06-14T10:04:17.000Z</time>
      </trkpt>
      <trkpt lat="47.28446" lon="-2.29331">
        <ele>25.200000762939</ele>
        <time>2020-06-14T10:04:18.000Z</time>
      </trkpt>
      <trkpt lat="47.28441" lon="-2.29332">
        <ele>25.799999237061</ele>
        <time>2020-06-14T10:04:19.000Z</time>
      </trkpt>
      <trkpt lat="47.28427" lon="-2.29337">
        <ele>25.799999237061</ele>
        <time>2020-06-14T10:04:22.000Z</time>
      </trkpt>
      <trkpt lat="47.28397" lon="-2.29355">
        <ele>25.799999237061</ele>
        <time>2020-06-14T10:04:29.000Z</time>
      </trkpt>
      <trkpt lat="47.28361" lon="-2.29378">
        <ele>25.799999237061</ele>
        <time>2020-06-14T10:04:37.000Z</time>
      </trkpt>
      <trkpt lat="47.28352" lon="-2.29387">
        <ele>25.799999237061</ele>
        <time>2020-06-14T10:04:39.000Z</time>
      </trkpt>
      <trkpt lat="47.28333" lon="-2.29408">
        <ele>25.799999237061</ele>
        <time>2020-06-14T10:04:43.000Z</time>
      </trkpt>
      <trkpt lat="47.28297" lon="-2.29444">
        <ele>25.799999237061</ele>
        <time>2020-06-14T10:04:50.000Z</time>
      </trkpt>
      <trkpt lat="47.28263" lon="-2.29468">
        <ele>25.799999237061</ele>
        <time>2020-06-14T10:04:57.000Z</time>
      </trkpt>
      <trkpt lat="47.28225" lon="-2.29489">
        <ele>26.200000762939</ele>
        <time>2020-06-14T10:05:05.000Z</time>
      </trkpt>
      <trkpt lat="47.28221" lon="-2.29492">
        <ele>26.60000038147</ele>
        <time>2020-06-14T10:05:06.000Z</time>
      </trkpt>
      <trkpt lat="47.28216" lon="-2.29494">
        <ele>27.39999961853</ele>
        <time>2020-06-14T10:05:07.000Z</time>
      </trkpt>
      <trkpt lat="47.28211" lon="-2.29497">
        <ele>27.799999237061</ele>
        <time>2020-06-14T10:05:08.000Z</time>
      </trkpt>
      <trkpt lat="47.28193" lon="-2.29506">
        <ele>27.799999237061</ele>
        <time>2020-06-14T10:05:12.000Z</time>
      </trkpt>
      <trkpt lat="47.28188" lon="-2.29508">
        <ele>28.200000762939</ele>
        <time>2020-06-14T10:05:13.000Z</time>
      </trkpt>
      <trkpt lat="47.28184" lon="-2.29509">
        <ele>28.60000038147</ele>
        <time>2020-06-14T10:05:14.000Z</time>
      </trkpt>
      <trkpt lat="47.2818" lon="-2.29511">
        <ele>29.200000762939</ele>
        <time>2020-06-14T10:05:15.000Z</time>
      </trkpt>
      <trkpt lat="47.28175" lon="-2.29511">
        <ele>29.60000038147</ele>
        <time>2020-06-14T10:05:16.000Z</time>
      </trkpt>
      <trkpt lat="47.28171" lon="-2.29511">
        <ele>30.200000762939</ele>
        <time>2020-06-14T10:05:17.000Z</time>
      </trkpt>
      <trkpt lat="47.28166" lon="-2.29512">
        <ele>30.200000762939</ele>
        <time>2020-06-14T10:05:18.000Z</time>
      </trkpt>
      <trkpt lat="47.28157" lon="-2.29516">
        <ele>30.200000762939</ele>
        <time>2020-06-14T10:05:20.000Z</time>
      </trkpt>
      <trkpt lat="47.28143" lon="-2.29525">
        <ele>30.200000762939</ele>
        <time>2020-06-14T10:05:23.000Z</time>
      </trkpt>
      <trkpt lat="47.28118" lon="-2.29536">
        <ele>30.60000038147</ele>
        <time>2020-06-14T10:05:28.000Z</time>
      </trkpt>
      <trkpt lat="47.28113" lon="-2.29538">
        <ele>31</ele>
        <time>2020-06-14T10:05:29.000Z</time>
      </trkpt>
      <trkpt lat="47.28108" lon="-2.2954">
        <ele>31.39999961853</ele>
        <time>2020-06-14T10:05:30.000Z</time>
      </trkpt>
      <trkpt lat="47.28103" lon="-2.29542">
        <ele>31.799999237061</ele>
        <time>2020-06-14T10:05:31.000Z</time>
      </trkpt>
      <trkpt lat="47.28098" lon="-2.29544">
        <ele>32.400001525879</ele>
        <time>2020-06-14T10:05:32.000Z</time>
      </trkpt>
      <trkpt lat="47.28076" lon="-2.29553">
        <ele>32.400001525879</ele>
        <time>2020-06-14T10:05:36.000Z</time>
      </trkpt>
      <trkpt lat="47.28022" lon="-2.29577">
        <ele>32.400001525879</ele>
        <time>2020-06-14T10:05:46.000Z</time>
      </trkpt>
      <trkpt lat="47.27981" lon="-2.29593">
        <ele>32.400001525879</ele>
        <time>2020-06-14T10:05:53.000Z</time>
      </trkpt>
      <trkpt lat="47.27946" lon="-2.29598">
        <ele>32.400001525879</ele>
        <time>2020-06-14T10:05:59.000Z</time>
      </trkpt>
      <trkpt lat="47.27897" lon="-2.29598">
        <ele>32.400001525879</ele>
        <time>2020-06-14T10:06:07.000Z</time>
      </trkpt>
      <trkpt lat="47.27859" lon="-2.29594">
        <ele>32.400001525879</ele>
        <time>2020-06-14T10:06:14.000Z</time>
      </trkpt>
      <trkpt lat="47.27854" lon="-2.29594">
        <ele>32.400001525879</ele>
        <time>2020-06-14T10:06:15.000Z</time>
      </trkpt>
      <trkpt lat="47.27847" lon="-2.29594">
        <ele>31.799999237061</ele>
        <time>2020-06-14T10:06:17.000Z</time>
      </trkpt>
      <trkpt lat="47.27843" lon="-2.29594">
        <ele>31.200000762939</ele>
        <time>2020-06-14T10:06:18.000Z</time>
      </trkpt>
      <trkpt lat="47.27839" lon="-2.29592">
        <ele>30.799999237061</ele>
        <time>2020-06-14T10:06:19.000Z</time>
      </trkpt>
      <trkpt lat="47.27834" lon="-2.29592">
        <ele>30.200000762939</ele>
        <time>2020-06-14T10:06:20.000Z</time>
      </trkpt>
      <trkpt lat="47.27829" lon="-2.29592">
        <ele>29.799999237061</ele>
        <time>2020-06-14T10:06:21.000Z</time>
      </trkpt>
      <trkpt lat="47.27801" lon="-2.29593">
        <ele>29.799999237061</ele>
        <time>2020-06-14T10:06:26.000Z</time>
      </trkpt>
      <trkpt lat="47.2776" lon="-2.29594">
        <ele>29.799999237061</ele>
        <time>2020-06-14T10:06:33.000Z</time>
      </trkpt>
      <trkpt lat="47.27714" lon="-2.29594">
        <ele>29.799999237061</ele>
        <time>2020-06-14T10:06:40.000Z</time>
      </trkpt>
      <trkpt lat="47.27671" lon="-2.29595">
        <ele>29.799999237061</ele>
        <time>2020-06-14T10:06:46.000Z</time>
      </trkpt>
      <trkpt lat="47.27615" lon="-2.29596">
        <ele>29.799999237061</ele>
        <time>2020-06-14T10:06:53.000Z</time>
      </trkpt>
      <trkpt lat="47.27554" lon="-2.29596">
        <ele>29.799999237061</ele>
        <time>2020-06-14T10:07:00.000Z</time>
      </trkpt>
      <trkpt lat="47.27545" lon="-2.29596">
        <ele>29.799999237061</ele>
        <time>2020-06-14T10:07:01.000Z</time>
      </trkpt>
      <trkpt lat="47.27504" lon="-2.29598">
        <ele>29.799999237061</ele>
        <time>2020-06-14T10:07:06.000Z</time>
      </trkpt>
      <trkpt lat="47.27453" lon="-2.29612">
        <ele>29.799999237061</ele>
        <time>2020-06-14T10:07:13.000Z</time>
      </trkpt>
      <trkpt lat="47.27417" lon="-2.29621">
        <ele>29.799999237061</ele>
        <time>2020-06-14T10:07:19.000Z</time>
      </trkpt>
      <trkpt lat="47.27397" lon="-2.29626">
        <ele>29.799999237061</ele>
        <time>2020-06-14T10:07:23.000Z</time>
      </trkpt>
      <trkpt lat="47.27388" lon="-2.29628">
        <ele>29.799999237061</ele>
        <time>2020-06-14T10:07:25.000Z</time>
      </trkpt>
      <trkpt lat="47.2736" lon="-2.29632">
        <ele>29.799999237061</ele>
        <time>2020-06-14T10:07:32.000Z</time>
      </trkpt>
      <trkpt lat="47.27356" lon="-2.29633">
        <ele>29.799999237061</ele>
        <time>2020-06-14T10:07:33.000Z</time>
      </trkpt>
      <trkpt lat="47.27337" lon="-2.29636">
        <ele>29.799999237061</ele>
        <time>2020-06-14T10:07:37.000Z</time>
      </trkpt>
      <trkpt lat="47.273" lon="-2.2964">
        <ele>29.799999237061</ele>
        <time>2020-06-14T10:07:44.000Z</time>
      </trkpt>
      <trkpt lat="47.27273" lon="-2.29642">
        <ele>29.799999237061</ele>
        <time>2020-06-14T10:07:50.000Z</time>
      </trkpt>
      <trkpt lat="47.27268" lon="-2.29645">
        <ele>29.799999237061</ele>
        <time>2020-06-14T10:07:52.000Z</time>
      </trkpt>
      <trkpt lat="47.27266" lon="-2.29648">
        <ele>29.799999237061</ele>
        <time>2020-06-14T10:07:53.000Z</time>
      </trkpt>
      <trkpt lat="47.27267" lon="-2.29666">
        <ele>29.799999237061</ele>
        <time>2020-06-14T10:07:57.000Z</time>
      </trkpt>
      <trkpt lat="47.27275" lon="-2.297">
        <ele>29.799999237061</ele>
        <time>2020-06-14T10:08:02.000Z</time>
      </trkpt>
      <trkpt lat="47.27283" lon="-2.29724">
        <ele>29.799999237061</ele>
        <time>2020-06-14T10:08:05.000Z</time>
      </trkpt>
      <trkpt lat="47.2729" lon="-2.29749">
        <ele>29.799999237061</ele>
        <time>2020-06-14T10:08:08.000Z</time>
      </trkpt>
      <trkpt lat="47.27306" lon="-2.29798">
        <ele>29.799999237061</ele>
        <time>2020-06-14T10:08:14.000Z</time>
      </trkpt>
      <trkpt lat="47.27327" lon="-2.29832">
        <ele>29.799999237061</ele>
        <time>2020-06-14T10:08:19.000Z</time>
      </trkpt>
      <trkpt lat="47.27348" lon="-2.2987">
        <ele>29.799999237061</ele>
        <time>2020-06-14T10:08:24.000Z</time>
      </trkpt>
      <trkpt lat="47.27374" lon="-2.29925">
        <ele>29.799999237061</ele>
        <time>2020-06-14T10:08:31.000Z</time>
      </trkpt>
      <trkpt lat="47.27394" lon="-2.29973">
        <ele>29.799999237061</ele>
        <time>2020-06-14T10:08:37.000Z</time>
      </trkpt>
      <trkpt lat="47.27414" lon="-2.30024">
        <ele>29.799999237061</ele>
        <time>2020-06-14T10:08:43.000Z</time>
      </trkpt>
      <trkpt lat="47.27436" lon="-2.30087">
        <ele>29.799999237061</ele>
        <time>2020-06-14T10:08:50.000Z</time>
      </trkpt>
      <trkpt lat="47.27443" lon="-2.30116">
        <ele>29.39999961853</ele>
        <time>2020-06-14T10:08:53.000Z</time>
      </trkpt>
      <trkpt lat="47.27445" lon="-2.30126">
        <ele>28.799999237061</ele>
        <time>2020-06-14T10:08:54.000Z</time>
      </trkpt>
      <trkpt lat="47.27447" lon="-2.30135">
        <ele>28.39999961853</ele>
        <time>2020-06-14T10:08:55.000Z</time>
      </trkpt>
      <trkpt lat="47.27449" lon="-2.30143">
        <ele>28</ele>
        <time>2020-06-14T10:08:56.000Z</time>
      </trkpt>
      <trkpt lat="47.27451" lon="-2.30152">
        <ele>27.60000038147</ele>
        <time>2020-06-14T10:08:57.000Z</time>
      </trkpt>
      <trkpt lat="47.27454" lon="-2.3017">
        <ele>27.200000762939</ele>
        <time>2020-06-14T10:08:59.000Z</time>
      </trkpt>
      <trkpt lat="47.27456" lon="-2.30178">
        <ele>26.799999237061</ele>
        <time>2020-06-14T10:09:00.000Z</time>
      </trkpt>
      <trkpt lat="47.27457" lon="-2.30186">
        <ele>26.39999961853</ele>
        <time>2020-06-14T10:09:01.000Z</time>
      </trkpt>
      <trkpt lat="47.27458" lon="-2.30193">
        <ele>26</ele>
        <time>2020-06-14T10:09:02.000Z</time>
      </trkpt>
      <trkpt lat="47.27458" lon="-2.30199">
        <ele>25.60000038147</ele>
        <time>2020-06-14T10:09:03.000Z</time>
      </trkpt>
      <trkpt lat="47.27458" lon="-2.30203">
        <ele>25.60000038147</ele>
        <time>2020-06-14T10:09:04.000Z</time>
      </trkpt>
      <trkpt lat="47.27453" lon="-2.30208">
        <ele>25.200000762939</ele>
        <time>2020-06-14T10:09:06.000Z</time>
      </trkpt>
      <trkpt lat="47.2745" lon="-2.30209">
        <ele>24.799999237061</ele>
        <time>2020-06-14T10:09:07.000Z</time>
      </trkpt>
      <trkpt lat="47.27446" lon="-2.30211">
        <ele>24.200000762939</ele>
        <time>2020-06-14T10:09:08.000Z</time>
      </trkpt>
      <trkpt lat="47.27443" lon="-2.30213">
        <ele>23.799999237061</ele>
        <time>2020-06-14T10:09:09.000Z</time>
      </trkpt>
      <trkpt lat="47.27439" lon="-2.30215">
        <ele>23.39999961853</ele>
        <time>2020-06-14T10:09:10.000Z</time>
      </trkpt>
      <trkpt lat="47.27428" lon="-2.30221">
        <ele>23.39999961853</ele>
        <time>2020-06-14T10:09:13.000Z</time>
      </trkpt>
      <trkpt lat="47.27409" lon="-2.30231">
        <ele>23.39999961853</ele>
        <time>2020-06-14T10:09:17.000Z</time>
      </trkpt>
      <trkpt lat="47.274" lon="-2.30236">
        <ele>23.39999961853</ele>
        <time>2020-06-14T10:09:19.000Z</time>
      </trkpt>
      <trkpt lat="47.27373" lon="-2.30249">
        <ele>23.39999961853</ele>
        <time>2020-06-14T10:09:25.000Z</time>
      </trkpt>
      <trkpt lat="47.27368" lon="-2.3025">
        <ele>23.39999961853</ele>
        <time>2020-06-14T10:09:26.000Z</time>
      </trkpt>
      <trkpt lat="47.27328" lon="-2.30255">
        <ele>23.39999961853</ele>
        <time>2020-06-14T10:09:33.000Z</time>
      </trkpt>
      <trkpt lat="47.27295" lon="-2.30256">
        <ele>23.39999961853</ele>
        <time>2020-06-14T10:09:38.000Z</time>
      </trkpt>
      <trkpt lat="47.27276" lon="-2.30255">
        <ele>23.39999961853</ele>
        <time>2020-06-14T10:09:41.000Z</time>
      </trkpt>
      <trkpt lat="47.27262" lon="-2.30258">
        <ele>23.39999961853</ele>
        <time>2020-06-14T10:09:43.000Z</time>
      </trkpt>
      <trkpt lat="47.27241" lon="-2.30259">
        <ele>23</ele>
        <time>2020-06-14T10:09:47.000Z</time>
      </trkpt>
      <trkpt lat="47.27237" lon="-2.30258">
        <ele>22.60000038147</ele>
        <time>2020-06-14T10:09:48.000Z</time>
      </trkpt>
      <trkpt lat="47.27233" lon="-2.30258">
        <ele>22.200000762939</ele>
        <time>2020-06-14T10:09:49.000Z</time>
      </trkpt>
      <trkpt lat="47.27229" lon="-2.30258">
        <ele>21.60000038147</ele>
        <time>2020-06-14T10:09:50.000Z</time>
      </trkpt>
      <trkpt lat="47.27226" lon="-2.30258">
        <ele>21.200000762939</ele>
        <time>2020-06-14T10:09:51.000Z</time>
      </trkpt>
      <trkpt lat="47.27222" lon="-2.30256">
        <ele>21.200000762939</ele>
        <time>2020-06-14T10:09:52.000Z</time>
      </trkpt>
      <trkpt lat="47.27202" lon="-2.30254">
        <ele>21.200000762939</ele>
        <time>2020-06-14T10:09:57.000Z</time>
      </trkpt>
      <trkpt lat="47.27186" lon="-2.30255">
        <ele>21.200000762939</ele>
        <time>2020-06-14T10:10:01.000Z</time>
      </trkpt>
      <trkpt lat="47.27182" lon="-2.30252">
        <ele>21.200000762939</ele>
        <time>2020-06-14T10:10:02.000Z</time>
      </trkpt>
      <trkpt lat="47.27169" lon="-2.30242">
        <ele>21.200000762939</ele>
        <time>2020-06-14T10:10:06.000Z</time>
      </trkpt>
      <trkpt lat="47.27164" lon="-2.30243">
        <ele>21.200000762939</ele>
        <time>2020-06-14T10:10:07.000Z</time>
      </trkpt>
      <trkpt lat="47.27138" lon="-2.30249">
        <ele>21.200000762939</ele>
        <time>2020-06-14T10:10:12.000Z</time>
      </trkpt>
      <trkpt lat="47.27108" lon="-2.3026">
        <ele>21.200000762939</ele>
        <time>2020-06-14T10:10:18.000Z</time>
      </trkpt>
      <trkpt lat="47.27099" lon="-2.30265">
        <ele>21.799999237061</ele>
        <time>2020-06-14T10:10:20.000Z</time>
      </trkpt>
      <trkpt lat="47.27095" lon="-2.30269">
        <ele>22.200000762939</ele>
        <time>2020-06-14T10:10:21.000Z</time>
      </trkpt>
      <trkpt lat="47.27091" lon="-2.30273">
        <ele>22.60000038147</ele>
        <time>2020-06-14T10:10:22.000Z</time>
      </trkpt>
      <trkpt lat="47.27087" lon="-2.30277">
        <ele>23</ele>
        <time>2020-06-14T10:10:23.000Z</time>
      </trkpt>
      <trkpt lat="47.27084" lon="-2.30282">
        <ele>23.39999961853</ele>
        <time>2020-06-14T10:10:24.000Z</time>
      </trkpt>
      <trkpt lat="47.27079" lon="-2.303">
        <ele>23.39999961853</ele>
        <time>2020-06-14T10:10:27.000Z</time>
      </trkpt>
      <trkpt lat="47.27078" lon="-2.30306">
        <ele>23.39999961853</ele>
        <time>2020-06-14T10:10:28.000Z</time>
      </trkpt>
      <trkpt lat="47.27076" lon="-2.30312">
        <ele>24</ele>
        <time>2020-06-14T10:10:29.000Z</time>
      </trkpt>
      <trkpt lat="47.27075" lon="-2.3032">
        <ele>24.39999961853</ele>
        <time>2020-06-14T10:10:30.000Z</time>
      </trkpt>
      <trkpt lat="47.27073" lon="-2.30328">
        <ele>24.799999237061</ele>
        <time>2020-06-14T10:10:31.000Z</time>
      </trkpt>
      <trkpt lat="47.27072" lon="-2.30336">
        <ele>25.200000762939</ele>
        <time>2020-06-14T10:10:32.000Z</time>
      </trkpt>
      <trkpt lat="47.27072" lon="-2.30343">
        <ele>25.799999237061</ele>
        <time>2020-06-14T10:10:33.000Z</time>
      </trkpt>
      <trkpt lat="47.2707" lon="-2.30352">
        <ele>25.799999237061</ele>
        <time>2020-06-14T10:10:34.000Z</time>
      </trkpt>
      <trkpt lat="47.27067" lon="-2.30378">
        <ele>25.799999237061</ele>
        <time>2020-06-14T10:10:37.000Z</time>
      </trkpt>
      <trkpt lat="47.27058" lon="-2.30434">
        <ele>25.799999237061</ele>
        <time>2020-06-14T10:10:43.000Z</time>
      </trkpt>
      <trkpt lat="47.27042" lon="-2.30495">
        <ele>25.799999237061</ele>
        <time>2020-06-14T10:10:50.000Z</time>
      </trkpt>
      <trkpt lat="47.27036" lon="-2.30518">
        <ele>25.799999237061</ele>
        <time>2020-06-14T10:10:53.000Z</time>
      </trkpt>
      <trkpt lat="47.27033" lon="-2.30526">
        <ele>25.799999237061</ele>
        <time>2020-06-14T10:10:54.000Z</time>
      </trkpt>
      <trkpt lat="47.27018" lon="-2.30578">
        <ele>25.799999237061</ele>
        <time>2020-06-14T10:11:01.000Z</time>
      </trkpt>
      <trkpt lat="47.27015" lon="-2.30585">
        <ele>25.799999237061</ele>
        <time>2020-06-14T10:11:02.000Z</time>
      </trkpt>
      <trkpt lat="47.27001" lon="-2.30599">
        <ele>25.799999237061</ele>
        <time>2020-06-14T10:11:05.000Z</time>
      </trkpt>
      <trkpt lat="47.26996" lon="-2.30603">
        <ele>25.799999237061</ele>
        <time>2020-06-14T10:11:06.000Z</time>
      </trkpt>
      <trkpt lat="47.26963" lon="-2.3062">
        <ele>25.799999237061</ele>
        <time>2020-06-14T10:11:11.000Z</time>
      </trkpt>
      <trkpt lat="47.26934" lon="-2.30631">
        <ele>25.799999237061</ele>
        <time>2020-06-14T10:11:16.000Z</time>
      </trkpt>
      <trkpt lat="47.26914" lon="-2.30641">
        <ele>25.799999237061</ele>
        <time>2020-06-14T10:11:21.000Z</time>
      </trkpt>
      <trkpt lat="47.26907" lon="-2.30647">
        <ele>26.200000762939</ele>
        <time>2020-06-14T10:11:23.000Z</time>
      </trkpt>
      <trkpt lat="47.26904" lon="-2.3065">
        <ele>26.60000038147</ele>
        <time>2020-06-14T10:11:24.000Z</time>
      </trkpt>
      <trkpt lat="47.26901" lon="-2.30654">
        <ele>27.200000762939</ele>
        <time>2020-06-14T10:11:25.000Z</time>
      </trkpt>
      <trkpt lat="47.26897" lon="-2.30657">
        <ele>27.60000038147</ele>
        <time>2020-06-14T10:11:26.000Z</time>
      </trkpt>
      <trkpt lat="47.26894" lon="-2.30661">
        <ele>28</ele>
        <time>2020-06-14T10:11:27.000Z</time>
      </trkpt>
      <trkpt lat="47.2689" lon="-2.30664">
        <ele>28</ele>
        <time>2020-06-14T10:11:28.000Z</time>
      </trkpt>
      <trkpt lat="47.26871" lon="-2.30692">
        <ele>28</ele>
        <time>2020-06-14T10:11:35.000Z</time>
      </trkpt>
      <trkpt lat="47.26858" lon="-2.30719">
        <ele>28</ele>
        <time>2020-06-14T10:11:42.000Z</time>
      </trkpt>
      <trkpt lat="47.26848" lon="-2.30743">
        <ele>28</ele>
        <time>2020-06-14T10:11:48.000Z</time>
      </trkpt>
      <trkpt lat="47.26838" lon="-2.30773">
        <ele>28</ele>
        <time>2020-06-14T10:11:55.000Z</time>
      </trkpt>
      <trkpt lat="47.26834" lon="-2.30804">
        <ele>28</ele>
        <time>2020-06-14T10:12:01.000Z</time>
      </trkpt>
      <trkpt lat="47.26833" lon="-2.30847">
        <ele>28</ele>
        <time>2020-06-14T10:12:08.000Z</time>
      </trkpt>
      <trkpt lat="47.26833" lon="-2.30862">
        <ele>28</ele>
        <time>2020-06-14T10:12:10.000Z</time>
      </trkpt>
      <trkpt lat="47.26836" lon="-2.30887">
        <ele>28</ele>
        <time>2020-06-14T10:12:13.000Z</time>
      </trkpt>
      <trkpt lat="47.26847" lon="-2.3096">
        <ele>28</ele>
        <time>2020-06-14T10:12:21.000Z</time>
      </trkpt>
      <trkpt lat="47.26852" lon="-2.31015">
        <ele>28</ele>
        <time>2020-06-14T10:12:27.000Z</time>
      </trkpt>
      <trkpt lat="47.26854" lon="-2.3107">
        <ele>28</ele>
        <time>2020-06-14T10:12:34.000Z</time>
      </trkpt>
      <trkpt lat="47.26855" lon="-2.31097">
        <ele>28</ele>
        <time>2020-06-14T10:12:39.000Z</time>
      </trkpt>
      <trkpt lat="47.26855" lon="-2.31148">
        <ele>28</ele>
        <time>2020-06-14T10:12:46.000Z</time>
      </trkpt>
      <trkpt lat="47.26853" lon="-2.31205">
        <ele>28</ele>
        <time>2020-06-14T10:12:53.000Z</time>
      </trkpt>
      <trkpt lat="47.26849" lon="-2.31268">
        <ele>28</ele>
        <time>2020-06-14T10:13:00.000Z</time>
      </trkpt>
      <trkpt lat="47.26841" lon="-2.31311">
        <ele>28</ele>
        <time>2020-06-14T10:13:05.000Z</time>
      </trkpt>
      <trkpt lat="47.26839" lon="-2.31317">
        <ele>28</ele>
        <time>2020-06-14T10:13:06.000Z</time>
      </trkpt>
      <trkpt lat="47.26831" lon="-2.31331">
        <ele>28</ele>
        <time>2020-06-14T10:13:09.000Z</time>
      </trkpt>
      <trkpt lat="47.26829" lon="-2.31334">
        <ele>28</ele>
        <time>2020-06-14T10:13:10.000Z</time>
      </trkpt>
      <trkpt lat="47.26826" lon="-2.31336">
        <ele>28</ele>
        <time>2020-06-14T10:13:11.000Z</time>
      </trkpt>
      <trkpt lat="47.26816" lon="-2.3134">
        <ele>28</ele>
        <time>2020-06-14T10:13:14.000Z</time>
      </trkpt>
      <trkpt lat="47.26812" lon="-2.31343">
        <ele>28</ele>
        <time>2020-06-14T10:13:15.000Z</time>
      </trkpt>
      <trkpt lat="47.268" lon="-2.31352">
        <ele>28</ele>
        <time>2020-06-14T10:13:18.000Z</time>
      </trkpt>
      <trkpt lat="47.2677" lon="-2.31368">
        <ele>28</ele>
        <time>2020-06-14T10:13:24.000Z</time>
      </trkpt>
      <trkpt lat="47.26753" lon="-2.31378">
        <ele>28</ele>
        <time>2020-06-14T10:13:27.000Z</time>
      </trkpt>
      <trkpt lat="47.26736" lon="-2.31389">
        <ele>28</ele>
        <time>2020-06-14T10:13:30.000Z</time>
      </trkpt>
      <trkpt lat="47.267" lon="-2.31412">
        <ele>28</ele>
        <time>2020-06-14T10:13:36.000Z</time>
      </trkpt>
      <trkpt lat="47.26656" lon="-2.31438">
        <ele>28</ele>
        <time>2020-06-14T10:13:43.000Z</time>
      </trkpt>
      <trkpt lat="47.26638" lon="-2.31451">
        <ele>27.60000038147</ele>
        <time>2020-06-14T10:13:46.000Z</time>
      </trkpt>
      <trkpt lat="47.26632" lon="-2.31456">
        <ele>27.200000762939</ele>
        <time>2020-06-14T10:13:47.000Z</time>
      </trkpt>
      <trkpt lat="47.26626" lon="-2.31461">
        <ele>26.60000038147</ele>
        <time>2020-06-14T10:13:48.000Z</time>
      </trkpt>
      <trkpt lat="47.26621" lon="-2.31466">
        <ele>26.200000762939</ele>
        <time>2020-06-14T10:13:49.000Z</time>
      </trkpt>
      <trkpt lat="47.26616" lon="-2.31471">
        <ele>25.799999237061</ele>
        <time>2020-06-14T10:13:50.000Z</time>
      </trkpt>
      <trkpt lat="47.26612" lon="-2.31476">
        <ele>25.799999237061</ele>
        <time>2020-06-14T10:13:51.000Z</time>
      </trkpt>
      <trkpt lat="47.26609" lon="-2.31482">
        <ele>25.39999961853</ele>
        <time>2020-06-14T10:13:52.000Z</time>
      </trkpt>
      <trkpt lat="47.26608" lon="-2.31488">
        <ele>25</ele>
        <time>2020-06-14T10:13:53.000Z</time>
      </trkpt>
      <trkpt lat="47.26609" lon="-2.31495">
        <ele>24.39999961853</ele>
        <time>2020-06-14T10:13:54.000Z</time>
      </trkpt>
      <trkpt lat="47.26611" lon="-2.31502">
        <ele>24</ele>
        <time>2020-06-14T10:13:55.000Z</time>
      </trkpt>
      <trkpt lat="47.26614" lon="-2.31509">
        <ele>23.60000038147</ele>
        <time>2020-06-14T10:13:56.000Z</time>
      </trkpt>
      <trkpt lat="47.26617" lon="-2.31516">
        <ele>23.60000038147</ele>
        <time>2020-06-14T10:13:57.000Z</time>
      </trkpt>
      <trkpt lat="47.26628" lon="-2.31543">
        <ele>23.60000038147</ele>
        <time>2020-06-14T10:14:01.000Z</time>
      </trkpt>
      <trkpt lat="47.26624" lon="-2.31562">
        <ele>23.60000038147</ele>
        <time>2020-06-14T10:14:04.000Z</time>
      </trkpt>
      <trkpt lat="47.26608" lon="-2.31575">
        <ele>23.60000038147</ele>
        <time>2020-06-14T10:14:07.000Z</time>
      </trkpt>
      <trkpt lat="47.26601" lon="-2.31579">
        <ele>23.200000762939</ele>
        <time>2020-06-14T10:14:08.000Z</time>
      </trkpt>
      <trkpt lat="47.26594" lon="-2.31583">
        <ele>22.60000038147</ele>
        <time>2020-06-14T10:14:09.000Z</time>
      </trkpt>
      <trkpt lat="47.26587" lon="-2.31588">
        <ele>21.799999237061</ele>
        <time>2020-06-14T10:14:10.000Z</time>
      </trkpt>
      <trkpt lat="47.2658" lon="-2.31593">
        <ele>21.200000762939</ele>
        <time>2020-06-14T10:14:11.000Z</time>
      </trkpt>
      <trkpt lat="47.26565" lon="-2.31604">
        <ele>21.200000762939</ele>
        <time>2020-06-14T10:14:13.000Z</time>
      </trkpt>
      <trkpt lat="47.26557" lon="-2.31609">
        <ele>20.799999237061</ele>
        <time>2020-06-14T10:14:14.000Z</time>
      </trkpt>
      <trkpt lat="47.2655" lon="-2.31613">
        <ele>20.200000762939</ele>
        <time>2020-06-14T10:14:15.000Z</time>
      </trkpt>
      <trkpt lat="47.26543" lon="-2.31618">
        <ele>19.60000038147</ele>
        <time>2020-06-14T10:14:16.000Z</time>
      </trkpt>
      <trkpt lat="47.26535" lon="-2.31623">
        <ele>19</ele>
        <time>2020-06-14T10:14:17.000Z</time>
      </trkpt>
      <trkpt lat="47.26528" lon="-2.31627">
        <ele>18.60000038147</ele>
        <time>2020-06-14T10:14:18.000Z</time>
      </trkpt>
      <trkpt lat="47.26514" lon="-2.31635">
        <ele>18</ele>
        <time>2020-06-14T10:14:20.000Z</time>
      </trkpt>
      <trkpt lat="47.26506" lon="-2.31638">
        <ele>17.39999961853</ele>
        <time>2020-06-14T10:14:21.000Z</time>
      </trkpt>
      <trkpt lat="47.26499" lon="-2.3164">
        <ele>17</ele>
        <time>2020-06-14T10:14:22.000Z</time>
      </trkpt>
      <trkpt lat="47.26491" lon="-2.31642">
        <ele>16.39999961853</ele>
        <time>2020-06-14T10:14:23.000Z</time>
      </trkpt>
      <trkpt lat="47.26483" lon="-2.31643">
        <ele>15.800000190735</ele>
        <time>2020-06-14T10:14:24.000Z</time>
      </trkpt>
      <trkpt lat="47.26475" lon="-2.31645">
        <ele>15.199999809265</ele>
        <time>2020-06-14T10:14:25.000Z</time>
      </trkpt>
      <trkpt lat="47.26467" lon="-2.31646">
        <ele>14.60000038147</ele>
        <time>2020-06-14T10:14:26.000Z</time>
      </trkpt>
      <trkpt lat="47.26459" lon="-2.31648">
        <ele>14.199999809265</ele>
        <time>2020-06-14T10:14:27.000Z</time>
      </trkpt>
      <trkpt lat="47.26451" lon="-2.31649">
        <ele>13.60000038147</ele>
        <time>2020-06-14T10:14:28.000Z</time>
      </trkpt>
      <trkpt lat="47.26443" lon="-2.31651">
        <ele>13.199999809265</ele>
        <time>2020-06-14T10:14:29.000Z</time>
      </trkpt>
      <trkpt lat="47.26435" lon="-2.31652">
        <ele>12.800000190735</ele>
        <time>2020-06-14T10:14:30.000Z</time>
      </trkpt>
      <trkpt lat="47.26427" lon="-2.31654">
        <ele>12.199999809265</ele>
        <time>2020-06-14T10:14:31.000Z</time>
      </trkpt>
      <trkpt lat="47.26419" lon="-2.31656">
        <ele>11.800000190735</ele>
        <time>2020-06-14T10:14:32.000Z</time>
      </trkpt>
      <trkpt lat="47.26412" lon="-2.31658">
        <ele>11.39999961853</ele>
        <time>2020-06-14T10:14:33.000Z</time>
      </trkpt>
      <trkpt lat="47.26396" lon="-2.31663">
        <ele>11</ele>
        <time>2020-06-14T10:14:35.000Z</time>
      </trkpt>
      <trkpt lat="47.2639" lon="-2.31668">
        <ele>10.60000038147</ele>
        <time>2020-06-14T10:14:36.000Z</time>
      </trkpt>
      <trkpt lat="47.26383" lon="-2.31672">
        <ele>10.199999809265</ele>
        <time>2020-06-14T10:14:37.000Z</time>
      </trkpt>
      <trkpt lat="47.26376" lon="-2.31676">
        <ele>9.8000001907349</ele>
        <time>2020-06-14T10:14:38.000Z</time>
      </trkpt>
      <trkpt lat="47.26369" lon="-2.3168">
        <ele>9.1999998092651</ele>
        <time>2020-06-14T10:14:39.000Z</time>
      </trkpt>
      <trkpt lat="47.26338" lon="-2.317">
        <ele>9.1999998092651</ele>
        <time>2020-06-14T10:14:44.000Z</time>
      </trkpt>
      <trkpt lat="47.26332" lon="-2.31702">
        <ele>8.8000001907349</ele>
        <time>2020-06-14T10:14:45.000Z</time>
      </trkpt>
      <trkpt lat="47.26326" lon="-2.31705">
        <ele>8.3999996185303</ele>
        <time>2020-06-14T10:14:46.000Z</time>
      </trkpt>
      <trkpt lat="47.26321" lon="-2.31708">
        <ele>7.8000001907349</ele>
        <time>2020-06-14T10:14:47.000Z</time>
      </trkpt>
      <trkpt lat="47.26315" lon="-2.31711">
        <ele>7.4000000953674</ele>
        <time>2020-06-14T10:14:48.000Z</time>
      </trkpt>
      <trkpt lat="47.26309" lon="-2.31713">
        <ele>6.8000001907349</ele>
        <time>2020-06-14T10:14:49.000Z</time>
      </trkpt>
      <trkpt lat="47.26301" lon="-2.3172">
        <ele>6.4000000953674</ele>
        <time>2020-06-14T10:14:51.000Z</time>
      </trkpt>
      <trkpt lat="47.26299" lon="-2.31726">
        <ele>6</ele>
        <time>2020-06-14T10:14:52.000Z</time>
      </trkpt>
      <trkpt lat="47.26299" lon="-2.31733">
        <ele>5.4000000953674</ele>
        <time>2020-06-14T10:14:53.000Z</time>
      </trkpt>
      <trkpt lat="47.26299" lon="-2.31741">
        <ele>5</ele>
        <time>2020-06-14T10:14:54.000Z</time>
      </trkpt>
      <trkpt lat="47.263" lon="-2.3175">
        <ele>4.5999999046326</ele>
        <time>2020-06-14T10:14:55.000Z</time>
      </trkpt>
      <trkpt lat="47.26301" lon="-2.31758">
        <ele>4.5999999046326</ele>
        <time>2020-06-14T10:14:56.000Z</time>
      </trkpt>
      <trkpt lat="47.26305" lon="-2.31797">
        <ele>4.5999999046326</ele>
        <time>2020-06-14T10:15:01.000Z</time>
      </trkpt>
      <trkpt lat="47.26304" lon="-2.3182">
        <ele>4.5999999046326</ele>
        <time>2020-06-14T10:15:04.000Z</time>
      </trkpt>
      <trkpt lat="47.26304" lon="-2.31832">
        <ele>4.5999999046326</ele>
        <time>2020-06-14T10:15:06.000Z</time>
      </trkpt>
      <trkpt lat="47.26302" lon="-2.31847">
        <ele>4.5999999046326</ele>
        <time>2020-06-14T10:15:11.000Z</time>
      </trkpt>
      <trkpt lat="47.26302" lon="-2.3187">
        <ele>4.5999999046326</ele>
        <time>2020-06-14T10:15:17.000Z</time>
      </trkpt>
      <trkpt lat="47.26301" lon="-2.31879">
        <ele>4.5999999046326</ele>
        <time>2020-06-14T10:15:19.000Z</time>
      </trkpt>
      <trkpt lat="47.26296" lon="-2.31886">
        <ele>4.5999999046326</ele>
        <time>2020-06-14T10:15:21.000Z</time>
      </trkpt>
      <trkpt lat="47.26287" lon="-2.31894">
        <ele>4.5999999046326</ele>
        <time>2020-06-14T10:15:23.000Z</time>
      </trkpt>
      <trkpt lat="47.26283" lon="-2.31899">
        <ele>4.5999999046326</ele>
        <time>2020-06-14T10:15:24.000Z</time>
      </trkpt>
      <trkpt lat="47.26278" lon="-2.31904">
        <ele>4.5999999046326</ele>
        <time>2020-06-14T10:15:25.000Z</time>
      </trkpt>
      <trkpt lat="47.26257" lon="-2.31939">
        <ele>4.5999999046326</ele>
        <time>2020-06-14T10:15:31.000Z</time>
      </trkpt>
      <trkpt lat="47.26254" lon="-2.31946">
        <ele>4.5999999046326</ele>
        <time>2020-06-14T10:15:32.000Z</time>
      </trkpt>
      <trkpt lat="47.26241" lon="-2.31968">
        <ele>4.5999999046326</ele>
        <time>2020-06-14T10:15:36.000Z</time>
      </trkpt>
      <trkpt lat="47.26229" lon="-2.31977">
        <ele>4.5999999046326</ele>
        <time>2020-06-14T10:15:40.000Z</time>
      </trkpt>
      <trkpt lat="47.26213" lon="-2.31991">
        <ele>4.1999998092651</ele>
        <time>2020-06-14T10:15:46.000Z</time>
      </trkpt>
      <trkpt lat="47.26209" lon="-2.31994">
        <ele>3.7999999523163</ele>
        <time>2020-06-14T10:15:47.000Z</time>
      </trkpt>
      <trkpt lat="47.26207" lon="-2.31996">
        <ele>3.4000000953674</ele>
        <time>2020-06-14T10:15:48.000Z</time>
      </trkpt>
      <trkpt lat="47.26206" lon="-2.32">
        <ele>2.5999999046326</ele>
        <time>2020-06-14T10:15:49.000Z</time>
      </trkpt>
      <trkpt lat="47.26205" lon="-2.32004">
        <ele>2.5999999046326</ele>
        <time>2020-06-14T10:15:50.000Z</time>
      </trkpt>
      <trkpt lat="47.262" lon="-2.32014">
        <ele>2.5999999046326</ele>
        <time>2020-06-14T10:15:54.000Z</time>
      </trkpt>
      <trkpt lat="47.26198" lon="-2.32014">
        <ele>2.5999999046326</ele>
        <time>2020-06-14T10:15:55.000Z</time>
      </trkpt>
      <trkpt lat="47.26185" lon="-2.32015">
        <ele>2.5999999046326</ele>
        <time>2020-06-14T10:15:59.000Z</time>
      </trkpt>
      <trkpt lat="47.2618" lon="-2.32017">
        <ele>2.5999999046326</ele>
        <time>2020-06-14T10:16:00.000Z</time>
      </trkpt>
      <trkpt lat="47.26162" lon="-2.32035">
        <ele>2.5999999046326</ele>
        <time>2020-06-14T10:16:04.000Z</time>
      </trkpt>
      <trkpt lat="47.26153" lon="-2.32057">
        <ele>2.5999999046326</ele>
        <time>2020-06-14T10:16:07.000Z</time>
      </trkpt>
      <trkpt lat="47.26148" lon="-2.32073">
        <ele>2.5999999046326</ele>
        <time>2020-06-14T10:16:09.000Z</time>
      </trkpt>
      <trkpt lat="47.26132" lon="-2.32124">
        <ele>2.5999999046326</ele>
        <time>2020-06-14T10:16:15.000Z</time>
      </trkpt>
      <trkpt lat="47.26129" lon="-2.32132">
        <ele>2.5999999046326</ele>
        <time>2020-06-14T10:16:16.000Z</time>
      </trkpt>
      <trkpt lat="47.26121" lon="-2.32156">
        <ele>2.5999999046326</ele>
        <time>2020-06-14T10:16:19.000Z</time>
      </trkpt>
      <trkpt lat="47.26116" lon="-2.32169">
        <ele>2.5999999046326</ele>
        <time>2020-06-14T10:16:21.000Z</time>
      </trkpt>
      <trkpt lat="47.26106" lon="-2.32187">
        <ele>2.5999999046326</ele>
        <time>2020-06-14T10:16:24.000Z</time>
      </trkpt>
      <trkpt lat="47.26093" lon="-2.32216">
        <ele>2.5999999046326</ele>
        <time>2020-06-14T10:16:28.000Z</time>
      </trkpt>
      <trkpt lat="47.26088" lon="-2.32223">
        <ele>2.5999999046326</ele>
        <time>2020-06-14T10:16:29.000Z</time>
      </trkpt>
      <trkpt lat="47.26061" lon="-2.32255">
        <ele>2.5999999046326</ele>
        <time>2020-06-14T10:16:35.000Z</time>
      </trkpt>
      <trkpt lat="47.26031" lon="-2.32288">
        <ele>2.5999999046326</ele>
        <time>2020-06-14T10:16:41.000Z</time>
      </trkpt>
      <trkpt lat="47.25997" lon="-2.3233">
        <ele>2.5999999046326</ele>
        <time>2020-06-14T10:16:48.000Z</time>
      </trkpt>
      <trkpt lat="47.25964" lon="-2.32374">
        <ele>3</ele>
        <time>2020-06-14T10:16:55.000Z</time>
      </trkpt>
      <trkpt lat="47.2596" lon="-2.3238">
        <ele>3.4000000953674</ele>
        <time>2020-06-14T10:16:56.000Z</time>
      </trkpt>
      <trkpt lat="47.25956" lon="-2.32385">
        <ele>3.7999999523163</ele>
        <time>2020-06-14T10:16:57.000Z</time>
      </trkpt>
      <trkpt lat="47.25951" lon="-2.32391">
        <ele>4.1999998092651</ele>
        <time>2020-06-14T10:16:58.000Z</time>
      </trkpt>
      <trkpt lat="47.25947" lon="-2.32396">
        <ele>4.8000001907349</ele>
        <time>2020-06-14T10:16:59.000Z</time>
      </trkpt>
      <trkpt lat="47.25938" lon="-2.32407">
        <ele>4.8000001907349</ele>
        <time>2020-06-14T10:17:01.000Z</time>
      </trkpt>
      <trkpt lat="47.25907" lon="-2.32449">
        <ele>4.8000001907349</ele>
        <time>2020-06-14T10:17:09.000Z</time>
      </trkpt>
      <trkpt lat="47.25895" lon="-2.32466">
        <ele>4.8000001907349</ele>
        <time>2020-06-14T10:17:14.000Z</time>
      </trkpt>
      <trkpt lat="47.25881" lon="-2.32474">
        <ele>4.8000001907349</ele>
        <time>2020-06-14T10:17:19.000Z</time>
      </trkpt>
      <trkpt lat="47.25872" lon="-2.32476">
        <ele>4.8000001907349</ele>
        <time>2020-06-14T10:17:21.000Z</time>
      </trkpt>
      <trkpt lat="47.25857" lon="-2.32478">
        <ele>4.8000001907349</ele>
        <time>2020-06-14T10:17:24.000Z</time>
      </trkpt>
      <trkpt lat="47.25852" lon="-2.32478">
        <ele>4.8000001907349</ele>
        <time>2020-06-14T10:17:25.000Z</time>
      </trkpt>
      <trkpt lat="47.25835" lon="-2.32474">
        <ele>4.8000001907349</ele>
        <time>2020-06-14T10:17:28.000Z</time>
      </trkpt>
      <trkpt lat="47.25829" lon="-2.32472">
        <ele>4.8000001907349</ele>
        <time>2020-06-14T10:17:29.000Z</time>
      </trkpt>
      <trkpt lat="47.25804" lon="-2.32459">
        <ele>4.8000001907349</ele>
        <time>2020-06-14T10:17:34.000Z</time>
      </trkpt>
      <trkpt lat="47.258" lon="-2.32458">
        <ele>4.8000001907349</ele>
        <time>2020-06-14T10:17:35.000Z</time>
      </trkpt>
      <trkpt lat="47.25781" lon="-2.32457">
        <ele>4.8000001907349</ele>
        <time>2020-06-14T10:17:39.000Z</time>
      </trkpt>
      <trkpt lat="47.25771" lon="-2.3244">
        <ele>4.8000001907349</ele>
        <time>2020-06-14T10:17:42.000Z</time>
      </trkpt>
      <trkpt lat="47.25768" lon="-2.32434">
        <ele>4.8000001907349</ele>
        <time>2020-06-14T10:17:43.000Z</time>
      </trkpt>
      <trkpt lat="47.25757" lon="-2.32429">
        <ele>4.8000001907349</ele>
        <time>2020-06-14T10:17:45.000Z</time>
      </trkpt>
      <trkpt lat="47.25714" lon="-2.32427">
        <ele>4.8000001907349</ele>
        <time>2020-06-14T10:17:52.000Z</time>
      </trkpt>
      <trkpt lat="47.25691" lon="-2.32424">
        <ele>5.1999998092651</ele>
        <time>2020-06-14T10:17:56.000Z</time>
      </trkpt>
      <trkpt lat="47.25685" lon="-2.32423">
        <ele>5.5999999046326</ele>
        <time>2020-06-14T10:17:57.000Z</time>
      </trkpt>
      <trkpt lat="47.2568" lon="-2.32422">
        <ele>6</ele>
        <time>2020-06-14T10:17:58.000Z</time>
      </trkpt>
      <trkpt lat="47.25675" lon="-2.32421">
        <ele>6.4000000953674</ele>
        <time>2020-06-14T10:17:59.000Z</time>
      </trkpt>
      <trkpt lat="47.25669" lon="-2.3242">
        <ele>6.8000001907349</ele>
        <time>2020-06-14T10:18:00.000Z</time>
      </trkpt>
      <trkpt lat="47.2566" lon="-2.32435">
        <ele>6.8000001907349</ele>
        <time>2020-06-14T10:18:03.000Z</time>
      </trkpt>
      <trkpt lat="47.25664" lon="-2.32458">
        <ele>6.8000001907349</ele>
        <time>2020-06-14T10:18:06.000Z</time>
      </trkpt>
      <trkpt lat="47.25668" lon="-2.32473">
        <ele>6.8000001907349</ele>
        <time>2020-06-14T10:18:08.000Z</time>
      </trkpt>
      <trkpt lat="47.25677" lon="-2.32504">
        <ele>6.8000001907349</ele>
        <time>2020-06-14T10:18:12.000Z</time>
      </trkpt>
      <trkpt lat="47.25692" lon="-2.32548">
        <ele>6.8000001907349</ele>
        <time>2020-06-14T10:18:18.000Z</time>
      </trkpt>
      <trkpt lat="47.25705" lon="-2.32591">
        <ele>7.4000000953674</ele>
        <time>2020-06-14T10:18:24.000Z</time>
      </trkpt>
      <trkpt lat="47.25707" lon="-2.32598">
        <ele>7.8000001907349</ele>
        <time>2020-06-14T10:18:25.000Z</time>
      </trkpt>
      <trkpt lat="47.25709" lon="-2.32604">
        <ele>8.1999998092651</ele>
        <time>2020-06-14T10:18:26.000Z</time>
      </trkpt>
      <trkpt lat="47.25711" lon="-2.3261">
        <ele>8.6000003814697</ele>
        <time>2020-06-14T10:18:27.000Z</time>
      </trkpt>
      <trkpt lat="47.25712" lon="-2.32615">
        <ele>9.1999998092651</ele>
        <time>2020-06-14T10:18:28.000Z</time>
      </trkpt>
      <trkpt lat="47.25711" lon="-2.32624">
        <ele>9.1999998092651</ele>
        <time>2020-06-14T10:18:30.000Z</time>
      </trkpt>
      <trkpt lat="47.25698" lon="-2.3263">
        <ele>9.1999998092651</ele>
        <time>2020-06-14T10:18:33.000Z</time>
      </trkpt>
      <trkpt lat="47.2567" lon="-2.3264">
        <ele>9.6000003814697</ele>
        <time>2020-06-14T10:18:39.000Z</time>
      </trkpt>
      <trkpt lat="47.25665" lon="-2.32642">
        <ele>10</ele>
        <time>2020-06-14T10:18:40.000Z</time>
      </trkpt>
      <trkpt lat="47.2566" lon="-2.32645">
        <ele>10.39999961853</ele>
        <time>2020-06-14T10:18:41.000Z</time>
      </trkpt>
      <trkpt lat="47.25655" lon="-2.32647">
        <ele>11.199999809265</ele>
        <time>2020-06-14T10:18:42.000Z</time>
      </trkpt>
      <trkpt lat="47.25627" lon="-2.32659">
        <ele>11.199999809265</ele>
        <time>2020-06-14T10:18:48.000Z</time>
      </trkpt>
      <trkpt lat="47.25593" lon="-2.32672">
        <ele>11.199999809265</ele>
        <time>2020-06-14T10:18:55.000Z</time>
      </trkpt>
      <trkpt lat="47.25587" lon="-2.32674">
        <ele>11.800000190735</ele>
        <time>2020-06-14T10:18:56.000Z</time>
      </trkpt>
      <trkpt lat="47.25582" lon="-2.32676">
        <ele>12.199999809265</ele>
        <time>2020-06-14T10:18:57.000Z</time>
      </trkpt>
      <trkpt lat="47.25577" lon="-2.32678">
        <ele>12.60000038147</ele>
        <time>2020-06-14T10:18:58.000Z</time>
      </trkpt>
      <trkpt lat="47.25572" lon="-2.32681">
        <ele>13</ele>
        <time>2020-06-14T10:18:59.000Z</time>
      </trkpt>
      <trkpt lat="47.25567" lon="-2.32683">
        <ele>13.39999961853</ele>
        <time>2020-06-14T10:19:00.000Z</time>
      </trkpt>
      <trkpt lat="47.25561" lon="-2.32685">
        <ele>13.39999961853</ele>
        <time>2020-06-14T10:19:01.000Z</time>
      </trkpt>
      <trkpt lat="47.25522" lon="-2.327">
        <ele>13.39999961853</ele>
        <time>2020-06-14T10:19:08.000Z</time>
      </trkpt>
      <trkpt lat="47.25516" lon="-2.32701">
        <ele>13.39999961853</ele>
        <time>2020-06-14T10:19:09.000Z</time>
      </trkpt>
      <trkpt lat="47.25488" lon="-2.32705">
        <ele>13.39999961853</ele>
        <time>2020-06-14T10:19:14.000Z</time>
      </trkpt>
      <trkpt lat="47.25482" lon="-2.32708">
        <ele>13.39999961853</ele>
        <time>2020-06-14T10:19:15.000Z</time>
      </trkpt>
      <trkpt lat="47.25468" lon="-2.32722">
        <ele>13.39999961853</ele>
        <time>2020-06-14T10:19:18.000Z</time>
      </trkpt>
      <trkpt lat="47.25464" lon="-2.32728">
        <ele>13.39999961853</ele>
        <time>2020-06-14T10:19:19.000Z</time>
      </trkpt>
      <trkpt lat="47.25439" lon="-2.32762">
        <ele>13.39999961853</ele>
        <time>2020-06-14T10:19:25.000Z</time>
      </trkpt>
      <trkpt lat="47.25436" lon="-2.32768">
        <ele>13.39999961853</ele>
        <time>2020-06-14T10:19:26.000Z</time>
      </trkpt>
      <trkpt lat="47.25425" lon="-2.32793">
        <ele>12.60000038147</ele>
        <time>2020-06-14T10:19:30.000Z</time>
      </trkpt>
      <trkpt lat="47.25421" lon="-2.328">
        <ele>12.199999809265</ele>
        <time>2020-06-14T10:19:31.000Z</time>
      </trkpt>
      <trkpt lat="47.25416" lon="-2.32806">
        <ele>11.800000190735</ele>
        <time>2020-06-14T10:19:32.000Z</time>
      </trkpt>
      <trkpt lat="47.25412" lon="-2.32812">
        <ele>11.39999961853</ele>
        <time>2020-06-14T10:19:33.000Z</time>
      </trkpt>
      <trkpt lat="47.25397" lon="-2.32831">
        <ele>11.39999961853</ele>
        <time>2020-06-14T10:19:36.000Z</time>
      </trkpt>
      <trkpt lat="47.25361" lon="-2.32872">
        <ele>11.39999961853</ele>
        <time>2020-06-14T10:19:43.000Z</time>
      </trkpt>
      <trkpt lat="47.25321" lon="-2.32912">
        <ele>11.39999961853</ele>
        <time>2020-06-14T10:19:51.000Z</time>
      </trkpt>
      <trkpt lat="47.25309" lon="-2.32926">
        <ele>11.39999961853</ele>
        <time>2020-06-14T10:19:54.000Z</time>
      </trkpt>
      <trkpt lat="47.25308" lon="-2.32934">
        <ele>11.39999961853</ele>
        <time>2020-06-14T10:19:55.000Z</time>
      </trkpt>
      <trkpt lat="47.25309" lon="-2.3295">
        <ele>11</ele>
        <time>2020-06-14T10:19:57.000Z</time>
      </trkpt>
      <trkpt lat="47.25312" lon="-2.32958">
        <ele>10.60000038147</ele>
        <time>2020-06-14T10:19:58.000Z</time>
      </trkpt>
      <trkpt lat="47.25314" lon="-2.32965">
        <ele>10.199999809265</ele>
        <time>2020-06-14T10:19:59.000Z</time>
      </trkpt>
      <trkpt lat="47.25317" lon="-2.32973">
        <ele>9.8000001907349</ele>
        <time>2020-06-14T10:20:00.000Z</time>
      </trkpt>
      <trkpt lat="47.25321" lon="-2.3298">
        <ele>9.3999996185303</ele>
        <time>2020-06-14T10:20:01.000Z</time>
      </trkpt>
      <trkpt lat="47.25331" lon="-2.33003">
        <ele>9.3999996185303</ele>
        <time>2020-06-14T10:20:04.000Z</time>
      </trkpt>
      <trkpt lat="47.25336" lon="-2.33018">
        <ele>9.3999996185303</ele>
        <time>2020-06-14T10:20:06.000Z</time>
      </trkpt>
      <trkpt lat="47.25343" lon="-2.33038">
        <ele>9.3999996185303</ele>
        <time>2020-06-14T10:20:09.000Z</time>
      </trkpt>
      <trkpt lat="47.25358" lon="-2.3308">
        <ele>9.3999996185303</ele>
        <time>2020-06-14T10:20:16.000Z</time>
      </trkpt>
      <trkpt lat="47.25359" lon="-2.33086">
        <ele>9.3999996185303</ele>
        <time>2020-06-14T10:20:18.000Z</time>
      </trkpt>
      <trkpt lat="47.25359" lon="-2.33087">
        <ele>9.3999996185303</ele>
        <time>2020-06-14T10:20:19.000Z</time>
      </trkpt>
      <trkpt lat="47.25358" lon="-2.33081">
        <ele>5.4000000953674</ele>
        <time>2020-06-14T11:02:29.000Z</time>
      </trkpt>
      <trkpt lat="47.25357" lon="-2.33075">
        <ele>5.4000000953674</ele>
        <time>2020-06-14T11:02:32.000Z</time>
      </trkpt>
      <trkpt lat="47.25349" lon="-2.33058">
        <ele>5.4000000953674</ele>
        <time>2020-06-14T11:02:37.000Z</time>
      </trkpt>
      <trkpt lat="47.25337" lon="-2.33029">
        <ele>5.4000000953674</ele>
        <time>2020-06-14T11:02:43.000Z</time>
      </trkpt>
      <trkpt lat="47.25323" lon="-2.32989">
        <ele>5.4000000953674</ele>
        <time>2020-06-14T11:02:49.000Z</time>
      </trkpt>
      <trkpt lat="47.25307" lon="-2.32946">
        <ele>5.4000000953674</ele>
        <time>2020-06-14T11:02:56.000Z</time>
      </trkpt>
      <trkpt lat="47.25305" lon="-2.32933">
        <ele>5.4000000953674</ele>
        <time>2020-06-14T11:02:58.000Z</time>
      </trkpt>
      <trkpt lat="47.25309" lon="-2.32921">
        <ele>5.4000000953674</ele>
        <time>2020-06-14T11:03:00.000Z</time>
      </trkpt>
      <trkpt lat="47.25322" lon="-2.32909">
        <ele>5.4000000953674</ele>
        <time>2020-06-14T11:03:03.000Z</time>
      </trkpt>
      <trkpt lat="47.25326" lon="-2.32904">
        <ele>5.4000000953674</ele>
        <time>2020-06-14T11:03:04.000Z</time>
      </trkpt>
      <trkpt lat="47.25355" lon="-2.32875">
        <ele>5.4000000953674</ele>
        <time>2020-06-14T11:03:11.000Z</time>
      </trkpt>
      <trkpt lat="47.25382" lon="-2.32849">
        <ele>5.4000000953674</ele>
        <time>2020-06-14T11:03:17.000Z</time>
      </trkpt>
      <trkpt lat="47.2542" lon="-2.32797">
        <ele>5.4000000953674</ele>
        <time>2020-06-14T11:03:27.000Z</time>
      </trkpt>
      <trkpt lat="47.25422" lon="-2.32791">
        <ele>5.4000000953674</ele>
        <time>2020-06-14T11:03:28.000Z</time>
      </trkpt>
      <trkpt lat="47.2543" lon="-2.32774">
        <ele>5.4000000953674</ele>
        <time>2020-06-14T11:03:31.000Z</time>
      </trkpt>
      <trkpt lat="47.25434" lon="-2.32769">
        <ele>5.4000000953674</ele>
        <time>2020-06-14T11:03:32.000Z</time>
      </trkpt>
      <trkpt lat="47.25441" lon="-2.32759">
        <ele>6.1999998092651</ele>
        <time>2020-06-14T11:03:34.000Z</time>
      </trkpt>
      <trkpt lat="47.25444" lon="-2.32756">
        <ele>6.5999999046326</ele>
        <time>2020-06-14T11:03:35.000Z</time>
      </trkpt>
      <trkpt lat="47.25446" lon="-2.32754">
        <ele>7</ele>
        <time>2020-06-14T11:03:36.000Z</time>
      </trkpt>
      <trkpt lat="47.25446" lon="-2.32752">
        <ele>7.5999999046326</ele>
        <time>2020-06-14T11:03:37.000Z</time>
      </trkpt>
      <trkpt lat="47.25444" lon="-2.32751">
        <ele>7.5999999046326</ele>
        <time>2020-06-14T11:03:39.000Z</time>
      </trkpt>
      <trkpt lat="47.25441" lon="-2.32761">
        <ele>7.5999999046326</ele>
        <time>2020-06-14T11:03:44.000Z</time>
      </trkpt>
      <trkpt lat="47.25435" lon="-2.32765">
        <ele>7.5999999046326</ele>
        <time>2020-06-14T11:03:49.000Z</time>
      </trkpt>
      <trkpt lat="47.2544" lon="-2.32759">
        <ele>7.5999999046326</ele>
        <time>2020-06-14T11:03:52.000Z</time>
      </trkpt>
      <trkpt lat="47.25443" lon="-2.32756">
        <ele>7.5999999046326</ele>
        <time>2020-06-14T11:03:53.000Z</time>
      </trkpt>
      <trkpt lat="47.25449" lon="-2.32747">
        <ele>7.5999999046326</ele>
        <time>2020-06-14T11:03:55.000Z</time>
      </trkpt>
      <trkpt lat="47.25453" lon="-2.32743">
        <ele>7.5999999046326</ele>
        <time>2020-06-14T11:03:56.000Z</time>
      </trkpt>
      <trkpt lat="47.25469" lon="-2.32723">
        <ele>7.5999999046326</ele>
        <time>2020-06-14T11:04:00.000Z</time>
      </trkpt>
      <trkpt lat="47.25473" lon="-2.32717">
        <ele>7.5999999046326</ele>
        <time>2020-06-14T11:04:01.000Z</time>
      </trkpt>
      <trkpt lat="47.25484" lon="-2.32699">
        <ele>7.5999999046326</ele>
        <time>2020-06-14T11:04:04.000Z</time>
      </trkpt>
      <trkpt lat="47.25489" lon="-2.32684">
        <ele>7.5999999046326</ele>
        <time>2020-06-14T11:04:06.000Z</time>
      </trkpt>
      <trkpt lat="47.25488" lon="-2.32653">
        <ele>7.5999999046326</ele>
        <time>2020-06-14T11:04:10.000Z</time>
      </trkpt>
      <trkpt lat="47.25484" lon="-2.32631">
        <ele>7.5999999046326</ele>
        <time>2020-06-14T11:04:13.000Z</time>
      </trkpt>
      <trkpt lat="47.25484" lon="-2.32623">
        <ele>7.5999999046326</ele>
        <time>2020-06-14T11:04:14.000Z</time>
      </trkpt>
      <trkpt lat="47.25482" lon="-2.32615">
        <ele>7.5999999046326</ele>
        <time>2020-06-14T11:04:15.000Z</time>
      </trkpt>
      <trkpt lat="47.25478" lon="-2.32584">
        <ele>7.5999999046326</ele>
        <time>2020-06-14T11:04:19.000Z</time>
      </trkpt>
      <trkpt lat="47.25478" lon="-2.3257">
        <ele>7.5999999046326</ele>
        <time>2020-06-14T11:04:21.000Z</time>
      </trkpt>
      <trkpt lat="47.2548" lon="-2.32563">
        <ele>7.5999999046326</ele>
        <time>2020-06-14T11:04:22.000Z</time>
      </trkpt>
      <trkpt lat="47.25488" lon="-2.32554">
        <ele>7.5999999046326</ele>
        <time>2020-06-14T11:04:24.000Z</time>
      </trkpt>
      <trkpt lat="47.25498" lon="-2.32545">
        <ele>7.5999999046326</ele>
        <time>2020-06-14T11:04:26.000Z</time>
      </trkpt>
      <trkpt lat="47.2552" lon="-2.32524">
        <ele>7.5999999046326</ele>
        <time>2020-06-14T11:04:30.000Z</time>
      </trkpt>
      <trkpt lat="47.25556" lon="-2.3249">
        <ele>7.5999999046326</ele>
        <time>2020-06-14T11:04:36.000Z</time>
      </trkpt>
      <trkpt lat="47.25597" lon="-2.32449">
        <ele>7.5999999046326</ele>
        <time>2020-06-14T11:04:42.000Z</time>
      </trkpt>
      <trkpt lat="47.25604" lon="-2.32442">
        <ele>7.1999998092651</ele>
        <time>2020-06-14T11:04:43.000Z</time>
      </trkpt>
      <trkpt lat="47.25611" lon="-2.32435">
        <ele>6.5999999046326</ele>
        <time>2020-06-14T11:04:44.000Z</time>
      </trkpt>
      <trkpt lat="47.25618" lon="-2.32427">
        <ele>6.1999998092651</ele>
        <time>2020-06-14T11:04:45.000Z</time>
      </trkpt>
      <trkpt lat="47.25625" lon="-2.3242">
        <ele>5.8000001907349</ele>
        <time>2020-06-14T11:04:46.000Z</time>
      </trkpt>
      <trkpt lat="47.25632" lon="-2.32412">
        <ele>5.4000000953674</ele>
        <time>2020-06-14T11:04:47.000Z</time>
      </trkpt>
      <trkpt lat="47.25639" lon="-2.32406">
        <ele>5</ele>
        <time>2020-06-14T11:04:48.000Z</time>
      </trkpt>
      <trkpt lat="47.25645" lon="-2.32402">
        <ele>4.5999999046326</ele>
        <time>2020-06-14T11:04:49.000Z</time>
      </trkpt>
      <trkpt lat="47.25652" lon="-2.324">
        <ele>4.1999998092651</ele>
        <time>2020-06-14T11:04:50.000Z</time>
      </trkpt>
      <trkpt lat="47.25659" lon="-2.32401">
        <ele>3.7999999523163</ele>
        <time>2020-06-14T11:04:51.000Z</time>
      </trkpt>
      <trkpt lat="47.25665" lon="-2.32403">
        <ele>3.4000000953674</ele>
        <time>2020-06-14T11:04:52.000Z</time>
      </trkpt>
      <trkpt lat="47.25675" lon="-2.32411">
        <ele>3.4000000953674</ele>
        <time>2020-06-14T11:04:54.000Z</time>
      </trkpt>
      <trkpt lat="47.25687" lon="-2.32417">
        <ele>3.4000000953674</ele>
        <time>2020-06-14T11:04:56.000Z</time>
      </trkpt>
      <trkpt lat="47.25708" lon="-2.32422">
        <ele>3</ele>
        <time>2020-06-14T11:04:59.000Z</time>
      </trkpt>
      <trkpt lat="47.25715" lon="-2.32423">
        <ele>2.5999999046326</ele>
        <time>2020-06-14T11:05:00.000Z</time>
      </trkpt>
      <trkpt lat="47.25722" lon="-2.32423">
        <ele>2</ele>
        <time>2020-06-14T11:05:01.000Z</time>
      </trkpt>
      <trkpt lat="47.25729" lon="-2.32424">
        <ele>1.6000000238419</ele>
        <time>2020-06-14T11:05:02.000Z</time>
      </trkpt>
      <trkpt lat="47.25736" lon="-2.32424">
        <ele>1.2000000476837</ele>
        <time>2020-06-14T11:05:03.000Z</time>
      </trkpt>
      <trkpt lat="47.25762" lon="-2.32422">
        <ele>1.2000000476837</ele>
        <time>2020-06-14T11:05:07.000Z</time>
      </trkpt>
      <trkpt lat="47.25767" lon="-2.32419">
        <ele>1.2000000476837</ele>
        <time>2020-06-14T11:05:08.000Z</time>
      </trkpt>
      <trkpt lat="47.25781" lon="-2.32415">
        <ele>1.2000000476837</ele>
        <time>2020-06-14T11:05:11.000Z</time>
      </trkpt>
      <trkpt lat="47.25785" lon="-2.32418">
        <ele>1.2000000476837</ele>
        <time>2020-06-14T11:05:12.000Z</time>
      </trkpt>
      <trkpt lat="47.25795" lon="-2.32436">
        <ele>1.2000000476837</ele>
        <time>2020-06-14T11:05:15.000Z</time>
      </trkpt>
      <trkpt lat="47.25802" lon="-2.32448">
        <ele>1.2000000476837</ele>
        <time>2020-06-14T11:05:17.000Z</time>
      </trkpt>
      <trkpt lat="47.25813" lon="-2.32458">
        <ele>1.2000000476837</ele>
        <time>2020-06-14T11:05:19.000Z</time>
      </trkpt>
      <trkpt lat="47.2585" lon="-2.32476">
        <ele>1.2000000476837</ele>
        <time>2020-06-14T11:05:25.000Z</time>
      </trkpt>
      <trkpt lat="47.2588" lon="-2.32478">
        <ele>1.2000000476837</ele>
        <time>2020-06-14T11:05:30.000Z</time>
      </trkpt>
      <trkpt lat="47.25892" lon="-2.32472">
        <ele>1.2000000476837</ele>
        <time>2020-06-14T11:05:32.000Z</time>
      </trkpt>
      <trkpt lat="47.25904" lon="-2.32458">
        <ele>1.2000000476837</ele>
        <time>2020-06-14T11:05:34.000Z</time>
      </trkpt>
      <trkpt lat="47.25913" lon="-2.32446">
        <ele>1.2000000476837</ele>
        <time>2020-06-14T11:05:36.000Z</time>
      </trkpt>
      <trkpt lat="47.25933" lon="-2.3242">
        <ele>1.2000000476837</ele>
        <time>2020-06-14T11:05:40.000Z</time>
      </trkpt>
      <trkpt lat="47.25956" lon="-2.32386">
        <ele>1.2000000476837</ele>
        <time>2020-06-14T11:05:45.000Z</time>
      </trkpt>
      <trkpt lat="47.25965" lon="-2.32374">
        <ele>1.2000000476837</ele>
        <time>2020-06-14T11:05:47.000Z</time>
      </trkpt>
      <trkpt lat="47.25997" lon="-2.32332">
        <ele>1.2000000476837</ele>
        <time>2020-06-14T11:05:54.000Z</time>
      </trkpt>
      <trkpt lat="47.26034" lon="-2.32287">
        <ele>1.2000000476837</ele>
        <time>2020-06-14T11:06:02.000Z</time>
      </trkpt>
      <trkpt lat="47.2607" lon="-2.32245">
        <ele>1.2000000476837</ele>
        <time>2020-06-14T11:06:10.000Z</time>
      </trkpt>
      <trkpt lat="47.26097" lon="-2.32209">
        <ele>1.2000000476837</ele>
        <time>2020-06-14T11:06:16.000Z</time>
      </trkpt>
      <trkpt lat="47.261" lon="-2.32201">
        <ele>1.2000000476837</ele>
        <time>2020-06-14T11:06:17.000Z</time>
      </trkpt>
      <trkpt lat="47.26112" lon="-2.32171">
        <ele>1.2000000476837</ele>
        <time>2020-06-14T11:06:21.000Z</time>
      </trkpt>
      <trkpt lat="47.26118" lon="-2.32156">
        <ele>1.2000000476837</ele>
        <time>2020-06-14T11:06:23.000Z</time>
      </trkpt>
      <trkpt lat="47.26132" lon="-2.32115">
        <ele>1.2000000476837</ele>
        <time>2020-06-14T11:06:28.000Z</time>
      </trkpt>
      <trkpt lat="47.26144" lon="-2.32068">
        <ele>1.2000000476837</ele>
        <time>2020-06-14T11:06:34.000Z</time>
      </trkpt>
      <trkpt lat="47.26161" lon="-2.3202">
        <ele>1.2000000476837</ele>
        <time>2020-06-14T11:06:41.000Z</time>
      </trkpt>
      <trkpt lat="47.26174" lon="-2.32019">
        <ele>1.2000000476837</ele>
        <time>2020-06-14T11:06:44.000Z</time>
      </trkpt>
      <trkpt lat="47.26179" lon="-2.32021">
        <ele>1.2000000476837</ele>
        <time>2020-06-14T11:06:45.000Z</time>
      </trkpt>
      <trkpt lat="47.26183" lon="-2.32022">
        <ele>0.80000001192093</ele>
        <time>2020-06-14T11:06:46.000Z</time>
      </trkpt>
      <trkpt lat="47.26186" lon="-2.32023">
        <ele>0.40000000596046</ele>
        <time>2020-06-14T11:06:47.000Z</time>
      </trkpt>
      <trkpt lat="47.26188" lon="-2.32024">
        <ele>3</ele>
        <time>2020-06-14T11:06:48.000Z</time>
      </trkpt>
      <trkpt lat="47.2619" lon="-2.32025">
        <ele>-0.80000001192093</ele>
        <time>2020-06-14T11:06:49.000Z</time>
      </trkpt>
      <trkpt lat="47.26195" lon="-2.32021">
        <ele>-0.80000001192093</ele>
        <time>2020-06-14T11:06:52.000Z</time>
      </trkpt>
      <trkpt lat="47.26195" lon="-2.32018">
        <ele>-0.80000001192093</ele>
        <time>2020-06-14T11:06:53.000Z</time>
      </trkpt>
      <trkpt lat="47.26197" lon="-2.32005">
        <ele>-0.80000001192093</ele>
        <time>2020-06-14T11:06:59.000Z</time>
      </trkpt>
      <trkpt lat="47.26197" lon="-2.32004">
        <ele>-0.80000001192093</ele>
        <time>2020-06-14T11:07:00.000Z</time>
      </trkpt>
      <trkpt lat="47.26202" lon="-2.32002">
        <ele>-0.80000001192093</ele>
        <time>2020-06-14T11:07:12.000Z</time>
      </trkpt>
      <trkpt lat="47.26206" lon="-2.31997">
        <ele>-0.80000001192093</ele>
        <time>2020-06-14T11:07:14.000Z</time>
      </trkpt>
      <trkpt lat="47.26221" lon="-2.31978">
        <ele>-0.80000001192093</ele>
        <time>2020-06-14T11:07:20.000Z</time>
      </trkpt>
      <trkpt lat="47.26232" lon="-2.3197">
        <ele>-0.80000001192093</ele>
        <time>2020-06-14T11:07:24.000Z</time>
      </trkpt>
      <trkpt lat="47.26243" lon="-2.3195">
        <ele>-0.80000001192093</ele>
        <time>2020-06-14T11:07:28.000Z</time>
      </trkpt>
      <trkpt lat="47.26246" lon="-2.31946">
        <ele>-0.80000001192093</ele>
        <time>2020-06-14T11:07:29.000Z</time>
      </trkpt>
      <trkpt lat="47.26256" lon="-2.31926">
        <ele>-0.80000001192093</ele>
        <time>2020-06-14T11:07:34.000Z</time>
      </trkpt>
      <trkpt lat="47.26267" lon="-2.31907">
        <ele>-0.80000001192093</ele>
        <time>2020-06-14T11:07:39.000Z</time>
      </trkpt>
      <trkpt lat="47.26274" lon="-2.31903">
        <ele>-0.80000001192093</ele>
        <time>2020-06-14T11:07:40.000Z</time>
      </trkpt>
      <trkpt lat="47.26281" lon="-2.31897">
        <ele>-0.80000001192093</ele>
        <time>2020-06-14T11:07:42.000Z</time>
      </trkpt>
      <trkpt lat="47.26291" lon="-2.3188">
        <ele>-0.80000001192093</ele>
        <time>2020-06-14T11:07:46.000Z</time>
      </trkpt>
      <trkpt lat="47.26291" lon="-2.31869">
        <ele>-0.80000001192093</ele>
        <time>2020-06-14T11:07:48.000Z</time>
      </trkpt>
      <trkpt lat="47.26295" lon="-2.31843">
        <ele>-0.80000001192093</ele>
        <time>2020-06-14T11:07:52.000Z</time>
      </trkpt>
      <trkpt lat="47.263" lon="-2.31802">
        <ele>-0.80000001192093</ele>
        <time>2020-06-14T11:07:58.000Z</time>
      </trkpt>
      <trkpt lat="47.26298" lon="-2.31762">
        <ele>-0.80000001192093</ele>
        <time>2020-06-14T11:08:04.000Z</time>
      </trkpt>
      <trkpt lat="47.26298" lon="-2.31726">
        <ele>-0.80000001192093</ele>
        <time>2020-06-14T11:08:09.000Z</time>
      </trkpt>
      <trkpt lat="47.26302" lon="-2.3172">
        <ele>-0.80000001192093</ele>
        <time>2020-06-14T11:08:10.000Z</time>
      </trkpt>
      <trkpt lat="47.26316" lon="-2.31713">
        <ele>-0.80000001192093</ele>
        <time>2020-06-14T11:08:13.000Z</time>
      </trkpt>
      <trkpt lat="47.26324" lon="-2.31709">
        <ele>-0.80000001192093</ele>
        <time>2020-06-14T11:08:15.000Z</time>
      </trkpt>
      <trkpt lat="47.26332" lon="-2.31704">
        <ele>-0.40000000596046</ele>
        <time>2020-06-14T11:08:17.000Z</time>
      </trkpt>
      <trkpt lat="47.26336" lon="-2.31701">
        <ele>6.1</ele>
        <time>2020-06-14T11:08:18.000Z</time>
      </trkpt>
      <trkpt lat="47.2634" lon="-2.31698">
        <ele>0.60000002384186</ele>
        <time>2020-06-14T11:08:19.000Z</time>
      </trkpt>
      <trkpt lat="47.26345" lon="-2.31695">
        <ele>1</ele>
        <time>2020-06-14T11:08:20.000Z</time>
      </trkpt>
      <trkpt lat="47.26349" lon="-2.31692">
        <ele>1.3999999761581</ele>
        <time>2020-06-14T11:08:21.000Z</time>
      </trkpt>
      <trkpt lat="47.26367" lon="-2.31682">
        <ele>1.3999999761581</ele>
        <time>2020-06-14T11:08:25.000Z</time>
      </trkpt>
      <trkpt lat="47.26383" lon="-2.31671">
        <ele>1.3999999761581</ele>
        <time>2020-06-14T11:08:29.000Z</time>
      </trkpt>
      <trkpt lat="47.26387" lon="-2.31669">
        <ele>1.7999999523163</ele>
        <time>2020-06-14T11:08:30.000Z</time>
      </trkpt>
      <trkpt lat="47.26391" lon="-2.31666">
        <ele>2.2000000476837</ele>
        <time>2020-06-14T11:08:31.000Z</time>
      </trkpt>
      <trkpt lat="47.26394" lon="-2.31664">
        <ele>2.5999999046326</ele>
        <time>2020-06-14T11:08:32.000Z</time>
      </trkpt>
      <trkpt lat="47.26398" lon="-2.31663">
        <ele>3.2000000476837</ele>
        <time>2020-06-14T11:08:33.000Z</time>
      </trkpt>
      <trkpt lat="47.26401" lon="-2.31661">
        <ele>3.5999999046326</ele>
        <time>2020-06-14T11:08:34.000Z</time>
      </trkpt>
      <trkpt lat="47.26408" lon="-2.31654">
        <ele>3.5999999046326</ele>
        <time>2020-06-14T11:08:36.000Z</time>
      </trkpt>
      <trkpt lat="47.26408" lon="-2.31642">
        <ele>3.5999999046326</ele>
        <time>2020-06-14T11:08:38.000Z</time>
      </trkpt>
      <trkpt lat="47.26408" lon="-2.31614">
        <ele>3.5999999046326</ele>
        <time>2020-06-14T11:08:43.000Z</time>
      </trkpt>
      <trkpt lat="47.26407" lon="-2.31602">
        <ele>3.5999999046326</ele>
        <time>2020-06-14T11:08:45.000Z</time>
      </trkpt>
      <trkpt lat="47.26406" lon="-2.31568">
        <ele>3.5999999046326</ele>
        <time>2020-06-14T11:08:51.000Z</time>
      </trkpt>
      <trkpt lat="47.26407" lon="-2.31553">
        <ele>3.5999999046326</ele>
        <time>2020-06-14T11:08:54.000Z</time>
      </trkpt>
      <trkpt lat="47.26411" lon="-2.31551">
        <ele>3.5999999046326</ele>
        <time>2020-06-14T11:08:55.000Z</time>
      </trkpt>
      <trkpt lat="47.26418" lon="-2.31552">
        <ele>4</ele>
        <time>2020-06-14T11:08:58.000Z</time>
      </trkpt>
      <trkpt lat="47.26418" lon="-2.31552">
        <ele>4.4000000953674</ele>
        <time>2020-06-14T11:08:59.000Z</time>
      </trkpt>
      <trkpt lat="47.26419" lon="-2.31552">
        <ele>4.8000001907349</ele>
        <time>2020-06-14T11:09:00.000Z</time>
      </trkpt>
      <trkpt lat="47.26419" lon="-2.31553">
        <ele>5.1999998092651</ele>
        <time>2020-06-14T11:09:01.000Z</time>
      </trkpt>
      <trkpt lat="47.26419" lon="-2.31553">
        <ele>5.8000001907349</ele>
        <time>2020-06-14T11:09:02.000Z</time>
      </trkpt>
    </trkseg>
  </trk>
</gpx>